# Wetter Temperatur Luftdruck Luftfeuchtigkeit Sichtweite Windgeschwindigkeit Windrichtung Zeit
1 Clouds 3 1010 86 10000 2.1 170 12:40 14.10.2019
2 Clouds 3 1010 86 10000 2.1 170 12:40 14.10.2019
3 Clouds 3 1010 86 10000 1.5 0 12:19 14.10.2019
4 Clouds 1 1010 86 10000 1 190 11:46 14.10.2019
5 Clouds 1 1010 86 10000 1.5 160 11:27 14.10.2019
6 Clouds 2 1010 86 10000 2.1 150 10:59 14.10.2019
7 Clouds 2 1010 86 10000 2.1 150 10:39 14.10.2019
8 Clouds 2 1010 86 10000 1.5 170 10:20 14.10.2019
9 Clouds 0 1009 63 10000 2.6 150 09:56 14.10.2019
10 Clouds 1 1009 63 10000 2.6 150 09:37 14.10.2019
11 Clouds 1 1009 61 10000 2.1 140 09:18 14.10.2019
12 Clouds 1 1009 61 10000 2.6 110 08:44 14.10.2019
13 Clouds 1 1009 61 10000 2.1 110 08:22 14.10.2019
14 Clouds 0 1009 92 10000 3.1 80 07:42 14.10.2019
15 -273 0 0 0 0 0 07:42 14.10.2019
16 Rain -1 1009 92 10000 1.5 40 07:19 14.10.2019
17 Rain -1 1009 92 10000 1 20 06:48 14.10.2019
18 Clouds -1 1009 92 10000 1 360 06:20 14.10.2019
19 Clouds -1 1009 92 10000 1.5 110 05:49 14.10.2019
20 Clouds -2 1009 92 10000 2.6 100 04:43 14.10.2019
21 Clouds 4 1010 65 0 3.3 85.693 03:27 14.10.2019
22 Clouds 0 1008 70 10000 3.1 120 02:42 14.10.2019
23 Rain 0 1008 70 10000 4.6 110 01:23 14.10.2019
24 Rain 0 1008 70 10000 7.2 110 00:58 14.10.2019
25 Rain 1 1008 71 10000 6.7 100 00:20 14.10.2019
26 Snow 1 1008 71 10000 6.2 90 23:45 13.10.2019
27 Rain 1 1007 71 10000 7.2 90 23:20 13.10.2019
28 Rain 1 1007 71 10000 6.2 90 22:58 13.10.2019
29 Rain 1 1007 71 10000 6.2 90 22:40 13.10.2019
30 Rain 1 1007 71 10000 5.1 90 22:21 13.10.2019
31 Rain 1 1007 71 10000 5.1 90 22:21 13.10.2019
32 Rain 1 1007 71 10000 4.6 80 21:58 13.10.2019
33 Rain 1 1007 71 10000 4.6 80 21:38 13.10.2019
34 Rain 1 1006 72 10000 5.1 70 21:19 13.10.2019
35 Rain 1 1006 72 10000 4.6 40 20:58 13.10.2019
36 Rain 1 1006 71 10000 4.6 40 20:39 13.10.2019
37 Clouds 1 1006 71 10000 4.1 50 20:21 13.10.2019
38 Rain 0 1006 71 10000 4.1 60 19:59 13.10.2019
39 Rain 0 1006 71 10000 4.1 60 19:39 13.10.2019
40 Rain 0 1006 71 10000 4.1 50 19:21 13.10.2019
41 Clouds 1 1006 86 10000 3.1 70 18:57 13.10.2019
42 Clouds 1 1006 86 10000 3.1 70 18:55 13.10.2019
43 Clouds 1 1006 86 10000 3.1 70 18:36 13.10.2019
44 Clouds 1 1005 86 10000 4.1 70 18:18 13.10.2019
45 Rain 2 1005 86 10000 5.7 70 17:43 13.10.2019
46 Rain 3 1005 69 10000 6.2 50 17:25 13.10.2019
47 Rain 2 1005 74 10000 5.1 30 16:58 13.10.2019
48 Rain 2 1005 74 10000 5.1 30 16:40 13.10.2019
49 Rain 3 1005 69 10000 5.1 30 16:18 13.10.2019
50 Clouds 3 1005 80 10000 5.1 30 15:56 13.10.2019
51 Clouds 3 1005 80 10000 5.1 30 15:56 13.10.2019
52 Clouds 3 1005 80 10000 5.1 30 15:37 13.10.2019
53 Clouds 4 1004 74 10000 3.6 40 15:18 13.10.2019
54 Clouds 3 1004 80 10000 4.6 40 14:56 13.10.2019
55 -273 0 0 0 0 0 14:56 13.10.2019
56 Clouds 3 1004 80 10000 4.6 40 14:37 13.10.2019
57 Clouds 3 1004 74 10000 4.6 30 14:18 13.10.2019
58 Clouds 2 1004 80 10000 4.6 30 13:39 13.10.2019
59 Clouds 2 1004 80 10000 4.6 30 13:21 13.10.2019
60 Clouds 2 1003 80 10000 4.1 40 12:57 13.10.2019
61 Clouds 2 1003 80 10000 4.1 40 12:39 13.10.2019
62 Clouds 3 1003 74 10000 4.6 50 12:20 13.10.2019
63 Clouds 2 1003 80 10000 5.1 50 11:58 13.10.2019
64 Clouds 2 1003 80 10000 5.1 50 11:38 13.10.2019
65 Clouds 2 1003 80 10000 5.1 50 11:38 13.10.2019
66 Clouds 2 1003 80 10000 5.7 50 11:19 13.10.2019
67 Clouds 2 1003 80 10000 5.1 60 10:42 13.10.2019
68 Clouds 1 1002 86 10000 4.1 60 10:23 13.10.2019
69 Clouds 1 1002 86 10000 4.6 70 09:58 13.10.2019
70 Clouds 1 1002 86 10000 4.6 70 09:39 13.10.2019
71 Clouds 1 1002 80 10000 4.6 70 09:20 13.10.2019
72 Clouds 0 1002 67 10000 4.1 80 08:43 13.10.2019
73 -273 0 0 0 0 0 08:43 13.10.2019
74 Clouds 1 1002 80 10000 3.1 110 08:23 13.10.2019
75 Clouds 0 1001 67 10000 3.1 120 07:50 13.10.2019
76 Clouds 1 1001 80 10000 4.1 110 07:30 13.10.2019
77 Clouds 0 1001 67 10000 4.1 100 06:48 13.10.2019
78 Clouds 1 1001 86 10000 4.6 110 05:57 13.10.2019
79 Clouds 1 1000 71 10000 6.2 110 04:59 13.10.2019
80 Clouds 1 1000 71 10000 6.2 110 04:33 13.10.2019
81 Clouds 1 1000 75 10000 4.6 110 02:48 13.10.2019
82 Clouds 1 1000 75 10000 4.6 120 02:25 13.10.2019
83 Clouds 1 1000 75 10000 4.1 130 01:34 13.10.2019
84 Clouds 1 999 75 10000 6.2 120 00:53 13.10.2019
85 Clouds 1 999 83 10000 6.7 120 00:23 13.10.2019
86 Clouds 1 999 83 10000 6.2 110 23:59 12.10.2019
87 Clouds 1 999 83 10000 6.2 110 23:40 12.10.2019
88 Drizzle 1 999 83 10000 5.1 110 23:22 12.10.2019
89 Rain 1 999 83 10000 5.1 110 22:58 12.10.2019
90 Rain 1 999 83 10000 5.1 110 22:40 12.10.2019
91 Drizzle 1 999 100 10000 4.6 110 22:21 12.10.2019
92 Drizzle 1 998 100 10000 5.7 110 21:57 12.10.2019
93 Drizzle 1 998 100 10000 5.7 110 21:38 12.10.2019
94 Drizzle 1 998 82 10000 6.2 100 21:20 12.10.2019
95 Drizzle 1 998 82 10000 6.2 100 21:20 12.10.2019
96 Drizzle 1 998 89 10000 5.1 110 20:45 12.10.2019
97 Drizzle 1 998 89 10000 5.1 110 20:45 12.10.2019
98 Rain 1 998 100 10000 3.1 110 20:27 12.10.2019
99 Rain 1 998 100 10000 3.1 130 19:56 12.10.2019
100 Rain 1 998 100 10000 3.1 130 19:36 12.10.2019
101 Drizzle 1 998 100 10000 3.6 120 19:18 12.10.2019
102 Mist 1 998 100 8000 4.1 120 18:41 12.10.2019
103 Clouds 1 998 100 10000 4.6 110 18:23 12.10.2019
104 Clouds 1 997 92 10000 4.6 100 17:45 12.10.2019
105 Clouds 1 997 100 10000 2.6 110 17:21 12.10.2019
106 Drizzle 1 997 92 10000 2.1 70 16:58 12.10.2019
107 Drizzle 1 997 92 10000 2.1 70 16:40 12.10.2019
108 Clouds 2 997 92 10000 1.5 80 16:19 12.10.2019
109 Rain 2 997 92 10000 2.1 90 15:45 12.10.2019
110 Clouds 2 997 92 10000 2.1 90 15:26 12.10.2019
111 Clouds 2 997 91 10000 2.1 90 14:59 12.10.2019
112 Rain 2 997 91 10000 1.5 70 14:38 12.10.2019
113 Clouds 3 997 74 10000 2.6 70 14:20 12.10.2019
114 Clouds 2 997 80 10000 1.5 70 13:49 12.10.2019
115 Clouds 2 997 80 10000 1.5 70 13:31 12.10.2019
116 -273 0 0 0 0 0 12:55 12.10.2019
117 Clouds 3 997 74 10000 1 100 12:37 12.10.2019
118 Clouds 2 997 78 10000 0.5 0 12:18 12.10.2019
119 Clouds 1 996 86 10000 0.5 0 11:41 12.10.2019
120 Clouds 0 996 78 10000 0.5 0 11:22 12.10.2019
121 Clouds 0 996 78 10000 0.5 0 10:58 12.10.2019
122 Clouds 0 996 78 10000 0.5 0 10:38 12.10.2019
123 Clouds 0 996 78 10000 1 0 10:19 12.10.2019
124 Clouds 0 996 78 10000 1 0 09:56 12.10.2019
125 Clouds 0 996 78 10000 1 0 09:56 12.10.2019
126 Clouds 0 996 78 10000 1 0 09:37 12.10.2019
127 Clouds -1 996 92 10000 1.5 60 09:19 12.10.2019
128 Clouds -1 996 92 10000 1 100 08:43 12.10.2019
129 Clouds -1 996 92 10000 1 0 08:23 12.10.2019
130 Clouds 0 996 71 10000 1.5 150 07:49 12.10.2019
131 Clouds 0 996 71 10000 1.5 150 07:30 12.10.2019
132 Clouds -2 996 92 10000 1.5 90 05:54 12.10.2019
133 Clouds -2 996 92 10000 1.5 90 05:26 12.10.2019
134 Clear -1 996 92 10000 1.5 100 04:31 12.10.2019
135 Clear -2 996 92 10000 2.6 80 03:53 12.10.2019
136 Clear -2 996 92 10000 1.5 110 02:37 12.10.2019
137 Clear -2 996 92 10000 2.6 80 01:32 12.10.2019
138 Clear 0 996 70 10000 1 0 00:54 12.10.2019
139 Clear 0 996 70 10000 1 0 00:35 12.10.2019
140 Clear 0 996 68 10000 1.5 130 23:54 11.10.2019
141 Clear 0 996 68 10000 1.5 130 23:36 11.10.2019
142 Clear 0 996 68 10000 1.5 130 23:36 11.10.2019
143 Clear 1 996 68 10000 2.1 110 23:18 11.10.2019
144 Clear 1 996 68 10000 2.1 110 23:18 11.10.2019
145 Clouds 1 996 68 10000 1.5 120 22:37 11.10.2019
146 Clouds 1 996 68 10000 2.6 100 22:18 11.10.2019
147 Clouds 1 996 68 10000 3.1 110 21:42 11.10.2019
148 Clouds 2 996 70 10000 2.6 140 21:21 11.10.2019
149 Clouds 2 996 86 10000 3.6 140 20:57 11.10.2019
150 Clouds 2 996 86 10000 3.6 140 20:38 11.10.2019
151 Clouds 1 996 86 10000 4.1 140 20:19 11.10.2019
152 Clouds 2 996 73 10000 3.6 120 19:55 11.10.2019
153 Clouds 2 996 73 10000 3.6 120 19:36 11.10.2019
154 Rain 2 996 93 10000 3.6 130 19:18 11.10.2019
155 Rain 2 996 93 10000 3.6 130 19:18 11.10.2019
156 Rain 2 996 93 10000 3.6 130 19:18 11.10.2019
157 Rain 2 996 93 10000 4.1 110 18:54 11.10.2019
158 Rain 2 996 93 10000 4.1 110 18:36 11.10.2019
159 Rain 1 996 74 10000 4.1 110 18:18 11.10.2019
160 Rain 2 996 93 10000 3.1 90 17:54 11.10.2019
161 Rain 2 996 93 10000 3.1 90 17:36 11.10.2019
162 Rain 2 995 74 10000 1.5 0 17:18 11.10.2019
163 Rain 2 995 93 10000 1.5 90 16:39 11.10.2019
164 Rain 3 995 93 10000 1 180 16:19 11.10.2019
165 Clouds 3 995 86 10000 1.5 170 15:58 11.10.2019
166 Rain 4 995 86 10000 1.5 170 15:38 11.10.2019
167 Rain 4 995 93 10000 1.5 180 15:18 11.10.2019
168 Rain 4 995 93 10000 1.5 170 14:46 11.10.2019
169 Drizzle 3 995 93 10000 2.6 180 14:28 11.10.2019
170 Clouds 3 995 86 10000 1.5 180 13:56 11.10.2019
171 Clouds 3 995 86 10000 1.5 180 13:37 11.10.2019
172 Drizzle 3 995 93 10000 1.5 190 13:18 11.10.2019
173 Drizzle 3 995 86 10000 1.5 190 12:42 11.10.2019
174 Drizzle 2 995 93 10000 3.1 190 12:22 11.10.2019
175 Rain 2 995 100 10000 2.6 210 12:00 11.10.2019
176 Rain 3 995 100 10000 2.6 210 11:40 11.10.2019
177 Rain 3 995 93 10000 2.6 220 11:21 11.10.2019
178 Rain 3 995 93 10000 2.1 260 10:56 11.10.2019
179 Rain 3 995 93 10000 2.1 260 10:38 11.10.2019
180 Snow 3 995 93 10000 2.1 250 10:20 11.10.2019
181 Snow 3 995 93 10000 2.1 250 10:20 11.10.2019
182 Snow 0 995 100 10000 2.1 260 09:55 11.10.2019
183 Snow 0 995 100 10000 2.1 260 09:37 11.10.2019
184 Snow 0 995 100 10000 2.1 250 09:18 11.10.2019
185 Snow 0 995 100 10000 2.1 250 09:18 11.10.2019
186 Snow 1 995 93 10000 2.6 230 08:54 11.10.2019
187 Snow 1 995 93 10000 2.6 230 08:36 11.10.2019
188 Rain 0 995 100 10000 3.1 240 08:18 11.10.2019
189 Clouds 0 995 75 10000 2.6 260 07:41 11.10.2019
190 Rain 1 995 75 10000 2.1 260 07:22 11.10.2019
191 Rain 1 995 100 10000 2.1 280 06:47 11.10.2019
192 Rain 1 995 100 10000 1 0 06:22 11.10.2019
193 Clouds 1 995 100 10000 1.5 310 05:37 11.10.2019
194 Rain 2 995 93 10000 1 0 04:59 11.10.2019
195 Drizzle 1 995 100 10000 2.1 270 04:24 11.10.2019
196 Rain 1 996 100 10000 2.6 50 02:19 11.10.2019
197 Clouds 1 996 100 10000 3.6 50 00:47 11.10.2019
198 Rain 1 996 100 10000 3.6 60 00:27 11.10.2019
199 Rain 2 996 93 10000 3.6 40 23:44 10.10.2019
200 Rain 1 996 100 7000 3.1 40 23:22 10.10.2019
201 Rain 1 996 76 10000 2.1 40 22:57 10.10.2019
202 Rain 0 996 76 10000 2.1 40 22:39 10.10.2019
203 Clouds 0 996 100 10000 2.6 50 22:20 10.10.2019
204 Clouds 1 996 93 10000 3.6 70 21:57 10.10.2019
205 Clouds 1 996 93 10000 3.6 70 21:39 10.10.2019
206 Clouds 1 996 93 10000 4.1 80 21:20 10.10.2019
207 Drizzle 2 996 100 10000 4.1 80 20:43 10.10.2019
208 Drizzle 3 996 86 10000 5.1 50 20:22 10.10.2019
209 Drizzle 3 996 93 10000 2.6 10 19:59 10.10.2019
210 Drizzle 3 996 93 10000 2.6 10 19:41 10.10.2019
211 Drizzle 3 996 93 10000 2.6 10 19:41 10.10.2019
212 Drizzle 3 996 93 10000 3.1 360 19:20 10.10.2019
213 Clouds 3 997 93 10000 3.6 350 18:59 10.10.2019
214 Clouds 3 997 93 10000 3.6 350 18:39 10.10.2019
215 Clouds 3 997 93 10000 3.1 360 18:20 10.10.2019
216 Clouds 3 997 93 10000 1.5 320 17:55 10.10.2019
217 Clouds 3 997 93 10000 1.5 320 17:36 10.10.2019
218 Clouds 3 997 93 10000 4.1 350 17:18 10.10.2019
219 Clouds 3 997 93 10000 6.2 350 16:44 10.10.2019
220 Rain 4 997 86 10000 8.2 350 16:26 10.10.2019
221 Clouds 5 997 86 10000 5.1 340 15:57 10.10.2019
222 Clouds 5 997 86 10000 5.1 340 15:37 10.10.2019
223 Rain 5 997 75 10000 5.7 350 15:19 10.10.2019
224 Rain 5 997 75 10000 4.1 330 14:54 10.10.2019
225 Rain 5 997 75 10000 4.1 330 14:36 10.10.2019
226 Clouds 5 997 80 10000 3.6 340 14:18 10.10.2019
227 Clouds 6 998 75 10000 3.6 10 13:41 10.10.2019
228 Rain 6 998 80 10000 2.6 20 13:23 10.10.2019
229 Rain 5 998 80 10000 4.1 20 12:57 10.10.2019
230 Rain 5 998 80 10000 4.1 20 12:39 10.10.2019
231 Rain 5 998 86 10000 4.6 50 12:20 10.10.2019
232 Clouds 5 998 80 10000 6.2 50 11:56 10.10.2019
233 Clouds 5 998 80 10000 6.2 50 11:38 10.10.2019
234 Rain 5 998 86 10000 4.1 50 11:19 10.10.2019
235 Rain 4 998 86 10000 5.1 60 10:44 10.10.2019
236 Rain 4 998 86 10000 6.2 50 10:26 10.10.2019
237 Rain 1 998 72 10000 3.6 40 09:56 10.10.2019
238 Rain 1 998 72 10000 3.6 40 09:38 10.10.2019
239 Clouds 4 998 68 10000 2.6 60 09:20 10.10.2019
240 Clouds 3 998 68 10000 2.6 90 08:57 10.10.2019
241 Clouds 3 998 68 10000 2.6 90 08:37 10.10.2019
242 Clouds 3 998 68 10000 3.6 80 08:18 10.10.2019
243 Clouds 3 998 68 10000 4.6 80 07:44 10.10.2019
244 Clouds 1 998 68 10000 5.7 80 07:21 10.10.2019
245 Clouds 1 998 68 10000 6.2 80 06:48 10.10.2019
246 Clouds 2 998 93 10000 6.2 80 06:29 10.10.2019
247 Clouds 3 998 86 10000 6.2 90 05:28 10.10.2019
248 Clouds 3 998 86 10000 5.7 80 04:47 10.10.2019
249 Clouds 3 998 86 10000 5.7 80 04:26 10.10.2019
250 Rain 4 997 86 10000 4.6 20 01:43 10.10.2019
251 Rain 4 997 86 10000 4.6 20 01:43 10.10.2019
252 Rain 4 998 86 10000 8.2 10 01:25 10.10.2019
253 Rain 4 998 86 10000 8.2 10 00:54 10.10.2019
254 Rain 4 998 86 10000 8.7 10 00:22 10.10.2019
255 Rain 4 998 86 10000 7.7 10 23:40 09.10.2019
256 Rain 4 999 86 10000 9.8 10 23:21 09.10.2019
257 Rain 4 999 86 10000 9.3 10 22:56 09.10.2019
258 Rain 4 999 86 10000 9.3 10 22:37 09.10.2019
259 Rain 5 999 86 10000 9.3 20 22:19 09.10.2019
260 Rain 4 999 93 10000 8.2 20 21:40 09.10.2019
261 Clouds 5 999 86 10000 8.2 20 21:21 09.10.2019
262 Rain 5 999 86 10000 8.2 30 20:56 09.10.2019
263 Rain 5 999 86 10000 8.2 30 20:38 09.10.2019
264 Clouds 4 999 86 10000 7.7 40 20:19 09.10.2019
265 Rain 4 1000 86 10000 7.7 40 19:58 09.10.2019
266 Rain 4 1000 86 10000 7.7 40 19:40 09.10.2019
267 Rain 4 1000 86 10000 7.2 30 19:21 09.10.2019
268 Rain 5 1000 86 10000 7.2 20 18:38 09.10.2019
269 Rain 5 1000 86 10000 7.2 30 18:20 09.10.2019
270 Rain 5 1000 80 10000 6.7 40 17:57 09.10.2019
271 Rain 5 1000 80 10000 6.7 40 17:37 09.10.2019
272 Rain 5 1000 86 10000 6.2 40 17:19 09.10.2019
273 Clouds 5 1000 86 10000 6.2 20 16:55 09.10.2019
274 Clouds 5 1000 86 10000 6.2 20 16:37 09.10.2019
275 Rain 5 1000 86 10000 8.7 20 16:18 09.10.2019
276 Rain 5 1001 80 10000 7.2 30 15:55 09.10.2019
277 Rain 5 1001 80 10000 7.2 30 15:36 09.10.2019
278 Clouds 5 1001 80 10000 6.7 40 15:18 09.10.2019
279 Rain 5 1001 80 10000 7.2 30 14:44 09.10.2019
280 Rain 5 1001 80 10000 5.7 30 14:18 09.10.2019
281 Clouds 4 1001 80 10000 5.7 30 13:58 09.10.2019
282 Rain 5 1001 80 10000 5.7 30 13:36 09.10.2019
283 Rain 5 1002 80 10000 6.7 50 13:18 09.10.2019
284 Rain 5 1002 80 10000 7.2 50 12:42 09.10.2019
285 Rain 5 1002 80 10000 6.2 60 12:22 09.10.2019
286 Rain 5 1002 80 10000 6.7 60 11:58 09.10.2019
287 Rain 5 1002 80 10000 6.7 60 11:39 09.10.2019
288 Rain 5 1002 80 10000 7.7 60 11:20 09.10.2019
289 Rain 5 1003 80 10000 8.2 60 10:57 09.10.2019
290 Rain 5 1003 80 10000 8.2 60 10:57 09.10.2019
291 Rain 5 1003 80 10000 8.2 60 10:39 09.10.2019
292 Rain 4 1003 80 10000 10.3 60 10:18 09.10.2019
293 Rain 3 1003 80 10000 8.7 60 09:42 09.10.2019
294 Rain 3 1003 86 10000 10.3 60 09:20 09.10.2019
295 Rain 4 1003 86 10000 9.3 60 08:57 09.10.2019
296 Rain 4 1003 86 10000 9.3 60 08:37 09.10.2019
297 Clouds 2 1003 86 10000 8.2 60 08:18 09.10.2019
298 Clouds 4 1004 86 10000 7.2 60 07:46 09.10.2019
299 Clouds 3 1004 86 10000 6.2 70 07:24 09.10.2019
300 Clouds 3 1004 86 10000 6.2 70 07:24 09.10.2019
301 Clouds 3 1004 86 10000 5.7 60 06:54 09.10.2019
302 Clouds 3 1005 86 10000 6.2 50 06:25 09.10.2019
303 Rain 5 1006 74 0 8.74 73.469 05:47 09.10.2019
304 Clouds 2 1006 74 10000 4.6 60 04:41 09.10.2019
305 Clouds 2 1006 74 10000 5.1 70 03:43 09.10.2019
306 Clouds 2 1007 75 10000 5.1 80 01:55 09.10.2019
307 Clouds 2 1007 73 10000 5.1 80 01:22 09.10.2019
308 Clouds 2 1007 73 10000 5.1 80 01:22 09.10.2019
309 Clouds 2 1008 73 10000 5.7 100 00:59 09.10.2019
310 Clouds 2 1008 73 10000 5.7 100 00:40 09.10.2019
311 Clouds 2 1008 70 10000 5.1 100 00:22 09.10.2019
312 Clouds 1 1008 86 10000 5.7 100 23:58 08.10.2019
313 Clouds 1 1008 86 10000 5.7 100 23:37 08.10.2019
314 Clouds 3 1008 70 10000 6.2 110 23:18 08.10.2019
315 Clouds 3 1009 70 10000 6.2 100 22:41 08.10.2019
316 Clouds 3 1009 70 10000 6.2 100 22:41 08.10.2019
317 Clouds 2 1009 70 10000 5.1 110 22:21 08.10.2019
318 Clouds 4 1009 86 10000 5.7 110 21:58 08.10.2019
319 Clouds 4 1009 86 10000 5.7 110 21:39 08.10.2019
320 Clouds 4 1009 86 10000 5.7 110 21:39 08.10.2019
321 Clouds 3 1010 70 10000 7.2 100 21:20 08.10.2019
322 Clouds 3 1010 70 10000 6.7 100 20:58 08.10.2019
323 Clouds 3 1010 68 10000 6.7 100 20:39 08.10.2019
324 Clouds 3 1010 86 10000 5.1 100 20:21 08.10.2019
325 Clouds 3 1010 68 10000 6.7 110 19:59 08.10.2019
326 Clouds 3 1010 68 10000 6.7 110 19:41 08.10.2019
327 Clouds 3 1010 86 10000 6.2 110 19:23 08.10.2019
328 Clouds 4 1011 68 10000 8.2 120 18:57 08.10.2019
329 Clouds 4 1011 68 10000 8.2 120 18:39 08.10.2019
330 Clouds 4 1011 69 10000 7.2 110 18:19 08.10.2019
331 Clouds 3 1011 69 10000 7.2 110 17:55 08.10.2019
332 Clouds 3 1011 69 10000 7.2 110 17:36 08.10.2019
333 Clouds 2 1011 69 10000 7.7 100 17:18 08.10.2019
334 Rain 4 1011 69 10000 6.2 120 16:41 08.10.2019
335 Clouds 4 1011 69 10000 8.2 110 16:22 08.10.2019
336 Clouds 4 1012 74 10000 10.8 110 15:57 08.10.2019
337 Clouds 4 1012 74 10000 10.8 110 15:37 08.10.2019
338 Clouds 4 1012 74 10000 10.3 110 15:19 08.10.2019
339 Clouds 4 1012 74 10000 10.3 110 15:19 08.10.2019
340 Clouds 4 1012 74 10000 9.8 110 14:42 08.10.2019
341 Clouds 4 1012 74 10000 8.2 110 14:21 08.10.2019
342 Clouds 5 1013 74 10000 9.3 110 13:59 08.10.2019
343 Clouds 5 1013 74 10000 9.3 110 13:39 08.10.2019
344 Clouds 5 1013 74 10000 9.3 110 13:39 08.10.2019
345 Clouds 5 1013 74 10000 10.3 100 13:21 08.10.2019
346 Clouds 4 1013 74 10000 8.2 110 12:59 08.10.2019
347 Clouds 4 1013 74 10000 8.2 110 12:39 08.10.2019
348 Clouds 4 1013 74 10000 6.7 110 12:20 08.10.2019
349 Clouds 4 1014 74 10000 5.7 110 11:56 08.10.2019
350 Clouds 4 1014 74 10000 5.7 110 11:37 08.10.2019
351 Clouds 4 1014 74 10000 7.7 120 11:19 08.10.2019
352 Clouds 4 1014 74 10000 6.7 110 10:40 08.10.2019
353 Clouds 4 1014 69 10000 6.2 110 10:22 08.10.2019
354 Clouds 4 1015 80 10000 6.7 120 09:58 08.10.2019
355 Clouds 4 1015 80 10000 6.7 120 09:40 08.10.2019
356 Clouds 3 1015 86 10000 5.1 120 09:20 08.10.2019
357 Clouds 3 1015 86 10000 5.1 120 08:44 08.10.2019
358 Rain 3 1015 86 10000 6.7 120 08:25 08.10.2019
359 Rain 3 1016 86 10000 7.2 120 07:47 08.10.2019
360 Clouds 1 1016 86 10000 8.2 130 07:23 08.10.2019
361 Clouds 1 1016 86 10000 8.7 120 06:57 08.10.2019
362 Clouds 1 1016 86 10000 8.7 120 06:35 08.10.2019
363 Clouds 1 1016 77 10000 9.3 110 05:59 08.10.2019
364 Clouds 1 1016 77 10000 9.3 110 05:40 08.10.2019
365 Clouds 1 1017 86 10000 8.7 120 04:55 08.10.2019
366 Clouds 1 1017 86 10000 7.7 120 03:30 08.10.2019
367 Clouds 1 1017 86 10000 7.7 120 03:30 08.10.2019
368 Clouds 1 1017 86 10000 7.2 120 02:40 08.10.2019
369 Clouds 2 1018 75 10000 5.1 120 01:56 08.10.2019
370 Clouds 2 1018 75 10000 5.1 120 01:38 08.10.2019
371 Clouds 2 1018 80 10000 6.2 120 00:55 08.10.2019
372 Clouds 2 1018 80 10000 6.2 120 00:23 08.10.2019
373 Clouds 3 1018 74 10000 6.2 120 23:44 07.10.2019
374 Clouds 4 1018 74 10000 7.7 120 23:21 07.10.2019
375 Clouds 4 1018 74 10000 7.7 120 23:21 07.10.2019
376 Clouds 4 1019 80 10000 7.2 120 22:59 07.10.2019
377 Clouds 4 1019 80 10000 7.2 120 22:40 07.10.2019
378 Clouds 4 1019 80 10000 8.2 120 22:21 07.10.2019
379 Clouds 4 1019 75 10000 6.2 120 21:59 07.10.2019
380 Clouds 4 1019 75 10000 6.2 120 21:40 07.10.2019
381 Clouds 3 1019 86 10000 5.1 120 21:20 07.10.2019
382 Clouds 3 1019 86 10000 5.1 120 21:20 07.10.2019
383 Clouds 3 1019 86 10000 5.7 110 20:59 07.10.2019
384 Clouds 4 1019 86 10000 5.7 110 20:39 07.10.2019
385 Clouds 4 1019 86 10000 5.7 110 20:39 07.10.2019
386 Clouds 4 1019 78 10000 5.1 110 20:21 07.10.2019
387 Clouds 4 1019 78 10000 6.2 120 19:59 07.10.2019
388 Clouds 4 1019 78 10000 6.2 120 19:41 07.10.2019
389 Clouds 3 1019 86 10000 6.2 130 19:20 07.10.2019
390 Clouds 3 1019 86 10000 6.2 120 18:59 07.10.2019
391 Clouds 4 1019 86 10000 6.2 120 18:40 07.10.2019
392 Clouds 4 1019 93 10000 5.7 120 18:19 07.10.2019
393 Clouds 4 1019 93 10000 5.1 110 17:54 07.10.2019
394 Clouds 4 1019 93 10000 5.1 110 17:54 07.10.2019
395 Clouds 4 1019 93 10000 5.1 110 17:36 07.10.2019
396 Clouds 5 1019 86 10000 4.6 90 17:18 07.10.2019
397 Clouds 5 1019 86 10000 4.1 110 16:43 07.10.2019
398 Clouds 6 1018 80 10000 4.6 100 16:25 07.10.2019
399 Clouds 6 1018 86 10000 3.1 100 15:46 07.10.2019
400 Clouds 6 1018 75 10000 2.6 110 15:26 07.10.2019
401 Clouds 6 1018 80 10000 1.5 150 14:59 07.10.2019
402 Clouds 6 1018 80 10000 1.5 150 14:40 07.10.2019
403 Clouds 6 1018 86 10000 1.5 0 14:22 07.10.2019
404 Clouds 6 1018 86 10000 1.5 190 13:44 07.10.2019
405 Clouds 6 1018 86 10000 1.5 0 13:21 07.10.2019
406 Rain 6 1018 86 10000 1 0 12:57 07.10.2019
407 Rain 6 1018 86 10000 1 0 12:39 07.10.2019
408 Rain 5 1018 80 10000 1.5 0 12:20 07.10.2019
409 Rain 5 1018 80 10000 1.5 0 12:20 07.10.2019
410 Rain 5 1018 80 10000 1.5 0 11:59 07.10.2019
411 Rain 5 1018 80 10000 1.5 0 11:39 07.10.2019
412 Rain 5 1018 80 10000 1.5 90 11:20 07.10.2019
413 Rain 5 1017 93 10000 2.1 20 10:42 07.10.2019
414 Rain 5 1017 86 10000 3.1 360 10:23 07.10.2019
415 Rain 4 1017 86 10000 4.1 360 09:57 07.10.2019
416 Rain 4 1017 86 10000 4.1 360 09:38 07.10.2019
417 Rain 4 1017 86 10000 4.1 360 09:38 07.10.2019
418 Rain 4 1017 86 10000 5.1 360 09:20 07.10.2019
419 Drizzle 4 1016 86 10000 5.1 10 08:43 07.10.2019
420 Rain 4 1016 86 10000 6.2 360 08:20 07.10.2019
421 Rain 4 1016 93 10000 5.7 360 07:49 07.10.2019
422 Rain 4 1016 80 10000 6.2 330 07:28 07.10.2019
423 Clouds 4 1016 80 10000 6.7 340 06:58 07.10.2019
424 Clouds 4 1016 80 10000 6.7 340 06:38 07.10.2019
425 Rain 4 1016 86 10000 7.7 360 06:19 07.10.2019
426 Clouds 4 1015 80 10000 7.7 340 05:26 07.10.2019
427 Clouds 4 1015 86 10000 6.2 350 04:50 07.10.2019
428 Clouds 4 1015 80 10000 8.7 340 03:48 07.10.2019
429 Clouds 4 1015 80 10000 8.7 340 03:48 07.10.2019
430 Clouds 4 1015 80 10000 8.7 340 03:30 07.10.2019
431 Clouds 4 1015 80 10000 11.8 340 02:39 07.10.2019
432 Clouds 4 1015 80 10000 11.8 340 02:19 07.10.2019
433 Clouds 4 1015 80 10000 11.8 340 02:19 07.10.2019
434 Rain 5 1014 75 10000 11.3 340 01:24 07.10.2019
435 Rain 4 1014 80 10000 12.9 340 00:53 07.10.2019
436 Rain 5 1014 75 10000 10.8 330 00:26 07.10.2019
437 Rain 5 1014 80 10000 11.8 340 23:59 06.10.2019
438 Rain 5 1014 80 10000 11.8 340 23:40 06.10.2019
439 Rain 6 1014 86 10000 11.8 330 23:20 06.10.2019
440 Rain 5 1014 86 10000 12.3 330 22:57 06.10.2019
441 Rain 5 1014 86 10000 12.3 330 22:39 06.10.2019
442 Rain 5 1013 86 10000 10.3 320 22:20 06.10.2019
443 Rain 5 1013 86 10000 10.3 320 22:20 06.10.2019
444 Drizzle 6 1013 86 10000 12.3 330 21:55 06.10.2019
445 Drizzle 6 1013 86 10000 12.3 330 21:37 06.10.2019
446 Rain 6 1013 80 10000 9.8 320 21:18 06.10.2019
447 Rain 6 1013 80 10000 10.8 330 20:56 06.10.2019
448 Rain 6 1013 80 10000 10.8 330 20:38 06.10.2019
449 Rain 6 1013 80 10000 10.8 330 20:38 06.10.2019
450 Clouds 5 1013 80 10000 13.4 340 20:19 06.10.2019
451 Clouds 5 1013 80 10000 13.4 340 20:19 06.10.2019
452 Clouds 5 1013 80 10000 12.9 330 19:56 06.10.2019
453 Clouds 5 1013 80 10000 12.9 330 19:37 06.10.2019
454 Rain 5 1013 86 10000 12.9 330 19:18 06.10.2019
455 Drizzle 5 1013 86 10000 14.4 330 18:55 06.10.2019
456 Drizzle 5 1013 86 10000 14.4 330 18:37 06.10.2019
457 Drizzle 5 1012 80 10000 14.4 320 18:18 06.10.2019
458 Drizzle 5 1012 80 10000 14.4 320 18:18 06.10.2019
459 Rain 6 1012 81 10000 14.9 320 17:43 06.10.2019
460 Rain 6 1012 86 10000 15.4 320 17:20 06.10.2019
461 Rain 6 1012 81 10000 13.9 310 16:56 06.10.2019
462 Rain 6 1012 81 10000 13.9 310 16:38 06.10.2019
463 Drizzle 6 1012 81 10000 15.4 310 16:19 06.10.2019
464 Rain 6 1012 80 10000 14.4 310 15:44 06.10.2019
465 Rain 7 1012 81 10000 15.9 310 15:22 06.10.2019
466 Rain 6 1012 86 10000 14.9 310 14:58 06.10.2019
467 Rain 6 1012 86 10000 14.9 310 14:40 06.10.2019
468 Rain 5 1012 86 10000 14.9 310 14:21 06.10.2019
469 Rain 6 1012 81 10000 15.4 310 13:55 06.10.2019
470 Rain 6 1012 81 10000 15.4 310 13:37 06.10.2019
471 Rain 5 1012 86 10000 14.9 310 13:18 06.10.2019
472 Rain 5 1012 86 10000 15.9 310 12:55 06.10.2019
473 Rain 5 1012 86 10000 15.9 310 12:55 06.10.2019
474 Rain 5 1012 86 10000 15.9 310 12:37 06.10.2019
475 Rain 5 1012 86 10000 14.9 310 12:19 06.10.2019
476 Rain 5 1012 86 10000 14.4 300 11:43 06.10.2019
477 -273 0 0 0 0 0 11:24 06.10.2019
478 Rain 5 1012 86 10000 14.9 310 10:58 06.10.2019
479 Rain 5 1012 86 10000 14.9 310 10:39 06.10.2019
480 Rain 5 1012 86 10000 14.9 310 10:21 06.10.2019
481 Rain 5 1012 86 10000 13.9 300 09:41 06.10.2019
482 Rain 5 1012 86 10000 15.9 300 09:21 06.10.2019
483 Rain 5 1012 86 10000 14.9 310 08:57 06.10.2019
484 Rain 5 1012 86 10000 14.9 310 08:38 06.10.2019
485 Drizzle 5 1012 86 10000 13.4 300 08:19 06.10.2019
486 Rain 5 1012 80 10000 15.9 310 07:40 06.10.2019
487 Rain 5 1012 86 10000 15.9 300 06:59 06.10.2019
488 Drizzle 5 1012 86 10000 15.4 310 05:57 06.10.2019
489 Rain 5 1013 86 10000 13.4 300 04:44 06.10.2019
490 Rain 5 1013 86 10000 13.4 300 04:44 06.10.2019
491 Rain 5 1013 86 10000 13.4 300 04:44 06.10.2019
492 Rain 6 1014 81 10000 11.3 300 02:56 06.10.2019
493 Rain 6 1014 81 10000 11.3 300 02:37 06.10.2019
494 Clouds 5 1015 86 10000 11.3 290 01:50 06.10.2019
495 Clouds 5 1015 86 10000 11.3 290 01:31 06.10.2019
496 Clouds 5 1015 80 10000 10.3 300 00:59 06.10.2019
497 Clouds 5 1015 80 10000 10.3 300 00:40 06.10.2019
498 Rain 5 1015 86 10000 10.8 310 00:20 06.10.2019
499 Rain 5 1015 80 10000 10.3 300 23:42 05.10.2019
500 Rain 5 1015 80 10000 11.8 300 23:21 05.10.2019
501 Rain 5 1016 80 10000 11.3 310 22:56 05.10.2019
502 Rain 5 1016 80 10000 11.3 310 22:38 05.10.2019
503 Rain 5 1016 80 10000 11.3 310 22:38 05.10.2019
504 Drizzle 5 1016 86 10000 11.8 320 22:19 05.10.2019
505 Rain 5 1016 86 10000 10.3 320 21:42 05.10.2019
506 Rain 5 1016 86 10000 11.3 320 21:24 05.10.2019
507 Rain 5 1016 80 10000 11.3 320 20:58 05.10.2019
508 Rain 5 1016 80 10000 11.3 320 20:40 05.10.2019
509 Rain 5 1016 86 10000 11.8 320 20:20 05.10.2019
510 Rain 5 1016 86 10000 10.3 310 19:57 05.10.2019
511 Rain 5 1016 86 10000 10.3 310 19:37 05.10.2019
512 Rain 5 1016 86 10000 11.8 310 19:18 05.10.2019
513 Rain 5 1016 86 10000 11.3 320 18:55 05.10.2019
514 Rain 5 1016 86 10000 11.3 320 18:36 05.10.2019
515 Rain 5 1016 86 10000 10.3 320 18:18 05.10.2019
516 Rain 5 1016 80 10000 9.8 310 17:42 05.10.2019
517 Drizzle 5 1016 86 10000 9.8 320 17:22 05.10.2019
518 Rain 5 1016 80 10000 10.3 310 16:56 05.10.2019
519 Rain 5 1016 80 10000 10.3 310 16:37 05.10.2019
520 Rain 5 1016 86 10000 9.3 300 16:19 05.10.2019
521 Rain 5 1016 86 10000 9.3 310 15:56 05.10.2019
522 Rain 5 1016 86 10000 9.3 310 15:37 05.10.2019
523 Rain 5 1016 80 10000 8.7 310 15:19 05.10.2019
524 Rain 5 1016 80 10000 8.7 310 14:42 05.10.2019
525 Rain 5 1016 86 10000 7.7 300 14:24 05.10.2019
526 Rain 5 1016 80 10000 8.7 310 13:58 05.10.2019
527 Rain 5 1016 80 10000 8.7 310 13:39 05.10.2019
528 Rain 5 1016 80 10000 8.2 310 13:18 05.10.2019
529 Rain 5 1016 80 10000 7.7 320 12:42 05.10.2019
530 Rain 5 1016 86 10000 8.7 320 12:19 05.10.2019
531 Rain 5 1016 86 10000 7.7 320 11:43 05.10.2019
532 Rain 5 1016 80 10000 8.7 310 11:21 05.10.2019
533 Rain 5 1016 80 10000 8.7 320 10:58 05.10.2019
534 Rain 5 1016 80 10000 8.7 320 10:39 05.10.2019
535 Rain 5 1016 80 10000 8.2 320 10:21 05.10.2019
536 Rain 5 1016 86 10000 8.7 320 09:55 05.10.2019
537 Rain 5 1016 86 10000 8.7 320 09:37 05.10.2019
538 Rain 4 1015 86 10000 6.7 320 09:18 05.10.2019
539 Rain 4 1016 86 10000 5.1 300 08:39 05.10.2019
540 Clouds 4 1016 86 10000 6.2 310 08:19 05.10.2019
541 Clouds 4 1016 86 10000 6.7 290 07:52 05.10.2019
542 Rain 4 1016 86 10000 8.2 300 07:30 05.10.2019
543 Clouds 4 1016 86 10000 7.2 300 06:56 05.10.2019
544 Clouds 4 1016 86 10000 7.2 300 06:23 05.10.2019
545 Rain 7 1017 69 0 6.78 316.614 05:39 05.10.2019
546 Rain 4 1016 86 10000 5.7 280 03:34 05.10.2019
547 Rain 4 1017 86 10000 4.1 280 02:45 05.10.2019
548 Clouds 3 1017 93 10000 5.1 260 01:29 05.10.2019
549 Rain 3 1017 93 10000 5.7 270 00:49 05.10.2019
550 Rain 3 1017 93 10000 6.7 260 00:28 05.10.2019
551 Clouds 3 1017 93 10000 6.7 250 23:59 04.10.2019
552 Clouds 3 1017 93 10000 6.7 250 23:41 04.10.2019
553 Rain 4 1018 93 10000 7.2 250 23:23 04.10.2019
554 Rain 4 1018 93 10000 6.2 260 22:57 04.10.2019
555 Rain 4 1018 93 10000 6.2 260 22:38 04.10.2019
556 Rain 4 1018 93 10000 7.2 260 22:19 04.10.2019
557 Clouds 4 1018 93 10000 6.7 250 21:55 04.10.2019
558 Clouds 4 1018 93 10000 6.7 250 21:36 04.10.2019
559 Rain 4 1018 93 10000 6.2 270 21:18 04.10.2019
560 Rain 4 1018 93 10000 6.2 250 20:42 04.10.2019
561 Clouds 3 1019 93 10000 6.2 260 20:23 04.10.2019
562 Clouds 3 1019 86 10000 7.2 270 19:58 04.10.2019
563 Clouds 3 1019 86 10000 7.2 270 19:39 04.10.2019
564 Rain 3 1019 93 10000 7.2 260 19:20 04.10.2019
565 Rain 3 1019 86 10000 6.7 250 18:56 04.10.2019
566 Rain 3 1019 86 10000 6.7 250 18:37 04.10.2019
567 Clouds 3 1019 86 10000 6.2 260 18:18 04.10.2019
568 Clouds 3 1019 86 10000 6.2 260 18:18 04.10.2019
569 Rain 4 1019 86 10000 7.2 260 17:41 04.10.2019
570 Rain 4 1019 86 10000 7.2 260 17:41 04.10.2019
571 Rain 4 1019 86 10000 6.7 260 17:22 04.10.2019
572 Rain 4 1019 86 10000 6.7 250 16:58 04.10.2019
573 Rain 4 1019 86 10000 6.7 250 16:40 04.10.2019
574 Rain 4 1020 80 10000 5.1 250 16:19 04.10.2019
575 Clouds 5 1020 80 10000 5.7 260 15:58 04.10.2019
576 Clouds 5 1020 80 10000 5.7 260 15:39 04.10.2019
577 Clouds 5 1020 80 10000 6.2 260 15:20 04.10.2019
578 Rain 4 1020 86 10000 5.1 240 14:57 04.10.2019
579 Rain 4 1020 86 10000 5.1 240 14:39 04.10.2019
580 Snow 3 1020 86 10000 5.7 260 14:21 04.10.2019
581 Rain 4 1021 86 10000 6.7 270 13:45 04.10.2019
582 Rain 4 1021 75 10000 4.1 250 13:23 04.10.2019
583 Clouds 3 1021 80 10000 4.6 280 12:56 04.10.2019
584 Clouds 3 1021 80 10000 4.6 280 12:37 04.10.2019
585 Clouds 3 1021 64 10000 4.6 240 12:18 04.10.2019
586 Clouds 3 1021 64 10000 4.1 240 11:42 04.10.2019
587 Clouds 3 1021 64 10000 4.1 240 11:42 04.10.2019
588 Clouds 3 1021 86 10000 5.1 250 11:21 04.10.2019
589 Clouds 3 1021 86 10000 5.1 260 10:42 04.10.2019
590 Clouds 2 1021 74 10000 5.1 250 10:22 04.10.2019
591 Clouds 2 1021 64 10000 4.6 250 09:58 04.10.2019
592 Clouds 2 1021 64 10000 4.6 250 09:58 04.10.2019
593 Clouds 2 1021 64 10000 4.6 250 09:40 04.10.2019
594 Clouds 2 1021 64 10000 4.6 250 09:40 04.10.2019
595 Clouds 2 1021 74 10000 4.6 260 09:22 04.10.2019
596 Rain 2 1021 86 10000 3.6 270 08:45 04.10.2019
597 Rain 2 1021 68 10000 5.1 270 08:26 04.10.2019
598 Snow 3 1021 68 10000 5.7 270 07:47 04.10.2019
599 Clouds 1 1021 86 10000 4.6 270 07:24 04.10.2019
600 Rain 1 1021 86 10000 5.1 290 06:58 04.10.2019
601 Rain 1 1021 86 10000 5.1 290 06:39 04.10.2019
602 Clouds 2 1022 68 10000 5.7 290 06:20 04.10.2019
603 Clouds 2 1022 68 10000 5.7 290 06:20 04.10.2019
604 Rain 1 1022 86 10000 5.1 270 05:20 04.10.2019
605 Clouds 1 1022 86 10000 3.6 250 04:37 04.10.2019
606 Clouds 0 1022 62 10000 3.6 250 03:18 04.10.2019
607 Clouds -1 1022 100 10000 3.1 250 02:43 04.10.2019
608 Clouds 0 1022 62 10000 2.1 310 01:53 04.10.2019
609 Clouds 0 1022 62 10000 2.1 310 01:53 04.10.2019
610 Clouds 0 1022 60 10000 2.1 310 01:26 04.10.2019
611 Clouds 0 1023 60 10000 2.6 340 00:33 04.10.2019
612 Clouds 2 1023 64 10000 3.1 260 23:40 03.10.2019
613 Snow 2 1023 86 10000 2.6 260 23:21 03.10.2019
614 Clouds 2 1023 80 10000 2.6 330 22:57 03.10.2019
615 Clouds 2 1023 80 10000 2.6 330 22:39 03.10.2019
616 Clouds 2 1023 80 10000 2.6 330 22:39 03.10.2019
617 Clouds 2 1022 64 10000 3.6 350 22:21 03.10.2019
618 Clouds 2 1022 64 10000 3.6 350 22:21 03.10.2019
619 Clouds 2 1022 64 10000 6.7 340 21:58 03.10.2019
620 Clouds 2 1022 64 10000 6.7 340 21:39 03.10.2019
621 Clouds 2 1022 64 10000 5.1 360 21:20 03.10.2019
622 Clouds 3 1022 64 10000 2.6 340 20:58 03.10.2019
623 Clouds 3 1022 64 10000 2.6 340 20:58 03.10.2019
624 Clouds 3 1022 66 10000 2.6 340 20:39 03.10.2019
625 Clouds 3 1022 66 10000 4.6 350 20:20 03.10.2019
626 Clouds 3 1022 86 10000 5.1 360 19:56 03.10.2019
627 Clouds 3 1022 86 10000 5.1 360 19:38 03.10.2019
628 Clouds 3 1022 86 3000 5.1 320 19:19 03.10.2019
629 Rain 1 1022 66 10000 2.6 270 18:56 03.10.2019
630 Rain 1 1022 66 10000 2.6 270 18:37 03.10.2019
631 Rain 1 1022 66 10000 2.6 280 18:18 03.10.2019
632 Rain 3 1023 66 10000 1 0 17:42 03.10.2019
633 Rain 3 1023 66 10000 4.6 290 17:21 03.10.2019
634 Rain 3 1023 66 10000 5.7 280 16:57 03.10.2019
635 Rain 3 1023 66 10000 5.7 280 16:39 03.10.2019
636 Rain 3 1023 86 10000 4.6 300 16:20 03.10.2019
637 Clouds 3 1023 86 10000 5.7 290 15:44 03.10.2019
638 Rain 4 1023 64 10000 5.1 320 15:24 03.10.2019
639 Rain 4 1023 64 10000 6.2 310 14:58 03.10.2019
640 Rain 4 1023 64 10000 6.2 310 14:37 03.10.2019
641 Rain 4 1023 64 10000 5.7 320 14:18 03.10.2019
642 Clouds 3 1023 69 10000 7.2 320 13:44 03.10.2019
643 Clouds 3 1023 74 10000 6.7 330 13:25 03.10.2019
644 Clouds 3 1023 74 10000 6.7 330 13:25 03.10.2019
645 Clouds 3 1023 69 10000 7.2 340 12:59 03.10.2019
646 Clouds 3 1023 69 10000 7.2 340 12:39 03.10.2019
647 Clouds 3 1023 69 10000 7.2 340 12:39 03.10.2019
648 Clouds 3 1022 69 10000 9.3 340 12:20 03.10.2019
649 Clouds 3 1023 64 10000 7.2 340 11:58 03.10.2019
650 Rain 3 1023 64 10000 7.2 340 11:40 03.10.2019
651 Rain 3 1022 64 10000 7.2 330 11:21 03.10.2019
652 Rain 3 1022 80 10000 6.7 330 10:57 03.10.2019
653 Rain 3 1022 80 10000 6.7 330 10:38 03.10.2019
654 Rain 2 1022 86 10000 7.7 320 10:18 03.10.2019
655 Rain 2 1022 86 2000 8.2 320 09:56 03.10.2019
656 Rain 2 1022 86 2000 8.2 320 09:37 03.10.2019
657 Rain 3 1022 80 10000 5.7 340 09:19 03.10.2019
658 Rain 2 1022 86 10000 8.2 350 08:42 03.10.2019
659 Rain 3 1022 80 10000 8.7 350 08:23 03.10.2019
660 Rain 3 1022 80 10000 10.3 350 07:42 03.10.2019
661 Rain 3 1021 69 10000 8.7 350 07:20 03.10.2019
662 Rain 3 1021 69 10000 8.7 350 06:52 03.10.2019
663 Rain 2 1021 71 10000 8.2 340 06:27 03.10.2019
664 Snow 2 1021 80 10000 5.1 340 05:49 03.10.2019
665 Snow 2 1021 80 10000 5.1 340 05:27 03.10.2019
666 Rain 2 1021 92 10000 8.2 340 04:45 03.10.2019
667 -273 0 0 0 0 0 03:54 03.10.2019
668 Clouds 2 1021 69 10000 4.6 320 03:19 03.10.2019
669 Rain 1 1021 86 10000 3.6 350 02:22 03.10.2019
670 Rain 2 1021 80 10000 5.7 10 01:40 03.10.2019
671 Rain 2 1021 80 10000 9.8 10 00:53 03.10.2019
672 Rain 2 1021 80 10000 9.8 10 00:31 03.10.2019
673 Rain 2 1021 80 10000 6.7 10 23:55 02.10.2019
674 Rain 2 1021 80 10000 6.7 10 23:36 02.10.2019
675 Clouds 3 1020 86 10000 5.7 20 23:18 02.10.2019
676 Rain 3 1020 86 10000 5.7 60 22:41 02.10.2019
677 Clouds 3 1020 74 10000 6.2 20 22:20 02.10.2019
678 Clouds 3 1020 69 10000 5.1 20 21:55 02.10.2019
679 Clouds 3 1020 69 10000 5.1 20 21:55 02.10.2019
680 Clouds 3 1020 69 10000 5.1 20 21:37 02.10.2019
681 Clouds 3 1020 80 10000 5.7 30 21:18 02.10.2019
682 Clouds 3 1020 80 10000 5.7 30 21:18 02.10.2019
683 Rain 2 1020 80 10000 5.1 30 20:55 02.10.2019
684 Rain 2 1020 80 10000 5.1 30 20:55 02.10.2019
685 Rain 2 1020 80 10000 5.1 30 20:37 02.10.2019
686 Rain 2 1020 80 10000 6.7 40 20:19 02.10.2019
687 Clouds 3 1020 64 10000 7.2 20 19:44 02.10.2019
688 Clouds 1 1019 86 10000 8.7 30 19:23 02.10.2019
689 Rain 2 1019 80 10000 6.2 50 18:58 02.10.2019
690 Rain 2 1019 80 10000 6.2 50 18:39 02.10.2019
691 Clouds 3 1019 74 10000 7.7 40 18:21 02.10.2019
692 Clouds 3 1019 69 10000 7.2 60 17:58 02.10.2019
693 Clouds 3 1019 69 10000 7.2 60 17:38 02.10.2019
694 Rain 3 1019 74 10000 8.2 70 17:20 02.10.2019
695 Rain 3 1018 74 10000 8.7 80 16:57 02.10.2019
696 Rain 3 1018 74 10000 8.7 80 16:37 02.10.2019
697 Rain 5 1018 70 10000 5.7 80 16:18 02.10.2019
698 Rain 5 1018 70 10000 5.7 80 15:55 02.10.2019
699 Rain 5 1018 70 10000 5.7 90 15:36 02.10.2019
700 Rain 5 1018 68 10000 5.7 90 15:18 02.10.2019
701 Rain 3 1017 68 10000 6.7 80 14:43 02.10.2019
702 Rain 3 1018 68 10000 6.2 70 14:22 02.10.2019
703 Snow 5 1017 69 10000 5.7 80 13:56 02.10.2019
704 Rain 4 1017 69 10000 6.7 70 13:37 02.10.2019
705 Rain 4 1017 69 10000 6.7 70 13:19 02.10.2019
706 Rain 3 1016 69 10000 7.7 70 12:39 02.10.2019
707 Rain 3 1016 69 10000 7.7 70 12:39 02.10.2019
708 Rain 3 1016 69 10000 7.7 70 12:21 02.10.2019
709 Rain 5 1016 69 10000 6.7 70 11:55 02.10.2019
710 Rain 4 1016 74 10000 6.7 80 11:36 02.10.2019
711 Rain 4 1016 74 10000 6.7 80 11:18 02.10.2019
712 Rain 4 1016 74 10000 6.7 80 11:18 02.10.2019
713 Rain 4 1015 74 10000 7.2 70 10:38 02.10.2019
714 Rain 4 1015 74 10000 7.2 70 10:18 02.10.2019
715 Rain 4 1015 68 10000 7.7 80 09:40 02.10.2019
716 Rain 4 1015 66 10000 7.7 80 09:20 02.10.2019
717 Rain 3 1015 67 10000 7.7 80 08:55 02.10.2019
718 Rain 3 1014 67 10000 9.8 70 08:36 02.10.2019
719 Rain 3 1014 67 10000 9.8 70 08:18 02.10.2019
720 Clouds 2 1014 67 10000 8.7 60 07:39 02.10.2019
721 Clouds 2 1014 67 10000 8.7 60 07:21 02.10.2019
722 Snow 1 1014 86 10000 11.8 90 06:48 02.10.2019
723 Clouds 2 1014 80 10000 7.2 70 05:56 02.10.2019
724 Clouds 2 1014 80 10000 7.2 70 05:25 02.10.2019
725 Clouds 2 1014 66 10000 8.2 80 04:56 02.10.2019
726 Rain 2 1013 80 10000 10.8 90 03:53 02.10.2019
727 Clouds 1 1013 67 10000 8.2 90 02:47 02.10.2019
728 Clouds 1 1013 67 10000 8.2 90 02:24 02.10.2019
729 Clouds 2 1013 80 10000 8.7 100 01:46 02.10.2019
730 Clouds 3 1013 74 10000 9.8 100 00:51 02.10.2019
731 Clouds 3 1013 74 10000 8.7 90 00:29 02.10.2019
732 Clouds 3 1012 74 10000 8.7 90 23:46 01.10.2019
733 Clouds 3 1012 74 10000 11.3 90 23:27 01.10.2019
734 Clouds 5 1012 69 10000 10.3 80 22:59 01.10.2019
735 Clouds 4 1012 65 10000 8.7 80 22:41 01.10.2019
736 Clouds 4 1012 65 10000 8.7 80 22:20 01.10.2019
737 Clouds 4 1012 74 10000 10.3 100 21:59 01.10.2019
738 Clouds 4 1011 65 10000 9.8 90 21:40 01.10.2019
739 Clouds 4 1011 66 10000 9.8 90 21:22 01.10.2019
740 Clouds 4 1011 66 10000 9.8 90 21:22 01.10.2019
741 Clouds 4 1011 74 10000 9.8 90 20:57 01.10.2019
742 Clouds 4 1011 74 10000 10.3 90 20:38 01.10.2019
743 Clouds 4 1011 74 10000 10.3 90 20:20 01.10.2019
744 Clouds 5 1011 69 10000 11.3 100 19:56 01.10.2019
745 Clouds 5 1010 69 10000 12.9 100 19:38 01.10.2019
746 Clouds 5 1010 69 10000 12.9 100 19:20 01.10.2019
747 Clouds 5 1010 66 10000 9.3 100 18:54 01.10.2019
748 Clouds 5 1010 66 10000 9.8 100 18:36 01.10.2019
749 Clouds 5 1010 66 10000 9.8 100 18:18 01.10.2019
750 Rain 5 1010 66 10000 12.9 90 17:42 01.10.2019
751 Rain 5 1010 66 10000 12.9 90 17:42 01.10.2019
752 Rain 5 1010 66 10000 12.9 90 17:20 01.10.2019
753 Rain 5 1009 66 10000 13.4 90 16:58 01.10.2019
754 Rain 5 1009 66 10000 13.4 100 16:40 01.10.2019
755 Rain 5 1009 66 10000 13.4 100 16:21 01.10.2019
756 Rain 5 1009 75 10000 13.4 90 15:47 01.10.2019
757 Rain 5 1008 80 10000 14.4 100 15:24 01.10.2019
758 Rain 6 1008 65 10000 15.4 90 14:56 01.10.2019
759 Rain 6 1008 65 10000 12.3 80 14:37 01.10.2019
760 Rain 6 1008 65 10000 12.3 80 14:19 01.10.2019
761 Clouds 7 1007 65 10000 15.4 100 13:41 01.10.2019
762 Clouds 7 1007 66 10000 15.4 100 13:22 01.10.2019
763 Clouds 6 1007 75 10000 13.4 90 12:59 01.10.2019
764 Rain 6 1007 75 10000 15.4 100 12:41 01.10.2019
765 Rain 6 1007 75 10000 15.4 100 12:20 01.10.2019
766 Rain 6 1007 75 10000 15.4 100 11:58 01.10.2019
767 Clouds 6 1006 80 10000 13.9 90 11:38 01.10.2019
768 Clouds 6 1006 80 10000 13.9 90 11:19 01.10.2019
769 Clouds 6 1006 80 10000 13.9 90 11:19 01.10.2019
770 Clouds 6 1006 80 10000 14.9 100 10:58 01.10.2019
771 Clouds 6 1005 75 10000 14.9 100 10:40 01.10.2019
772 Clouds 6 1005 75 10000 14.9 100 10:22 01.10.2019
773 Rain 6 1005 75 10000 14.9 100 09:42 01.10.2019
774 Rain 6 1005 75 10000 15.4 90 09:21 01.10.2019
775 Rain 6 1004 75 10000 14.4 100 08:43 01.10.2019
776 Rain 6 1004 75 10000 14.4 100 08:43 01.10.2019
777 Rain 6 1004 75 10000 17.5 100 08:25 01.10.2019
778 Rain 6 1003 86 10000 17 90 07:49 01.10.2019
779 Clouds 5 1003 80 10000 17 90 07:25 01.10.2019
780 Clouds 5 1003 80 10000 16.5 90 06:50 01.10.2019
781 Clouds 5 1003 80 10000 15.9 90 06:23 01.10.2019
782 Clouds 5 1002 80 10000 15.9 90 05:46 01.10.2019
783 Clouds 5 1002 80 10000 15.9 90 05:46 01.10.2019
784 Clouds 5 1002 80 10000 15.9 90 05:19 01.10.2019
785 Clouds 5 1001 80 10000 15.9 100 04:35 01.10.2019
786 Clouds 5 1001 80 10000 14.4 100 03:25 01.10.2019
787 Clouds 5 1000 80 10000 14.9 100 02:18 01.10.2019
788 Rain 5 1000 80 10000 15.4 100 01:28 01.10.2019
789 Clouds 5 999 80 10000 12.3 90 00:40 01.10.2019
790 Clouds 5 999 80 10000 12.3 90 00:22 01.10.2019
791 Clouds 5 998 75 10000 11.8 100 23:41 30.09.2019
792 Clouds 6 998 75 10000 11.8 100 23:22 30.09.2019
793 Clouds 6 998 75 10000 10.8 100 22:46 30.09.2019
794 Clouds 6 998 75 10000 11.3 100 22:26 30.09.2019
795 Clouds 6 998 80 10000 11.3 100 21:58 30.09.2019
796 Clouds 6 997 80 10000 11.8 100 21:40 30.09.2019
797 Clouds 6 997 80 10000 11.8 100 21:20 30.09.2019
798 Clouds 6 997 80 10000 14.4 100 20:58 30.09.2019
799 Clouds 6 996 80 10000 15.4 100 20:39 30.09.2019
800 Clouds 6 996 80 10000 15.4 100 20:21 30.09.2019
801 Clouds 5 996 80 10000 14.4 100 19:58 30.09.2019
802 -273 0 0 0 0 0 19:40 30.09.2019
803 Drizzle 5 996 80 10000 13.9 90 19:20 30.09.2019
804 Clouds 5 996 80 10000 12.9 90 18:58 30.09.2019
805 Clouds 5 996 80 10000 12.9 90 18:40 30.09.2019
806 Clouds 5 996 80 10000 12.9 90 18:20 30.09.2019
807 Clouds 5 996 80 10000 13.4 90 17:55 30.09.2019
808 Clouds 5 996 80 10000 12.3 100 17:37 30.09.2019
809 Clouds 6 996 80 10000 12.3 100 17:18 30.09.2019
810 Clouds 6 996 80 10000 11.8 90 16:42 30.09.2019
811 Clouds 6 996 80 10000 11.8 90 16:20 30.09.2019
812 Clouds 6 996 80 10000 11.8 90 16:20 30.09.2019
813 Rain 6 996 80 10000 11.8 80 15:59 30.09.2019
814 Rain 6 995 80 10000 11.3 90 15:39 30.09.2019
815 Rain 6 995 80 10000 11.3 90 15:39 30.09.2019
816 Rain 6 995 80 10000 11.3 90 15:19 30.09.2019
817 Rain 6 995 86 10000 9.8 90 14:58 30.09.2019
818 Rain 6 995 86 10000 9.8 90 14:38 30.09.2019
819 Rain 6 995 86 10000 9.8 90 14:19 30.09.2019
820 Rain 6 995 80 10000 10.8 80 13:59 30.09.2019
821 Rain 6 995 86 10000 10.8 90 13:40 30.09.2019
822 Rain 6 995 86 10000 10.8 90 13:21 30.09.2019
823 Rain 5 995 86 10000 11.3 90 12:44 30.09.2019
824 Rain 5 995 86 10000 11.3 90 12:44 30.09.2019
825 Rain 5 995 86 10000 11.3 90 12:25 30.09.2019
826 Rain 5 995 86 10000 10.3 90 11:59 30.09.2019
827 Rain 5 995 93 10000 10.3 90 11:40 30.09.2019
828 Rain 5 995 93 10000 10.3 90 11:21 30.09.2019
829 Rain 5 995 86 10000 8.7 90 10:56 30.09.2019
830 Clouds 5 995 86 10000 9.8 90 10:37 30.09.2019
831 Clouds 5 995 86 10000 9.8 90 10:18 30.09.2019
832 Rain 5 995 86 10000 8.7 80 09:55 30.09.2019
833 Clouds 4 995 93 10000 7.7 80 09:36 30.09.2019
834 Clouds 4 995 93 10000 7.7 80 09:18 30.09.2019
835 Clouds 4 995 86 10000 6.7 80 08:45 30.09.2019
836 Clouds 4 995 86 10000 6.7 80 08:27 30.09.2019
837 Clouds 2 995 76 10000 6.2 80 07:40 30.09.2019
838 Clouds 2 995 76 10000 6.2 80 07:19 30.09.2019
839 Clouds 2 995 80 10000 7.2 90 06:47 30.09.2019
840 Rain 5 997 76 0 10.52 69.503 06:27 30.09.2019
841 Clouds 2 995 80 10000 8.7 90 05:41 30.09.2019
842 Clouds 3 995 64 10000 8.7 80 02:54 30.09.2019
843 Clouds 2 995 74 10000 7.7 80 02:36 30.09.2019
844 Clouds 2 995 80 10000 6.7 90 01:31 30.09.2019
845 Clouds 2 995 80 10000 8.2 90 00:38 30.09.2019
846 Clouds 2 995 80 10000 8.2 90 00:19 30.09.2019
847 Clouds 2 995 74 10000 8.2 80 23:43 29.09.2019
848 Clouds 4 995 74 10000 8.2 80 23:21 29.09.2019
849 Clouds 3 995 74 10000 7.7 80 22:55 29.09.2019
850 Clouds 3 995 74 10000 7.7 90 22:36 29.09.2019
851 Clouds 3 995 74 10000 7.7 90 22:18 29.09.2019
852 Clouds 3 995 74 10000 6.7 90 21:56 29.09.2019
853 Clouds 3 996 74 10000 6.7 100 21:36 29.09.2019
854 Clouds 3 996 74 10000 6.7 100 21:18 29.09.2019
855 Clouds 3 995 74 10000 6.7 70 20:43 29.09.2019
856 Clouds 3 995 64 10000 7.2 80 20:20 29.09.2019
857 Clouds 3 996 64 10000 7.7 90 19:58 29.09.2019
858 Clouds 2 996 69 10000 6.7 80 19:37 29.09.2019
859 Clouds 2 996 69 10000 6.7 80 19:19 29.09.2019
860 Clouds 2 996 69 10000 6.7 80 19:19 29.09.2019
861 Clouds 3 996 64 10000 8.2 80 18:55 29.09.2019
862 Clouds 3 996 69 10000 8.2 80 18:37 29.09.2019
863 Clouds 3 996 69 10000 8.2 80 18:19 29.09.2019
864 Clouds 3 996 69 10000 7.2 80 17:55 29.09.2019
865 Rain 3 996 69 10000 7.2 80 17:37 29.09.2019
866 Rain 4 996 69 10000 7.2 80 17:19 29.09.2019
867 Rain 4 996 74 10000 6.7 90 16:57 29.09.2019
868 Rain 4 996 74 10000 6.7 90 16:39 29.09.2019
869 Rain 4 996 74 10000 6.7 90 16:18 29.09.2019
870 Clouds 4 996 69 10000 6.7 90 15:41 29.09.2019
871 Clouds 4 996 69 10000 6.7 90 15:41 29.09.2019
872 Clouds 4 996 69 10000 6.7 90 15:19 29.09.2019
873 Rain 4 996 74 10000 6.7 100 14:59 29.09.2019
874 Rain 3 996 74 10000 6.2 100 14:39 29.09.2019
875 Rain 3 996 74 10000 6.2 100 14:20 29.09.2019
876 Rain 3 996 74 10000 6.2 100 13:57 29.09.2019
877 Rain 3 996 67 10000 6.2 100 13:39 29.09.2019
878 Rain 3 996 68 10000 6.2 100 13:18 29.09.2019
879 Rain 3 996 68 10000 6.2 100 13:18 29.09.2019
880 Rain 3 996 68 10000 5.7 90 12:57 29.09.2019
881 Clouds 3 996 68 10000 6.2 100 12:39 29.09.2019
882 Clouds 3 996 68 10000 6.2 100 12:39 29.09.2019
883 Clouds 3 996 68 10000 6.2 100 12:21 29.09.2019
884 Clouds 3 996 68 10000 5.7 80 11:55 29.09.2019
885 Clouds 3 996 68 10000 4.6 80 11:37 29.09.2019
886 Clouds 3 996 68 10000 4.6 80 11:18 29.09.2019
887 Clouds 3 996 68 10000 5.7 80 10:55 29.09.2019
888 Clouds 3 996 68 10000 6.7 100 10:36 29.09.2019
889 Clouds 3 996 68 10000 6.7 100 10:18 29.09.2019
890 Clouds 3 996 68 10000 6.7 100 10:18 29.09.2019
891 Clouds 3 996 86 10000 5.1 90 09:42 29.09.2019
892 Clouds 2 996 72 10000 5.7 70 09:20 29.09.2019
893 Clouds 2 997 93 10000 5.1 90 08:55 29.09.2019
894 Clouds 1 997 69 10000 4.6 100 08:37 29.09.2019
895 Clouds 1 997 69 10000 4.6 100 08:18 29.09.2019
896 Clouds 1 997 69 10000 4.6 90 07:41 29.09.2019
897 Clouds 1 997 69 10000 4.6 90 07:22 29.09.2019
898 Drizzle 2 998 69 8000 4.1 60 06:41 29.09.2019
899 Clouds 2 999 67 10000 4.1 70 04:55 29.09.2019
900 Drizzle 2 999 67 10000 5.1 70 04:24 29.09.2019
901 Clouds 2 1000 67 10000 4.1 60 03:47 29.09.2019
902 Clouds 2 1000 93 10000 4.6 60 02:28 29.09.2019
903 Clouds 2 1001 93 10000 4.6 70 01:51 29.09.2019
904 Drizzle 2 1001 93 10000 5.1 70 01:29 29.09.2019
905 Drizzle 2 1001 93 10000 5.1 70 01:29 29.09.2019
906 Mist 2 1002 93 9000 4.1 90 00:41 29.09.2019
907 Mist 2 1002 93 9000 4.1 90 00:19 29.09.2019
908 Drizzle 2 1002 100 6000 4.1 90 23:40 28.09.2019
909 Drizzle 2 1002 100 6000 4.1 90 23:21 28.09.2019
910 Drizzle 2 1002 100 3900 4.6 80 22:56 28.09.2019
911 Drizzle 2 1003 100 2800 4.6 70 22:37 28.09.2019
912 Drizzle 2 1003 100 2800 4.6 70 22:19 28.09.2019
913 Mist 3 1003 93 7000 5.7 60 21:54 28.09.2019
914 Clouds 3 1003 86 10000 5.1 60 21:36 28.09.2019
915 Clouds 3 1003 86 10000 5.1 60 21:18 28.09.2019
916 Clouds 3 1004 86 10000 6.2 50 20:54 28.09.2019
917 Clouds 3 1004 86 10000 5.7 60 20:36 28.09.2019
918 Clouds 3 1004 86 10000 5.7 60 20:36 28.09.2019
919 Clouds 3 1004 86 10000 5.7 60 20:18 28.09.2019
920 Clouds 3 1004 86 10000 6.2 70 19:42 28.09.2019
921 Clouds 3 1004 86 10000 6.2 60 19:22 28.09.2019
922 Clouds 3 1004 86 10000 6.2 60 19:22 28.09.2019
923 Clouds 3 1005 93 10000 6.2 60 18:59 28.09.2019
924 Clouds 3 1005 93 10000 6.2 50 18:41 28.09.2019
925 Clouds 3 1005 93 10000 6.2 50 18:21 28.09.2019
926 Clouds 3 1005 93 10000 5.7 50 17:59 28.09.2019
927 Mist 3 1006 93 4500 6.2 60 17:40 28.09.2019
928 Mist 3 1006 93 4500 6.2 60 17:21 28.09.2019
929 Mist 3 1006 100 7000 5.1 60 16:49 28.09.2019
930 Mist 4 1006 93 9000 5.1 60 16:29 28.09.2019
931 Clouds 4 1006 93 10000 5.1 60 15:59 28.09.2019
932 Clouds 4 1007 93 10000 4.6 50 15:39 28.09.2019
933 Clouds 4 1007 93 10000 4.6 50 15:21 28.09.2019
934 Drizzle 4 1007 93 10000 5.7 60 14:55 28.09.2019
935 Fog 4 1007 93 10000 4.1 60 14:36 28.09.2019
936 Fog 4 1007 93 10000 4.1 60 14:18 28.09.2019
937 Fog 4 1007 93 10000 4.1 60 13:43 28.09.2019
938 Rain 4 1007 100 10000 4.6 30 13:20 28.09.2019
939 Rain 4 1007 100 10000 4.6 30 12:57 28.09.2019
940 Clouds 4 1007 100 10000 4.6 20 12:37 28.09.2019
941 Clouds 4 1007 100 10000 4.6 20 12:18 28.09.2019
942 Fog 5 1007 93 10000 5.7 360 11:41 28.09.2019
943 Fog 5 1007 93 10000 5.7 360 11:20 28.09.2019
944 Clouds 5 1007 93 10000 5.7 360 10:56 28.09.2019
945 Fog 5 1007 93 10000 5.7 360 10:38 28.09.2019
946 Fog 5 1007 93 10000 5.7 360 10:18 28.09.2019
947 Mist 5 1008 93 5000 5.7 10 09:41 28.09.2019
948 Mist 5 1008 93 5000 5.7 10 09:20 28.09.2019
949 Drizzle 5 1008 100 5000 6.2 10 08:48 28.09.2019
950 Drizzle 6 1008 93 4000 5.7 350 08:29 28.09.2019
951 Drizzle 6 1008 93 10000 4.1 260 07:59 28.09.2019
952 Clouds 6 1008 87 10000 4.1 250 07:41 28.09.2019
953 Clouds 6 1008 87 10000 4.1 250 07:19 28.09.2019
954 Clouds 5 1008 93 10000 3.6 260 06:45 28.09.2019
955 Clouds 5 1008 93 10000 4.1 270 06:25 28.09.2019
956 Clouds 6 1009 87 10000 5.7 300 05:41 28.09.2019
957 Clouds 6 1009 87 10000 5.7 300 05:19 28.09.2019
958 Clouds 5 1009 93 10000 6.2 290 04:36 28.09.2019
959 Clouds 5 1009 100 10000 5.1 310 03:45 28.09.2019
960 Clouds 5 1009 100 10000 5.1 310 03:20 28.09.2019
961 Mist 5 1009 100 7000 6.2 290 02:42 28.09.2019
962 Mist 5 1009 100 7000 6.2 290 02:23 28.09.2019
963 Clouds 5 1009 100 8000 4.1 290 01:45 28.09.2019
964 Clouds 5 1009 100 8000 4.1 290 01:24 28.09.2019
965 Clouds 5 1009 100 8000 5.1 320 00:49 28.09.2019
966 Clouds 5 1010 100 4000 4.6 330 00:30 28.09.2019
967 Fog 5 1009 93 500 3.1 330 23:41 27.09.2019
968 Fog 5 1009 93 500 3.1 330 23:22 27.09.2019
969 Fog 5 1010 93 150 2.6 340 22:58 27.09.2019
970 Fog 5 1010 100 600 2.6 300 22:40 27.09.2019
971 Fog 5 1010 100 600 2.6 300 22:18 27.09.2019
972 Fog 5 1010 100 600 2.6 260 21:55 27.09.2019
973 Fog 5 1010 100 550 1 0 21:36 27.09.2019
974 Fog 5 1010 100 550 1 0 21:18 27.09.2019
975 Fog 6 1010 100 2300 1.5 260 20:41 27.09.2019
976 Fog 6 1010 100 2300 1.5 260 20:20 27.09.2019
977 Mist 6 1010 93 6000 2.1 270 19:59 27.09.2019
978 Mist 6 1010 100 9000 1 0 19:41 27.09.2019
979 Mist 8 1010 100 9000 1 0 19:23 27.09.2019
980 Clouds 7 1011 100 9000 2.6 270 18:55 27.09.2019
981 Clouds 7 1011 100 10000 2.1 260 18:37 27.09.2019
982 Clouds 7 1011 100 10000 2.1 260 18:19 27.09.2019
983 Clouds 8 1011 93 10000 1.5 280 17:40 27.09.2019
984 Clouds 8 1011 93 10000 1.5 280 17:40 27.09.2019
985 Clouds 8 1011 93 10000 1.5 280 17:22 27.09.2019
986 Clouds 8 1011 93 10000 0.5 0 16:59 27.09.2019
987 Clouds 8 1012 93 10000 1 0 16:41 27.09.2019
988 Clouds 8 1012 93 10000 1 0 16:19 27.09.2019
989 Clouds 8 1012 93 10000 1 0 15:55 27.09.2019
990 Clouds 9 1012 93 10000 0.5 0 15:37 27.09.2019
991 Clouds 9 1012 93 10000 0.5 0 15:19 27.09.2019
992 Clouds 8 1012 93 10000 1.5 180 14:55 27.09.2019
993 Clouds 9 1012 87 10000 3.1 220 14:37 27.09.2019
994 Clouds 9 1012 87 10000 3.1 220 14:18 27.09.2019
995 Clouds 9 1013 87 10000 3.6 190 13:42 27.09.2019
996 Clouds 9 1013 87 10000 3.6 190 13:22 27.09.2019
997 Clouds 10 1013 87 10000 3.1 240 12:57 27.09.2019
998 Clouds 9 1013 87 10000 3.1 230 12:38 27.09.2019
999 Clouds 9 1013 87 10000 3.1 230 12:20 27.09.2019
1000 Clouds 8 1013 93 10000 4.1 240 11:39 27.09.2019
1001 Clouds 8 1013 93 10000 4.1 240 11:21 27.09.2019
1002 Clouds 8 1013 93 10000 4.6 240 10:57 27.09.2019
1003 Clouds 8 1014 93 10000 4.1 240 10:39 27.09.2019
1004 Clouds 8 1014 93 10000 4.1 240 10:20 27.09.2019
1005 Clouds 8 1014 93 10000 4.1 240 09:42 27.09.2019
1006 Clouds 8 1014 93 10000 4.1 240 09:22 27.09.2019
1007 Clouds 8 1014 93 10000 3.1 250 08:57 27.09.2019
1008 Clouds 8 1014 93 10000 3.6 250 08:39 27.09.2019
1009 Clouds 8 1014 93 10000 3.6 250 08:20 27.09.2019
1010 Clouds 7 1014 93 10000 3.6 250 07:46 27.09.2019
1011 Clouds 7 1014 93 10000 2.1 250 07:23 27.09.2019
1012 Clouds 7 1015 93 10000 3.6 290 06:43 27.09.2019
1013 Clouds 7 1015 93 10000 3.6 290 06:24 27.09.2019
1014 Clouds 7 1015 93 10000 5.7 280 05:51 27.09.2019
1015 Clouds 7 1015 93 10000 5.7 280 05:32 27.09.2019
1016 Drizzle 7 1015 100 8000 6.2 290 03:56 27.09.2019
1017 Drizzle 7 1015 100 1900 5.1 310 02:59 27.09.2019
1018 Drizzle 8 1015 93 10000 6.2 320 01:52 27.09.2019
1019 Drizzle 8 1015 93 2500 7.7 320 01:28 27.09.2019
1020 Drizzle 8 1015 93 900 6.2 320 00:22 27.09.2019
1021 Drizzle 8 1015 93 1600 5.1 330 23:56 26.09.2019
1022 Drizzle 7 1015 100 1900 5.7 330 23:38 26.09.2019
1023 Drizzle 8 1015 100 1900 5.7 330 23:18 26.09.2019
1024 Drizzle 9 1015 93 2000 6.2 320 22:56 26.09.2019
1025 Drizzle 9 1015 93 2000 6.2 320 22:56 26.09.2019
1026 Drizzle 9 1015 93 3000 6.2 330 22:38 26.09.2019
1027 Drizzle 9 1015 93 3000 6.2 330 22:18 26.09.2019
1028 Drizzle 8 1015 100 2000 7.2 330 21:55 26.09.2019
1029 Drizzle 9 1015 100 3000 7.7 330 21:37 26.09.2019
1030 Drizzle 9 1015 100 3000 7.7 330 21:37 26.09.2019
1031 Drizzle 9 1015 100 3000 7.7 330 21:18 26.09.2019
1032 Drizzle 9 1015 100 3000 7.2 330 20:57 26.09.2019
1033 Drizzle 9 1015 100 1100 7.7 330 20:39 26.09.2019
1034 Drizzle 9 1015 100 1100 7.7 330 20:21 26.09.2019
1035 Mist 9 1014 100 4500 8.2 320 19:41 26.09.2019
1036 Drizzle 8 1014 100 3000 8.7 320 19:19 26.09.2019
1037 Drizzle 8 1014 100 3000 8.7 320 18:59 26.09.2019
1038 Drizzle 8 1014 100 2400 9.3 320 18:40 26.09.2019
1039 Drizzle 8 1014 100 2400 9.3 320 18:22 26.09.2019
1040 Drizzle 8 1014 100 7000 9.8 320 17:58 26.09.2019
1041 Drizzle 9 1014 100 5000 9.8 320 17:37 26.09.2019
1042 Drizzle 9 1014 100 5000 9.8 320 17:37 26.09.2019
1043 Drizzle 9 1014 100 5000 9.8 320 17:18 26.09.2019
1044 -273 0 0 0 0 0 16:54 26.09.2019
1045 Drizzle 9 1014 100 8000 10.3 320 16:36 26.09.2019
1046 Drizzle 9 1014 100 8000 10.3 320 16:18 26.09.2019
1047 Drizzle 9 1014 100 7000 8.7 320 15:40 26.09.2019
1048 Drizzle 9 1014 100 7000 8.7 320 15:22 26.09.2019
1049 Drizzle 9 1014 100 4000 9.3 320 14:57 26.09.2019
1050 Drizzle 9 1013 100 2500 8.7 320 14:39 26.09.2019
1051 Drizzle 9 1013 100 2500 8.7 320 14:21 26.09.2019
1052 Drizzle 9 1013 100 3000 9.3 320 13:55 26.09.2019
1053 Drizzle 9 1013 100 10000 10.3 320 13:37 26.09.2019
1054 Drizzle 9 1013 100 10000 10.3 320 13:18 26.09.2019
1055 Drizzle 9 1013 100 10000 8.7 320 12:41 26.09.2019
1056 Drizzle 9 1013 100 10000 8.7 320 12:22 26.09.2019
1057 Drizzle 9 1012 100 7000 8.7 320 11:55 26.09.2019
1058 Drizzle 8 1012 100 2500 7.7 320 11:37 26.09.2019
1059 Drizzle 8 1012 100 2500 7.7 320 11:37 26.09.2019
1060 Drizzle 8 1012 100 2500 7.7 320 11:19 26.09.2019
1061 Drizzle 8 1012 100 9000 8.7 320 10:42 26.09.2019
1062 Drizzle 8 1012 100 5000 7.7 320 10:42 26.09.2019
1063 Drizzle 9 1012 100 5000 7.7 320 10:23 26.09.2019
1064 Drizzle 9 1012 100 9000 8.7 310 09:57 26.09.2019
1065 Drizzle 9 1011 93 2300 7.2 320 09:39 26.09.2019
1066 Drizzle 9 1011 93 2300 7.2 320 09:18 26.09.2019
1067 Drizzle 9 1011 93 4000 9.3 320 08:48 26.09.2019
1068 Drizzle 9 1011 93 10000 9.8 320 08:30 26.09.2019
1069 Drizzle 9 1011 93 9000 9.8 310 07:47 26.09.2019
1070 Drizzle 8 1011 93 10000 9.3 320 07:22 26.09.2019
1071 Clouds 8 1010 93 10000 9.3 310 06:53 26.09.2019
1072 Clouds 7 1010 100 10000 8.2 310 06:28 26.09.2019
1073 Mist 7 1010 100 5000 7.7 300 05:52 26.09.2019
1074 Mist 7 1010 100 5000 7.7 300 05:29 26.09.2019
1075 Drizzle 7 1010 93 9000 8.2 320 03:51 26.09.2019
1076 Clouds 7 1010 93 10000 10.3 320 02:25 26.09.2019
1077 Drizzle 7 1009 100 5000 8.7 310 01:48 26.09.2019
1078 Drizzle 7 1009 100 5000 8.7 310 01:22 26.09.2019
1079 Drizzle 7 1009 93 6000 8.7 320 00:45 26.09.2019
1080 Drizzle 7 1009 93 6000 8.7 320 00:25 26.09.2019
1081 Drizzle 7 1009 93 7000 10.3 320 23:43 25.09.2019
1082 Drizzle 9 1009 93 7000 10.3 320 23:22 25.09.2019
1083 Drizzle 8 1008 93 7000 10.3 320 22:55 25.09.2019
1084 Drizzle 8 1008 93 4500 11.3 320 22:37 25.09.2019
1085 Drizzle 8 1008 93 4500 11.3 320 22:18 25.09.2019
1086 Drizzle 8 1008 93 4500 9.8 320 21:55 25.09.2019
1087 Drizzle 8 1008 100 6000 10.8 320 21:37 25.09.2019
1088 Drizzle 8 1008 100 6000 10.8 320 21:18 25.09.2019
1089 Drizzle 8 1008 93 4000 10.8 320 20:55 25.09.2019
1090 Drizzle 7 1008 93 5000 9.8 320 20:37 25.09.2019
1091 Drizzle 7 1008 93 5000 9.8 320 20:18 25.09.2019
1092 Drizzle 7 1007 100 5000 11.3 320 19:40 25.09.2019
1093 Drizzle 7 1007 100 5000 11.3 320 19:40 25.09.2019
1094 Drizzle 7 1007 100 5000 11.3 320 19:40 25.09.2019
1095 Drizzle 7 1007 100 5000 11.3 320 19:21 25.09.2019
1096 Drizzle 7 1007 100 4500 11.3 320 18:57 25.09.2019
1097 Drizzle 8 1007 93 4500 11.3 320 18:38 25.09.2019
1098 Drizzle 8 1007 93 4500 11.3 320 18:20 25.09.2019
1099 Drizzle 9 1007 93 5000 10.8 320 17:54 25.09.2019
1100 Drizzle 9 1007 93 5000 11.8 310 17:36 25.09.2019
1101 Drizzle 9 1007 93 5000 11.8 310 17:18 25.09.2019
1102 Drizzle 9 1006 93 5000 12.9 310 16:42 25.09.2019
1103 Drizzle 9 1006 93 9000 11.8 310 16:23 25.09.2019
1104 Drizzle 9 1006 93 9000 12.3 300 15:57 25.09.2019
1105 Drizzle 9 1006 93 10000 13.4 300 15:39 25.09.2019
1106 Drizzle 9 1006 93 10000 13.4 300 15:20 25.09.2019
1107 Drizzle 9 1006 93 10000 14.4 290 14:43 25.09.2019
1108 Drizzle 9 1006 93 10000 13.9 300 14:25 25.09.2019
1109 Rain 9 1006 93 10000 14.4 290 13:58 25.09.2019
1110 Rain 9 1006 93 10000 15.4 290 13:40 25.09.2019
1111 Rain 9 1006 93 10000 15.4 290 13:20 25.09.2019
1112 Drizzle 9 1006 93 10000 17 290 12:58 25.09.2019
1113 Rain 9 1006 93 10000 17.5 300 12:38 25.09.2019
1114 Rain 9 1006 93 10000 17.5 300 12:20 25.09.2019
1115 Rain 9 1005 93 10000 15.9 290 11:41 25.09.2019
1116 Rain 9 1005 93 10000 15.9 290 11:20 25.09.2019
1117 Rain 8 1005 93 10000 16.5 290 10:56 25.09.2019
1118 Rain 8 1005 93 10000 16.5 290 10:38 25.09.2019
1119 Rain 8 1005 93 10000 16.5 290 10:19 25.09.2019
1120 Rain 8 1006 93 9000 13.4 280 09:43 25.09.2019
1121 Rain 8 1006 93 9000 14.9 270 09:23 25.09.2019
1122 Rain 8 1006 93 8000 15.9 270 08:59 25.09.2019
1123 Drizzle 8 1006 93 10000 16.5 270 08:41 25.09.2019
1124 Drizzle 8 1006 93 10000 16.5 270 08:20 25.09.2019
1125 Clouds 7 1006 81 10000 16.5 270 07:42 25.09.2019
1126 Clouds 7 1006 81 10000 16.5 270 07:23 25.09.2019
1127 Clouds 7 1007 75 10000 14.9 270 06:58 25.09.2019
1128 Clouds 7 1007 70 10000 15.4 270 06:37 25.09.2019
1129 Clouds 7 1007 70 10000 15.4 270 06:37 25.09.2019
1130 Clouds 7 1007 70 10000 14.9 260 05:52 25.09.2019
1131 Clouds 7 1007 70 10000 14.9 260 05:26 25.09.2019
1132 Clouds 7 1008 65 10000 14.9 270 04:45 25.09.2019
1133 Clouds 6 1010 74 10000 8.7 240 01:44 25.09.2019
1134 Clouds 6 1011 70 10000 8.2 250 00:42 25.09.2019
1135 Clouds 6 1011 70 10000 8.2 250 00:23 25.09.2019
1136 Clouds 5 1011 75 10000 7.7 250 23:45 24.09.2019
1137 Clouds 6 1011 75 10000 7.7 250 23:23 24.09.2019
1138 Clouds 6 1012 75 10000 8.2 260 22:59 24.09.2019
1139 Clouds 6 1012 80 10000 8.2 260 22:38 24.09.2019
1140 Clouds 6 1012 80 10000 8.2 260 22:38 24.09.2019
1141 Clouds 6 1012 80 10000 8.2 260 22:20 24.09.2019
1142 Clouds 5 1012 75 10000 6.7 260 21:56 24.09.2019
1143 Clouds 5 1013 75 10000 6.7 260 21:37 24.09.2019
1144 Clouds 5 1013 75 10000 6.7 260 21:19 24.09.2019
1145 Clouds 6 1013 75 10000 7.2 260 20:57 24.09.2019
1146 Clouds 6 1013 75 10000 7.7 260 20:38 24.09.2019
1147 Clouds 6 1013 75 10000 7.7 260 20:19 24.09.2019
1148 Clouds 5 1014 75 10000 5.1 260 19:43 24.09.2019
1149 Clouds 5 1014 75 10000 5.1 260 19:21 24.09.2019
1150 Clouds 5 1014 80 10000 5.1 260 18:59 24.09.2019
1151 Clouds 5 1014 80 10000 5.1 270 18:40 24.09.2019
1152 Clouds 5 1014 80 10000 5.1 270 18:22 24.09.2019
1153 Clouds 5 1014 80 10000 5.1 270 18:22 24.09.2019
1154 Clouds 5 1014 80 10000 5.1 270 17:57 24.09.2019
1155 Clouds 6 1014 80 10000 5.7 280 17:38 24.09.2019
1156 Clouds 6 1014 80 10000 5.7 280 17:20 24.09.2019
1157 Clouds 7 1015 75 10000 6.2 270 16:57 24.09.2019
1158 Clouds 7 1015 75 10000 5.7 280 16:38 24.09.2019
1159 Clouds 7 1015 75 10000 5.7 280 16:18 24.09.2019
1160 Clouds 6 1015 80 10000 6.2 280 15:41 24.09.2019
1161 Clouds 6 1015 80 10000 6.2 280 15:41 24.09.2019
1162 Clouds 6 1015 80 10000 6.2 280 15:23 24.09.2019
1163 Clouds 6 1016 81 10000 6.2 270 14:44 24.09.2019
1164 Clouds 6 1016 81 10000 6.2 270 14:20 24.09.2019
1165 Clouds 6 1016 81 10000 6.7 280 13:56 24.09.2019
1166 Clouds 6 1016 81 10000 6.7 280 13:56 24.09.2019
1167 Clouds 6 1016 75 10000 6.7 280 13:38 24.09.2019
1168 Clouds 6 1016 75 10000 6.7 280 13:20 24.09.2019
1169 Clouds 6 1016 81 10000 5.1 280 12:40 24.09.2019
1170 Clouds 6 1016 81 10000 5.1 280 12:21 24.09.2019
1171 Clouds 6 1016 86 10000 5.1 280 11:55 24.09.2019
1172 Clouds 6 1016 86 10000 5.1 280 11:55 24.09.2019
1173 Clouds 6 1016 86 10000 6.2 300 11:37 24.09.2019
1174 Clouds 6 1016 86 10000 6.2 300 11:18 24.09.2019
1175 Rain 6 1016 80 10000 6.2 290 10:39 24.09.2019
1176 Rain 6 1016 80 10000 6.2 290 10:21 24.09.2019
1177 Rain 5 1016 80 10000 5.7 280 09:55 24.09.2019
1178 Clouds 5 1016 80 10000 5.7 270 09:37 24.09.2019
1179 Clouds 5 1016 80 10000 5.7 270 09:18 24.09.2019
1180 Rain 5 1016 86 10000 5.7 280 08:41 24.09.2019
1181 Rain 5 1016 86 10000 5.7 280 08:23 24.09.2019
1182 Rain 5 1017 86 10000 5.7 280 07:58 24.09.2019
1183 Clouds 3 1017 93 10000 4.6 270 07:39 24.09.2019
1184 Clouds 3 1017 93 10000 4.6 270 07:21 24.09.2019
1185 Clouds 3 1017 93 10000 5.1 300 06:38 24.09.2019
1186 Clouds 3 1017 93 10000 5.1 300 06:19 24.09.2019
1187 Rain 3 1017 93 10000 5.1 300 05:22 24.09.2019
1188 Clouds 3 1018 86 10000 5.1 320 03:46 24.09.2019
1189 Clouds 3 1018 86 10000 5.1 320 03:25 24.09.2019
1190 Clouds 3 1018 86 10000 4.6 300 02:44 24.09.2019
1191 Clouds 4 1019 80 10000 4.1 350 01:41 24.09.2019
1192 Clouds 4 1019 80 10000 3.6 330 00:42 24.09.2019
1193 Clouds 4 1019 80 10000 3.6 330 00:22 24.09.2019
1194 Clouds 3 1019 80 10000 4.1 310 23:43 23.09.2019
1195 Clouds 3 1019 80 10000 4.1 310 23:23 23.09.2019
1196 Rain 2 1019 86 10000 5.1 350 22:55 23.09.2019
1197 Rain 2 1019 93 10000 4.6 330 22:37 23.09.2019
1198 Rain 2 1019 93 10000 4.6 330 22:18 23.09.2019
1199 Rain 2 1019 86 10000 5.7 320 21:54 23.09.2019
1200 Clouds 2 1019 86 10000 5.1 340 21:36 23.09.2019
1201 Clouds 2 1019 86 10000 5.1 340 21:18 23.09.2019
1202 Rain 3 1020 86 10000 4.6 320 20:40 23.09.2019
1203 Rain 3 1020 86 10000 4.6 320 20:19 23.09.2019
1204 Rain 3 1020 86 10000 4.6 320 20:19 23.09.2019
1205 Rain 3 1020 86 10000 5.7 330 19:55 23.09.2019
1206 Rain 3 1020 86 10000 5.7 330 19:55 23.09.2019
1207 Rain 4 1020 86 10000 6.2 330 19:36 23.09.2019
1208 Rain 4 1020 86 10000 6.2 330 19:18 23.09.2019
1209 Rain 3 1020 86 10000 5.7 350 18:42 23.09.2019
1210 Rain 3 1020 86 10000 5.7 350 18:42 23.09.2019
1211 Rain 3 1020 86 10000 5.7 350 18:20 23.09.2019
1212 Rain 3 1020 86 10000 7.7 360 17:58 23.09.2019
1213 Rain 4 1020 80 10000 6.2 360 17:39 23.09.2019
1214 Rain 4 1020 80 10000 6.2 360 17:39 23.09.2019
1215 Rain 5 1020 80 10000 6.2 360 17:20 23.09.2019
1216 Rain 5 1021 80 10000 5.7 340 16:57 23.09.2019
1217 Rain 5 1021 80 10000 6.2 360 16:37 23.09.2019
1218 Rain 5 1021 80 10000 6.2 360 16:18 23.09.2019
1219 Rain 6 1021 80 10000 6.7 360 15:56 23.09.2019
1220 Rain 5 1021 75 10000 7.7 340 15:38 23.09.2019
1221 Rain 5 1021 75 10000 7.7 340 15:18 23.09.2019
1222 Rain 6 1021 80 10000 8.2 350 14:40 23.09.2019
1223 Rain 6 1021 80 10000 8.2 350 14:40 23.09.2019
1224 Rain 6 1021 80 10000 8.2 350 14:40 23.09.2019
1225 Rain 6 1021 80 10000 8.2 350 14:21 23.09.2019
1226 Rain 5 1021 93 10000 7.7 360 13:59 23.09.2019
1227 Rain 5 1021 86 10000 7.7 350 13:39 23.09.2019
1228 Rain 5 1021 86 10000 7.7 350 13:18 23.09.2019
1229 Rain 4 1021 80 10000 8.2 360 12:56 23.09.2019
1230 Rain 6 1021 75 10000 8.2 360 12:37 23.09.2019
1231 Rain 6 1021 75 10000 8.2 360 12:19 23.09.2019
1232 Clouds 5 1021 80 10000 9.8 340 11:44 23.09.2019
1233 Clouds 5 1021 80 10000 9.8 340 11:26 23.09.2019
1234 Clouds 5 1021 80 10000 8.7 340 10:55 23.09.2019
1235 Clouds 4 1021 86 10000 8.2 340 10:37 23.09.2019
1236 Clouds 4 1021 86 10000 8.2 340 10:19 23.09.2019
1237 Rain 4 1021 86 10000 9.8 360 09:40 23.09.2019
1238 Rain 4 1021 86 10000 9.8 360 09:21 23.09.2019
1239 Rain 4 1022 71 10000 9.3 340 08:51 23.09.2019
1240 Rain 5 1022 69 10000 10.8 340 08:33 23.09.2019
1241 Drizzle 4 1022 73 10000 9.8 360 07:59 23.09.2019
1242 Clouds 3 1022 73 10000 12.3 350 07:33 23.09.2019
1243 Clouds 3 1022 86 10000 6.7 340 06:50 23.09.2019
1244 Rain 4 1022 73 10000 10.8 340 06:18 23.09.2019
1245 Clouds 3 1022 73 10000 8.2 340 05:22 23.09.2019
1246 Clouds 3 1022 86 10000 10.8 330 04:55 23.09.2019
1247 Rain 3 1023 73 10000 10.8 330 03:56 23.09.2019
1248 Rain 3 1023 73 10000 10.8 330 03:56 23.09.2019
1249 Clouds 4 1022 74 10000 10.8 340 01:25 23.09.2019
1250 Clouds 4 1022 72 10000 10.8 340 00:24 23.09.2019
1251 Clouds 3 1022 72 10000 9.8 340 23:58 22.09.2019
1252 Clouds 4 1022 72 10000 13.4 340 23:39 22.09.2019
1253 Clouds 5 1022 72 10000 13.4 340 23:20 22.09.2019
1254 Clouds 5 1022 72 10000 9.3 330 22:54 22.09.2019
1255 Rain 5 1022 72 10000 10.8 340 22:36 22.09.2019
1256 Rain 5 1022 72 10000 10.8 340 22:18 22.09.2019
1257 Rain 4 1022 72 10000 10.3 330 21:40 22.09.2019
1258 Rain 4 1022 71 10000 10.3 330 21:20 22.09.2019
1259 Rain 4 1022 86 10000 10.8 330 20:44 22.09.2019
1260 Rain 4 1022 80 10000 10.8 350 20:26 22.09.2019
1261 Rain 4 1022 80 10000 9.8 330 19:57 22.09.2019
1262 Rain 4 1022 80 10000 11.3 360 19:39 22.09.2019
1263 Rain 4 1022 80 10000 11.3 360 19:39 22.09.2019
1264 Rain 4 1022 80 10000 11.3 360 19:20 22.09.2019
1265 Rain 3 1022 86 10000 11.8 330 18:57 22.09.2019
1266 Rain 4 1022 80 10000 10.8 330 18:37 22.09.2019
1267 Rain 4 1022 80 10000 10.8 330 18:18 22.09.2019
1268 Rain 6 1021 75 10000 13.4 340 17:45 22.09.2019
1269 Rain 6 1021 75 10000 13.4 340 17:26 22.09.2019
1270 Rain 6 1021 70 10000 12.9 330 16:56 22.09.2019
1271 Rain 6 1021 70 10000 12.9 330 16:56 22.09.2019
1272 Rain 6 1021 75 10000 14.4 340 16:38 22.09.2019
1273 Rain 6 1021 75 10000 14.4 340 16:19 22.09.2019
1274 Rain 5 1021 75 10000 13.4 350 15:43 22.09.2019
1275 Rain 5 1021 75 10000 13.4 350 15:25 22.09.2019
1276 Rain 6 1021 75 10000 13.9 340 14:55 22.09.2019
1277 Rain 5 1020 80 10000 12.3 340 14:36 22.09.2019
1278 Rain 5 1020 80 10000 12.3 340 14:36 22.09.2019
1279 Rain 5 1020 80 10000 12.3 340 14:18 22.09.2019
1280 Rain 5 1020 80 10000 11.3 330 13:41 22.09.2019
1281 Rain 5 1020 80 10000 11.3 330 13:23 22.09.2019
1282 Rain 5 1020 80 10000 12.3 330 12:56 22.09.2019
1283 Rain 4 1020 86 10000 8.7 320 12:38 22.09.2019
1284 Rain 4 1020 86 10000 8.7 320 12:18 22.09.2019
1285 Rain 4 1019 80 10000 10.3 330 11:43 22.09.2019
1286 Rain 4 1019 80 10000 10.3 330 11:25 22.09.2019
1287 Rain 5 1019 75 10000 11.3 340 10:57 22.09.2019
1288 Rain 5 1019 70 10000 10.8 330 10:39 22.09.2019
1289 Rain 5 1019 70 10000 10.8 330 10:20 22.09.2019
1290 Rain 4 1019 80 10000 8.2 340 09:43 22.09.2019
1291 Drizzle 4 1018 80 10000 10.8 360 09:43 22.09.2019
1292 Drizzle 4 1018 80 10000 10.8 360 09:43 22.09.2019
1293 Drizzle 4 1018 80 10000 10.8 360 09:21 22.09.2019
1294 Rain 4 1018 71 10000 9.8 350 08:56 22.09.2019
1295 Rain 4 1018 71 10000 9.3 340 08:38 22.09.2019
1296 Rain 4 1018 71 10000 9.3 340 08:38 22.09.2019
1297 Rain 4 1018 71 10000 9.3 340 08:19 22.09.2019
1298 Rain 3 1018 86 10000 9.3 350 07:43 22.09.2019
1299 Rain 3 1017 86 10000 6.2 340 07:25 22.09.2019
1300 Rain 3 1017 86 10000 6.7 360 06:57 22.09.2019
1301 Rain 3 1017 71 10000 9.8 350 06:31 22.09.2019
1302 Rain 3 1015 86 10000 9.3 330 03:56 22.09.2019
1303 Rain 3 1015 71 10000 9.3 340 02:44 22.09.2019
1304 Rain 3 1015 71 10000 10.8 340 02:24 22.09.2019
1305 Clouds 2 1014 71 2500 10.3 320 01:36 22.09.2019
1306 Clouds 3 1013 86 10000 12.3 340 00:44 22.09.2019
1307 Clouds 3 1013 86 10000 12.3 340 00:26 22.09.2019
1308 Rain 4 1013 72 10000 10.8 350 23:47 21.09.2019
1309 Rain 3 1013 72 10000 10.3 330 23:27 21.09.2019
1310 Rain 4 1012 72 10000 9.3 320 22:43 21.09.2019
1311 Rain 4 1012 72 10000 9.3 320 22:24 21.09.2019
1312 Rain 4 1012 72 10000 9.3 330 21:58 21.09.2019
1313 Rain 4 1012 72 10000 9.8 320 21:40 21.09.2019
1314 Rain 4 1012 70 10000 9.8 320 21:19 21.09.2019
1315 Rain 4 1011 70 10000 5.7 320 20:55 21.09.2019
1316 Clouds 4 1011 68 10000 6.2 320 20:36 21.09.2019
1317 Clouds 4 1011 68 10000 6.2 320 20:18 21.09.2019
1318 Rain 4 1011 80 10000 7.2 350 19:42 21.09.2019
1319 Rain 4 1011 80 10000 7.2 350 19:19 21.09.2019
1320 Rain 4 1010 80 10000 6.2 10 18:40 21.09.2019
1321 Rain 4 1010 80 10000 6.2 10 18:21 21.09.2019
1322 Rain 4 1009 86 10000 5.7 10 17:42 21.09.2019
1323 Rain 4 1009 86 10000 5.7 10 17:23 21.09.2019
1324 Rain 4 1009 86 10000 4.6 20 16:57 21.09.2019
1325 Rain 4 1009 86 10000 5.1 360 16:37 21.09.2019
1326 Rain 4 1009 86 10000 5.1 360 16:19 21.09.2019
1327 Rain 5 1008 80 10000 6.7 360 15:43 21.09.2019
1328 Rain 5 1008 80 10000 4.1 350 15:22 21.09.2019
1329 Rain 5 1007 86 10000 5.1 300 14:48 21.09.2019
1330 Rain 4 1007 86 10000 5.1 280 14:30 21.09.2019
1331 Clouds 5 1007 80 10000 4.6 260 13:54 21.09.2019
1332 Clouds 5 1007 86 10000 5.1 270 13:36 21.09.2019
1333 Clouds 5 1007 86 10000 5.1 270 13:18 21.09.2019
1334 Rain 4 1006 80 10000 4.6 260 12:41 21.09.2019
1335 Rain 4 1006 80 10000 4.6 260 12:22 21.09.2019
1336 Rain 4 1006 80 10000 4.1 280 11:59 21.09.2019
1337 Clouds 5 1006 86 10000 5.1 250 11:41 21.09.2019
1338 Clouds 5 1006 86 10000 5.1 250 11:21 21.09.2019
1339 Clouds 3 1006 93 10000 4.1 260 10:41 21.09.2019
1340 Clouds 3 1006 93 10000 4.1 260 10:23 21.09.2019
1341 Clouds 3 1005 93 10000 5.1 250 09:57 21.09.2019
1342 Drizzle 3 1005 93 8000 4.1 260 09:38 21.09.2019
1343 Drizzle 3 1005 93 8000 4.1 260 09:20 21.09.2019
1344 Rain 3 1005 86 10000 5.1 260 08:51 21.09.2019
1345 Rain 3 1005 86 10000 6.2 260 08:27 21.09.2019
1346 Drizzle 3 1005 93 10000 4.1 260 07:41 21.09.2019
1347 Drizzle 3 1005 93 10000 4.1 260 07:23 21.09.2019
1348 Clouds 4 1005 86 10000 5.1 260 06:51 21.09.2019
1349 Clouds 4 1005 86 10000 5.1 260 06:31 21.09.2019
1350 Clouds 3 1005 86 10000 3.6 310 04:53 21.09.2019
1351 Clouds 3 1005 86 10000 3.6 310 04:53 21.09.2019
1352 Clouds 3 1005 86 10000 3.6 310 04:34 21.09.2019
1353 Rain 4 1006 86 10000 5.7 290 02:38 21.09.2019
1354 Rain 4 1006 86 10000 5.7 290 02:20 21.09.2019
1355 Rain 4 1006 80 10000 6.2 310 01:45 21.09.2019
1356 Clouds 4 1006 80 10000 6.2 320 00:43 21.09.2019
1357 Clouds 4 1006 80 10000 6.2 320 00:20 21.09.2019
1358 Clouds 4 1006 80 10000 6.7 320 23:42 20.09.2019
1359 Rain 5 1006 80 10000 6.7 320 23:24 20.09.2019
1360 Rain 5 1007 80 10000 7.2 320 22:41 20.09.2019
1361 Rain 5 1007 80 10000 7.2 320 22:23 20.09.2019
1362 Rain 5 1007 86 10000 7.2 320 21:57 20.09.2019
1363 Rain 5 1007 86 10000 7.2 320 21:37 20.09.2019
1364 Rain 5 1007 86 10000 7.2 320 21:19 20.09.2019
1365 Rain 4 1007 93 10000 6.7 300 20:56 20.09.2019
1366 Rain 4 1007 86 10000 7.2 290 20:37 20.09.2019
1367 Rain 4 1007 86 10000 7.2 290 20:18 20.09.2019
1368 Rain 4 1007 86 10000 6.2 300 19:45 20.09.2019
1369 Rain 4 1007 86 10000 6.2 300 19:25 20.09.2019
1370 Rain 4 1008 80 10000 7.2 290 18:58 20.09.2019
1371 Rain 4 1008 80 10000 6.7 280 18:38 20.09.2019
1372 Rain 4 1008 80 10000 6.7 280 18:38 20.09.2019
1373 Rain 4 1008 80 10000 6.7 280 18:18 20.09.2019
1374 Rain 5 1008 80 10000 7.7 300 17:45 20.09.2019
1375 Rain 5 1008 80 10000 7.7 300 17:45 20.09.2019
1376 Rain 5 1008 80 10000 7.7 300 17:45 20.09.2019
1377 Rain 5 1008 80 10000 7.7 300 17:45 20.09.2019
1378 Rain 5 1008 80 10000 7.7 300 17:26 20.09.2019
1379 Rain 6 1008 71 10000 8.7 310 16:43 20.09.2019
1380 Rain 5 1008 80 10000 7.7 300 16:22 20.09.2019
1381 Rain 5 1008 86 10000 8.2 300 15:59 20.09.2019
1382 Rain 5 1008 80 10000 7.2 310 15:40 20.09.2019
1383 Rain 5 1008 80 10000 7.2 310 15:22 20.09.2019
1384 Rain 6 1009 75 10000 6.7 340 14:44 20.09.2019
1385 Rain 6 1009 75 10000 6.7 340 14:44 20.09.2019
1386 Clouds 6 1009 75 10000 7.7 340 14:20 20.09.2019
1387 Clouds 6 1009 75 10000 7.7 340 13:57 20.09.2019
1388 Rain 4 1008 80 10000 7.2 330 13:38 20.09.2019
1389 Rain 5 1008 80 10000 7.2 330 13:20 20.09.2019
1390 Clouds 6 1008 75 10000 6.7 330 12:40 20.09.2019
1391 Clouds 6 1008 75 10000 6.7 330 12:22 20.09.2019
1392 Clouds 6 1008 80 10000 7.2 320 11:51 20.09.2019
1393 Clouds 5 1008 75 10000 9.3 350 11:25 20.09.2019
1394 Clouds 5 1008 80 10000 8.7 320 10:58 20.09.2019
1395 Clouds 5 1008 80 10000 8.7 320 10:58 20.09.2019
1396 Clouds 6 1008 75 10000 8.7 320 10:40 20.09.2019
1397 Clouds 6 1008 75 10000 8.7 320 10:21 20.09.2019
1398 Clouds 5 1008 75 10000 8.7 310 09:38 20.09.2019
1399 Clouds 5 1008 73 10000 8.7 310 09:19 20.09.2019
1400 Clouds 5 1008 73 10000 8.7 310 09:19 20.09.2019
1401 Clouds 5 1008 73 10000 9.3 320 08:47 20.09.2019
1402 Clouds 5 1008 80 10000 8.7 310 08:28 20.09.2019
1403 Clouds 4 1008 86 10000 9.3 310 07:58 20.09.2019
1404 Rain 4 1008 80 10000 8.2 330 07:40 20.09.2019
1405 Rain 4 1008 80 10000 8.2 330 07:20 20.09.2019
1406 Clouds 3 1008 74 10000 8.7 310 06:42 20.09.2019
1407 Clouds 3 1008 73 10000 8.7 310 06:18 20.09.2019
1408 Clouds 3 1008 73 10000 9.3 320 04:31 20.09.2019
1409 Clouds 5 1009 73 0 7.82 327.178 03:27 20.09.2019
1410 Rain 3 1008 71 10000 10.3 320 02:18 20.09.2019
1411 Clouds 3 1008 71 10000 10.3 330 01:39 20.09.2019
1412 Rain 4 1008 72 10000 11.8 330 00:42 20.09.2019
1413 Rain 4 1008 80 10000 13.4 340 23:50 19.09.2019
1414 Rain 4 1008 80 10000 13.4 340 23:50 19.09.2019
1415 Clouds 3 1007 86 10000 11.3 340 23:28 19.09.2019
1416 Rain 5 1007 76 10000 11.8 340 22:59 19.09.2019
1417 Rain 4 1007 86 10000 11.8 350 22:40 19.09.2019
1418 Rain 4 1007 86 10000 11.8 350 22:21 19.09.2019
1419 Rain 4 1007 80 10000 11.8 340 21:57 19.09.2019
1420 Rain 4 1007 93 10000 11.3 330 21:38 19.09.2019
1421 Rain 4 1007 93 10000 11.3 330 21:19 19.09.2019
1422 Rain 5 1007 80 10000 11.8 320 20:55 19.09.2019
1423 Rain 5 1007 80 10000 11.8 320 20:55 19.09.2019
1424 Rain 4 1007 93 10000 10.3 320 20:37 19.09.2019
1425 Rain 4 1007 93 10000 10.3 320 20:18 19.09.2019
1426 Rain 5 1007 86 10000 12.3 330 19:40 19.09.2019
1427 Rain 5 1007 86 10000 12.3 330 19:22 19.09.2019
1428 Rain 5 1007 80 10000 13.4 310 18:59 19.09.2019
1429 Rain 4 1007 93 10000 14.4 290 18:41 19.09.2019
1430 Rain 4 1007 93 10000 14.4 290 18:21 19.09.2019
1431 Drizzle 5 1008 80 10000 12.3 290 17:42 19.09.2019
1432 Drizzle 5 1008 80 10000 12.3 290 17:24 19.09.2019
1433 Rain 5 1008 80 10000 10.3 280 16:59 19.09.2019
1434 Rain 5 1008 80 10000 10.3 280 16:59 19.09.2019
1435 Rain 5 1008 80 10000 10.3 290 16:40 19.09.2019
1436 Rain 5 1008 80 10000 10.3 290 16:19 19.09.2019
1437 Rain 5 1009 80 10000 9.8 280 15:40 19.09.2019
1438 Rain 5 1009 80 10000 9.8 280 15:40 19.09.2019
1439 Rain 5 1009 80 10000 9.8 280 15:21 19.09.2019
1440 Rain 5 1009 80 10000 8.7 280 14:58 19.09.2019
1441 Drizzle 5 1009 82 10000 11.8 290 14:38 19.09.2019
1442 Drizzle 5 1009 82 10000 11.8 290 14:18 19.09.2019
1443 Clouds 4 1009 82 10000 9.3 290 13:40 19.09.2019
1444 Clouds 4 1009 82 10000 9.3 290 13:40 19.09.2019
1445 Clouds 4 1009 82 10000 9.3 290 13:40 19.09.2019
1446 Clouds 4 1009 76 10000 9.3 290 13:21 19.09.2019
1447 Clouds 4 1009 80 10000 8.7 290 12:58 19.09.2019
1448 Rain 4 1009 80 10000 9.8 310 12:36 19.09.2019
1449 Rain 4 1009 80 10000 9.8 310 12:18 19.09.2019
1450 Rain 3 1009 70 10000 9.8 290 11:41 19.09.2019
1451 Rain 3 1009 70 10000 9.8 290 11:21 19.09.2019
1452 Rain 2 1009 70 10000 9.8 290 10:58 19.09.2019
1453 Clouds 3 1009 80 1800 11.8 330 10:38 19.09.2019
1454 Clouds 3 1009 80 1800 11.8 330 10:20 19.09.2019
1455 Rain 4 1009 69 10000 9.8 320 09:55 19.09.2019
1456 Rain 4 1009 80 10000 11.8 330 09:37 19.09.2019
1457 Rain 4 1009 80 10000 11.8 330 09:18 19.09.2019
1458 Rain 3 1009 64 10000 8.2 320 08:48 19.09.2019
1459 Rain 2 1009 69 10000 8.7 320 08:22 19.09.2019
1460 Rain 2 1009 64 10000 8.2 320 07:43 19.09.2019
1461 Rain 3 1009 59 10000 7.7 320 07:22 19.09.2019
1462 Rain 3 1009 64 10000 7.7 330 06:49 19.09.2019
1463 Clouds 3 1009 59 10000 5.7 340 06:29 19.09.2019
1464 Clouds 3 1009 59 10000 6.2 330 05:53 19.09.2019
1465 Clouds 4 1011 70 0 7.62 324.292 05:33 19.09.2019
1466 Clouds 3 1010 74 10000 8.7 350 03:54 19.09.2019
1467 Clouds 3 1010 74 10000 8.7 350 03:19 19.09.2019
1468 Clouds 3 1010 70 10000 7.7 300 01:34 19.09.2019
1469 Clouds 3 1010 74 10000 6.2 310 00:53 19.09.2019
1470 Clouds 3 1010 69 10000 8.7 330 00:26 19.09.2019
1471 Rain 2 1010 69 10000 8.2 340 23:43 18.09.2019
1472 Rain 2 1010 69 10000 8.2 340 23:23 18.09.2019
1473 Rain 2 1010 69 10000 8.2 340 23:23 18.09.2019
1474 Rain 3 1010 86 10000 9.8 350 22:57 18.09.2019
1475 Rain 4 1010 86 10000 10.8 340 22:37 18.09.2019
1476 Rain 4 1010 86 10000 10.8 340 22:18 18.09.2019
1477 Clouds 4 1010 86 10000 5.1 350 21:56 18.09.2019
1478 Rain 3 1010 86 10000 8.2 350 21:37 18.09.2019
1479 Rain 3 1010 86 10000 8.2 350 21:18 18.09.2019
1480 Clouds 4 1010 86 10000 7.7 360 20:56 18.09.2019
1481 Rain 4 1010 86 10000 8.7 360 20:37 18.09.2019
1482 Rain 4 1010 86 10000 4.1 340 20:19 18.09.2019
1483 Rain 4 1010 86 10000 4.1 340 19:54 18.09.2019
1484 Rain 4 1010 86 10000 4.6 320 19:36 18.09.2019
1485 Drizzle 4 1010 86 10000 4.1 340 19:18 18.09.2019
1486 Drizzle 4 1010 86 10000 4.1 340 18:54 18.09.2019
1487 Rain 4 1010 86 10000 9.8 350 18:36 18.09.2019
1488 Rain 4 1010 86 10000 9.8 350 18:18 18.09.2019
1489 Rain 3 1010 86 10000 5.1 300 17:40 18.09.2019
1490 Rain 5 1010 86 10000 5.1 300 17:19 18.09.2019
1491 Drizzle 5 1010 93 10000 3.6 310 16:58 18.09.2019
1492 Drizzle 5 1010 93 10000 3.6 280 16:39 18.09.2019
1493 Drizzle 5 1010 93 10000 3.6 280 16:21 18.09.2019
1494 Rain 4 1010 93 10000 2.1 330 15:56 18.09.2019
1495 Rain 5 1010 86 10000 3.6 350 15:38 18.09.2019
1496 Rain 5 1010 86 10000 3.6 350 15:20 18.09.2019
1497 Drizzle 5 1010 86 10000 5.1 330 14:58 18.09.2019
1498 Rain 5 1010 86 10000 4.1 310 14:39 18.09.2019
1499 Rain 5 1010 86 10000 4.1 310 14:21 18.09.2019
1500 Rain 5 1010 86 10000 5.1 320 13:57 18.09.2019
1501 Rain 5 1010 80 10000 5.1 320 13:37 18.09.2019
1502 Rain 5 1010 80 10000 5.1 320 13:18 18.09.2019
1503 Rain 5 1009 86 10000 3.6 320 12:41 18.09.2019
1504 Rain 5 1009 86 10000 3.6 320 12:22 18.09.2019
1505 Rain 6 1009 86 10000 5.7 320 11:40 18.09.2019
1506 Rain 6 1009 86 10000 5.7 320 11:20 18.09.2019
1507 Rain 5 1009 86 10000 3.1 350 10:57 18.09.2019
1508 Rain 5 1009 80 10000 1 0 10:39 18.09.2019
1509 Rain 5 1009 80 10000 1 0 10:19 18.09.2019
1510 Rain 5 1009 86 10000 3.1 280 09:55 18.09.2019
1511 Rain 4 1009 93 10000 3.6 300 09:37 18.09.2019
1512 Rain 4 1009 93 10000 3.6 300 09:18 18.09.2019
1513 Rain 4 1009 80 10000 3.1 320 08:41 18.09.2019
1514 Rain 4 1009 80 10000 3.1 320 08:21 18.09.2019
1515 Rain 2 1009 86 10000 4.1 330 07:45 18.09.2019
1516 Clouds 2 1008 70 10000 4.1 350 07:23 18.09.2019
1517 Clouds 2 1008 70 10000 4.6 10 06:54 18.09.2019
1518 Clouds 2 1008 70 10000 5.1 20 06:26 18.09.2019
1519 Rain 6 1009 68 0 6.05 27.532 05:39 18.09.2019
1520 Clouds 1 1008 68 10000 4.1 50 03:49 18.09.2019
1521 Clouds 3 1008 86 10000 5.1 60 02:41 18.09.2019
1522 Clouds 3 1008 86 10000 4.6 60 01:50 18.09.2019
1523 Clouds 3 1008 86 10000 5.1 60 00:57 18.09.2019
1524 Rain 4 1008 86 10000 5.1 40 00:34 18.09.2019
1525 Clouds 3 1008 86 10000 6.2 60 23:48 17.09.2019
1526 Clouds 3 1008 86 10000 6.2 60 23:48 17.09.2019
1527 Rain 4 1007 86 10000 5.7 70 23:26 17.09.2019
1528 Clouds 5 1007 93 10000 5.1 70 22:59 17.09.2019
1529 Clouds 5 1007 93 10000 4.6 100 22:41 17.09.2019
1530 Clouds 5 1007 93 10000 4.6 100 22:22 17.09.2019
1531 Drizzle 5 1007 93 10000 6.7 70 21:54 17.09.2019
1532 Drizzle 5 1007 93 10000 9.3 60 21:36 17.09.2019
1533 Drizzle 5 1007 93 10000 9.3 60 21:18 17.09.2019
1534 Drizzle 5 1007 93 10000 9.3 60 21:18 17.09.2019
1535 Drizzle 5 1007 93 10000 9.3 60 21:18 17.09.2019
1536 -273 0 0 0 0 0 20:57 17.09.2019
1537 Clouds 6 1006 80 10000 4.6 60 20:38 17.09.2019
1538 Clouds 6 1006 80 10000 4.6 60 20:20 17.09.2019
1539 Clouds 6 1006 80 10000 4.6 60 20:20 17.09.2019
1540 Clouds 5 1006 80 10000 4.1 70 19:57 17.09.2019
1541 Clouds 5 1006 80 10000 4.6 70 19:38 17.09.2019
1542 Clouds 5 1006 80 10000 4.6 70 19:18 17.09.2019
1543 Clouds 5 1006 80 10000 5.7 70 18:43 17.09.2019
1544 Clouds 5 1006 80 10000 5.7 70 18:22 17.09.2019
1545 Clouds 6 1006 70 10000 6.2 60 17:56 17.09.2019
1546 Clouds 6 1006 70 10000 6.2 60 17:38 17.09.2019
1547 Clouds 8 1006 70 10000 6.2 60 17:19 17.09.2019
1548 Clouds 8 1006 70 10000 5.1 60 16:54 17.09.2019
1549 Clouds 8 1006 75 10000 4.1 60 16:36 17.09.2019
1550 Clouds 8 1006 75 10000 4.1 60 16:18 17.09.2019
1551 Clouds 8 1006 70 10000 4.6 40 15:39 17.09.2019
1552 Clouds 8 1006 70 10000 4.6 40 15:19 17.09.2019
1553 Clouds 8 1006 65 10000 3.6 60 14:56 17.09.2019
1554 Clouds 8 1005 70 10000 3.6 70 14:37 17.09.2019
1555 Clouds 8 1005 70 10000 3.6 70 14:19 17.09.2019
1556 Rain 8 1005 65 10000 3.6 90 13:43 17.09.2019
1557 Rain 8 1005 65 10000 3.6 90 13:25 17.09.2019
1558 Clouds 8 1005 65 10000 3.6 90 12:59 17.09.2019
1559 Clouds 8 1005 65 10000 4.1 100 12:38 17.09.2019
1560 Clouds 8 1005 65 10000 4.1 100 12:38 17.09.2019
1561 Clouds 8 1005 65 10000 4.1 100 12:19 17.09.2019
1562 Clouds 7 1005 70 10000 4.6 90 11:43 17.09.2019
1563 Clouds 7 1005 70 10000 4.6 90 11:25 17.09.2019
1564 Clouds 8 1004 70 10000 4.6 110 10:56 17.09.2019
1565 Clouds 7 1004 75 10000 4.6 120 10:38 17.09.2019
1566 Clouds 7 1004 75 10000 4.6 120 10:20 17.09.2019
1567 Clouds 7 1004 75 10000 4.6 110 09:42 17.09.2019
1568 Clouds 7 1004 75 10000 4.6 110 09:23 17.09.2019
1569 Clouds 7 1004 81 10000 5.7 110 08:51 17.09.2019
1570 Clouds 6 1003 86 10000 6.7 110 08:33 17.09.2019
1571 Rain 6 1003 86 10000 6.7 100 07:59 17.09.2019
1572 Clouds 5 1003 86 10000 7.2 100 07:41 17.09.2019
1573 Clouds 5 1003 86 10000 7.2 100 07:23 17.09.2019
1574 Clouds 5 1003 86 10000 6.2 90 06:47 17.09.2019
1575 Clouds 5 1003 86 10000 6.7 90 06:23 17.09.2019
1576 Clouds 5 1003 86 10000 7.2 100 05:50 17.09.2019
1577 Clouds 6 1003 87 10000 6.2 90 04:32 17.09.2019
1578 Clouds 6 1002 87 10000 5.7 90 02:59 17.09.2019
1579 Clouds 6 1002 87 10000 6.7 90 02:39 17.09.2019
1580 Clouds 5 1002 93 10000 6.7 80 01:29 17.09.2019
1581 Clouds 5 1002 86 10000 7.2 90 00:43 17.09.2019
1582 Clouds 6 1002 87 10000 7.7 90 23:41 16.09.2019
1583 Clouds 6 1002 87 10000 7.7 90 23:19 16.09.2019
1584 Clouds 6 1002 87 10000 6.7 90 22:57 16.09.2019
1585 Clouds 6 1002 87 10000 7.2 90 22:39 16.09.2019
1586 Clouds 8 1002 87 10000 7.2 90 22:21 16.09.2019
1587 Clouds 7 1002 81 10000 6.7 100 21:55 16.09.2019
1588 Clouds 7 1002 81 10000 7.7 90 21:37 16.09.2019
1589 Clouds 7 1002 81 10000 7.7 90 21:18 16.09.2019
1590 Clouds 7 1002 87 10000 9.3 100 20:40 16.09.2019
1591 Clouds 7 1002 87 10000 9.3 100 20:22 16.09.2019
1592 Clouds 6 1002 81 10000 9.3 100 19:57 16.09.2019
1593 Clouds 6 1001 81 10000 8.2 100 19:39 16.09.2019
1594 Clouds 6 1001 81 10000 8.2 100 19:19 16.09.2019
1595 Clouds 7 1001 75 10000 8.7 100 18:47 16.09.2019
1596 Clouds 7 1001 75 10000 8.7 100 18:29 16.09.2019
1597 Clouds 7 1001 75 10000 7.7 100 17:58 16.09.2019
1598 Clouds 7 1001 81 10000 9.3 100 17:39 16.09.2019
1599 Clouds 7 1001 81 10000 9.3 100 17:39 16.09.2019
1600 Clouds 9 1001 81 10000 9.3 100 17:21 16.09.2019
1601 Clouds 9 1001 81 10000 9.3 100 17:21 16.09.2019
1602 Clouds 8 1001 81 10000 8.7 90 16:55 16.09.2019
1603 Clouds 8 1001 81 10000 8.7 90 16:37 16.09.2019
1604 Clouds 8 1001 81 10000 8.7 90 16:18 16.09.2019
1605 Rain 8 1001 87 10000 8.7 100 15:54 16.09.2019
1606 Rain 8 1001 87 10000 8.7 100 15:54 16.09.2019
1607 Rain 8 1000 81 10000 6.7 90 15:36 16.09.2019
1608 Rain 8 1000 81 10000 6.7 90 15:18 16.09.2019
1609 Rain 8 1000 87 10000 7.2 100 14:42 16.09.2019
1610 Rain 8 1000 87 10000 7.2 100 14:22 16.09.2019
1611 Clouds 8 1000 87 10000 9.3 100 13:57 16.09.2019
1612 Clouds 8 1000 81 10000 8.2 100 13:38 16.09.2019
1613 Clouds 8 1000 81 10000 8.2 100 13:19 16.09.2019
1614 Clouds 7 999 87 10000 7.7 100 12:42 16.09.2019
1615 Clouds 7 999 87 10000 7.7 100 12:24 16.09.2019
1616 Clouds 7 999 93 10000 7.7 100 11:54 16.09.2019
1617 Rain 7 999 93 10000 7.2 90 11:36 16.09.2019
1618 Rain 8 999 93 10000 7.2 90 11:18 16.09.2019
1619 Rain 8 998 93 10000 5.1 70 10:38 16.09.2019
1620 Rain 8 998 93 10000 5.1 70 10:19 16.09.2019
1621 Rain 8 998 93 10000 4.6 50 09:57 16.09.2019
1622 Rain 7 998 93 10000 4.1 50 09:38 16.09.2019
1623 Rain 7 998 93 10000 4.1 50 09:18 16.09.2019
1624 Drizzle 7 998 93 10000 4.1 10 08:42 16.09.2019
1625 Drizzle 7 998 93 10000 4.1 10 08:24 16.09.2019
1626 Drizzle 7 998 93 10000 5.1 10 07:56 16.09.2019
1627 Rain 6 998 93 10000 5.1 10 07:37 16.09.2019
1628 Rain 6 998 93 10000 5.1 10 07:18 16.09.2019
1629 Drizzle 6 998 87 10000 5.7 10 06:43 16.09.2019
1630 Drizzle 6 998 87 10000 5.7 10 06:25 16.09.2019
1631 Rain 4 999 93 10000 6.2 40 05:44 16.09.2019
1632 Rain 4 999 93 10000 6.2 40 05:25 16.09.2019
1633 Clear 3 999 93 10000 4.6 60 03:52 16.09.2019
1634 Clear 3 999 93 10000 4.6 60 03:52 16.09.2019
1635 Clear 3 999 86 10000 5.7 100 01:57 16.09.2019
1636 Clear 4 999 86 10000 6.7 100 00:40 16.09.2019
1637 Clear 4 999 86 10000 6.7 100 00:22 16.09.2019
1638 Clear 5 998 80 10000 6.2 110 23:41 15.09.2019
1639 Clear 8 998 80 10000 6.2 110 23:21 15.09.2019
1640 Clear 8 998 70 10000 6.7 100 22:42 15.09.2019
1641 Clear 8 998 70 10000 6.7 100 22:23 15.09.2019
1642 Clear 8 998 73 10000 5.7 110 21:58 15.09.2019
1643 Clear 8 998 73 10000 8.7 120 21:40 15.09.2019
1644 Clear 8 998 68 10000 8.7 120 21:22 15.09.2019
1645 Clear 8 998 70 10000 8.7 120 20:59 15.09.2019
1646 Clear 6 998 69 10000 7.7 110 20:41 15.09.2019
1647 Clear 6 998 69 10000 7.7 110 20:23 15.09.2019
1648 Clear 6 998 69 10000 8.7 120 19:45 15.09.2019
1649 Clear 7 998 69 10000 9.8 120 19:25 15.09.2019
1650 Clear 9 998 49 10000 8.7 120 18:55 15.09.2019
1651 Clear 9 998 49 10000 8.7 120 18:36 15.09.2019
1652 Clear 9 998 49 10000 8.7 120 18:18 15.09.2019
1653 Clouds 11 998 71 10000 11.8 130 17:41 15.09.2019
1654 Clouds 11 998 71 10000 11.8 130 17:21 15.09.2019
1655 Clouds 11 998 53 10000 12.9 130 16:55 15.09.2019
1656 Clouds 11 998 53 10000 12.9 130 16:36 15.09.2019
1657 Clouds 11 998 53 10000 12.9 130 16:18 15.09.2019
1658 Clouds 11 998 53 10000 12.3 140 15:41 15.09.2019
1659 Clouds 11 998 53 10000 12.3 140 15:21 15.09.2019
1660 Clouds 11 998 53 10000 12.3 140 15:21 15.09.2019
1661 Clouds 10 998 57 10000 12.3 140 14:58 15.09.2019
1662 Clouds 9 998 57 10000 12.3 140 14:40 15.09.2019
1663 Clouds 9 998 57 10000 12.3 140 14:21 15.09.2019
1664 Clouds 10 998 57 10000 11.8 140 13:47 15.09.2019
1665 Clouds 10 998 57 10000 10.3 140 13:25 15.09.2019
1666 Clouds 9 998 61 10000 10.3 150 12:58 15.09.2019
1667 Clouds 9 998 61 10000 10.3 140 12:39 15.09.2019
1668 Clouds 9 998 61 10000 10.3 140 12:19 15.09.2019
1669 Clear 9 998 61 10000 13.4 150 11:42 15.09.2019
1670 Clear 9 998 61 10000 13.4 150 11:22 15.09.2019
1671 Clear 9 998 61 10000 12.3 150 10:59 15.09.2019
1672 Clear 8 998 65 10000 12.3 150 10:40 15.09.2019
1673 Clear 8 998 65 10000 12.3 150 10:21 15.09.2019
1674 Clear 8 998 65 10000 9.8 150 09:43 15.09.2019
1675 Clear 8 998 65 10000 9.8 150 09:21 15.09.2019
1676 Clear 7 999 70 10000 8.7 160 08:58 15.09.2019
1677 Clear 7 999 70 10000 8.7 170 08:39 15.09.2019
1678 Clear 7 999 70 10000 8.7 170 08:19 15.09.2019
1679 Clear 6 999 70 10000 6.2 170 07:41 15.09.2019
1680 Clear 5 1000 75 10000 5.7 160 06:44 15.09.2019
1681 Clear 5 1000 75 10000 5.1 160 05:58 15.09.2019
1682 Rain 3 1002 86 10000 3.1 120 03:19 15.09.2019
1683 Rain 4 1002 86 10000 4.1 120 02:19 15.09.2019
1684 Rain 4 1003 86 10000 2.6 110 01:36 15.09.2019
1685 Rain 4 1003 86 10000 2.6 110 01:36 15.09.2019
1686 Clouds 4 1003 86 10000 3.1 110 00:57 15.09.2019
1687 Clouds 3 1003 86 10000 2.1 130 00:37 15.09.2019
1688 Rain 3 1003 86 10000 2.1 130 00:19 15.09.2019
1689 Rain 3 1004 86 10000 1 190 23:56 14.09.2019
1690 Rain 4 1004 86 10000 1.5 250 23:38 14.09.2019
1691 Rain 4 1004 86 10000 1.5 250 23:38 14.09.2019
1692 Rain 4 1004 86 10000 1.5 250 23:19 14.09.2019
1693 Rain 5 1004 86 10000 2.6 250 22:55 14.09.2019
1694 Rain 5 1004 86 10000 3.1 260 22:37 14.09.2019
1695 Rain 5 1004 86 10000 3.1 260 22:18 14.09.2019
1696 Rain 6 1005 81 10000 2.6 270 21:40 14.09.2019
1697 Rain 6 1005 81 10000 2.6 270 21:21 14.09.2019
1698 Rain 6 1005 81 10000 2.6 270 21:21 14.09.2019
1699 Rain 7 1005 81 10000 4.6 250 20:59 14.09.2019
1700 Rain 6 1005 81 10000 4.1 290 20:39 14.09.2019
1701 Rain 6 1005 81 10000 4.1 290 20:21 14.09.2019
1702 Rain 7 1005 75 10000 4.1 280 19:49 14.09.2019
1703 Rain 6 1005 81 10000 2.6 300 19:23 14.09.2019
1704 Rain 7 1005 75 10000 2.6 280 18:58 14.09.2019
1705 Rain 7 1005 81 10000 2.6 280 18:39 14.09.2019
1706 Rain 7 1005 81 10000 2.6 280 18:20 14.09.2019
1707 Rain 7 1006 81 10000 3.6 230 17:45 14.09.2019
1708 Rain 7 1006 81 10000 3.6 230 17:25 14.09.2019
1709 Rain 8 1006 70 10000 3.6 230 16:59 14.09.2019
1710 Rain 8 1006 70 10000 4.6 260 16:40 14.09.2019
1711 Rain 8 1006 70 10000 4.6 260 16:19 14.09.2019
1712 Rain 8 1006 70 10000 4.6 260 16:19 14.09.2019
1713 Clouds 8 1006 75 10000 7.2 240 15:42 14.09.2019
1714 Clouds 8 1006 75 10000 7.2 240 15:23 14.09.2019
1715 Rain 8 1006 81 10000 6.7 250 14:58 14.09.2019
1716 Clouds 8 1006 81 10000 6.7 250 14:39 14.09.2019
1717 Clouds 9 1006 81 10000 6.7 250 14:18 14.09.2019
1718 Clouds 8 1006 81 10000 7.2 260 13:47 14.09.2019
1719 Rain 8 1006 81 10000 8.2 260 13:22 14.09.2019
1720 Clouds 6 1006 81 10000 6.7 250 12:46 14.09.2019
1721 Rain 6 1005 81 10000 9.8 260 12:24 14.09.2019
1722 Rain 7 1005 81 10000 7.7 250 11:42 14.09.2019
1723 Rain 7 1005 81 10000 7.7 250 11:21 14.09.2019
1724 Clouds 6 1005 81 10000 6.7 250 10:55 14.09.2019
1725 Rain 6 1005 81 10000 7.2 260 10:36 14.09.2019
1726 Rain 6 1005 81 10000 7.2 260 10:18 14.09.2019
1727 Rain 7 1005 81 10000 6.7 260 09:55 14.09.2019
1728 Clouds 6 1004 81 10000 6.2 250 09:37 14.09.2019
1729 Clouds 6 1004 81 10000 6.2 250 09:18 14.09.2019
1730 Clouds 7 1004 75 10000 6.7 280 08:41 14.09.2019
1731 Clouds 7 1004 75 10000 6.7 280 08:22 14.09.2019
1732 Clouds 7 1004 70 10000 9.8 290 07:43 14.09.2019
1733 Clouds 7 1004 70 10000 9.8 290 07:23 14.09.2019
1734 Clouds 6 1004 81 10000 6.7 280 06:38 14.09.2019
1735 Rain 6 1004 87 10000 6.7 280 05:55 14.09.2019
1736 Rain 6 1004 87 10000 9.3 280 04:44 14.09.2019
1737 Rain 6 1003 81 10000 9.8 290 03:33 14.09.2019
1738 Rain 6 1003 75 10000 11.8 290 02:51 14.09.2019
1739 Rain 7 1003 75 10000 12.9 310 01:46 14.09.2019
1740 Rain 7 1003 75 10000 12.9 310 01:21 14.09.2019
1741 Rain 7 1003 75 10000 13.9 300 00:55 14.09.2019
1742 Rain 6 1002 87 10000 17 300 00:36 14.09.2019
1743 Rain 6 1002 87 10000 17 300 00:18 14.09.2019
1744 Rain 7 1002 81 10000 12.9 300 23:38 13.09.2019
1745 Rain 8 1002 81 10000 12.9 300 23:19 13.09.2019
1746 Rain 8 1002 75 10000 14.4 300 22:56 13.09.2019
1747 Rain 8 1002 81 10000 14.9 300 22:37 13.09.2019
1748 Rain 8 1002 81 10000 14.9 300 22:19 13.09.2019
1749 Rain 8 1001 81 10000 13.4 290 21:41 13.09.2019
1750 Rain 8 1001 81 10000 13.4 290 21:20 13.09.2019
1751 Rain 8 1001 81 10000 14.9 300 20:58 13.09.2019
1752 Rain 8 1001 81 10000 13.9 300 20:39 13.09.2019
1753 Rain 8 1001 81 10000 13.9 300 20:20 13.09.2019
1754 Rain 7 1001 87 10000 11.8 300 19:56 13.09.2019
1755 Rain 8 1001 87 10000 13.4 300 19:37 13.09.2019
1756 Rain 8 1000 81 10000 12.3 290 19:18 13.09.2019
1757 Rain 8 1000 81 10000 12.3 290 18:54 13.09.2019
1758 Rain 8 1000 81 10000 12.9 290 18:36 13.09.2019
1759 Rain 8 1000 81 10000 12.9 290 18:18 13.09.2019
1760 Rain 8 1000 87 10000 9.8 280 17:37 13.09.2019
1761 Rain 8 1000 87 10000 9.8 280 17:18 13.09.2019
1762 Rain 8 999 87 10000 9.8 280 16:41 13.09.2019
1763 Rain 8 999 87 10000 9.8 280 16:20 13.09.2019
1764 Clouds 9 999 70 10000 11.3 300 15:46 13.09.2019
1765 Clouds 9 999 70 10000 11.3 300 15:28 13.09.2019
1766 Rain 9 998 70 10000 11.3 290 14:59 13.09.2019
1767 Rain 9 998 66 10000 11.3 290 14:41 13.09.2019
1768 Rain 9 998 66 10000 11.3 290 14:41 13.09.2019
1769 Rain 9 998 66 10000 11.3 290 14:22 13.09.2019
1770 Rain 9 998 66 10000 11.3 290 14:22 13.09.2019
1771 Rain 10 998 66 10000 10.3 290 13:54 13.09.2019
1772 Rain 9 998 71 10000 10.3 290 13:36 13.09.2019
1773 Rain 9 998 71 10000 10.3 290 13:18 13.09.2019
1774 Rain 8 997 76 10000 10.3 290 12:41 13.09.2019
1775 Rain 8 997 76 10000 10.3 290 12:22 13.09.2019
1776 Rain 8 997 76 10000 8.7 290 11:55 13.09.2019
1777 Rain 9 997 81 10000 10.3 290 11:19 13.09.2019
1778 Rain 9 996 87 10000 8.7 290 10:39 13.09.2019
1779 Rain 9 996 87 10000 8.7 290 10:19 13.09.2019
1780 Rain 9 996 87 8000 10.8 290 09:46 13.09.2019
1781 Drizzle 9 996 87 10000 8.7 290 09:25 13.09.2019
1782 Drizzle 9 996 93 10000 8.2 290 08:59 13.09.2019
1783 Drizzle 8 995 93 10000 8.7 290 08:40 13.09.2019
1784 Drizzle 8 995 93 10000 8.7 290 08:21 13.09.2019
1785 Drizzle 8 995 93 10000 7.7 290 07:52 13.09.2019
1786 Drizzle 8 995 93 10000 7.2 290 07:34 13.09.2019
1787 Rain 8 995 93 10000 7.2 290 06:48 13.09.2019
1788 Rain 8 995 93 10000 7.2 270 05:49 13.09.2019
1789 Rain 9 995 87 10000 8.2 270 04:59 13.09.2019
1790 Clouds 10 995 83 0 8 270.816 03:40 13.09.2019
1791 Rain 9 995 87 10000 7.7 290 02:21 13.09.2019
1792 Rain 9 995 87 10000 9.3 280 01:59 13.09.2019
1793 Rain 9 995 87 10000 9.3 280 01:34 13.09.2019
1794 Rain 9 995 87 10000 9.3 280 01:34 13.09.2019
1795 Rain 9 995 87 10000 9.3 290 00:58 13.09.2019
1796 Rain 9 995 87 10000 9.3 290 00:23 13.09.2019
1797 Rain 9 994 100 10000 14.9 300 23:39 12.09.2019
1798 Rain 10 994 100 10000 14.9 300 23:20 12.09.2019
1799 Rain 10 994 93 10000 8.2 290 22:42 12.09.2019
1800 Rain 10 994 93 10000 8.2 290 22:24 12.09.2019
1801 Rain 10 994 100 7000 6.7 290 21:57 12.09.2019
1802 Rain 10 994 100 9000 5.7 290 21:38 12.09.2019
1803 Rain 10 994 100 9000 5.7 290 21:20 12.09.2019
1804 Rain 10 994 100 10000 7.2 300 20:57 12.09.2019
1805 Rain 11 993 100 8000 6.7 290 20:39 12.09.2019
1806 Rain 11 993 100 8000 6.7 290 20:20 12.09.2019
1807 Rain 11 993 100 8000 6.7 290 20:20 12.09.2019
1808 Rain 11 993 93 10000 6.2 310 19:56 12.09.2019
1809 Drizzle 11 993 100 10000 6.2 280 19:36 12.09.2019
1810 Drizzle 11 993 100 10000 6.2 280 19:18 12.09.2019
1811 Rain 11 993 93 10000 6.7 220 18:38 12.09.2019
1812 Rain 11 993 93 10000 6.7 220 18:20 12.09.2019
1813 Rain 11 993 93 10000 6.7 220 18:20 12.09.2019
1814 Rain 12 993 82 10000 8.2 190 17:59 12.09.2019
1815 Drizzle 13 993 77 10000 5.7 180 17:39 12.09.2019
1816 Drizzle 13 993 77 10000 5.7 180 17:19 12.09.2019
1817 Rain 12 994 87 10000 3.6 180 16:42 12.09.2019
1818 Rain 12 994 87 10000 3.6 180 16:22 12.09.2019
1819 Rain 13 994 87 10000 5.7 190 15:58 12.09.2019
1820 Rain 14 994 82 10000 5.7 190 15:38 12.09.2019
1821 Rain 14 994 82 10000 5.7 190 15:20 12.09.2019
1822 Rain 14 994 82 10000 5.7 180 14:44 12.09.2019
1823 Rain 14 994 82 10000 7.2 190 14:21 12.09.2019
1824 Clouds 15 994 72 10000 5.7 190 13:42 12.09.2019
1825 Clouds 15 994 72 10000 5.7 190 13:42 12.09.2019
1826 Clouds 15 994 72 10000 5.7 190 13:23 12.09.2019
1827 Clouds 15 995 72 10000 8.7 190 12:57 12.09.2019
1828 Clouds 14 995 67 10000 8.7 200 12:38 12.09.2019
1829 Clouds 14 995 67 10000 8.7 200 12:18 12.09.2019
1830 Clouds 14 995 72 10000 9.8 190 11:54 12.09.2019
1831 Clouds 14 995 72 10000 10.8 190 11:36 12.09.2019
1832 Clouds 14 995 72 10000 10.8 190 11:18 12.09.2019
1833 Clouds 14 995 67 10000 12.3 190 10:43 12.09.2019
1834 Clouds 14 995 67 10000 12.3 190 10:24 12.09.2019
1835 Clouds 16 995 72 10000 12.9 190 09:44 12.09.2019
1836 Clouds 16 995 72 10000 12.9 190 09:20 12.09.2019
1837 Clouds 16 995 72 10000 13.9 190 08:57 12.09.2019
1838 Clouds 15 995 72 10000 12.3 190 08:39 12.09.2019
1839 Clouds 15 995 72 10000 12.3 190 08:21 12.09.2019
1840 Clouds 15 995 72 10000 13.4 190 07:39 12.09.2019
1841 Clouds 15 995 72 10000 13.4 190 07:19 12.09.2019
1842 Clouds 14 996 76 10000 14.9 190 06:49 12.09.2019
1843 Clouds 15 996 72 10000 14.4 180 06:19 12.09.2019
1844 Clouds 14 997 76 10000 7.2 200 05:48 12.09.2019
1845 Clouds 14 997 76 10000 7.2 200 05:27 12.09.2019
1846 Clouds 15 997 67 10000 13.9 190 04:34 12.09.2019
1847 Clouds 16 998 72 10000 13.9 180 01:48 12.09.2019
1848 Clouds 16 998 72 10000 13.9 180 01:30 12.09.2019
1849 Clouds 16 999 72 10000 11.3 180 00:58 12.09.2019
1850 Clouds 16 999 72 10000 8.2 180 00:40 12.09.2019
1851 Clouds 16 999 72 10000 8.2 180 00:22 12.09.2019
1852 Clouds 16 1000 72 10000 11.8 190 23:41 11.09.2019
1853 Clouds 16 1000 72 10000 11.8 190 23:21 11.09.2019
1854 Clear 16 1000 72 10000 10.8 180 22:56 11.09.2019
1855 Clear 15 1000 72 10000 15.4 190 22:37 11.09.2019
1856 Clear 15 1000 72 10000 15.4 190 22:18 11.09.2019
1857 Clouds 16 1001 72 10000 14.9 190 21:42 11.09.2019
1858 Clouds 16 1001 72 10000 14.9 190 21:24 11.09.2019
1859 Clouds 16 1002 72 10000 13.9 180 20:57 11.09.2019
1860 Clouds 16 1002 72 10000 13.9 180 20:57 11.09.2019
1861 Clouds 16 1002 72 10000 12.9 180 20:39 11.09.2019
1862 Clouds 16 1002 72 10000 12.9 180 20:19 11.09.2019
1863 Clouds 16 1002 63 10000 13.4 190 19:58 11.09.2019
1864 Clear 16 1002 67 10000 11.8 180 19:39 11.09.2019
1865 Clear 16 1002 67 10000 11.8 180 19:21 11.09.2019
1866 Clear 16 1002 63 10000 15.4 190 18:56 11.09.2019
1867 Clear 16 1003 63 10000 13.9 190 18:38 11.09.2019
1868 Clear 16 1003 63 10000 13.9 190 18:19 11.09.2019
1869 Clear 16 1003 63 10000 13.9 190 18:19 11.09.2019
1870 Clear 18 1003 59 10000 14.4 190 17:55 11.09.2019
1871 Clear 18 1003 59 10000 17 190 17:37 11.09.2019
1872 Clear 18 1003 59 10000 17 190 17:18 11.09.2019
1873 Clear 17 1003 59 10000 17.5 190 16:42 11.09.2019
1874 Clear 17 1003 59 10000 17.5 190 16:23 11.09.2019
1875 Clear 17 1003 59 10000 17.5 190 16:23 11.09.2019
1876 Clear 17 1004 59 10000 14.4 190 15:47 11.09.2019
1877 Clear 17 1004 59 10000 14.4 190 15:47 11.09.2019
1878 Clear 17 1004 59 10000 14.4 190 15:24 11.09.2019
1879 Clear 16 1004 59 10000 11.3 190 14:59 11.09.2019
1880 Clear 19 1004 59 10000 13.9 190 14:41 11.09.2019
1881 Clear 19 1004 59 10000 13.9 190 14:21 11.09.2019
1882 Clear 18 1004 63 10000 14.9 190 13:59 11.09.2019
1883 Clear 17 1005 68 10000 14.4 190 13:37 11.09.2019
1884 Clear 17 1005 68 10000 14.4 190 13:19 11.09.2019
1885 Clouds 17 1005 63 10000 9.3 180 12:44 11.09.2019
1886 Clouds 17 1005 63 10000 9.3 180 12:23 11.09.2019
1887 Clouds 17 1006 63 10000 7.7 190 11:59 11.09.2019
1888 Clouds 17 1006 67 10000 8.2 190 11:39 11.09.2019
1889 Clouds 16 1006 67 10000 8.2 190 11:21 11.09.2019
1890 Clouds 16 1007 72 10000 7.7 180 10:55 11.09.2019
1891 Clouds 16 1007 72 10000 7.7 180 10:37 11.09.2019
1892 Clouds 16 1007 72 10000 7.7 180 10:19 11.09.2019
1893 Clouds 15 1007 77 10000 4.1 160 09:38 11.09.2019
1894 Clouds 15 1007 77 10000 4.1 160 09:19 11.09.2019
1895 Clouds 12 1008 81 10000 3.6 120 08:42 11.09.2019
1896 Clouds 12 1008 81 10000 3.6 120 08:22 11.09.2019
1897 Clouds 11 1008 81 10000 4.1 100 07:59 11.09.2019
1898 Clouds 11 1008 87 10000 3.6 100 07:39 11.09.2019
1899 Clouds 11 1008 87 10000 3.6 100 07:21 11.09.2019
1900 Clear 10 1009 81 10000 4.1 40 06:44 11.09.2019
1901 Clear 10 1009 81 10000 4.1 40 06:21 11.09.2019
1902 Clear 11 1009 81 10000 3.1 10 05:35 11.09.2019
1903 Rain 11 1009 81 10000 3.1 10 04:59 11.09.2019
1904 Clear 11 1009 87 10000 3.6 350 04:21 11.09.2019
1905 Clear 13 1010 82 10000 5.7 220 03:29 11.09.2019
1906 Clear 14 1010 76 10000 4.1 160 02:32 11.09.2019
1907 Clear 14 1010 76 10000 4.6 190 01:33 11.09.2019
1908 Clear 15 1011 72 10000 6.7 190 00:40 11.09.2019
1909 Clear 15 1011 72 10000 6.7 190 00:20 11.09.2019
1910 Clear 13 1011 76 10000 5.7 190 23:40 10.09.2019
1911 Clear 14 1011 76 10000 5.7 190 23:22 10.09.2019
1912 Clear 14 1011 71 10000 4.6 190 22:57 10.09.2019
1913 Clear 14 1011 71 10000 4.6 190 22:37 10.09.2019
1914 Clear 14 1011 71 10000 4.6 190 22:18 10.09.2019
1915 Clear 14 1012 67 10000 5.7 200 21:55 10.09.2019
1916 Clear 14 1012 66 10000 4.1 190 21:36 10.09.2019
1917 Clear 14 1012 66 10000 4.1 190 21:18 10.09.2019
1918 Clear 13 1012 66 10000 6.2 190 20:56 10.09.2019
1919 Clear 14 1012 58 10000 4.6 180 20:37 10.09.2019
1920 Clear 14 1012 58 10000 4.6 180 20:18 10.09.2019
1921 Clear 14 1013 54 10000 3.6 160 19:55 10.09.2019
1922 Clear 14 1013 54 10000 3.6 160 19:55 10.09.2019
1923 Clear 13 1013 62 10000 3.1 140 19:36 10.09.2019
1924 Clear 13 1013 62 10000 3.1 140 19:18 10.09.2019
1925 Clear 13 1013 62 10000 3.1 140 19:18 10.09.2019
1926 Clear 14 1014 62 10000 3.1 150 18:45 10.09.2019
1927 Clear 14 1014 62 10000 3.1 150 18:22 10.09.2019
1928 Clear 14 1014 62 10000 3.1 170 17:59 10.09.2019
1929 Clear 15 1014 62 10000 3.1 180 17:40 10.09.2019
1930 Clear 15 1014 62 10000 3.1 180 17:20 10.09.2019
1931 Clear 15 1015 54 10000 4.6 190 16:57 10.09.2019
1932 Clear 15 1015 51 10000 3.1 180 16:38 10.09.2019
1933 Clear 14 1015 51 10000 3.1 180 16:19 10.09.2019
1934 Clear 14 1015 54 10000 3.6 200 15:44 10.09.2019
1935 Clear 14 1015 58 10000 4.1 220 15:23 10.09.2019
1936 Clear 13 1015 51 10000 2.6 230 14:58 10.09.2019
1937 Clear 14 1016 51 10000 3.1 260 14:39 10.09.2019
1938 Clear 14 1016 51 10000 3.1 260 14:21 10.09.2019
1939 Clear 14 1016 54 10000 2.6 260 13:48 10.09.2019
1940 Clear 13 1016 58 10000 4.1 250 13:24 10.09.2019
1941 Clear 13 1016 62 10000 4.1 240 12:56 10.09.2019
1942 Clear 13 1016 62 10000 4.6 240 12:37 10.09.2019
1943 Clear 13 1016 66 10000 5.1 220 12:19 10.09.2019
1944 Clear 13 1016 66 10000 5.1 220 11:42 10.09.2019
1945 Clear 13 1016 66 10000 5.1 220 11:22 10.09.2019
1946 Clear 12 1016 71 10000 6.2 210 10:59 10.09.2019
1947 Clear 12 1017 71 10000 4.6 210 10:38 10.09.2019
1948 Clear 12 1017 71 10000 4.6 210 10:18 10.09.2019
1949 Clouds 11 1016 71 10000 5.1 230 09:46 10.09.2019
1950 Clouds 11 1016 71 10000 5.1 230 09:20 10.09.2019
1951 Rain 11 1017 76 10000 8.2 210 08:59 10.09.2019
1952 Rain 11 1017 76 10000 5.1 190 08:41 10.09.2019
1953 Rain 11 1017 76 10000 5.1 190 08:21 10.09.2019
1954 Clear 10 1017 66 10000 4.1 220 07:44 10.09.2019
1955 Clear 10 1017 66 10000 4.1 220 07:25 10.09.2019
1956 Clear 11 1018 57 10000 3.1 140 06:48 10.09.2019
1957 Clear 11 1018 57 10000 3.1 140 06:29 10.09.2019
1958 Clear 10 1018 61 10000 2.6 110 04:41 10.09.2019
1959 Clear 11 1020 53 10000 5.7 80 02:44 10.09.2019
1960 Clear 11 1020 53 10000 5.7 80 02:22 10.09.2019
1961 Clear 11 1020 53 10000 5.7 80 02:22 10.09.2019
1962 Clouds 11 1020 53 10000 5.7 80 01:54 10.09.2019
1963 Clear 9 1020 61 10000 6.2 90 01:24 10.09.2019
1964 Clear 11 1020 53 10000 2.6 80 00:44 10.09.2019
1965 Clear 11 1020 53 10000 2.6 80 00:24 10.09.2019
1966 Clear 10 1020 57 10000 2.1 70 23:43 09.09.2019
1967 Clear 9 1020 57 10000 2.1 70 23:19 09.09.2019
1968 Clear 9 1020 61 10000 1 0 22:56 09.09.2019
1969 Clear 10 1020 53 10000 3.1 100 22:37 09.09.2019
1970 Clear 10 1020 53 10000 3.1 100 22:19 09.09.2019
1971 Clear 10 1020 61 10000 2.1 70 21:56 09.09.2019
1972 Clear 10 1020 61 10000 2.1 70 21:37 09.09.2019
1973 Clear 10 1020 61 10000 2.1 70 21:19 09.09.2019
1974 Clear 10 1020 53 10000 0.5 0 20:55 09.09.2019
1975 Clear 12 1020 50 10000 3.6 300 20:37 09.09.2019
1976 Clear 12 1020 50 10000 3.6 300 20:18 09.09.2019
1977 Clear 12 1020 50 10000 3.6 300 20:18 09.09.2019
1978 Clear 13 1020 43 10000 5.1 290 19:56 09.09.2019
1979 Clear 13 1020 43 10000 5.1 290 19:56 09.09.2019
1980 Clear 13 1020 43 10000 5.1 290 19:38 09.09.2019
1981 Clear 12 1020 50 10000 4.6 280 19:19 09.09.2019
1982 Clear 12 1020 50 10000 4.6 280 18:57 09.09.2019
1983 Clear 12 1020 54 10000 3.6 290 18:38 09.09.2019
1984 Clear 14 1020 77 10000 8.7 290 18:20 09.09.2019
1985 Clear 14 1020 77 10000 8.7 290 17:57 09.09.2019
1986 Clear 14 1020 41 10000 7.7 280 17:39 09.09.2019
1987 Clear 14 1020 41 10000 7.7 280 17:20 09.09.2019
1988 Clear 14 1020 77 10000 10.3 280 16:55 09.09.2019
1989 Clear 14 1020 44 10000 6.2 280 16:37 09.09.2019
1990 Clear 14 1020 44 10000 6.2 280 16:18 09.09.2019
1991 Clear 14 1020 44 10000 6.2 280 16:18 09.09.2019
1992 Clear 15 1020 41 10000 7.7 280 15:54 09.09.2019
1993 Clear 14 1019 44 10000 8.2 270 15:36 09.09.2019
1994 Clear 15 1019 44 10000 8.7 270 15:18 09.09.2019
1995 Clear 15 1019 44 10000 9.3 270 14:40 09.09.2019
1996 Clear 15 1019 44 10000 9.3 270 14:40 09.09.2019
1997 Clear 15 1019 44 10000 9.3 270 14:22 09.09.2019
1998 Clear 15 1019 47 10000 10.8 260 13:58 09.09.2019
1999 Clouds 15 1019 54 10000 10.3 250 13:40 09.09.2019
2000 Clouds 15 1019 58 10000 10.8 250 13:19 09.09.2019
2001 Clouds 15 1019 58 10000 10.8 250 12:57 09.09.2019
2002 Clouds 15 1019 58 10000 10.8 250 12:37 09.09.2019
2003 Clouds 14 1019 66 10000 11.8 250 12:18 09.09.2019
2004 Clouds 13 1019 66 10000 10.8 250 11:43 09.09.2019
2005 Clouds 13 1019 66 10000 10.8 250 11:20 09.09.2019
2006 Clouds 13 1018 66 10000 10.3 250 10:57 09.09.2019
2007 Clouds 14 1018 58 10000 11.8 260 10:38 09.09.2019
2008 Clouds 14 1018 58 10000 11.8 260 10:19 09.09.2019
2009 Clouds 13 1018 66 10000 11.8 260 09:48 09.09.2019
2010 Clouds 13 1018 66 10000 11.8 260 09:28 09.09.2019
2011 Clouds 13 1017 66 10000 11.3 260 08:57 09.09.2019
2012 Clouds 13 1017 66 10000 11.8 250 08:38 09.09.2019
2013 Clouds 13 1017 66 10000 11.8 250 08:19 09.09.2019
2014 Clouds 13 1017 66 10000 11.8 250 08:19 09.09.2019
2015 Clouds 11 1017 71 10000 10.8 240 07:41 09.09.2019
2016 Clouds 11 1017 71 10000 10.8 240 07:21 09.09.2019
2017 Clouds 11 1017 71 10000 10.8 240 06:54 09.09.2019
2018 Clouds 11 1017 71 10000 10.8 240 06:54 09.09.2019
2019 Clouds 11 1017 71 10000 10.8 240 06:54 09.09.2019
2020 Clouds 11 1017 71 10000 8.7 240 06:27 09.09.2019
2021 Rain 9 1017 87 10000 7.2 210 03:21 09.09.2019
2022 Drizzle 8 1017 93 10000 7.7 210 02:42 09.09.2019
2023 Rain 8 1017 93 10000 6.2 200 01:25 09.09.2019
2024 Rain 8 1018 87 10000 4.6 200 00:25 09.09.2019
2025 Rain 8 1018 87 10000 4.1 200 23:58 08.09.2019
2026 Rain 8 1018 87 10000 2.6 190 23:39 08.09.2019
2027 Rain 8 1018 87 10000 2.6 190 23:21 08.09.2019
2028 Rain 8 1019 87 10000 3.1 230 22:41 08.09.2019
2029 Rain 8 1019 87 10000 3.1 230 22:23 08.09.2019
2030 Rain 8 1019 87 10000 3.6 260 21:59 08.09.2019
2031 Rain 8 1019 87 10000 3.6 260 21:40 08.09.2019
2032 Rain 8 1019 87 10000 3.6 260 21:22 08.09.2019
2033 Rain 8 1019 81 10000 4.1 280 20:56 08.09.2019
2034 Rain 9 1019 70 10000 4.6 300 20:37 08.09.2019
2035 Drizzle 9 1019 76 10000 4.6 330 20:19 08.09.2019
2036 Rain 9 1019 70 10000 4.6 300 20:19 08.09.2019
2037 Drizzle 9 1019 76 10000 4.6 330 19:56 08.09.2019
2038 Drizzle 9 1019 76 10000 4.6 330 19:37 08.09.2019
2039 Clouds 10 1019 66 10000 5.1 330 19:18 08.09.2019
2040 Clouds 10 1019 66 10000 5.1 330 19:18 08.09.2019
2041 Clouds 10 1019 66 10000 5.1 330 18:55 08.09.2019
2042 Clouds 10 1019 71 10000 5.1 340 18:37 08.09.2019
2043 Clouds 12 1019 66 10000 2.6 260 18:18 08.09.2019
2044 Clear 11 1019 62 10000 2.6 210 17:38 08.09.2019
2045 Clear 11 1019 62 10000 3.1 220 17:19 08.09.2019
2046 Clear 11 1019 62 10000 3.1 220 16:59 08.09.2019
2047 Clear 11 1019 66 10000 3.6 210 16:41 08.09.2019
2048 Clear 11 1019 66 10000 3.6 210 16:21 08.09.2019
2049 Clear 11 1019 66 10000 5.7 210 15:58 08.09.2019
2050 Clear 11 1019 66 10000 5.7 210 15:58 08.09.2019
2051 Clear 12 1019 66 10000 6.2 200 15:39 08.09.2019
2052 Clear 12 1019 66 10000 6.2 200 15:21 08.09.2019
2053 Clear 12 1020 62 10000 7.2 200 14:54 08.09.2019
2054 Clear 12 1020 62 10000 7.2 190 14:36 08.09.2019
2055 Clear 11 1020 66 10000 6.7 200 14:18 08.09.2019
2056 Clear 11 1020 66 10000 6.7 200 13:54 08.09.2019
2057 Clear 11 1020 66 10000 6.7 190 13:36 08.09.2019
2058 Clear 12 1020 62 10000 7.2 190 13:18 08.09.2019
2059 Clear 12 1020 62 10000 7.2 190 12:41 08.09.2019
2060 Clear 11 1021 66 10000 4.1 170 12:23 08.09.2019
2061 Clear 11 1021 66 10000 4.1 170 11:58 08.09.2019
2062 Clouds 12 1021 62 10000 4.6 180 11:38 08.09.2019
2063 Clouds 12 1021 62 10000 4.6 180 11:19 08.09.2019
2064 Clouds 11 1021 66 10000 3.6 160 10:55 08.09.2019
2065 Clouds 10 1021 66 10000 3.6 150 10:37 08.09.2019
2066 Clouds 10 1021 66 10000 3.6 150 10:18 08.09.2019
2067 Clouds 9 1022 70 10000 3.1 130 09:38 08.09.2019
2068 Clouds 9 1022 70 10000 3.1 130 09:20 08.09.2019
2069 Clouds 8 1022 75 10000 2.1 160 08:56 08.09.2019
2070 Clouds 8 1022 75 10000 2.1 180 08:37 08.09.2019
2071 Clouds 7 1022 81 10000 1.5 180 08:18 08.09.2019
2072 Clouds 7 1023 81 10000 2.6 210 07:39 08.09.2019
2073 Clouds 7 1023 81 10000 2.6 210 07:20 08.09.2019
2074 Clouds 6 1023 81 10000 3.6 220 06:49 08.09.2019
2075 Clouds 5 1022 80 10000 3.6 220 06:18 08.09.2019
2076 Clouds 5 1022 80 10000 5.1 250 05:36 08.09.2019
2077 Clouds 6 1022 81 10000 3.6 200 03:54 08.09.2019
2078 Rain 6 1022 81 10000 3.1 240 02:55 08.09.2019
2079 Rain 5 1022 86 10000 3.6 240 02:26 08.09.2019
2080 Rain 5 1022 86 10000 3.6 240 02:26 08.09.2019
2081 Rain 6 1022 75 10000 3.1 220 01:45 08.09.2019
2082 Clouds 6 1022 81 10000 3.6 230 01:19 08.09.2019
2083 Clouds 6 1022 81 10000 4.1 240 00:44 08.09.2019
2084 Clouds 6 1022 81 10000 4.1 240 00:26 08.09.2019
2085 Clouds 6 1022 81 10000 4.1 220 23:38 07.09.2019
2086 Clouds 6 1022 81 10000 4.6 220 23:20 07.09.2019
2087 Clouds 6 1022 81 10000 4.6 220 22:57 07.09.2019
2088 Clouds 5 1022 80 10000 5.1 220 22:39 07.09.2019
2089 Clouds 5 1022 80 10000 5.1 220 22:20 07.09.2019
2090 Clouds 5 1022 80 10000 5.1 220 22:20 07.09.2019
2091 Clouds 5 1021 86 10000 3.6 260 21:42 07.09.2019
2092 Clouds 5 1021 86 10000 3.6 260 21:24 07.09.2019
2093 Clouds 6 1021 75 10000 4.6 270 20:57 07.09.2019
2094 Rain 6 1021 75 10000 4.6 270 20:38 07.09.2019
2095 Rain 7 1021 75 10000 4.6 270 20:19 07.09.2019
2096 Rain 7 1021 75 10000 4.6 270 19:55 07.09.2019
2097 Rain 8 1020 70 10000 4.1 260 19:37 07.09.2019
2098 Rain 8 1020 70 10000 3.6 250 19:18 07.09.2019
2099 Rain 8 1020 70 10000 3.6 250 18:55 07.09.2019
2100 Rain 8 1020 70 10000 3.6 250 18:55 07.09.2019
2101 Rain 7 1020 75 10000 3.6 260 18:36 07.09.2019
2102 Rain 8 1020 70 10000 4.6 260 18:18 07.09.2019
2103 Rain 8 1020 70 10000 4.6 260 17:55 07.09.2019
2104 Rain 8 1020 70 10000 4.6 260 17:55 07.09.2019
2105 Rain 8 1020 70 10000 4.6 250 17:36 07.09.2019
2106 Rain 8 1019 65 10000 5.7 250 17:18 07.09.2019
2107 Clouds 8 1019 65 10000 6.2 250 16:43 07.09.2019
2108 Clouds 8 1018 70 10000 5.7 250 16:21 07.09.2019
2109 Clouds 8 1018 70 10000 5.7 250 15:50 07.09.2019
2110 Clouds 8 1018 65 10000 5.7 240 15:27 07.09.2019
2111 Clouds 8 1018 65 10000 6.7 250 14:58 07.09.2019
2112 Clouds 8 1018 65 10000 5.7 250 14:38 07.09.2019
2113 Clouds 9 1017 66 10000 6.2 240 14:20 07.09.2019
2114 Clouds 9 1017 66 10000 6.2 240 14:20 07.09.2019
2115 Clouds 9 1017 66 10000 6.2 240 13:59 07.09.2019
2116 Clouds 8 1017 65 10000 5.7 240 13:41 07.09.2019
2117 Clouds 8 1017 65 10000 5.7 240 13:23 07.09.2019
2118 Clouds 7 1016 75 10000 5.1 260 12:46 07.09.2019
2119 Clouds 7 1016 75 10000 5.1 260 12:26 07.09.2019
2120 Clouds 7 1015 70 10000 6.2 290 11:59 07.09.2019
2121 Clouds 7 1015 70 10000 6.2 290 11:40 07.09.2019
2122 Clouds 7 1015 70 10000 6.2 290 11:20 07.09.2019
2123 Clouds 7 1014 70 10000 6.2 310 10:41 07.09.2019
2124 Clouds 7 1014 70 10000 6.2 310 10:41 07.09.2019
2125 Clouds 7 1014 70 10000 6.2 310 10:22 07.09.2019
2126 Clouds 6 1013 75 10000 7.2 320 09:57 07.09.2019
2127 Clouds 7 1013 70 10000 6.7 320 09:39 07.09.2019
2128 Clouds 7 1013 70 10000 6.7 320 09:39 07.09.2019
2129 Clouds 7 1013 70 10000 6.7 320 09:20 07.09.2019
2130 Rain 6 1012 75 10000 8.2 320 08:44 07.09.2019
2131 Rain 6 1012 75 10000 8.2 320 08:26 07.09.2019
2132 Clouds 6 1011 75 10000 9.3 320 07:48 07.09.2019
2133 Clouds 6 1011 75 10000 9.3 320 07:28 07.09.2019
2134 Rain 6 1010 75 10000 10.3 320 06:53 07.09.2019
2135 Clouds 6 1009 81 10000 10.8 330 06:29 07.09.2019
2136 Drizzle 7 1008 87 10000 11.8 330 05:32 07.09.2019
2137 Rain 7 1007 87 10000 12.9 340 04:23 07.09.2019
2138 Rain 7 1005 93 10000 15.4 340 02:57 07.09.2019
2139 Rain 8 1004 93 10000 15.9 340 02:21 07.09.2019
2140 Rain 8 1003 93 10000 14.9 340 01:26 07.09.2019
2141 Rain 8 1001 93 10000 15.4 350 00:44 07.09.2019
2142 Rain 8 1001 93 10000 15.4 350 00:21 07.09.2019
2143 Drizzle 8 999 93 4200 16.5 350 23:43 06.09.2019
2144 Drizzle 9 999 93 4200 16.5 350 23:23 06.09.2019
2145 Drizzle 9 999 93 4200 16.5 350 23:23 06.09.2019
2146 Drizzle 9 999 100 4000 15.9 350 22:59 06.09.2019
2147 Rain 9 997 100 4500 12.9 350 22:40 06.09.2019
2148 Rain 9 997 100 4500 12.9 350 22:19 06.09.2019
2149 Rain 9 997 93 3500 12.3 340 21:59 06.09.2019
2150 Rain 9 996 93 5000 4.6 290 21:40 06.09.2019
2151 Rain 9 996 93 5000 4.6 290 21:22 06.09.2019
2152 Rain 10 996 93 10000 4.6 300 20:59 06.09.2019
2153 Rain 10 995 93 10000 3.6 260 20:40 06.09.2019
2154 Rain 10 995 93 10000 3.6 260 20:21 06.09.2019
2155 Clouds 9 995 87 10000 5.1 250 19:58 06.09.2019
2156 Clouds 9 995 87 10000 3.1 260 19:40 06.09.2019
2157 Rain 10 995 87 10000 3.1 260 19:20 06.09.2019
2158 Rain 10 995 87 10000 4.1 270 18:47 06.09.2019
2159 Rain 10 995 87 10000 4.1 270 18:29 06.09.2019
2160 Rain 10 994 87 10000 4.6 270 17:59 06.09.2019
2161 Rain 10 994 87 10000 5.1 260 17:38 06.09.2019
2162 Rain 10 994 87 10000 5.1 260 17:20 06.09.2019
2163 Rain 10 994 87 10000 5.1 260 17:20 06.09.2019
2164 Rain 10 994 87 10000 5.1 260 17:20 06.09.2019
2165 Clouds 10 994 87 10000 5.1 260 16:42 06.09.2019
2166 Clouds 10 994 87 10000 5.1 260 16:19 06.09.2019
2167 Rain 10 993 87 10000 5.1 250 15:59 06.09.2019
2168 Clouds 9 993 93 10000 5.7 260 15:40 06.09.2019
2169 Clouds 9 993 93 10000 5.7 260 15:22 06.09.2019
2170 Clouds 9 993 93 10000 5.1 270 14:41 06.09.2019
2171 Clouds 9 993 93 10000 5.1 270 14:19 06.09.2019
2172 Drizzle 9 993 100 10000 6.2 270 13:44 06.09.2019
2173 Drizzle 9 993 100 10000 6.2 270 13:23 06.09.2019
2174 Clouds 8 992 100 10000 6.2 260 12:56 06.09.2019
2175 Clouds 8 992 100 10000 5.1 250 12:36 06.09.2019
2176 Clouds 10 992 100 10000 2.6 240 12:18 06.09.2019
2177 Clouds 10 992 100 10000 3.1 210 11:40 06.09.2019
2178 Clouds 10 992 100 10000 3.1 210 11:22 06.09.2019
2179 Rain 10 991 87 10000 3.1 180 10:56 06.09.2019
2180 Rain 9 991 93 10000 1 0 10:38 06.09.2019
2181 Rain 9 991 93 10000 2.6 140 10:18 06.09.2019
2182 Clouds 9 991 93 10000 4.1 140 09:38 06.09.2019
2183 Clouds 9 991 93 10000 4.1 140 09:19 06.09.2019
2184 Rain 9 991 93 10000 3.6 130 08:55 06.09.2019
2185 Rain 9 991 93 10000 3.6 130 08:55 06.09.2019
2186 Rain 9 991 93 10000 4.6 100 08:37 06.09.2019
2187 Rain 9 991 93 10000 4.6 100 08:18 06.09.2019
2188 Rain 9 991 93 10000 4.6 100 08:18 06.09.2019
2189 Rain 9 992 93 10000 7.2 90 07:42 06.09.2019
2190 Rain 9 992 93 10000 7.2 90 07:42 06.09.2019
2191 Rain 9 992 93 10000 7.2 90 07:23 06.09.2019
2192 Rain 9 992 93 10000 7.2 90 06:43 06.09.2019
2193 Rain 8 993 93 10000 9.3 90 05:58 06.09.2019
2194 Rain 8 994 93 10000 10.3 90 04:58 06.09.2019
2195 Rain 8 994 93 10000 10.3 90 04:33 06.09.2019
2196 Rain 8 995 93 10000 9.3 90 03:39 06.09.2019
2197 Rain 8 996 93 10000 11.8 100 01:49 06.09.2019
2198 Rain 8 998 93 10000 6.2 110 00:32 06.09.2019
2199 Drizzle 8 998 93 10000 5.7 100 23:44 05.09.2019
2200 Drizzle 10 998 93 10000 5.7 100 23:24 05.09.2019
2201 Drizzle 10 999 87 10000 5.1 90 22:54 05.09.2019
2202 Drizzle 10 999 87 10000 4.6 100 22:36 05.09.2019
2203 Drizzle 10 999 87 10000 5.1 100 22:18 05.09.2019
2204 Drizzle 10 999 87 10000 5.1 100 21:55 05.09.2019
2205 Drizzle 10 1000 87 10000 5.7 90 21:37 05.09.2019
2206 Drizzle 10 1000 87 10000 5.7 90 21:19 05.09.2019
2207 Drizzle 10 1000 87 10000 4.6 120 20:54 05.09.2019
2208 Drizzle 11 1000 81 10000 3.1 190 20:36 05.09.2019
2209 Drizzle 11 1000 76 10000 5.7 90 20:18 05.09.2019
2210 Drizzle 11 1000 76 10000 5.7 90 19:41 05.09.2019
2211 Drizzle 11 1000 76 10000 5.7 90 19:22 05.09.2019
2212 Clouds 10 1000 81 10000 6.7 90 18:57 05.09.2019
2213 Clouds 10 1000 81 10000 6.7 90 18:39 05.09.2019
2214 Clouds 12 1000 81 10000 6.7 80 18:19 05.09.2019
2215 Clouds 11 1001 81 10000 6.7 80 17:41 05.09.2019
2216 Clouds 11 1001 81 10000 6.7 80 17:22 05.09.2019
2217 Clouds 11 1001 81 10000 6.2 80 16:58 05.09.2019
2218 Clouds 11 1001 81 10000 5.7 70 16:40 05.09.2019
2219 Clouds 11 1001 81 10000 5.7 70 16:20 05.09.2019
2220 Clouds 12 1002 76 10000 5.1 80 15:57 05.09.2019
2221 Clouds 12 1002 76 10000 4.1 60 15:38 05.09.2019
2222 Clouds 11 1002 71 10000 5.1 70 15:18 05.09.2019
2223 Clouds 11 1002 71 10000 5.1 70 15:18 05.09.2019
2224 Clouds 12 1002 71 10000 4.6 70 14:43 05.09.2019
2225 Clouds 13 1002 71 10000 4.6 70 14:21 05.09.2019
2226 Clouds 13 1002 62 10000 1.5 330 13:44 05.09.2019
2227 Clouds 13 1002 62 10000 1.5 330 13:23 05.09.2019
2228 Clouds 13 1003 62 10000 1.5 0 12:59 05.09.2019
2229 Clouds 12 1003 62 10000 2.1 270 12:40 05.09.2019
2230 Clouds 12 1003 66 10000 2.6 250 12:21 05.09.2019
2231 Clouds 11 1003 71 10000 1.5 270 11:44 05.09.2019
2232 Clouds 11 1003 71 10000 2.6 260 11:20 05.09.2019
2233 -273 0 0 0 0 0 10:55 05.09.2019
2234 Clouds 11 1003 76 10000 3.6 250 10:36 05.09.2019
2235 Clouds 10 1003 81 10000 4.6 230 10:18 05.09.2019
2236 Clouds 10 1003 81 10000 4.6 220 09:40 05.09.2019
2237 Clouds 10 1003 81 10000 4.6 220 09:20 05.09.2019
2238 Clouds 10 1002 76 10000 3.6 260 08:55 05.09.2019
2239 Clouds 10 1002 81 10000 6.2 270 08:37 05.09.2019
2240 Clouds 10 1002 81 10000 6.2 270 08:19 05.09.2019
2241 Clouds 9 1002 76 10000 5.1 260 07:42 05.09.2019
2242 Clouds 9 1002 76 10000 5.1 260 07:23 05.09.2019
2243 Clouds 9 1002 81 10000 3.1 280 06:44 05.09.2019
2244 Clouds 9 1002 81 10000 3.1 280 06:22 05.09.2019
2245 Clouds 8 1002 87 10000 3.6 240 05:42 05.09.2019
2246 Clouds 8 1002 87 10000 3.6 240 05:23 05.09.2019
2247 Clouds 9 1001 81 10000 5.1 270 04:30 05.09.2019
2248 Clouds 9 1001 81 10000 6.2 270 03:46 05.09.2019
2249 Clouds 10 1001 76 10000 6.7 270 02:56 05.09.2019
2250 Clouds 10 1001 76 10000 6.7 270 02:28 05.09.2019
2251 Clouds 10 1001 76 10000 6.7 270 02:28 05.09.2019
2252 Clouds 10 1001 76 10000 6.7 270 01:54 05.09.2019
2253 Clouds 10 1001 76 10000 5.7 270 00:52 05.09.2019
2254 Clouds 10 1001 76 10000 5.7 270 00:27 05.09.2019
2255 Clouds 10 1000 76 10000 5.7 260 23:59 04.09.2019
2256 Clouds 10 1000 76 10000 6.2 270 23:39 04.09.2019
2257 Clouds 11 1000 76 10000 6.2 270 23:21 04.09.2019
2258 Clouds 11 1000 76 10000 5.7 260 22:47 04.09.2019
2259 Clouds 11 1000 76 10000 5.7 260 22:20 04.09.2019
2260 -273 0 0 0 0 0 21:56 04.09.2019
2261 Clouds 11 1000 76 10000 3.6 270 21:38 04.09.2019
2262 Clouds 11 1000 76 10000 3.6 270 21:19 04.09.2019
2263 Clouds 10 999 76 10000 4.6 270 20:55 04.09.2019
2264 Rain 11 999 71 10000 3.6 260 20:36 04.09.2019
2265 Rain 11 999 71 10000 3.6 260 20:36 04.09.2019
2266 Rain 11 999 71 10000 4.6 270 20:18 04.09.2019
2267 Rain 11 999 71 10000 4.6 270 19:40 04.09.2019
2268 Rain 11 999 71 10000 6.2 290 19:21 04.09.2019
2269 Rain 11 999 66 10000 4.1 280 18:44 04.09.2019
2270 Rain 11 999 66 10000 4.1 280 18:26 04.09.2019
2271 Rain 12 998 62 10000 4.6 310 17:59 04.09.2019
2272 Rain 12 998 58 10000 3.1 260 17:40 04.09.2019
2273 Rain 12 998 58 10000 3.1 260 17:22 04.09.2019
2274 Rain 12 998 58 10000 3.1 280 16:56 04.09.2019
2275 Rain 14 998 58 10000 2.6 270 16:38 04.09.2019
2276 Rain 14 998 58 10000 2.6 270 16:19 04.09.2019
2277 Clouds 14 998 54 10000 2.6 240 15:40 04.09.2019
2278 Clouds 14 998 54 10000 2.6 240 15:22 04.09.2019
2279 Clouds 14 998 54 10000 2.6 240 15:22 04.09.2019
2280 Clouds 14 998 54 10000 3.6 200 14:58 04.09.2019
2281 Clouds 14 997 51 10000 4.6 220 14:38 04.09.2019
2282 Clouds 14 997 51 10000 4.6 220 14:20 04.09.2019
2283 Clouds 14 997 54 10000 4.1 190 13:58 04.09.2019
2284 Clouds 14 997 54 10000 4.1 190 13:39 04.09.2019
2285 Clouds 14 997 54 10000 4.1 190 13:21 04.09.2019
2286 Clouds 13 997 58 10000 2.6 210 12:44 04.09.2019
2287 Clouds 13 997 58 10000 2.6 210 12:26 04.09.2019
2288 Clouds 13 997 62 10000 4.1 210 11:58 04.09.2019
2289 Clear 12 997 66 10000 6.2 200 11:38 04.09.2019
2290 Clear 12 997 66 10000 6.2 200 11:19 04.09.2019
2291 Clear 13 997 58 10000 6.2 200 10:55 04.09.2019
2292 Clear 13 997 58 10000 6.7 200 10:36 04.09.2019
2293 Clear 12 997 62 10000 6.7 190 10:18 04.09.2019
2294 Clear 11 997 66 10000 6.7 190 09:42 04.09.2019
2295 Clear 11 997 66 10000 6.7 190 09:20 04.09.2019
2296 Clear 12 997 66 10000 6.2 200 08:42 04.09.2019
2297 Clear 12 997 66 10000 6.2 200 08:24 04.09.2019
2298 Clear 11 997 66 10000 6.2 210 07:58 04.09.2019
2299 Clear 11 997 66 10000 6.2 210 07:35 04.09.2019
2300 Clear 11 997 66 10000 7.7 200 06:53 04.09.2019
2301 Clear 10 997 71 10000 8.7 190 06:33 04.09.2019
2302 Clear 11 998 62 10000 6.7 190 04:54 04.09.2019
2303 Clear 11 998 62 10000 6.7 190 04:22 04.09.2019
2304 Clear 12 998 58 10000 8.7 200 02:46 04.09.2019
2305 Clear 12 999 58 10000 10.3 200 01:18 04.09.2019
2306 Clear 12 999 54 10000 10.8 190 00:41 04.09.2019
2307 Clear 12 999 54 10000 10.8 190 00:22 04.09.2019
2308 Clear 12 999 54 10000 10.8 190 00:22 04.09.2019
2309 Clear 13 999 54 10000 10.3 190 23:48 03.09.2019
2310 Clear 13 999 54 10000 10.3 190 23:26 03.09.2019
2311 Clear 13 1000 58 10000 11.3 190 22:43 03.09.2019
2312 Clear 13 1000 58 10000 11.3 190 22:24 03.09.2019
2313 Clear 12 1000 58 10000 10.3 190 21:59 03.09.2019
2314 Clear 12 1000 58 10000 8.2 180 21:38 03.09.2019
2315 Clear 12 1000 58 10000 8.2 180 21:38 03.09.2019
2316 Clear 12 1000 58 10000 8.2 180 21:20 03.09.2019
2317 Clear 12 1000 71 10000 5.7 170 20:57 03.09.2019
2318 Clear 11 1000 71 10000 5.7 170 20:38 03.09.2019
2319 Clear 12 1001 76 10000 5.1 180 20:20 03.09.2019
2320 Clear 12 1001 76 10000 5.1 180 19:55 03.09.2019
2321 Clear 12 1001 76 10000 5.1 180 19:55 03.09.2019
2322 Clear 11 1001 81 10000 3.1 140 19:36 03.09.2019
2323 Clear 12 1001 71 10000 3.1 110 19:18 03.09.2019
2324 Clear 12 1001 71 10000 3.1 110 19:18 03.09.2019
2325 Clear 12 1001 71 10000 4.1 120 18:41 03.09.2019
2326 Clear 12 1001 71 10000 4.1 120 18:23 03.09.2019
2327 Clear 12 1001 66 10000 3.1 120 17:56 03.09.2019
2328 Clear 13 1002 66 10000 4.1 170 17:38 03.09.2019
2329 Clear 13 1002 66 10000 4.1 170 17:19 03.09.2019
2330 Clear 13 1002 71 10000 4.1 170 16:43 03.09.2019
2331 Clear 13 1002 71 10000 4.1 170 16:23 03.09.2019
2332 Clear 12 1002 76 10000 4.1 190 15:58 03.09.2019
2333 Clouds 12 1002 71 10000 4.1 180 15:39 03.09.2019
2334 Clouds 12 1002 71 10000 4.1 180 15:20 03.09.2019
2335 Clouds 11 1002 81 10000 4.6 200 14:57 03.09.2019
2336 Clouds 11 1003 87 10000 4.1 190 14:39 03.09.2019
2337 Clouds 11 1003 87 10000 4.1 190 14:20 03.09.2019
2338 Clouds 11 1002 87 10000 3.1 220 13:56 03.09.2019
2339 Clouds 11 1002 87 10000 4.1 260 13:37 03.09.2019
2340 Clouds 11 1002 87 10000 4.1 260 13:19 03.09.2019
2341 Clouds 10 1002 93 10000 6.2 280 12:48 03.09.2019
2342 Clouds 10 1002 93 10000 6.2 280 12:29 03.09.2019
2343 Drizzle 10 1002 93 10000 5.7 300 11:57 03.09.2019
2344 Rain 9 1001 93 10000 6.7 300 11:38 03.09.2019
2345 Rain 9 1001 93 10000 6.7 300 11:18 03.09.2019
2346 Rain 9 1001 93 10000 7.2 310 10:54 03.09.2019
2347 Rain 9 1001 93 10000 7.7 320 10:36 03.09.2019
2348 Rain 9 1000 93 10000 8.7 330 10:18 03.09.2019
2349 Rain 9 1000 93 10000 8.7 330 10:18 03.09.2019
2350 Drizzle 9 1000 93 10000 10.8 340 09:41 03.09.2019
2351 Drizzle 9 1000 93 10000 10.8 340 09:41 03.09.2019
2352 Drizzle 9 1000 93 10000 10.8 340 09:23 03.09.2019
2353 Drizzle 9 1000 100 8000 12.9 340 08:39 03.09.2019
2354 Drizzle 9 1000 100 8000 12.9 340 08:21 03.09.2019
2355 Rain 9 999 100 6000 11.8 340 07:57 03.09.2019
2356 Rain 9 999 100 6000 11.8 340 07:37 03.09.2019
2357 Rain 9 1000 93 6000 9.8 360 07:18 03.09.2019
2358 Rain 8 1000 100 6000 10.3 350 06:41 03.09.2019
2359 Drizzle 9 1001 93 5000 10.3 20 03:57 03.09.2019
2360 Drizzle 9 1001 93 5000 10.3 20 03:33 03.09.2019
2361 Drizzle 9 1002 93 5000 11.3 20 02:40 03.09.2019
2362 Drizzle 9 1002 93 5000 11.3 20 02:21 03.09.2019
2363 Drizzle 10 1002 93 8000 10.3 30 01:45 03.09.2019
2364 Drizzle 10 1002 93 8000 10.3 30 01:45 03.09.2019
2365 Drizzle 10 1002 93 8000 10.3 30 01:25 03.09.2019
2366 Drizzle 10 1003 93 10000 8.7 40 00:33 03.09.2019
2367 Rain 10 1003 93 10000 10.8 40 23:59 02.09.2019
2368 Rain 10 1003 93 10000 10.3 50 23:37 02.09.2019
2369 Rain 11 1003 93 10000 10.3 50 23:19 02.09.2019
2370 Rain 11 1003 93 9000 11.3 60 22:56 02.09.2019
2371 Rain 11 1003 93 9000 11.3 60 22:56 02.09.2019
2372 Drizzle 11 1003 93 10000 11.8 60 22:37 02.09.2019
2373 Rain 11 1004 93 10000 10.3 60 22:18 02.09.2019
2374 Rain 11 1004 93 10000 10.3 60 22:18 02.09.2019
2375 Rain 11 1004 93 10000 10.3 60 21:56 02.09.2019
2376 Rain 11 1005 93 10000 10.8 60 21:37 02.09.2019
2377 Drizzle 11 1005 100 10000 11.3 60 21:19 02.09.2019
2378 Drizzle 11 1005 93 10000 8.7 40 20:42 02.09.2019
2379 Drizzle 11 1005 93 10000 8.7 40 20:23 02.09.2019
2380 Rain 11 1006 93 8000 6.2 40 19:59 02.09.2019
2381 Rain 11 1006 93 8000 6.2 40 19:41 02.09.2019
2382 Drizzle 10 1006 100 8000 7.2 50 19:23 02.09.2019
2383 Drizzle 10 1006 100 8000 7.2 50 18:57 02.09.2019
2384 Drizzle 11 1006 93 8000 6.2 50 18:37 02.09.2019
2385 Drizzle 11 1006 93 10000 5.7 60 18:19 02.09.2019
2386 Drizzle 11 1006 93 10000 5.7 60 17:55 02.09.2019
2387 Drizzle 11 1006 93 10000 4.6 50 17:37 02.09.2019
2388 Drizzle 11 1006 93 10000 4.6 50 17:18 02.09.2019
2389 Clouds 11 1006 93 10000 3.6 50 16:41 02.09.2019
2390 Clouds 12 1006 93 10000 3.6 50 16:21 02.09.2019
2391 Clouds 12 1006 87 10000 2.6 70 15:54 02.09.2019
2392 Clouds 12 1006 87 10000 3.1 60 15:36 02.09.2019
2393 Clouds 12 1006 87 10000 0.5 0 15:18 02.09.2019
2394 Clouds 12 1006 87 10000 0.5 0 14:55 02.09.2019
2395 Clouds 12 1005 87 10000 1 0 14:36 02.09.2019
2396 Clouds 12 1005 87 10000 1.5 350 14:18 02.09.2019
2397 Clouds 12 1005 87 10000 1.5 350 13:41 02.09.2019
2398 Clouds 12 1005 87 10000 1.5 350 13:23 02.09.2019
2399 Clouds 11 1005 93 10000 3.6 90 12:45 02.09.2019
2400 Clouds 11 1005 93 10000 3.6 90 12:26 02.09.2019
2401 Clouds 11 1005 93 10000 3.6 80 11:59 02.09.2019
2402 Clouds 11 1005 93 10000 2.1 20 11:40 02.09.2019
2403 Clouds 11 1005 93 10000 2.1 20 11:40 02.09.2019
2404 Clouds 11 1005 93 10000 2.1 20 11:22 02.09.2019
2405 Fog 11 1005 93 10000 3.6 330 10:58 02.09.2019
2406 Drizzle 11 1005 93 10000 4.6 330 10:39 02.09.2019
2407 Drizzle 11 1005 93 10000 4.6 330 10:21 02.09.2019
2408 Drizzle 11 1005 93 10000 5.7 330 09:58 02.09.2019
2409 Drizzle 11 1005 93 8000 5.7 330 09:38 02.09.2019
2410 Drizzle 11 1005 93 8000 5.7 330 09:19 02.09.2019
2411 Rain 11 1004 87 10000 6.2 330 08:39 02.09.2019
2412 Drizzle 11 1003 81 10000 6.7 340 08:18 02.09.2019
2413 Drizzle 11 1003 81 10000 6.7 340 07:42 02.09.2019
2414 Drizzle 11 1003 81 10000 6.7 340 07:22 02.09.2019
2415 Clouds 12 1003 81 10000 6.7 330 06:58 02.09.2019
2416 Clouds 13 1003 76 10000 7.2 340 06:39 02.09.2019
2417 Clouds 13 1002 87 10000 1.5 230 05:50 02.09.2019
2418 Clouds 13 1002 87 10000 2.1 290 05:20 02.09.2019
2419 Clouds 15 1002 82 10000 4.6 280 04:47 02.09.2019
2420 Clouds 18 1001 77 10000 14.4 190 01:59 02.09.2019
2421 Clear 18 1000 72 10000 13.4 190 00:58 02.09.2019
2422 Clear 18 1001 72 10000 15.9 190 00:36 02.09.2019
2423 Clouds 18 1001 72 10000 15.9 190 00:18 02.09.2019
2424 Clouds 18 1001 72 10000 14.9 190 23:39 01.09.2019
2425 Clouds 17 1001 72 10000 14.9 190 23:19 01.09.2019
2426 -273 0 0 0 0 0 22:56 01.09.2019
2427 Clear 17 1001 68 10000 14.4 190 22:38 01.09.2019
2428 Clear 17 1001 68 10000 12.9 190 22:18 01.09.2019
2429 Clear 17 1001 68 10000 13.9 190 21:42 01.09.2019
2430 Clear 17 1001 68 10000 13.9 190 21:23 01.09.2019
2431 Clear 17 1001 68 10000 11.3 190 20:58 01.09.2019
2432 Clear 17 1001 68 10000 11.3 190 20:39 01.09.2019
2433 Clouds 18 1001 63 10000 11.8 190 20:19 01.09.2019
2434 Clouds 18 1001 63 10000 11.8 190 19:59 01.09.2019
2435 Clouds 18 1001 68 10000 11.3 190 19:40 01.09.2019
2436 Clouds 18 1001 68 10000 12.3 190 19:21 01.09.2019
2437 Clouds 18 1002 68 10000 11.8 190 18:45 01.09.2019
2438 Clouds 18 1002 68 10000 11.8 190 18:27 01.09.2019
2439 Clouds 18 1002 68 10000 12.3 180 17:59 01.09.2019
2440 Clouds 19 1003 63 10000 11.3 180 17:39 01.09.2019
2441 Clouds 19 1003 63 10000 11.3 180 17:39 01.09.2019
2442 Clouds 18 1003 63 10000 11.3 180 17:20 01.09.2019
2443 Clouds 19 1003 60 10000 10.3 180 16:41 01.09.2019
2444 Clouds 19 1003 60 10000 10.3 180 16:41 01.09.2019
2445 Clouds 18 1004 63 10000 8.7 180 16:21 01.09.2019
2446 Clouds 18 1004 63 10000 8.7 180 15:59 01.09.2019
2447 Clouds 18 1004 63 0 11.3 180 15:41 01.09.2019
2448 Clouds 18 1004 63 0 11.3 180 15:22 01.09.2019
2449 Clear 19 1005 68 10000 12.9 190 14:44 01.09.2019
2450 Clear 19 1005 68 10000 12.9 190 14:26 01.09.2019
2451 Clear 19 1005 68 10000 11.8 190 13:59 01.09.2019
2452 Clear 19 1005 68 10000 12.3 190 13:40 01.09.2019
2453 Clear 19 1005 68 10000 12.3 190 13:21 01.09.2019
2454 Clear 17 1006 72 10000 6.7 190 12:44 01.09.2019
2455 Clear 17 1006 72 10000 6.7 190 12:26 01.09.2019
2456 Clear 17 1006 72 10000 6.7 190 12:26 01.09.2019
2457 Clear 17 1006 72 10000 6.7 190 11:57 01.09.2019
2458 Clear 16 1006 77 10000 7.2 190 11:38 01.09.2019
2459 Clear 16 1006 77 10000 7.2 190 11:18 01.09.2019
2460 Clear 16 1006 77 10000 7.2 180 10:44 01.09.2019
2461 Clear 16 1006 77 10000 7.2 180 10:23 01.09.2019
2462 Clouds 16 1006 77 10000 6.2 170 09:47 01.09.2019
2463 Clouds 16 1006 77 10000 6.2 170 09:26 01.09.2019
2464 Clouds 15 1007 77 10000 5.7 150 08:56 01.09.2019
2465 Clouds 13 1007 87 10000 3.6 120 08:38 01.09.2019
2466 Clouds 13 1007 87 10000 3.1 120 08:19 01.09.2019
2467 Clouds 12 1007 87 10000 4.1 100 07:41 01.09.2019
2468 Clouds 12 1007 87 10000 4.1 100 07:20 01.09.2019
2469 Clouds 12 1008 87 10000 4.6 80 06:38 01.09.2019
2470 Clouds 12 1008 93 10000 5.1 90 05:59 01.09.2019
2471 Clouds 12 1008 93 10000 5.1 90 05:59 01.09.2019
2472 Clouds 11 1009 93 10000 2.6 100 04:41 01.09.2019
2473 Clouds 11 1009 87 10000 2.1 80 03:48 01.09.2019
2474 Clouds 11 1009 87 10000 2.1 80 03:29 01.09.2019
2475 Clouds 11 1009 93 10000 1.5 300 02:37 01.09.2019
2476 Clouds 11 1009 93 10000 1.5 300 02:19 01.09.2019
2477 Clear 11 1009 93 10000 3.1 280 01:28 01.09.2019
2478 Clear 11 1009 93 10000 3.1 280 00:55 01.09.2019
2479 Clouds 12 1009 93 10000 4.1 280 00:36 01.09.2019
2480 Clouds 12 1009 93 10000 3.1 250 00:18 01.09.2019
2481 Clouds 12 1009 87 10000 4.1 340 23:40 31.08.2019
2482 Clouds 12 1009 87 10000 4.1 340 23:21 31.08.2019
2483 Clouds 12 1009 87 10000 5.1 340 22:55 31.08.2019
2484 Clouds 12 1009 87 10000 5.1 340 22:55 31.08.2019
2485 Clouds 11 1008 87 10000 2.6 200 22:37 31.08.2019
2486 Clouds 11 1008 87 10000 2.6 200 22:19 31.08.2019
2487 Clouds 11 1008 93 10000 2.1 200 21:42 31.08.2019
2488 Clouds 11 1008 93 10000 2.1 200 21:22 31.08.2019
2489 Clouds 12 1008 87 10000 2.1 200 20:59 31.08.2019
2490 Clouds 13 1008 82 10000 1.5 170 20:41 31.08.2019
2491 Clouds 13 1008 82 10000 1.5 170 20:22 31.08.2019
2492 Clouds 12 1008 87 10000 3.1 250 19:41 31.08.2019
2493 Clouds 12 1008 87 10000 3.1 250 19:22 31.08.2019
2494 Clouds 13 1008 87 10000 3.1 250 18:55 31.08.2019
2495 Clouds 13 1007 87 10000 4.1 250 18:37 31.08.2019
2496 Clouds 13 1007 87 10000 5.7 260 18:19 31.08.2019
2497 Clouds 13 1007 87 10000 5.7 260 17:55 31.08.2019
2498 Clouds 13 1007 87 10000 7.7 260 17:36 31.08.2019
2499 Clouds 13 1007 93 10000 8.7 290 17:18 31.08.2019
2500 Clouds 13 1007 93 10000 8.7 290 16:54 31.08.2019
2501 Rain 13 1006 87 10000 7.7 280 16:36 31.08.2019
2502 Rain 13 1006 93 10000 7.2 280 16:18 31.08.2019
2503 Drizzle 14 1005 87 10000 6.2 240 15:41 31.08.2019
2504 Drizzle 14 1005 87 10000 6.2 240 15:18 31.08.2019
2505 Drizzle 14 1005 87 10000 6.2 240 15:18 31.08.2019
2506 Rain 15 1005 82 10000 7.7 200 14:42 31.08.2019
2507 Rain 15 1005 82 10000 7.7 200 14:24 31.08.2019
2508 Drizzle 16 1004 77 10000 9.3 190 13:59 31.08.2019
2509 Rain 15 1004 82 10000 10.3 190 13:38 31.08.2019
2510 Drizzle 16 1004 77 10000 10.8 190 13:19 31.08.2019
2511 Drizzle 16 1004 77 10000 10.8 190 12:56 31.08.2019
2512 Drizzle 16 1004 77 10000 10.8 190 12:38 31.08.2019
2513 Drizzle 14 1005 82 10000 9.3 190 12:18 31.08.2019
2514 Clouds 15 1004 77 10000 9.3 180 11:44 31.08.2019
2515 Clouds 15 1004 77 10000 9.3 180 11:26 31.08.2019
2516 Clouds 15 1004 77 10000 6.2 180 10:57 31.08.2019
2517 Clouds 15 1005 77 10000 7.7 180 10:39 31.08.2019
2518 Clouds 15 1005 77 10000 7.7 180 10:18 31.08.2019
2519 Clouds 13 1005 87 10000 7.7 140 09:40 31.08.2019
2520 Clouds 13 1005 87 10000 7.7 140 09:40 31.08.2019
2521 Clouds 13 1005 87 10000 7.7 140 09:22 31.08.2019
2522 Clouds 13 1006 87 10000 7.7 140 08:58 31.08.2019
2523 Clouds 13 1006 87 10000 7.7 130 08:39 31.08.2019
2524 Clouds 13 1006 87 10000 7.7 130 08:20 31.08.2019
2525 Clouds 12 1007 93 10000 7.2 110 07:39 31.08.2019
2526 Clouds 12 1007 93 10000 7.2 110 07:18 31.08.2019
2527 Clouds 12 1007 93 10000 6.2 110 06:27 31.08.2019
2528 Fog 11 1007 100 10000 5.7 120 05:55 31.08.2019
2529 Fog 9 1008 100 550 5.1 110 05:29 31.08.2019
2530 Fog 10 1009 100 10000 2.6 160 04:29 31.08.2019
2531 Fog 10 1009 100 10000 1 160 03:42 31.08.2019
2532 Fog 10 1009 100 400 1.5 0 02:23 31.08.2019
2533 Clouds 11 1009 93 10000 1 0 01:49 31.08.2019
2534 Clouds 11 1009 93 10000 1 0 01:31 31.08.2019
2535 Clouds 11 1009 93 10000 1 0 00:47 31.08.2019
2536 Clouds 11 1009 93 10000 1 0 00:47 31.08.2019
2537 Clouds 11 1009 93 10000 1 0 00:27 31.08.2019
2538 Fog 11 1009 100 10000 4.6 270 23:51 30.08.2019
2539 Fog 11 1009 100 10000 4.6 270 23:20 30.08.2019
2540 Fog 11 1009 100 10000 4.6 270 23:20 30.08.2019
2541 Fog 11 1009 100 10000 4.6 270 22:59 30.08.2019
2542 Fog 11 1009 100 7000 4.6 260 22:39 30.08.2019
2543 Fog 11 1009 100 7000 4.6 260 22:21 30.08.2019
2544 Fog 11 1009 100 800 3.6 270 21:57 30.08.2019
2545 Fog 11 1009 100 500 2.6 270 21:37 30.08.2019
2546 Fog 11 1009 100 500 2.6 270 21:37 30.08.2019
2547 Fog 11 1009 100 800 5.1 290 21:18 30.08.2019
2548 Fog 11 1009 100 800 5.1 290 20:56 30.08.2019
2549 Fog 11 1008 100 250 5.1 300 20:38 30.08.2019
2550 Fog 11 1008 100 500 3.6 290 20:19 30.08.2019
2551 Fog 11 1008 100 500 3.6 290 20:19 30.08.2019
2552 Fog 11 1008 100 500 3.6 290 19:55 30.08.2019
2553 Fog 11 1008 100 500 3.6 290 19:36 30.08.2019
2554 Rain 12 1008 93 5000 3.6 310 19:18 30.08.2019
2555 Rain 12 1008 93 5000 3.6 310 19:18 30.08.2019
2556 Rain 11 1007 100 8000 3.1 360 18:44 30.08.2019
2557 Rain 11 1008 100 600 4.1 280 18:24 30.08.2019
2558 Rain 11 1008 100 600 4.1 280 18:24 30.08.2019
2559 Rain 11 1008 100 600 4.1 280 17:57 30.08.2019
2560 Rain 11 1008 100 600 4.1 280 17:57 30.08.2019
2561 Rain 12 1008 100 1500 5.1 280 17:39 30.08.2019
2562 Rain 12 1008 100 1500 5.1 280 17:19 30.08.2019
2563 Drizzle 12 1008 100 900 5.1 280 16:56 30.08.2019
2564 Rain 12 1008 100 2000 6.2 290 16:38 30.08.2019
2565 Rain 12 1008 100 2000 6.2 290 16:38 30.08.2019
2566 Rain 12 1008 100 2000 6.2 290 16:19 30.08.2019
2567 Rain 12 1008 93 7000 7.2 290 15:39 30.08.2019
2568 Rain 12 1008 93 7000 7.2 290 15:20 30.08.2019
2569 Rain 12 1007 87 10000 4.6 350 14:45 30.08.2019
2570 Rain 12 1007 87 10000 4.6 350 14:26 30.08.2019
2571 Rain 12 1006 87 10000 4.1 20 13:57 30.08.2019
2572 Rain 13 1006 87 10000 2.6 30 13:39 30.08.2019
2573 Rain 14 1007 82 10000 2.6 70 13:20 30.08.2019
2574 Rain 13 1007 82 10000 1 0 12:45 30.08.2019
2575 Rain 13 1007 82 10000 1 0 12:45 30.08.2019
2576 Rain 13 1007 82 10000 1 0 12:25 30.08.2019
2577 Rain 13 1007 87 10000 1.5 0 11:57 30.08.2019
2578 Rain 13 1007 87 10000 3.1 310 11:39 30.08.2019
2579 Rain 13 1007 87 10000 3.1 310 11:39 30.08.2019
2580 Rain 13 1007 87 10000 3.1 310 11:21 30.08.2019
2581 Clouds 13 1007 82 10000 7.2 240 10:37 30.08.2019
2582 Clouds 13 1007 82 10000 7.2 240 10:19 30.08.2019
2583 Clouds 14 1006 82 10000 6.2 250 09:55 30.08.2019
2584 Clouds 16 1006 72 10000 9.8 200 09:36 30.08.2019
2585 Clouds 15 1005 72 10000 12.3 190 09:18 30.08.2019
2586 Clear 16 1005 72 10000 12.3 190 08:43 30.08.2019
2587 Clear 16 1005 72 10000 12.3 190 08:23 30.08.2019
2588 Clear 19 1005 72 10000 10.8 190 07:46 30.08.2019
2589 Clear 19 1005 72 10000 10.8 190 07:26 30.08.2019
2590 Clear 19 1005 72 10000 10.8 190 06:58 30.08.2019
2591 Clear 19 1005 72 10000 12.3 190 06:39 30.08.2019
2592 Clear 19 1005 72 10000 12.3 190 06:20 30.08.2019
2593 Clear 19 1005 72 10000 14.4 200 05:24 30.08.2019
2594 Clear 19 1005 72 10000 14.4 190 03:56 30.08.2019
2595 Clear 20 1005 68 10000 14.4 190 03:37 30.08.2019
2596 Clear 19 1006 72 10000 13.9 190 02:41 30.08.2019
2597 Clear 20 1006 72 10000 13.4 190 01:40 30.08.2019
2598 Clear 20 1006 72 10000 13.4 190 00:53 30.08.2019
2599 Clear 21 1006 64 10000 10.3 190 00:20 30.08.2019
2600 Clear 21 1006 64 10000 11.3 190 23:48 29.08.2019
2601 Clear 18 1006 64 10000 11.3 190 23:23 29.08.2019
2602 Clear 18 1006 68 10000 9.3 190 22:56 29.08.2019
2603 Clear 19 1007 68 10000 9.8 190 22:37 29.08.2019
2604 Clear 19 1007 68 10000 9.8 190 22:19 29.08.2019
2605 Clear 19 1007 64 10000 12.9 190 21:41 29.08.2019
2606 Clear 19 1007 64 10000 12.9 190 21:21 29.08.2019
2607 Clear 20 1007 60 10000 10.3 190 20:59 29.08.2019
2608 Clear 20 1007 60 10000 10.3 190 20:40 29.08.2019
2609 Clear 22 1007 60 10000 9.3 190 20:19 29.08.2019
2610 Clear 21 1007 64 10000 8.2 190 19:56 29.08.2019
2611 Clear 21 1007 64 10000 8.2 190 19:38 29.08.2019
2612 Clear 21 1007 64 10000 8.2 200 19:19 29.08.2019
2613 Clear 21 1007 64 10000 9.8 200 18:41 29.08.2019
2614 Clear 21 1007 64 10000 8.7 200 18:20 29.08.2019
2615 Clear 19 1007 64 10000 10.3 200 17:56 29.08.2019
2616 Clear 19 1007 64 10000 10.3 200 17:56 29.08.2019
2617 Clear 20 1007 64 10000 10.3 200 17:37 29.08.2019
2618 Clear 20 1007 64 10000 11.3 200 17:19 29.08.2019
2619 Clear 20 1007 64 10000 9.8 200 16:43 29.08.2019
2620 Clear 19 1007 68 10000 15.4 190 16:24 29.08.2019
2621 Clear 19 1007 68 10000 15.4 190 15:58 29.08.2019
2622 Clear 20 1007 68 10000 12.9 190 15:38 29.08.2019
2623 Clear 20 1007 68 10000 12.9 190 15:19 29.08.2019
2624 Clear 20 1007 64 10000 11.3 180 14:49 29.08.2019
2625 Clear 19 1008 68 10000 12.9 190 14:22 29.08.2019
2626 Clear 21 1008 72 10000 12.3 190 13:58 29.08.2019
2627 Clear 21 1008 72 10000 12.9 180 13:39 29.08.2019
2628 Clear 21 1008 72 10000 12.9 180 13:20 29.08.2019
2629 Clear 20 1008 72 10000 11.8 180 12:58 29.08.2019
2630 Rain 19 1008 68 10000 9.3 190 12:39 29.08.2019
2631 Rain 19 1008 68 10000 9.3 190 12:21 29.08.2019
2632 Rain 20 1008 64 10000 10.8 190 11:58 29.08.2019
2633 Clear 19 1008 68 10000 12.3 190 11:38 29.08.2019
2634 Clear 19 1008 68 10000 12.3 190 11:19 29.08.2019
2635 Clear 19 1008 68 10000 17.5 190 10:44 29.08.2019
2636 Clear 19 1008 68 10000 17.5 190 10:25 29.08.2019
2637 Clear 20 1008 64 10000 16.5 190 09:54 29.08.2019
2638 Clear 18 1008 68 10000 14.4 180 09:36 29.08.2019
2639 Clear 19 1009 68 10000 14.9 190 09:18 29.08.2019
2640 Clear 18 1009 72 10000 13.4 200 08:40 29.08.2019
2641 Clear 18 1009 72 10000 13.4 200 08:22 29.08.2019
2642 Clear 18 1009 68 10000 13.9 190 07:50 29.08.2019
2643 Clear 20 1010 64 10000 11.3 190 07:27 29.08.2019
2644 Clear 18 1011 68 10000 11.3 190 06:48 29.08.2019
2645 Clear 18 1011 68 10000 11.3 190 06:30 29.08.2019
2646 Clear 16 1011 72 10000 7.2 180 05:43 29.08.2019
2647 Clear 17 1012 72 10000 6.7 190 04:51 29.08.2019
2648 Clear 17 1012 72 10000 6.7 190 04:29 29.08.2019
2649 Clear 14 1012 82 10000 5.1 190 03:35 29.08.2019
2650 Clear 15 1013 77 10000 4.1 180 01:50 29.08.2019
2651 Clear 15 1013 77 10000 4.1 180 01:30 29.08.2019
2652 Clear 14 1014 82 10000 4.1 180 00:45 29.08.2019
2653 Clear 13 1014 87 10000 3.6 180 00:21 29.08.2019
2654 Clear 13 1014 93 10000 2.6 150 23:44 28.08.2019
2655 Clear 13 1014 93 10000 2.6 150 23:25 28.08.2019
2656 Clear 13 1014 93 10000 3.1 140 22:59 28.08.2019
2657 Clear 13 1015 87 10000 3.6 140 22:39 28.08.2019
2658 Clear 13 1015 87 10000 3.6 140 22:39 28.08.2019
2659 Clear 12 1015 93 10000 3.6 140 22:18 28.08.2019
2660 Clear 12 1015 93 10000 3.6 140 21:58 28.08.2019
2661 Clear 12 1015 93 10000 3.1 130 21:39 28.08.2019
2662 Clear 12 1015 93 10000 3.1 130 21:39 28.08.2019
2663 Clear 12 1015 93 10000 3.1 130 21:21 28.08.2019
2664 Clear 14 1016 87 10000 3.1 100 20:45 28.08.2019
2665 Clear 14 1016 87 10000 3.1 100 20:27 28.08.2019
2666 Clear 14 1016 87 10000 3.1 90 19:59 28.08.2019
2667 Clear 14 1016 87 10000 3.1 90 19:40 28.08.2019
2668 Clear 14 1016 87 10000 3.6 70 19:21 28.08.2019
2669 Clouds 14 1016 93 10000 2.6 80 18:42 28.08.2019
2670 Clear 15 1016 82 10000 3.6 80 18:22 28.08.2019
2671 Clear 15 1016 82 10000 3.6 80 17:59 28.08.2019
2672 Clear 16 1016 82 10000 3.6 100 17:37 28.08.2019
2673 Clear 15 1016 82 10000 3.6 100 17:19 28.08.2019
2674 Clear 15 1017 82 10000 2.6 120 16:43 28.08.2019
2675 Clear 14 1017 87 10000 2.1 110 16:19 28.08.2019
2676 Clear 14 1017 87 10000 2.1 110 15:58 28.08.2019
2677 Clear 14 1017 82 10000 1.5 110 15:37 28.08.2019
2678 Clouds 14 1017 82 10000 1.5 0 15:19 28.08.2019
2679 Clouds 14 1017 82 10000 1.5 0 14:56 28.08.2019
2680 Clear 13 1017 93 10000 1.5 0 14:37 28.08.2019
2681 Clear 13 1017 93 10000 1.5 0 14:19 28.08.2019
2682 Clouds 13 1017 93 10000 2.1 170 13:56 28.08.2019
2683 Clouds 13 1017 93 10000 2.1 170 13:37 28.08.2019
2684 Clouds 13 1017 93 10000 2.1 170 13:18 28.08.2019
2685 Clouds 13 1017 93 10000 2.1 170 12:41 28.08.2019
2686 Clouds 13 1017 93 10000 2.1 170 12:23 28.08.2019
2687 Clouds 13 1017 93 10000 2.1 170 12:23 28.08.2019
2688 Fog 12 1017 93 10000 2.6 200 11:42 28.08.2019
2689 Fog 12 1017 93 10000 2.6 200 11:42 28.08.2019
2690 Fog 12 1017 93 10000 2.6 200 11:23 28.08.2019
2691 Fog 12 1017 100 10000 3.1 210 10:59 28.08.2019
2692 Fog 12 1017 100 10000 2.6 210 10:41 28.08.2019
2693 Fog 12 1017 93 10000 3.1 210 10:21 28.08.2019
2694 Fog 12 1017 93 10000 3.1 210 09:58 28.08.2019
2695 Clouds 12 1017 100 10000 2.6 200 09:39 28.08.2019
2696 Fog 11 1018 100 10000 2.6 200 09:18 28.08.2019
2697 Fog 12 1018 100 10000 3.6 220 08:39 28.08.2019
2698 Fog 12 1018 100 10000 3.6 220 08:20 28.08.2019
2699 Fog 12 1018 100 10000 3.6 220 08:20 28.08.2019
2700 Fog 11 1018 100 10000 3.6 210 07:40 28.08.2019
2701 Fog 11 1018 100 10000 3.6 210 07:22 28.08.2019
2702 Drizzle 11 1018 100 10000 3.1 210 06:51 28.08.2019
2703 Clouds 11 1018 100 10000 3.6 240 06:32 28.08.2019
2704 Fog 11 1018 100 10000 5.1 260 05:42 28.08.2019
2705 Fog 11 1017 100 450 7.2 260 02:48 28.08.2019
2706 Fog 11 1017 100 200 7.2 270 01:32 28.08.2019
2707 Fog 11 1017 100 200 7.2 270 00:55 28.08.2019
2708 Fog 11 1017 100 300 8.2 260 00:37 28.08.2019
2709 Fog 11 1017 100 300 8.7 260 23:58 27.08.2019
2710 Fog 11 1017 100 500 8.7 260 23:39 27.08.2019
2711 Fog 12 1017 100 500 8.7 260 23:20 27.08.2019
2712 Drizzle 12 1017 100 900 8.2 250 22:42 27.08.2019
2713 Drizzle 12 1017 100 900 8.2 250 22:23 27.08.2019
2714 Drizzle 11 1017 100 6000 7.7 250 21:57 27.08.2019
2715 Drizzle 12 1016 100 7000 7.2 240 21:39 27.08.2019
2716 Drizzle 12 1016 100 7000 7.2 240 21:21 27.08.2019
2717 Drizzle 12 1016 100 4500 7.2 240 20:59 27.08.2019
2718 Drizzle 11 1016 100 700 7.2 240 20:40 27.08.2019
2719 Drizzle 11 1016 100 700 7.2 240 20:20 27.08.2019
2720 Drizzle 11 1016 100 400 5.1 240 19:55 27.08.2019
2721 Drizzle 11 1016 100 400 5.1 240 19:37 27.08.2019
2722 Fog 11 1016 100 900 6.7 250 19:18 27.08.2019
2723 Drizzle 11 1016 100 7000 6.2 260 18:41 27.08.2019
2724 Drizzle 11 1016 100 9000 7.2 260 18:19 27.08.2019
2725 Drizzle 11 1016 100 9000 7.2 260 17:56 27.08.2019
2726 Drizzle 12 1016 93 10000 6.7 260 17:38 27.08.2019
2727 Drizzle 12 1016 93 10000 6.7 260 17:18 27.08.2019
2728 Rain 12 1016 93 10000 8.2 260 16:46 27.08.2019
2729 Rain 12 1016 93 10000 8.2 260 16:27 27.08.2019
2730 Drizzle 12 1016 93 10000 7.2 270 15:57 27.08.2019
2731 Drizzle 12 1016 93 10000 7.2 270 15:57 27.08.2019
2732 Rain 12 1016 87 10000 2.6 290 15:39 27.08.2019
2733 Rain 12 1016 87 10000 2.6 290 15:20 27.08.2019
2734 Rain 14 1015 82 10000 4.1 340 14:43 27.08.2019
2735 Rain 14 1015 82 10000 4.1 340 14:24 27.08.2019
2736 Clouds 14 1015 82 10000 2.6 280 13:59 27.08.2019
2737 Clouds 15 1014 82 10000 3.1 240 13:41 27.08.2019
2738 Clouds 15 1014 82 10000 3.1 240 13:20 27.08.2019
2739 Clouds 14 1014 82 10000 6.2 220 12:42 27.08.2019
2740 Clouds 14 1014 82 10000 6.2 220 12:21 27.08.2019
2741 Clouds 15 1014 82 10000 7.2 210 11:57 27.08.2019
2742 Clouds 14 1014 82 10000 7.2 210 11:37 27.08.2019
2743 Clouds 14 1014 82 10000 7.2 210 11:19 27.08.2019
2744 Clouds 13 1013 87 10000 7.7 210 10:41 27.08.2019
2745 Clouds 13 1013 87 10000 7.7 210 10:20 27.08.2019
2746 Drizzle 13 1014 82 10000 7.7 190 09:55 27.08.2019
2747 Clouds 13 1014 82 10000 8.7 190 09:37 27.08.2019
2748 Clouds 13 1014 82 10000 8.7 190 09:37 27.08.2019
2749 Clouds 13 1014 82 10000 8.7 190 09:18 27.08.2019
2750 Rain 12 1014 87 10000 9.3 190 08:44 27.08.2019
2751 Rain 12 1014 87 10000 9.3 190 08:24 27.08.2019
2752 Rain 12 1014 76 10000 7.7 180 07:55 27.08.2019
2753 Rain 13 1014 76 10000 9.3 180 07:36 27.08.2019
2754 Rain 13 1015 76 10000 7.7 170 07:18 27.08.2019
2755 Rain 13 1015 71 10000 7.2 180 06:44 27.08.2019
2756 Rain 13 1016 71 10000 6.7 170 06:19 27.08.2019
2757 Rain 12 1016 76 10000 6.7 180 05:26 27.08.2019
2758 Clear 10 1017 87 10000 4.1 150 03:43 27.08.2019
2759 Clear 8 1017 87 10000 3.1 160 02:40 27.08.2019
2760 Clouds 9 1017 87 10000 2.6 160 01:46 27.08.2019
2761 Clouds 9 1017 87 10000 2.6 160 01:24 27.08.2019
2762 Clouds 9 1018 93 10000 3.6 220 00:49 27.08.2019
2763 Clouds 9 1018 93 10000 3.6 220 00:28 27.08.2019
2764 Clouds 9 1017 93 10000 5.7 260 23:40 26.08.2019
2765 Clouds 10 1017 93 10000 5.7 260 23:22 26.08.2019
2766 Clouds 10 1017 87 10000 4.6 260 22:58 26.08.2019
2767 Clouds 10 1017 87 10000 6.7 270 22:36 26.08.2019
2768 Clouds 10 1017 87 10000 6.7 270 22:18 26.08.2019
2769 Clouds 10 1017 87 10000 6.2 270 21:39 26.08.2019
2770 Clouds 10 1017 93 10000 8.2 270 21:21 26.08.2019
2771 Clouds 11 1017 87 10000 7.2 250 20:58 26.08.2019
2772 Clouds 11 1017 87 10000 7.2 250 20:39 26.08.2019
2773 Drizzle 11 1017 87 10000 7.7 250 20:19 26.08.2019
2774 Clouds 11 1017 87 10000 7.7 250 19:56 26.08.2019
2775 Clouds 11 1017 87 10000 7.2 250 19:38 26.08.2019
2776 Clouds 11 1017 87 10000 7.2 250 19:18 26.08.2019
2777 Rain 10 1016 93 10000 7.7 280 18:39 26.08.2019
2778 Rain 10 1016 93 10000 7.7 280 18:20 26.08.2019
2779 Rain 10 1016 93 10000 7.7 280 18:20 26.08.2019
2780 Rain 10 1016 100 10000 7.2 280 17:56 26.08.2019
2781 Rain 10 1016 100 10000 7.2 280 17:38 26.08.2019
2782 Drizzle 11 1016 100 10000 8.2 290 17:18 26.08.2019
2783 Fog 11 1016 100 400 6.7 280 16:56 26.08.2019
2784 Fog 11 1016 100 400 6.7 280 16:38 26.08.2019
2785 Fog 11 1016 100 400 6.7 280 16:38 26.08.2019
2786 Fog 11 1016 100 1000 3.6 280 16:18 26.08.2019
2787 Fog 11 1016 100 2000 4.1 260 15:42 26.08.2019
2788 Rain 11 1015 100 3000 4.1 250 15:21 26.08.2019
2789 Fog 11 1015 100 10000 2.6 230 14:46 26.08.2019
2790 Fog 11 1014 100 10000 3.6 240 14:23 26.08.2019
2791 Drizzle 10 1014 100 10000 4.1 240 13:59 26.08.2019
2792 Drizzle 10 1014 100 10000 4.1 240 13:40 26.08.2019
2793 Fog 10 1013 93 10000 5.1 240 13:21 26.08.2019
2794 Drizzle 10 1013 93 10000 5.1 240 12:43 26.08.2019
2795 Drizzle 10 1013 93 10000 4.1 230 12:25 26.08.2019
2796 Drizzle 10 1012 93 10000 4.1 240 11:56 26.08.2019
2797 Mist 10 1012 93 10000 3.1 250 11:37 26.08.2019
2798 Mist 10 1012 93 10000 3.1 250 11:18 26.08.2019
2799 Rain 10 1012 93 10000 2.6 230 10:44 26.08.2019
2800 Fog 10 1011 93 10000 3.1 230 10:22 26.08.2019
2801 Fog 10 1011 93 10000 3.1 230 10:22 26.08.2019
2802 Drizzle 11 1011 93 10000 2.6 250 09:59 26.08.2019
2803 Drizzle 11 1011 93 10000 2.6 250 09:39 26.08.2019
2804 Drizzle 11 1010 100 10000 1.5 210 09:21 26.08.2019
2805 Fog 11 1010 100 10000 1 0 08:55 26.08.2019
2806 Fog 11 1010 100 10000 1 0 08:36 26.08.2019
2807 Fog 11 1010 93 10000 1.5 250 08:18 26.08.2019
2808 Drizzle 10 1010 93 10000 2.1 270 07:41 26.08.2019
2809 Clouds 10 1010 93 10000 1.5 280 07:23 26.08.2019
2810 Clouds 9 1009 100 10000 2.1 320 06:48 26.08.2019
2811 Fog 9 1009 100 10000 2.1 330 06:25 26.08.2019
2812 Fog 9 1009 100 350 2.6 330 05:51 26.08.2019
2813 Clouds 10 1008 93 10000 2.6 310 04:31 26.08.2019
2814 Drizzle 10 1008 93 10000 3.6 280 03:19 26.08.2019
2815 Clouds 10 1008 93 10000 3.6 270 01:40 26.08.2019
2816 Drizzle 10 1008 93 9000 3.1 270 01:21 26.08.2019
2817 Drizzle 10 1007 93 10000 3.6 250 00:42 26.08.2019
2818 Clouds 11 1007 87 10000 2.6 210 00:23 26.08.2019
2819 Clouds 11 1007 87 10000 2.1 190 23:43 25.08.2019
2820 Clouds 11 1007 87 10000 2.1 190 23:43 25.08.2019
2821 Rain 11 1007 87 10000 1.5 180 23:19 25.08.2019
2822 Rain 11 1007 87 10000 2.6 160 22:57 25.08.2019
2823 Rain 11 1007 87 10000 2.6 160 22:57 25.08.2019
2824 Rain 11 1007 87 10000 2.6 160 22:39 25.08.2019
2825 Rain 11 1007 87 10000 2.6 160 22:20 25.08.2019
2826 Rain 11 1007 81 10000 3.1 170 21:57 25.08.2019
2827 Rain 11 1007 81 10000 3.1 170 21:38 25.08.2019
2828 Rain 12 1008 81 10000 3.6 160 21:18 25.08.2019
2829 Drizzle 11 1008 81 10000 3.6 160 20:40 25.08.2019
2830 Clouds 13 1008 76 10000 3.6 170 20:20 25.08.2019
2831 Clouds 13 1009 76 10000 5.1 180 19:58 25.08.2019
2832 Clouds 13 1009 76 10000 5.7 190 19:39 25.08.2019
2833 Clouds 13 1009 76 10000 5.7 190 19:20 25.08.2019
2834 Clouds 13 1009 76 10000 5.7 190 18:58 25.08.2019
2835 Clouds 13 1010 76 10000 7.2 190 18:39 25.08.2019
2836 Clouds 13 1010 76 10000 7.2 190 18:21 25.08.2019
2837 Clouds 13 1010 76 10000 8.2 190 17:45 25.08.2019
2838 Clouds 13 1010 71 10000 7.7 190 17:25 25.08.2019
2839 Clouds 12 1011 71 10000 8.2 190 16:59 25.08.2019
2840 Clouds 12 1011 71 10000 8.7 190 16:37 25.08.2019
2841 Clouds 12 1011 71 10000 8.7 190 16:18 25.08.2019
2842 Clouds 12 1012 71 10000 9.8 190 15:43 25.08.2019
2843 Clouds 12 1012 71 10000 9.8 190 15:25 25.08.2019
2844 Clouds 12 1013 71 10000 9.8 180 14:54 25.08.2019
2845 Clouds 12 1013 71 10000 9.8 180 14:36 25.08.2019
2846 Clouds 12 1013 71 10000 9.8 180 14:18 25.08.2019
2847 Clouds 11 1013 71 10000 11.3 190 13:42 25.08.2019
2848 Clouds 11 1014 71 10000 11.8 190 13:20 25.08.2019
2849 Clouds 11 1014 71 10000 11.3 190 12:48 25.08.2019
2850 Clouds 11 1015 71 10000 10.3 190 12:26 25.08.2019
2851 Clouds 11 1015 71 10000 10.3 190 11:59 25.08.2019
2852 Clouds 11 1015 71 10000 10.3 190 11:41 25.08.2019
2853 Clouds 11 1015 71 10000 10.3 190 11:22 25.08.2019
2854 Clouds 10 1016 71 10000 9.8 180 10:59 25.08.2019
2855 Clouds 10 1016 71 10000 9.8 180 10:40 25.08.2019
2856 Clouds 10 1016 71 10000 10.3 170 10:20 25.08.2019
2857 Clouds 10 1016 71 10000 10.3 170 10:20 25.08.2019
2858 Clouds 9 1017 76 10000 10.8 170 09:55 25.08.2019
2859 Clouds 9 1017 76 10000 9.3 170 09:37 25.08.2019
2860 Clouds 9 1017 76 10000 9.3 170 09:18 25.08.2019
2861 Clouds 10 1018 71 10000 9.3 170 08:41 25.08.2019
2862 Clouds 9 1018 70 10000 7.2 160 08:20 25.08.2019
2863 Clouds 8 1019 70 10000 8.2 180 07:35 25.08.2019
2864 Clouds 8 1020 65 10000 8.7 180 06:46 25.08.2019
2865 Clouds 8 1020 65 10000 8.7 180 06:46 25.08.2019
2866 Clear 6 1021 75 10000 6.2 160 05:47 25.08.2019
2867 Clear 4 1022 80 10000 6.7 150 04:35 25.08.2019
2868 Clear 4 1023 80 10000 6.7 130 03:31 25.08.2019
2869 Clear 4 1023 80 10000 4.1 140 02:39 25.08.2019
2870 Clear 4 1024 80 10000 3.6 130 01:24 25.08.2019
2871 Clear 3 1024 86 10000 2.6 140 00:40 25.08.2019
2872 Clear 4 1024 86 10000 2.1 120 00:20 25.08.2019
2873 Clear 3 1025 86 10000 1 100 23:51 24.08.2019
2874 Clear 3 1025 86 10000 2.1 90 23:22 24.08.2019
2875 Clear 4 1025 66 10000 1 0 22:55 24.08.2019
2876 Clear 4 1025 80 10000 2.1 330 22:37 24.08.2019
2877 Clear 4 1025 80 10000 2.1 330 22:19 24.08.2019
2878 Clear 5 1025 80 10000 2.1 320 21:55 24.08.2019
2879 Clear 5 1025 80 10000 2.1 320 21:37 24.08.2019
2880 Clouds 5 1025 80 10000 2.1 320 21:18 24.08.2019
2881 Clouds 5 1025 75 10000 3.1 330 20:54 24.08.2019
2882 Clouds 5 1025 75 10000 3.1 330 20:36 24.08.2019
2883 Clouds 7 1025 65 10000 3.6 330 20:18 24.08.2019
2884 Clouds 7 1025 65 10000 3.6 330 19:41 24.08.2019
2885 Clouds 7 1025 65 10000 3.6 330 19:22 24.08.2019
2886 Clouds 7 1025 70 10000 4.1 340 18:59 24.08.2019
2887 Clouds 7 1025 70 10000 4.1 340 18:39 24.08.2019
2888 Clouds 7 1025 70 10000 5.1 340 18:20 24.08.2019
2889 Clouds 7 1025 75 10000 5.1 340 17:44 24.08.2019
2890 Clouds 7 1025 70 10000 5.1 350 17:24 24.08.2019
2891 Clouds 7 1025 70 10000 5.1 350 16:48 24.08.2019
2892 Clouds 7 1025 75 10000 5.7 350 16:21 24.08.2019
2893 Drizzle 7 1025 70 10000 5.7 350 15:58 24.08.2019
2894 Drizzle 7 1025 70 10000 5.7 350 15:40 24.08.2019
2895 Drizzle 6 1025 81 10000 6.2 340 15:22 24.08.2019
2896 Clouds 8 1024 70 10000 4.6 350 14:43 24.08.2019
2897 Clouds 7 1024 75 10000 5.1 340 14:22 24.08.2019
2898 Clouds 8 1024 75 10000 5.1 340 13:57 24.08.2019
2899 Clouds 8 1024 75 10000 5.1 340 13:39 24.08.2019
2900 Drizzle 6 1024 87 10000 5.1 340 13:21 24.08.2019
2901 Clouds 8 1024 70 10000 5.1 350 12:55 24.08.2019
2902 Clouds 8 1024 70 10000 5.1 350 12:37 24.08.2019
2903 Clouds 6 1024 87 10000 4.1 330 12:19 24.08.2019
2904 Clouds 7 1023 87 10000 6.2 360 11:43 24.08.2019
2905 Clouds 7 1023 75 10000 5.1 350 11:22 24.08.2019
2906 Clouds 7 1023 75 10000 6.2 350 10:52 24.08.2019
2907 Clouds 7 1022 75 10000 5.1 360 10:24 24.08.2019
2908 Clouds 7 1022 75 10000 5.1 360 09:45 24.08.2019
2909 Clouds 6 1022 81 10000 4.6 20 09:22 24.08.2019
2910 Clouds 6 1022 81 10000 5.1 20 08:59 24.08.2019
2911 Clouds 6 1022 81 10000 5.1 20 08:40 24.08.2019
2912 Clouds 6 1021 81 10000 5.7 10 08:22 24.08.2019
2913 Clouds 6 1021 81 10000 6.2 360 07:49 24.08.2019
2914 Clouds 6 1021 87 10000 7.2 360 07:27 24.08.2019
2915 Clouds 6 1021 87 10000 7.2 360 07:27 24.08.2019
2916 Clouds 6 1020 87 10000 6.7 10 06:29 24.08.2019
2917 Clouds 6 1020 93 10000 7.2 10 05:42 24.08.2019
2918 Clouds 6 1020 93 10000 6.7 10 04:51 24.08.2019
2919 Drizzle 6 1019 100 5000 8.2 30 03:37 24.08.2019
2920 Drizzle 7 1018 93 5000 7.7 30 02:27 24.08.2019
2921 Drizzle 7 1018 93 3500 7.7 30 01:38 24.08.2019
2922 Rain 7 1018 93 6000 6.2 40 01:18 24.08.2019
2923 Rain 7 1017 93 6000 5.7 50 00:41 24.08.2019
2924 Rain 7 1017 93 6000 5.7 60 00:18 24.08.2019
2925 Rain 7 1017 93 6000 5.1 60 23:42 23.08.2019
2926 Rain 9 1017 93 10000 5.7 60 23:19 23.08.2019
2927 Rain 8 1017 93 10000 6.2 60 22:43 23.08.2019
2928 Rain 8 1017 93 10000 6.7 60 22:24 23.08.2019
2929 Rain 9 1016 93 10000 7.2 60 21:54 23.08.2019
2930 Rain 9 1016 93 10000 7.2 60 21:36 23.08.2019
2931 Rain 9 1016 93 10000 5.7 50 21:18 23.08.2019
2932 Rain 9 1016 87 10000 5.7 70 20:40 23.08.2019
2933 Clouds 8 1016 87 10000 5.1 60 20:22 23.08.2019
2934 Fog 8 1016 87 10000 6.7 70 19:44 23.08.2019
2935 Fog 8 1016 87 10000 6.2 60 19:19 23.08.2019
2936 Fog 8 1016 87 10000 7.7 50 18:49 23.08.2019
2937 Fog 9 1016 81 10000 7.2 60 18:31 23.08.2019
2938 Fog 9 1016 81 10000 6.7 60 17:59 23.08.2019
2939 Fog 9 1016 81 10000 6.7 60 17:40 23.08.2019
2940 Clouds 11 1015 81 10000 6.7 60 17:21 23.08.2019
2941 Clouds 11 1015 76 10000 6.2 70 16:48 23.08.2019
2942 Clouds 11 1015 76 10000 6.7 70 16:29 23.08.2019
2943 Clouds 11 1015 71 10000 6.2 70 15:58 23.08.2019
2944 Clouds 11 1015 71 10000 6.2 70 15:38 23.08.2019
2945 Clouds 11 1015 71 10000 6.2 80 15:20 23.08.2019
2946 Clouds 11 1015 76 10000 6.2 70 14:43 23.08.2019
2947 Clouds 12 1015 71 10000 6.2 80 14:21 23.08.2019
2948 Clouds 11 1015 76 10000 7.2 80 13:59 23.08.2019
2949 Clouds 11 1015 76 10000 7.2 80 13:41 23.08.2019
2950 Clouds 11 1015 76 10000 6.7 80 13:22 23.08.2019
2951 Clouds 11 1015 76 10000 6.7 80 12:58 23.08.2019
2952 Clouds 11 1015 76 10000 6.7 80 12:40 23.08.2019
2953 Clouds 10 1015 81 10000 5.7 80 12:21 23.08.2019
2954 Clouds 10 1015 81 10000 6.2 90 11:57 23.08.2019
2955 Clouds 10 1015 81 10000 6.2 90 11:38 23.08.2019
2956 Clouds 10 1015 81 10000 6.2 90 11:38 23.08.2019
2957 Clouds 9 1015 87 10000 5.1 80 11:19 23.08.2019
2958 Clouds 10 1015 81 10000 5.1 80 10:54 23.08.2019
2959 Clouds 10 1015 81 10000 5.1 80 10:36 23.08.2019
2960 Clouds 9 1015 81 10000 5.7 80 10:18 23.08.2019
2961 Clouds 8 1015 87 10000 5.7 90 09:43 23.08.2019
2962 Clouds 8 1015 87 10000 5.7 90 09:43 23.08.2019
2963 Clouds 9 1016 87 10000 5.7 100 09:20 23.08.2019
2964 Clouds 9 1016 81 10000 8.2 100 08:45 23.08.2019
2965 Clouds 8 1016 81 10000 7.2 100 08:20 23.08.2019
2966 Clouds 8 1016 81 10000 5.7 80 07:56 23.08.2019
2967 Clouds 8 1016 81 10000 5.7 80 07:38 23.08.2019
2968 Clouds 7 1016 81 10000 5.1 90 07:20 23.08.2019
2969 Clouds 7 1016 81 10000 5.1 100 06:41 23.08.2019
2970 Clouds 7 1016 81 10000 5.1 110 06:21 23.08.2019
2971 Clouds 7 1016 81 10000 6.7 100 05:44 23.08.2019
2972 Clouds 7 1016 81 10000 4.1 120 05:24 23.08.2019
2973 Clouds 7 1016 81 10000 3.1 100 03:42 23.08.2019
2974 Clouds 7 1016 81 10000 1.5 110 02:38 23.08.2019
2975 Clouds 7 1016 81 10000 1.5 110 02:20 23.08.2019
2976 Clouds 7 1017 81 10000 2.1 320 00:57 23.08.2019
2977 Clouds 7 1017 81 10000 2.1 320 00:37 23.08.2019
2978 Clouds 7 1017 87 10000 4.1 310 00:18 23.08.2019
2979 Clouds 7 1017 81 10000 4.1 310 23:40 22.08.2019
2980 Clouds 8 1017 81 10000 3.1 310 23:21 22.08.2019
2981 Clouds 8 1017 81 10000 3.1 300 22:42 22.08.2019
2982 Clouds 8 1017 75 10000 3.6 300 22:24 22.08.2019
2983 Rain 9 1017 81 10000 4.6 320 21:58 22.08.2019
2984 Rain 9 1017 81 10000 4.6 320 21:40 22.08.2019
2985 Rain 9 1017 75 10000 4.1 330 21:22 22.08.2019
2986 Rain 9 1017 81 10000 5.7 320 20:58 22.08.2019
2987 Rain 9 1017 81 10000 5.7 320 20:39 22.08.2019
2988 Rain 9 1017 81 10000 5.1 320 20:20 22.08.2019
2989 Clouds 8 1017 81 10000 5.7 330 19:57 22.08.2019
2990 Clouds 8 1017 81 10000 5.7 330 19:38 22.08.2019
2991 Clouds 7 1017 87 10000 6.2 330 19:20 22.08.2019
2992 Clouds 7 1017 93 10000 7.2 320 18:57 22.08.2019
2993 Clouds 7 1017 93 10000 7.2 320 18:39 22.08.2019
2994 Clouds 8 1017 81 10000 7.2 320 18:19 22.08.2019
2995 Clouds 7 1017 93 10000 8.7 320 17:54 22.08.2019
2996 Clouds 7 1017 93 10000 8.7 320 17:36 22.08.2019
2997 Clouds 9 1017 87 10000 9.3 320 17:18 22.08.2019
2998 Clouds 9 1017 87 10000 9.3 320 16:54 22.08.2019
2999 Clouds 9 1017 87 10000 9.3 320 16:36 22.08.2019
3000 Clouds 9 1017 93 10000 9.8 320 16:18 22.08.2019
3001 Clouds 9 1017 93 10000 9.8 320 16:18 22.08.2019
3002 Fog 9 1016 93 10000 9.8 320 15:41 22.08.2019
3003 Fog 9 1016 93 10000 9.8 320 15:41 22.08.2019
3004 Fog 9 1016 93 10000 9.8 320 15:22 22.08.2019
3005 Fog 9 1016 93 10000 9.8 320 15:21 22.08.2019
3006 Drizzle 9 1016 100 10000 9.3 320 14:57 22.08.2019
3007 Drizzle 9 1016 100 10000 9.3 320 14:39 22.08.2019
3008 Drizzle 9 1015 93 10000 8.2 320 14:19 22.08.2019
3009 Clouds 10 1015 100 10000 10.8 290 13:56 22.08.2019
3010 Clouds 10 1015 100 10000 10.8 290 13:38 22.08.2019
3011 Fog 9 1015 100 1000 10.3 290 13:18 22.08.2019
3012 Fog 9 1015 93 1800 10.8 290 12:40 22.08.2019
3013 Drizzle 10 1014 93 10000 8.7 270 12:22 22.08.2019
3014 Drizzle 10 1014 93 10000 9.3 270 11:58 22.08.2019
3015 Drizzle 10 1014 93 10000 9.3 270 11:39 22.08.2019
3016 Fog 10 1014 93 10000 9.3 260 11:19 22.08.2019
3017 Fog 10 1014 93 10000 11.3 260 10:57 22.08.2019
3018 Fog 10 1014 93 10000 11.3 260 10:37 22.08.2019
3019 Rain 10 1014 93 10000 11.8 260 10:19 22.08.2019
3020 Rain 10 1013 93 10000 11.8 260 09:54 22.08.2019
3021 Rain 10 1013 93 10000 11.8 260 09:36 22.08.2019
3022 Rain 10 1013 93 10000 7.7 260 09:18 22.08.2019
3023 Rain 10 1013 93 10000 7.7 260 08:41 22.08.2019
3024 Rain 10 1013 93 10000 7.7 250 08:21 22.08.2019
3025 Clouds 10 1013 93 10000 7.2 270 07:56 22.08.2019
3026 Clouds 10 1013 93 10000 7.2 270 07:38 22.08.2019
3027 Clouds 10 1013 93 10000 7.2 270 07:18 22.08.2019
3028 Rain 10 1013 100 10000 6.7 270 06:45 22.08.2019
3029 Clouds 10 1013 100 10000 7.2 280 06:21 22.08.2019
3030 Clouds 10 1012 93 10000 7.7 260 05:26 22.08.2019
3031 Clouds 9 1012 100 10000 6.2 290 03:26 22.08.2019
3032 Clouds 11 1012 87 10000 5.7 270 02:36 22.08.2019
3033 Clouds 10 1011 87 10000 3.6 260 01:36 22.08.2019
3034 Clear 10 1011 87 10000 4.1 260 00:57 22.08.2019
3035 Clouds 11 1011 87 10000 4.6 250 00:38 22.08.2019
3036 Clouds 11 1011 87 10000 4.6 250 00:20 22.08.2019
3037 Clouds 11 1011 93 10000 5.1 240 23:41 21.08.2019
3038 Clouds 12 1011 87 10000 4.6 220 23:23 21.08.2019
3039 Clouds 12 1011 87 10000 4.1 210 22:58 21.08.2019
3040 Clear 12 1011 87 10000 4.6 200 22:39 21.08.2019
3041 Clear 11 1011 87 10000 4.6 200 22:20 21.08.2019
3042 Clear 12 1011 82 10000 5.7 210 21:56 21.08.2019
3043 Clear 12 1011 82 10000 5.7 210 21:37 21.08.2019
3044 Rain 11 1011 87 10000 3.1 200 21:19 21.08.2019
3045 Clouds 11 1011 87 10000 4.1 210 20:55 21.08.2019
3046 Clouds 12 1011 87 10000 2.6 190 20:37 21.08.2019
3047 Clouds 12 1011 87 10000 2.6 190 20:19 21.08.2019
3048 Rain 14 1010 76 10000 3.6 130 19:42 21.08.2019
3049 Rain 12 1011 81 10000 3.1 170 19:24 21.08.2019
3050 Clouds 12 1010 81 10000 2.1 170 18:57 21.08.2019
3051 Clouds 12 1010 81 10000 3.1 140 18:38 21.08.2019
3052 Clouds 12 1010 81 10000 3.1 140 18:20 21.08.2019
3053 Clouds 14 1010 76 10000 4.1 120 17:45 21.08.2019
3054 Clouds 14 1010 76 10000 4.1 120 17:22 21.08.2019
3055 Clouds 14 1011 76 10000 4.6 110 16:58 21.08.2019
3056 Clouds 14 1011 76 10000 4.6 110 16:39 21.08.2019
3057 Rain 14 1011 76 10000 3.1 100 16:20 21.08.2019
3058 Rain 14 1011 76 10000 2.6 120 15:56 21.08.2019
3059 Rain 14 1011 76 10000 2.6 120 15:38 21.08.2019
3060 Rain 13 1011 76 10000 3.1 90 15:19 21.08.2019
3061 Rain 13 1011 76 10000 3.1 90 15:19 21.08.2019
3062 Rain 13 1011 76 10000 3.1 90 15:19 21.08.2019
3063 Rain 14 1011 76 10000 3.6 100 14:55 21.08.2019
3064 Clear 12 1011 76 10000 3.6 90 14:37 21.08.2019
3065 Clear 12 1011 76 10000 3.6 90 14:18 21.08.2019
3066 Clear 13 1011 71 10000 2.6 100 13:43 21.08.2019
3067 Clear 14 1010 76 10000 3.6 80 13:20 21.08.2019
3068 Clear 13 1010 71 10000 2.6 100 12:58 21.08.2019
3069 Clear 13 1010 71 10000 2.6 100 12:40 21.08.2019
3070 Clear 13 1011 76 10000 2.1 100 12:20 21.08.2019
3071 Clear 13 1011 71 10000 1.5 130 11:54 21.08.2019
3072 Clear 13 1011 71 10000 1.5 130 11:36 21.08.2019
3073 Clear 12 1011 76 10000 1.5 150 11:18 21.08.2019
3074 Clear 12 1011 76 10000 1.5 0 10:55 21.08.2019
3075 Clear 12 1011 76 10000 1.5 0 10:37 21.08.2019
3076 Clear 12 1011 76 10000 1.5 0 10:37 21.08.2019
3077 Clear 11 1011 81 10000 1.5 0 10:18 21.08.2019
3078 Clear 10 1011 81 10000 2.1 180 09:41 21.08.2019
3079 Clear 11 1011 81 10000 1.5 170 09:23 21.08.2019
3080 Clear 11 1011 81 10000 1.5 0 08:56 21.08.2019
3081 Clear 11 1011 81 10000 1.5 0 08:37 21.08.2019
3082 Clouds 10 1011 87 10000 2.1 130 08:19 21.08.2019
3083 Clouds 10 1011 87 10000 2.1 120 07:39 21.08.2019
3084 Clouds 10 1011 87 10000 2.1 120 07:20 21.08.2019
3085 Clouds 10 1011 87 10000 3.6 120 06:46 21.08.2019
3086 Clouds 10 1011 87 10000 3.6 130 06:20 21.08.2019
3087 Clouds 9 1011 93 10000 1.5 0 05:38 21.08.2019
3088 Clouds 9 1011 93 10000 1.5 0 05:18 21.08.2019
3089 Clouds 9 1010 93 10000 5.1 250 02:55 21.08.2019
3090 Clouds 9 1009 93 10000 4.6 240 01:42 21.08.2019
3091 Clouds 9 1009 93 10000 3.1 240 00:43 21.08.2019
3092 Clouds 8 1009 93 10000 4.1 250 00:23 21.08.2019
3093 Clouds 10 1009 87 10000 6.2 260 23:56 20.08.2019
3094 Clouds 10 1009 87 10000 6.2 280 23:38 20.08.2019
3095 Clouds 10 1009 87 10000 6.2 280 23:18 20.08.2019
3096 Clouds 10 1009 87 10000 6.2 270 22:55 20.08.2019
3097 Clouds 10 1008 93 10000 6.7 270 22:36 20.08.2019
3098 Clouds 10 1008 93 10000 6.7 270 22:18 20.08.2019
3099 Clouds 10 1008 93 10000 6.7 270 21:56 20.08.2019
3100 Clouds 10 1008 93 10000 6.7 270 21:37 20.08.2019
3101 Clouds 10 1008 93 10000 7.2 260 21:18 20.08.2019
3102 Clouds 10 1008 93 10000 6.2 270 20:42 20.08.2019
3103 Clouds 10 1008 93 10000 6.2 270 20:42 20.08.2019
3104 Clouds 10 1008 87 10000 7.7 280 20:24 20.08.2019
3105 Clouds 10 1007 87 10000 6.7 270 19:54 20.08.2019
3106 Clouds 10 1007 87 10000 4.6 270 19:36 20.08.2019
3107 Clouds 10 1007 87 10000 4.6 270 19:18 20.08.2019
3108 Clouds 10 1007 87 10000 5.7 270 18:54 20.08.2019
3109 Clouds 10 1007 87 10000 5.7 270 18:54 20.08.2019
3110 Clouds 10 1006 87 10000 6.7 270 18:36 20.08.2019
3111 Clouds 10 1006 87 10000 6.7 270 18:18 20.08.2019
3112 Clouds 11 1006 81 10000 7.2 260 17:39 20.08.2019
3113 Clouds 11 1006 81 10000 7.2 260 17:20 20.08.2019
3114 Clouds 11 1005 87 10000 7.2 270 16:48 20.08.2019
3115 Clouds 11 1005 87 10000 7.2 270 16:28 20.08.2019
3116 Clouds 11 1005 93 10000 5.7 270 15:59 20.08.2019
3117 Clouds 11 1004 87 10000 5.7 270 15:41 20.08.2019
3118 Clouds 11 1004 81 10000 7.2 270 15:18 20.08.2019
3119 Clouds 11 1004 81 10000 7.2 270 15:18 20.08.2019
3120 Clouds 11 1004 81 10000 7.2 270 14:55 20.08.2019
3121 Clouds 11 1004 87 10000 8.7 270 14:37 20.08.2019
3122 Clouds 11 1004 87 10000 8.7 270 14:37 20.08.2019
3123 Clouds 11 1003 81 10000 9.3 260 14:18 20.08.2019
3124 Clouds 11 1003 81 10000 9.3 260 14:18 20.08.2019
3125 Clouds 11 1003 81 10000 9.3 260 13:54 20.08.2019
3126 Clouds 11 1003 87 10000 10.3 260 13:36 20.08.2019
3127 Clouds 11 1003 81 10000 9.8 280 13:18 20.08.2019
3128 Clouds 11 1002 81 10000 9.8 270 12:44 20.08.2019
3129 Clouds 11 1002 81 10000 9.8 270 12:23 20.08.2019
3130 Clouds 10 1002 87 10000 8.7 270 11:55 20.08.2019
3131 Clouds 11 1002 87 10000 9.8 260 11:37 20.08.2019
3132 Clouds 10 1001 87 10000 10.8 260 11:18 20.08.2019
3133 Clouds 10 1001 87 10000 10.8 260 10:55 20.08.2019
3134 Clouds 10 1001 87 10000 10.8 260 10:37 20.08.2019
3135 Clouds 10 1001 87 10000 11.8 270 10:18 20.08.2019
3136 Rain 10 1000 87 10000 13.4 270 09:40 20.08.2019
3137 Rain 10 1000 87 10000 13.4 270 09:21 20.08.2019
3138 Rain 9 999 93 10000 15.9 260 08:42 20.08.2019
3139 Rain 9 999 93 10000 15.9 260 08:24 20.08.2019
3140 Rain 10 998 93 10000 12.3 260 07:58 20.08.2019
3141 Clouds 9 998 100 10000 13.9 250 07:39 20.08.2019
3142 Clouds 9 998 100 10000 13.9 250 07:20 20.08.2019
3143 Rain 9 996 100 10000 12.3 250 06:47 20.08.2019
3144 Rain 9 996 100 10000 12.3 250 06:47 20.08.2019
3145 Rain 9 996 100 10000 12.3 250 06:21 20.08.2019
3146 Rain 10 995 100 9000 8.7 250 05:47 20.08.2019
3147 Clouds 11 993 93 10000 7.7 240 04:42 20.08.2019
3148 Rain 14 993 82 10000 7.2 190 02:58 20.08.2019
3149 Rain 15 993 82 10000 10.3 170 02:18 20.08.2019
3150 Clouds 15 993 82 10000 9.3 160 01:21 20.08.2019
3151 Rain 14 994 87 10000 12.3 160 00:45 20.08.2019
3152 Rain 14 994 87 10000 12.3 160 00:25 20.08.2019
3153 Clouds 14 994 87 10000 12.3 160 23:50 19.08.2019
3154 Rain 14 995 87 10000 10.3 160 23:19 19.08.2019
3155 Rain 14 995 87 10000 11.3 160 22:59 19.08.2019
3156 Drizzle 14 996 87 10000 10.8 160 22:41 19.08.2019
3157 Drizzle 14 996 87 10000 10.8 160 22:21 19.08.2019
3158 Rain 14 996 77 10000 12.9 150 21:58 19.08.2019
3159 Clouds 14 997 77 10000 15.9 150 21:39 19.08.2019
3160 Clouds 14 997 77 10000 15.9 150 21:20 19.08.2019
3161 Clouds 14 997 77 10000 15.9 150 20:57 19.08.2019
3162 Clouds 15 997 77 10000 10.3 150 20:38 19.08.2019
3163 Clouds 16 998 72 10000 12.9 160 20:19 19.08.2019
3164 Clouds 16 998 72 10000 12.9 160 19:55 19.08.2019
3165 Clouds 16 998 72 10000 12.9 160 19:36 19.08.2019
3166 Drizzle 15 999 77 10000 12.3 160 19:18 19.08.2019
3167 Rain 15 999 77 10000 12.9 170 18:41 19.08.2019
3168 Rain 15 999 77 10000 12.9 170 18:23 19.08.2019
3169 Drizzle 16 1000 72 10000 14.9 170 17:57 19.08.2019
3170 Rain 16 1000 72 10000 15.9 170 17:38 19.08.2019
3171 Rain 14 1000 77 10000 15.4 170 17:19 19.08.2019
3172 Rain 14 1000 77 10000 15.4 170 16:54 19.08.2019
3173 Rain 14 1000 77 10000 15.4 170 16:36 19.08.2019
3174 Rain 14 1000 77 10000 11.8 160 16:18 19.08.2019
3175 Drizzle 14 1001 77 10000 13.4 160 15:45 19.08.2019
3176 Rain 15 1001 72 10000 14.4 160 15:20 19.08.2019
3177 Rain 15 1001 72 10000 13.9 170 14:55 19.08.2019
3178 Rain 15 1001 72 10000 13.9 170 14:36 19.08.2019
3179 Rain 15 1001 67 10000 15.4 170 14:18 19.08.2019
3180 Rain 15 1001 63 10000 11.3 180 13:55 19.08.2019
3181 Rain 17 1001 68 10000 11.3 180 13:36 19.08.2019
3182 Rain 17 1001 68 10000 11.3 180 13:18 19.08.2019
3183 Rain 17 1001 68 10000 12.3 170 12:41 19.08.2019
3184 Rain 17 1001 68 10000 7.7 180 12:22 19.08.2019
3185 Clouds 16 1001 72 10000 7.2 180 11:55 19.08.2019
3186 Clouds 16 1001 72 10000 7.2 180 11:36 19.08.2019
3187 Clouds 17 1002 68 10000 8.7 180 11:18 19.08.2019
3188 Clouds 17 1002 68 10000 10.3 180 10:39 19.08.2019
3189 Clouds 17 1002 68 10000 8.7 190 10:19 19.08.2019
3190 Clouds 16 1002 72 10000 9.8 190 09:55 19.08.2019
3191 Clouds 16 1002 68 10000 9.3 190 09:37 19.08.2019
3192 Clouds 16 1002 68 10000 9.3 190 09:19 19.08.2019
3193 Clouds 16 1002 72 10000 7.7 180 08:45 19.08.2019
3194 Clouds 16 1002 67 10000 10.3 190 08:25 19.08.2019
3195 Clouds 16 1002 67 10000 9.3 190 07:57 19.08.2019
3196 Clouds 17 1002 67 10000 11.3 190 07:39 19.08.2019
3197 Clouds 17 1002 67 10000 11.3 190 07:19 19.08.2019
3198 Clouds 16 1002 72 10000 11.3 190 06:36 19.08.2019
3199 Clouds 15 1001 77 10000 9.8 180 05:28 19.08.2019
3200 Clouds 16 1002 72 10000 12.3 190 04:34 19.08.2019
3201 Clouds 16 1002 72 10000 13.9 190 03:28 19.08.2019
3202 Clouds 16 1002 72 10000 12.9 190 02:53 19.08.2019
3203 Clouds 16 1002 77 10000 13.4 180 01:37 19.08.2019
3204 Clouds 17 1002 72 10000 12.3 180 00:49 19.08.2019
3205 Clouds 17 1002 72 10000 14.4 180 00:25 19.08.2019
3206 Clouds 17 1002 72 10000 14.9 190 23:57 18.08.2019
3207 Clouds 17 1002 72 10000 14.9 190 23:37 18.08.2019
3208 Clouds 16 1002 72 10000 13.9 190 23:19 18.08.2019
3209 Clouds 16 1002 72 10000 11.8 190 22:40 18.08.2019
3210 Clouds 16 1002 72 10000 11.8 190 22:21 18.08.2019
3211 Clouds 16 1002 67 10000 13.9 190 21:57 18.08.2019
3212 Clouds 16 1002 67 10000 13.9 190 21:39 18.08.2019
3213 Rain 16 1002 67 10000 13.9 190 21:20 18.08.2019
3214 Clouds 17 1002 67 10000 12.3 190 20:54 18.08.2019
3215 Clouds 17 1002 67 10000 12.3 190 20:36 18.08.2019
3216 Clouds 18 1002 68 10000 12.3 190 20:18 18.08.2019
3217 Clouds 18 1002 68 10000 10.8 190 19:41 18.08.2019
3218 Clouds 18 1001 68 10000 9.8 190 19:23 18.08.2019
3219 Clouds 18 1001 68 10000 7.2 180 18:56 18.08.2019
3220 Clouds 18 1001 68 10000 7.2 180 18:56 18.08.2019
3221 Clouds 18 1001 63 10000 7.7 180 18:38 18.08.2019
3222 Clouds 18 1001 63 10000 7.7 180 18:20 18.08.2019
3223 Clouds 18 1001 63 10000 7.7 190 17:54 18.08.2019
3224 Clouds 18 1001 63 10000 7.7 190 17:36 18.08.2019
3225 Clouds 18 1001 59 10000 7.7 190 17:18 18.08.2019
3226 Clouds 18 1001 59 10000 7.7 190 16:42 18.08.2019
3227 Clouds 18 1001 63 10000 8.7 190 16:23 18.08.2019
3228 Clear 17 1001 63 10000 9.8 190 15:59 18.08.2019
3229 Clear 17 1001 63 10000 9.8 190 15:39 18.08.2019
3230 Clouds 17 1001 63 10000 8.7 190 15:20 18.08.2019
3231 Clouds 17 1001 63 10000 8.7 190 15:20 18.08.2019
3232 Clouds 17 1001 63 10000 10.3 200 14:57 18.08.2019
3233 Clouds 17 1001 63 10000 10.3 200 14:38 18.08.2019
3234 Clouds 17 1001 67 10000 9.3 190 14:19 18.08.2019
3235 Clouds 17 1000 67 10000 12.3 190 13:56 18.08.2019
3236 Clouds 17 1000 67 10000 12.3 190 13:37 18.08.2019
3237 Clouds 17 1000 67 10000 11.3 190 13:19 18.08.2019
3238 Clouds 17 1000 67 10000 14.4 190 12:41 18.08.2019
3239 Clouds 17 1000 63 10000 13.4 190 12:22 18.08.2019
3240 Clouds 17 1000 67 10000 15.4 190 11:55 18.08.2019
3241 Clouds 17 1000 67 10000 15.4 190 11:36 18.08.2019
3242 Clouds 17 1000 67 10000 17 190 11:18 18.08.2019
3243 Clouds 16 1000 67 10000 15.4 190 10:41 18.08.2019
3244 Clouds 16 999 67 10000 13.9 200 10:21 18.08.2019
3245 Clouds 16 999 72 10000 15.4 190 09:51 18.08.2019
3246 Clouds 16 999 72 10000 13.4 190 09:23 18.08.2019
3247 Clouds 16 999 72 10000 13.9 190 08:57 18.08.2019
3248 Clouds 16 999 72 10000 13.9 190 08:39 18.08.2019
3249 Clouds 17 999 72 10000 12.9 180 08:21 18.08.2019
3250 Clouds 17 999 72 10000 13.9 180 07:48 18.08.2019
3251 Clouds 17 999 72 10000 12.9 180 07:29 18.08.2019
3252 Clouds 17 1000 72 10000 11.8 180 05:48 18.08.2019
3253 Clouds 16 1000 77 10000 10.8 180 04:53 18.08.2019
3254 Clouds 16 1001 77 10000 10.8 190 03:41 18.08.2019
3255 Clouds 17 1002 72 10000 9.8 190 02:46 18.08.2019
3256 Clouds 16 1002 77 10000 9.8 180 02:24 18.08.2019
3257 Clouds 16 1002 77 10000 9.3 180 01:44 18.08.2019
3258 Clouds 16 1002 77 10000 7.7 180 01:19 18.08.2019
3259 Clouds 15 1002 72 10000 5.7 160 00:38 18.08.2019
3260 Clouds 15 1002 72 10000 5.7 160 00:19 18.08.2019
3261 Clouds 15 1003 67 10000 5.7 150 23:57 17.08.2019
3262 Clouds 15 1003 67 10000 8.2 160 23:37 17.08.2019
3263 Clouds 15 1003 67 10000 8.2 160 23:18 17.08.2019
3264 Clouds 15 1003 67 10000 7.7 150 22:56 17.08.2019
3265 Clouds 15 1003 67 10000 7.7 150 22:56 17.08.2019
3266 Clouds 15 1003 67 10000 7.7 150 22:37 17.08.2019
3267 Clouds 14 1003 71 10000 6.2 140 22:18 17.08.2019
3268 Clouds 14 1004 71 10000 7.7 150 21:41 17.08.2019
3269 Clear 13 1004 76 10000 5.7 130 21:23 17.08.2019
3270 Clear 12 1004 81 10000 6.7 110 20:41 17.08.2019
3271 Clear 11 1005 87 10000 7.2 90 20:21 17.08.2019
3272 Clear 12 1005 81 10000 7.2 90 19:59 17.08.2019
3273 Clear 12 1005 81 10000 7.2 90 19:41 17.08.2019
3274 Clouds 11 1005 87 10000 7.2 100 19:22 17.08.2019
3275 Clouds 11 1005 81 10000 7.7 100 18:54 17.08.2019
3276 Clouds 11 1005 81 10000 6.7 100 18:36 17.08.2019
3277 Clouds 11 1005 81 10000 6.7 100 18:18 17.08.2019
3278 Clouds 11 1005 81 10000 6.7 100 18:18 17.08.2019
3279 Clouds 10 1006 87 10000 5.1 90 17:42 17.08.2019
3280 Clouds 11 1006 81 10000 5.1 90 17:21 17.08.2019
3281 Clouds 11 1006 87 10000 4.6 80 16:56 17.08.2019
3282 Clouds 11 1006 87 10000 4.6 90 16:37 17.08.2019
3283 Clouds 11 1006 87 10000 4.6 90 16:19 17.08.2019
3284 Clouds 11 1006 87 10000 3.6 80 15:42 17.08.2019
3285 Clouds 10 1007 93 10000 3.6 100 15:22 17.08.2019
3286 Clouds 10 1007 93 10000 4.1 100 14:58 17.08.2019
3287 Clouds 10 1007 93 10000 4.1 100 14:39 17.08.2019
3288 Clouds 10 1007 93 10000 2.1 110 14:21 17.08.2019
3289 Clouds 10 1007 93 10000 2.1 110 14:21 17.08.2019
3290 Clouds 10 1007 93 10000 2.1 120 13:44 17.08.2019
3291 Fog 10 1007 93 10000 2.6 100 13:20 17.08.2019
3292 Fog 10 1006 87 10000 1.5 90 12:45 17.08.2019
3293 Fog 10 1006 87 10000 2.6 290 12:20 17.08.2019
3294 Fog 11 1006 81 10000 0.5 0 11:58 17.08.2019
3295 Fog 11 1006 81 10000 0.5 0 11:39 17.08.2019
3296 Clouds 10 1006 87 10000 1.5 0 11:20 17.08.2019
3297 Clouds 10 1006 87 10000 2.1 310 10:42 17.08.2019
3298 Clouds 10 1006 87 10000 2.1 310 10:42 17.08.2019
3299 Clouds 9 1005 93 10000 2.1 330 10:22 17.08.2019
3300 Fog 10 1005 87 10000 1.5 340 09:59 17.08.2019
3301 Fog 10 1005 87 10000 1.5 340 09:40 17.08.2019
3302 Fog 9 1005 93 10000 2.1 340 09:21 17.08.2019
3303 Fog 9 1005 93 10000 2.1 340 08:51 17.08.2019
3304 Drizzle 9 1005 93 10000 3.1 340 08:22 17.08.2019
3305 Drizzle 9 1004 100 10000 3.1 340 07:44 17.08.2019
3306 Drizzle 9 1004 100 10000 3.1 340 07:20 17.08.2019
3307 Rain 9 1004 93 10000 2.6 360 06:34 17.08.2019
3308 Fog 9 1004 100 4000 3.6 360 04:48 17.08.2019
3309 Fog 9 1004 100 4000 3.6 360 04:23 17.08.2019
3310 Clouds 9 1004 93 10000 2.1 310 02:45 17.08.2019
3311 Clouds 8 1004 100 10000 3.33 23.547 01:40 17.08.2019
3312 Clouds 8 1004 100 10000 3.53 16.251 01:21 17.08.2019
3313 Clouds 8 1004 100 10000 1.5 160 00:48 17.08.2019
3314 Mist 9 1004 93 10000 1 0 00:25 17.08.2019
3315 Mist 8 1004 93 10000 1 160 23:47 16.08.2019
3316 Fog 10 1004 93 5000 1 130 23:25 16.08.2019
3317 Fog 9 1004 100 10000 2.1 250 22:44 16.08.2019
3318 Rain 9 1004 93 10000 2.1 360 22:20 16.08.2019
3319 Drizzle 10 1004 87 10000 3.6 340 21:59 16.08.2019
3320 Drizzle 10 1004 87 10000 3.6 340 21:39 16.08.2019
3321 Drizzle 10 1004 100 10000 5.7 350 21:19 16.08.2019
3322 Rain 10 1004 100 10000 5.7 350 20:43 16.08.2019
3323 Rain 9 1004 93 10000 5.1 360 20:43 16.08.2019
3324 Rain 9 1004 93 10000 5.1 360 20:22 16.08.2019
3325 Rain 9 1004 93 10000 2.6 60 19:59 16.08.2019
3326 Rain 9 1004 93 10000 2.6 60 19:40 16.08.2019
3327 Rain 10 1004 93 10000 2.6 40 19:20 16.08.2019
3328 Rain 10 1004 87 10000 3.6 80 18:42 16.08.2019
3329 Drizzle 10 1004 87 10000 3.6 80 18:23 16.08.2019
3330 Drizzle 10 1004 87 10000 3.6 80 17:51 16.08.2019
3331 Clouds 10 1005 81 10000 3.1 90 17:33 16.08.2019
3332 Clouds 10 1005 81 10000 3.1 90 17:33 16.08.2019
3333 Clouds 10 1005 81 10000 2.1 80 16:59 16.08.2019
3334 Clouds 10 1005 81 10000 2.1 80 16:41 16.08.2019
3335 Clouds 10 1005 87 10000 1 0 16:21 16.08.2019
3336 Rain 11 1005 87 10000 2.1 170 15:57 16.08.2019
3337 Rain 11 1005 87 10000 3.1 190 15:39 16.08.2019
3338 Rain 11 1005 87 10000 3.1 190 15:21 16.08.2019
3339 Rain 10 1006 81 10000 3.1 190 14:57 16.08.2019
3340 Rain 10 1006 81 10000 3.1 190 14:38 16.08.2019
3341 Clouds 10 1006 81 10000 2.6 180 14:18 16.08.2019
3342 Clouds 10 1006 81 10000 3.6 190 13:41 16.08.2019
3343 Rain 9 1006 81 10000 3.1 180 13:23 16.08.2019
3344 Rain 9 1006 87 10000 4.1 180 12:56 16.08.2019
3345 Rain 9 1006 87 10000 4.1 180 12:37 16.08.2019
3346 Clouds 9 1006 87 10000 4.1 180 12:19 16.08.2019
3347 Clouds 9 1006 87 10000 3.1 170 11:41 16.08.2019
3348 Clouds 9 1006 87 10000 2.1 150 11:23 16.08.2019
3349 Clouds 9 1007 87 10000 2.1 120 10:43 16.08.2019
3350 Clouds 9 1007 87 10000 1.5 0 10:25 16.08.2019
3351 Clouds 8 1007 93 10000 1 0 09:56 16.08.2019
3352 Clouds 8 1007 93 10000 1 0 09:37 16.08.2019
3353 Drizzle 8 1007 93 10000 1 0 09:18 16.08.2019
3354 Drizzle 8 1007 100 10000 1 0 08:41 16.08.2019
3355 Fog 8 1007 100 10000 2.1 90 08:21 16.08.2019
3356 Clouds 7 1007 93 10000 2.6 90 07:53 16.08.2019
3357 Clouds 6 1007 93 10000 3.1 80 07:32 16.08.2019
3358 Clouds 6 1007 93 10000 2.6 80 06:57 16.08.2019
3359 Clouds 6 1007 93 10000 2.6 80 06:21 16.08.2019
3360 Clouds 6 1007 93 10000 2.6 80 05:40 16.08.2019
3361 Drizzle 5 1007 100 7000 0.5 0 04:28 16.08.2019
3362 Clouds 5 1007 100 10000 1.5 350 02:40 16.08.2019
3363 Mist 6 1007 93 6000 3.6 350 01:30 16.08.2019
3364 Drizzle 6 1007 100 7000 3.1 350 00:59 16.08.2019
3365 Drizzle 6 1007 100 7000 3.1 350 00:40 16.08.2019
3366 Clouds 6 1006 100 9000 2.6 350 00:20 16.08.2019
3367 Drizzle 6 1006 100 8000 3.6 350 23:44 15.08.2019
3368 Clouds 8 1006 93 7000 4.1 360 23:21 15.08.2019
3369 Drizzle 8 1006 93 7000 4.1 360 22:57 15.08.2019
3370 Drizzle 8 1006 93 7000 4.1 360 22:39 15.08.2019
3371 Drizzle 8 1006 100 7000 4.1 20 22:20 15.08.2019
3372 Drizzle 8 1006 100 4500 3.6 20 21:54 15.08.2019
3373 Drizzle 8 1006 100 4500 3.6 20 21:36 15.08.2019
3374 Fog 8 1006 100 4500 3.6 20 21:18 15.08.2019
3375 Fog 8 1006 100 5000 4.1 10 20:42 15.08.2019
3376 Fog 7 1006 100 5000 3.6 10 20:21 15.08.2019
3377 Fog 7 1006 100 5000 3.1 360 19:57 15.08.2019
3378 Fog 7 1006 100 5000 3.1 360 19:38 15.08.2019
3379 Fog 7 1005 100 5000 2.6 10 19:20 15.08.2019
3380 Fog 8 1005 93 5000 3.1 50 18:46 15.08.2019
3381 Fog 8 1005 100 6000 3.1 30 18:23 15.08.2019
3382 Clouds 8 1005 100 8000 4.1 360 17:57 15.08.2019
3383 Clouds 8 1005 100 8000 4.1 360 17:57 15.08.2019
3384 Fog 11 1005 93 10000 4.1 350 17:37 15.08.2019
3385 Fog 11 1005 93 10000 4.1 350 17:19 15.08.2019
3386 Clouds 11 1004 87 10000 3.6 340 16:48 15.08.2019
3387 Clouds 10 1004 93 10000 4.6 350 16:28 15.08.2019
3388 Clouds 10 1004 93 10000 5.1 350 15:59 15.08.2019
3389 Clouds 10 1004 87 10000 5.1 350 15:38 15.08.2019
3390 Clouds 10 1004 87 10000 5.1 350 15:19 15.08.2019
3391 Clouds 10 1004 87 10000 5.1 350 15:19 15.08.2019
3392 Clouds 10 1004 93 10000 4.1 350 14:55 15.08.2019
3393 Clouds 10 1004 93 10000 4.1 350 14:36 15.08.2019
3394 Fog 9 1004 100 2000 3.1 340 14:18 15.08.2019
3395 Drizzle 10 1004 100 2000 3.1 340 13:54 15.08.2019
3396 Mist 10 1004 100 1800 1.5 340 13:36 15.08.2019
3397 Mist 10 1004 100 1800 1.5 340 13:18 15.08.2019
3398 Mist 10 1004 100 3000 1.5 0 12:39 15.08.2019
3399 Mist 10 1003 100 2000 1.5 0 12:20 15.08.2019
3400 Mist 10 1003 93 5000 2.1 330 11:57 15.08.2019
3401 Mist 10 1003 93 5000 2.1 330 11:37 15.08.2019
3402 Drizzle 10 1003 93 7000 1.5 0 11:18 15.08.2019
3403 Mist 10 1003 93 6000 2.1 70 10:58 15.08.2019
3404 Mist 10 1003 93 6000 2.1 70 10:37 15.08.2019
3405 Mist 10 1003 93 8000 2.6 80 10:18 15.08.2019
3406 Drizzle 10 1003 93 8000 3.6 70 09:42 15.08.2019
3407 Mist 10 1003 93 8000 4.6 70 09:22 15.08.2019
3408 Drizzle 10 1003 93 9000 3.1 60 08:39 15.08.2019
3409 Drizzle 10 1003 93 10000 3.1 80 08:21 15.08.2019
3410 Drizzle 10 1003 93 10000 3.6 100 07:56 15.08.2019
3411 Drizzle 10 1003 93 10000 3.6 100 07:38 15.08.2019
3412 Clouds 8 1003 100 10000 3.1 100 07:20 15.08.2019
3413 Clouds 8 1003 100 10000 3.1 100 06:47 15.08.2019
3414 Clouds 8 1003 93 10000 3.6 80 06:25 15.08.2019
3415 Clouds 8 1006 91 0 10.05 66.222 05:30 15.08.2019
3416 Clouds 8 1004 93 10000 4.6 90 04:57 15.08.2019
3417 Clouds 8 1004 87 10000 5.1 70 03:53 15.08.2019
3418 Clouds 8 1004 87 10000 5.1 70 03:18 15.08.2019
3419 Clouds 8 1004 93 10000 5.7 80 02:26 15.08.2019
3420 Clouds 8 1004 93 10000 5.1 90 01:41 15.08.2019
3421 Clouds 8 1005 93 10000 5.7 90 00:56 15.08.2019
3422 Clouds 8 1005 93 10000 5.7 90 00:36 15.08.2019
3423 Clouds 8 1005 93 10000 5.7 90 00:18 15.08.2019
3424 Clouds 8 1005 93 10000 6.7 80 23:55 14.08.2019
3425 Clouds 8 1005 93 10000 6.2 80 23:36 14.08.2019
3426 Clouds 10 1005 93 10000 6.2 80 23:18 14.08.2019
3427 Fog 10 1005 93 10000 6.7 80 22:41 14.08.2019
3428 Fog 10 1005 93 10000 6.2 80 22:22 14.08.2019
3429 Fog 10 1005 93 10000 6.7 80 21:57 14.08.2019
3430 Fog 10 1005 93 10000 6.7 80 21:39 14.08.2019
3431 Fog 10 1005 93 10000 6.7 80 21:39 14.08.2019
3432 Fog 10 1005 93 10000 6.7 80 21:20 14.08.2019
3433 Fog 9 1005 100 10000 7.2 80 20:56 14.08.2019
3434 Fog 9 1005 100 10000 7.2 80 20:56 14.08.2019
3435 Fog 9 1005 100 10000 7.2 80 20:37 14.08.2019
3436 Fog 8 1005 93 10000 7.2 70 20:18 14.08.2019
3437 Fog 8 1005 100 10000 6.7 70 19:40 14.08.2019
3438 Fog 8 1005 100 10000 6.7 70 19:22 14.08.2019
3439 Fog 9 1005 93 10000 6.7 80 18:59 14.08.2019
3440 Fog 9 1004 93 10000 5.7 80 18:39 14.08.2019
3441 Fog 9 1004 93 10000 5.7 80 18:21 14.08.2019
3442 Fog 9 1004 93 10000 6.2 80 17:59 14.08.2019
3443 Fog 9 1004 93 10000 6.2 80 17:39 14.08.2019
3444 Fog 11 1005 100 10000 7.2 80 17:21 14.08.2019
3445 Mist 11 1005 100 10000 7.2 70 16:56 14.08.2019
3446 Drizzle 11 1005 93 5000 6.2 70 16:38 14.08.2019
3447 Drizzle 11 1005 93 5000 6.2 70 16:19 14.08.2019
3448 Drizzle 11 1005 93 5000 6.2 70 16:19 14.08.2019
3449 Fog 11 1005 93 10000 6.2 70 15:43 14.08.2019
3450 Fog 11 1004 93 10000 6.2 80 15:18 14.08.2019
3451 Clouds 11 1004 93 10000 6.2 70 14:56 14.08.2019
3452 Clouds 11 1004 93 10000 6.2 70 14:38 14.08.2019
3453 Drizzle 11 1004 93 9000 5.1 70 14:18 14.08.2019
3454 Clouds 11 1004 93 9000 5.1 80 13:44 14.08.2019
3455 Drizzle 11 1004 93 8000 5.7 70 13:24 14.08.2019
3456 Drizzle 11 1004 93 10000 5.1 70 12:58 14.08.2019
3457 Drizzle 11 1004 93 10000 5.1 70 12:39 14.08.2019
3458 Clouds 11 1004 93 10000 4.6 80 12:21 14.08.2019
3459 Clouds 11 1004 93 10000 3.6 70 11:57 14.08.2019
3460 Clouds 11 1004 87 10000 4.1 70 11:38 14.08.2019
3461 Clouds 11 1004 87 10000 4.1 70 11:38 14.08.2019
3462 Clouds 11 1004 87 10000 4.1 70 11:38 14.08.2019
3463 Clouds 11 1004 87 10000 4.1 70 11:38 14.08.2019
3464 Clouds 11 1004 87 10000 4.1 70 11:20 14.08.2019
3465 Clouds 12 1004 93 10000 4.6 70 10:45 14.08.2019
3466 Clouds 12 1004 93 10000 3.6 70 10:24 14.08.2019
3467 Drizzle 11 1004 93 10000 4.1 70 09:58 14.08.2019
3468 Drizzle 11 1004 93 10000 4.1 70 09:39 14.08.2019
3469 -273 0 0 0 0 0 09:19 14.08.2019
3470 Drizzle 11 1004 93 10000 4.1 70 08:40 14.08.2019
3471 Clouds 11 1004 93 10000 4.1 80 08:21 14.08.2019
3472 Clouds 11 1004 93 10000 4.1 80 07:53 14.08.2019
3473 Clouds 9 1004 93 10000 4.1 90 07:33 14.08.2019
3474 Clouds 9 1004 93 10000 4.1 100 06:47 14.08.2019
3475 Rain 9 1004 93 10000 3.1 100 05:54 14.08.2019
3476 Rain 9 1004 93 10000 3.1 100 05:28 14.08.2019
3477 Clouds 9 1004 87 10000 5.7 110 03:38 14.08.2019
3478 Clouds 8 1005 100 10000 6.7 110 02:34 14.08.2019
3479 Clouds 8 1005 100 10000 5.7 100 01:54 14.08.2019
3480 Clouds 8 1005 100 10000 5.7 100 01:19 14.08.2019
3481 Rain 8 1005 93 10000 6.2 90 23:56 13.08.2019
3482 Rain 8 1005 93 10000 6.2 90 23:37 13.08.2019
3483 Rain 10 1006 100 10000 6.7 90 23:18 13.08.2019
3484 Drizzle 10 1006 93 6000 6.2 80 22:42 13.08.2019
3485 Drizzle 10 1006 87 10000 5.7 70 22:24 13.08.2019
3486 Clouds 10 1006 93 10000 5.7 70 21:59 13.08.2019
3487 Clouds 10 1006 87 10000 5.1 70 21:39 13.08.2019
3488 Clouds 10 1006 87 10000 5.1 70 21:19 13.08.2019
3489 Clouds 10 1006 87 10000 6.2 80 20:58 13.08.2019
3490 Clouds 10 1006 87 10000 6.2 80 20:40 13.08.2019
3491 Clouds 9 1006 87 10000 6.7 80 20:19 13.08.2019
3492 Clouds 9 1006 87 10000 7.2 80 19:55 13.08.2019
3493 Clouds 9 1006 87 10000 7.2 90 19:37 13.08.2019
3494 Clouds 9 1006 87 10000 7.2 90 19:18 13.08.2019
3495 Clouds 9 1007 87 10000 7.2 90 18:41 13.08.2019
3496 Clouds 9 1007 87 10000 7.7 90 18:22 13.08.2019
3497 Clouds 9 1007 87 10000 7.7 90 17:44 13.08.2019
3498 Clouds 11 1007 87 10000 8.7 100 17:25 13.08.2019
3499 Clouds 11 1007 87 10000 8.7 90 16:59 13.08.2019
3500 Clouds 11 1007 87 10000 8.7 90 16:59 13.08.2019
3501 Clouds 11 1007 87 10000 8.7 90 16:40 13.08.2019
3502 Clouds 11 1007 87 10000 8.7 90 16:21 13.08.2019
3503 Clouds 11 1007 87 10000 8.7 90 16:00 13.08.2019
3504 Clouds 11 1007 87 10000 8.7 90 15:38 13.08.2019
3505 Clouds 11 1007 87 10000 9.8 100 15:20 13.08.2019
3506 Clouds 11 1008 87 10000 9.3 90 14:47 13.08.2019
3507 Clouds 10 1008 93 10000 9.3 90 14:21 13.08.2019
3508 Clouds 11 1008 87 10000 9.3 90 13:59 13.08.2019
3509 Clouds 11 1008 87 10000 9.3 90 13:41 13.08.2019
3510 Clouds 11 1008 93 10000 9.8 90 13:21 13.08.2019
3511 Clouds 11 1008 93 10000 9.8 90 12:57 13.08.2019
3512 Clouds 11 1008 93 10000 9.8 90 12:39 13.08.2019
3513 Clouds 10 1008 93 10000 9.8 90 12:21 13.08.2019
3514 Clouds 11 1008 93 10000 10.3 90 11:43 13.08.2019
3515 Clouds 10 1008 87 10000 9.3 90 11:23 13.08.2019
3516 Clouds 10 1008 93 10000 9.3 90 10:59 13.08.2019
3517 Clouds 10 1008 93 10000 9.3 90 10:39 13.08.2019
3518 Clouds 10 1008 93 10000 9.8 90 10:20 13.08.2019
3519 Clouds 10 1008 87 10000 10.3 90 09:58 13.08.2019
3520 Clouds 10 1008 87 10000 10.3 90 09:40 13.08.2019
3521 Clouds 10 1007 93 10000 10.8 90 09:22 13.08.2019
3522 Clouds 9 1008 100 10000 10.8 90 08:42 13.08.2019
3523 Clouds 9 1007 100 10000 10.3 90 08:22 13.08.2019
3524 Clouds 9 1007 93 10000 11.3 90 07:51 13.08.2019
3525 Clouds 7 1007 100 10000 9.8 90 07:31 13.08.2019
3526 Clouds 7 1007 100 10000 8.7 90 06:45 13.08.2019
3527 Clouds 7 1008 100 10000 8.7 90 06:19 13.08.2019
3528 Clouds 7 1007 100 10000 8.7 90 05:33 13.08.2019
3529 Drizzle 8 1007 93 8000 8.2 90 02:37 13.08.2019
3530 Rain 8 1007 93 8000 8.7 90 01:58 13.08.2019
3531 Rain 8 1007 93 9000 7.7 90 00:55 13.08.2019
3532 Rain 8 1007 100 9000 6.2 90 00:36 13.08.2019
3533 Clouds 8 1007 93 10000 6.2 80 23:49 12.08.2019
3534 Clouds 11 1006 93 10000 6.2 90 23:24 12.08.2019
3535 Clouds 11 1006 93 10000 5.7 90 22:58 12.08.2019
3536 Clouds 11 1006 93 10000 5.7 90 22:39 12.08.2019
3537 Clouds 10 1006 93 10000 4.1 80 22:19 12.08.2019
3538 Clouds 10 1006 93 10000 5.7 70 21:55 12.08.2019
3539 Clouds 10 1006 93 10000 5.7 70 21:37 12.08.2019
3540 Clouds 10 1006 93 10000 5.7 70 21:18 12.08.2019
3541 Clouds 11 1006 93 10000 6.2 70 20:56 12.08.2019
3542 Clouds 11 1006 93 10000 6.2 70 20:56 12.08.2019
3543 Clouds 11 1006 93 10000 6.2 70 20:37 12.08.2019
3544 Clouds 9 1006 93 10000 6.2 70 20:19 12.08.2019
3545 Clouds 9 1006 93 10000 5.1 70 19:55 12.08.2019
3546 Clouds 9 1006 93 10000 4.1 70 19:36 12.08.2019
3547 Clouds 9 1006 93 10000 4.1 70 19:18 12.08.2019
3548 Clouds 9 1006 93 10000 5.1 70 18:54 12.08.2019
3549 Clouds 9 1006 93 10000 6.2 70 18:36 12.08.2019
3550 Clouds 9 1006 93 10000 6.2 70 18:18 12.08.2019
3551 Clouds 9 1006 93 10000 5.1 70 17:46 12.08.2019
3552 Clouds 10 1006 93 10000 5.1 70 17:28 12.08.2019
3553 Clouds 13 1006 87 10000 6.2 70 16:56 12.08.2019
3554 Clouds 13 1006 87 10000 6.2 70 16:56 12.08.2019
3555 Clouds 13 1006 87 10000 6.2 70 16:56 12.08.2019
3556 Clouds 13 1006 87 10000 6.2 70 16:37 12.08.2019
3557 Clouds 12 1006 93 10000 6.7 50 16:19 12.08.2019
3558 Clouds 13 1006 87 10000 5.7 60 15:54 12.08.2019
3559 Clouds 13 1006 93 10000 5.7 40 15:36 12.08.2019
3560 Clouds 13 1006 93 10000 5.7 40 15:36 12.08.2019
3561 Clouds 13 1006 93 10000 5.7 40 15:18 12.08.2019
3562 -273 0 0 0 0 0 14:42 12.08.2019
3563 Fog 13 1006 93 10000 3.6 50 14:23 12.08.2019
3564 Fog 12 1006 93 10000 4.1 70 13:58 12.08.2019
3565 Fog 12 1006 93 10000 4.1 70 13:58 12.08.2019
3566 Fog 12 1006 93 10000 4.1 70 13:40 12.08.2019
3567 Clouds 14 1006 93 10000 3.1 70 13:21 12.08.2019
3568 Clouds 14 1005 87 10000 2.1 350 12:43 12.08.2019
3569 Clouds 14 1005 87 10000 2.1 350 12:43 12.08.2019
3570 Fog 13 1005 93 10000 3.1 350 12:21 12.08.2019
3571 Fog 14 1005 87 10000 3.1 350 11:47 12.08.2019
3572 Fog 14 1005 87 10000 3.1 350 11:47 12.08.2019
3573 Clouds 14 1005 93 10000 2.6 350 11:29 12.08.2019
3574 Clouds 12 1005 93 10000 1.5 50 10:59 12.08.2019
3575 Clouds 12 1005 93 10000 1.5 50 10:40 12.08.2019
3576 Clouds 12 1005 93 10000 1.5 50 10:40 12.08.2019
3577 -273 0 0 0 0 0 10:21 12.08.2019
3578 Clouds 12 1005 93 10000 3.1 60 09:55 12.08.2019
3579 Clouds 12 1005 93 10000 3.1 60 09:37 12.08.2019
3580 Clouds 12 1005 93 10000 3.1 60 09:37 12.08.2019
3581 Clouds 13 1004 93 10000 2.6 30 09:18 12.08.2019
3582 Clouds 12 1004 93 10000 2.1 30 08:41 12.08.2019
3583 Clouds 12 1004 93 10000 2.1 30 08:23 12.08.2019
3584 Fog 12 1004 100 10000 2.1 340 07:56 12.08.2019
3585 Fog 12 1004 93 5000 2.1 340 07:35 12.08.2019
3586 Fog 12 1004 100 10000 1 340 06:58 12.08.2019
3587 Fog 12 1004 100 10000 1.5 220 06:22 12.08.2019
3588 Drizzle 12 1004 93 10000 2.6 220 04:31 12.08.2019
3589 Rain 13 1005 87 10000 3.1 130 02:43 12.08.2019
3590 Drizzle 13 1005 93 10000 5.1 140 01:48 12.08.2019
3591 Drizzle 13 1005 93 10000 5.1 140 01:19 12.08.2019
3592 Rain 13 1005 93 10000 4.6 160 00:55 12.08.2019
3593 Rain 13 1005 93 10000 4.6 160 00:37 12.08.2019
3594 Rain 13 1005 87 10000 5.1 180 00:18 12.08.2019
3595 Rain 14 1006 82 10000 8.2 200 23:40 11.08.2019
3596 Drizzle 14 1005 77 10000 9.3 200 23:20 11.08.2019
3597 Drizzle 13 1005 76 10000 8.7 200 22:58 11.08.2019
3598 Drizzle 13 1005 76 10000 8.7 200 22:39 11.08.2019
3599 Rain 13 1005 71 10000 7.7 190 22:18 11.08.2019
3600 Rain 15 1005 72 10000 6.7 190 21:58 11.08.2019
3601 Rain 15 1005 72 10000 5.1 180 21:39 11.08.2019
3602 Rain 15 1005 72 10000 5.1 180 21:19 11.08.2019
3603 Rain 13 1005 72 10000 3.1 180 20:45 11.08.2019
3604 Rain 13 1005 72 10000 2.6 150 20:24 11.08.2019
3605 Clear 15 1005 72 10000 3.1 130 19:59 11.08.2019
3606 Clear 15 1005 72 10000 3.1 130 19:59 11.08.2019
3607 Clear 15 1005 72 10000 3.1 130 19:41 11.08.2019
3608 Clouds 16 1005 67 10000 2.6 130 19:18 11.08.2019
3609 Clouds 16 1005 67 10000 3.1 120 18:41 11.08.2019
3610 Clouds 16 1005 67 10000 4.1 110 18:21 11.08.2019
3611 Clouds 16 1005 67 10000 5.1 110 17:57 11.08.2019
3612 Clouds 16 1005 67 10000 5.1 110 17:39 11.08.2019
3613 Clouds 16 1005 63 10000 6.2 100 17:20 11.08.2019
3614 -273 0 0 0 0 0 16:55 11.08.2019
3615 Clouds 15 1006 67 10000 6.2 110 16:37 11.08.2019
3616 Clouds 15 1006 67 10000 6.2 110 16:18 11.08.2019
3617 Clouds 17 1006 67 10000 6.7 100 15:43 11.08.2019
3618 Clouds 17 1006 63 10000 6.7 100 15:43 11.08.2019
3619 Clouds 17 1006 67 10000 6.7 100 15:24 11.08.2019
3620 Clouds 17 1006 67 10000 5.7 100 14:57 11.08.2019
3621 Clouds 15 1007 67 10000 6.2 90 14:38 11.08.2019
3622 Clouds 15 1007 67 10000 6.2 90 14:19 11.08.2019
3623 Clouds 15 1007 67 10000 6.7 90 13:44 11.08.2019
3624 Clouds 14 1007 71 10000 8.2 140 13:24 11.08.2019
3625 Clouds 14 1007 67 10000 9.3 140 12:48 11.08.2019
3626 Clouds 13 1008 71 10000 9.3 130 12:23 11.08.2019
3627 Clouds 13 1008 71 10000 9.8 150 11:57 11.08.2019
3628 Clouds 13 1008 71 10000 9.8 150 11:38 11.08.2019
3629 Clouds 12 1008 76 10000 7.2 130 11:20 11.08.2019
3630 Clouds 12 1008 76 10000 8.2 130 10:41 11.08.2019
3631 Clouds 12 1008 76 10000 7.7 140 10:22 11.08.2019
3632 Clouds 12 1008 71 10000 8.7 140 09:59 11.08.2019
3633 Clouds 12 1008 71 10000 8.7 140 09:39 11.08.2019
3634 Clouds 11 1008 76 10000 8.7 130 09:20 11.08.2019
3635 Clouds 10 1009 81 10000 9.8 140 08:48 11.08.2019
3636 Clouds 10 1009 81 10000 10.3 140 08:28 11.08.2019
3637 Clouds 10 1009 81 10000 10.3 140 07:56 11.08.2019
3638 Clouds 11 1009 76 10000 10.3 140 07:26 11.08.2019
3639 Clouds 10 1009 76 10000 10.3 140 06:45 11.08.2019
3640 Clouds 11 1010 71 10000 7.2 120 05:58 11.08.2019
3641 Clouds 10 1010 76 10000 8.7 110 04:37 11.08.2019
3642 Clouds 10 1011 76 10000 10.3 140 02:49 11.08.2019
3643 Clouds 10 1011 76 10000 7.2 110 01:51 11.08.2019
3644 Clouds 10 1012 81 10000 6.7 130 01:26 11.08.2019
3645 Clouds 10 1012 81 10000 8.2 120 00:53 11.08.2019
3646 Clouds 10 1012 81 10000 8.2 130 00:33 11.08.2019
3647 Clouds 10 1012 81 10000 5.7 120 23:49 10.08.2019
3648 Clouds 10 1013 81 10000 6.7 110 23:29 10.08.2019
3649 Clouds 10 1012 81 10000 7.2 100 22:45 10.08.2019
3650 Clouds 10 1013 81 10000 6.7 100 22:26 10.08.2019
3651 Clouds 9 1013 81 10000 6.7 100 21:58 10.08.2019
3652 Clouds 9 1013 81 10000 6.7 100 21:39 10.08.2019
3653 Clouds 10 1013 76 10000 7.2 90 21:21 10.08.2019
3654 Clouds 10 1013 76 10000 7.7 90 20:57 10.08.2019
3655 Clouds 10 1013 76 10000 7.7 90 20:39 10.08.2019
3656 Clouds 10 1013 76 10000 7.7 100 20:18 10.08.2019
3657 Clouds 10 1013 76 10000 8.2 90 19:41 10.08.2019
3658 Clouds 11 1013 71 10000 8.2 90 19:22 10.08.2019
3659 Clouds 11 1013 71 10000 8.2 100 18:42 10.08.2019
3660 Clear 11 1013 71 10000 7.7 100 18:23 10.08.2019
3661 Clear 11 1014 71 10000 7.2 80 17:56 10.08.2019
3662 Clear 11 1014 71 10000 7.2 80 17:56 10.08.2019
3663 Clear 11 1014 71 10000 7.2 80 17:37 10.08.2019
3664 Clear 11 1014 71 10000 7.2 80 17:18 10.08.2019
3665 Clear 11 1014 71 10000 7.2 90 16:42 10.08.2019
3666 Clear 11 1014 66 10000 7.2 80 16:21 10.08.2019
3667 Clouds 11 1014 66 10000 7.2 80 15:44 10.08.2019
3668 Clouds 11 1014 66 10000 7.7 80 15:22 10.08.2019
3669 Clouds 10 1015 71 10000 7.7 90 14:44 10.08.2019
3670 Clouds 10 1015 71 10000 7.7 90 14:44 10.08.2019
3671 Clouds 11 1015 62 10000 7.2 90 14:19 10.08.2019
3672 Clouds 11 1015 62 10000 7.2 70 13:41 10.08.2019
3673 Clouds 10 1015 66 10000 6.7 90 13:20 10.08.2019
3674 Clouds 10 1015 66 10000 7.7 100 12:44 10.08.2019
3675 Clouds 10 1015 66 10000 6.7 90 12:24 10.08.2019
3676 Clouds 10 1015 71 10000 6.7 90 11:59 10.08.2019
3677 Clouds 10 1015 71 10000 6.7 90 11:40 10.08.2019
3678 Clouds 9 1015 70 10000 7.7 90 11:21 10.08.2019
3679 Clouds 9 1015 70 10000 7.7 90 10:55 10.08.2019
3680 Clouds 9 1015 70 10000 7.7 90 10:36 10.08.2019
3681 Clouds 9 1015 66 10000 7.7 90 10:18 10.08.2019
3682 Clouds 9 1015 66 10000 7.7 100 09:40 10.08.2019
3683 Clouds 9 1015 70 10000 7.7 100 09:22 10.08.2019
3684 Rain 8 1015 70 10000 7.7 100 08:42 10.08.2019
3685 Clouds 8 1015 75 10000 7.7 100 08:20 10.08.2019
3686 Clouds 7 1015 75 10000 7.2 100 07:54 10.08.2019
3687 Clouds 7 1015 75 10000 7.7 100 07:29 10.08.2019
3688 Clouds 7 1015 81 10000 7.2 90 06:49 10.08.2019
3689 Clouds 7 1015 81 10000 7.2 90 06:28 10.08.2019
3690 Clouds 7 1015 81 10000 6.7 100 05:27 10.08.2019
3691 Clouds 7 1015 81 10000 6.7 100 04:37 10.08.2019
3692 Clouds 7 1015 81 10000 7.2 90 02:58 10.08.2019
3693 Clouds 7 1014 81 10000 7.2 100 02:27 10.08.2019
3694 Clouds 7 1015 81 10000 7.2 100 01:43 10.08.2019
3695 Clouds 7 1015 75 10000 6.2 100 01:23 10.08.2019
3696 Clouds 7 1015 75 10000 6.2 100 00:49 10.08.2019
3697 Clouds 7 1014 75 10000 6.2 90 00:25 10.08.2019
3698 Clouds 7 1014 81 10000 6.2 80 23:57 09.08.2019
3699 Clouds 7 1014 81 10000 6.2 80 23:36 09.08.2019
3700 Clouds 9 1014 81 10000 5.7 80 23:18 09.08.2019
3701 Clouds 9 1014 87 10000 6.2 80 22:40 09.08.2019
3702 Clouds 9 1014 87 10000 6.2 80 22:40 09.08.2019
3703 Clouds 9 1014 87 10000 6.2 80 22:22 09.08.2019
3704 Clouds 7 1014 87 10000 6.2 80 21:57 09.08.2019
3705 Clouds 9 1014 87 10000 6.2 80 21:39 09.08.2019
3706 Clouds 9 1014 81 10000 6.7 70 21:21 09.08.2019
3707 Clouds 9 1014 81 10000 6.7 70 21:21 09.08.2019
3708 Clouds 9 1014 81 10000 6.7 70 20:56 09.08.2019
3709 Clouds 7 1013 81 10000 6.7 70 20:38 09.08.2019
3710 Clouds 7 1013 81 10000 6.7 70 20:18 09.08.2019
3711 Clouds 8 1013 75 10000 7.2 70 19:41 09.08.2019
3712 Clouds 8 1013 75 10000 7.2 60 19:22 09.08.2019
3713 Clouds 8 1013 75 10000 7.2 70 18:42 09.08.2019
3714 Clouds 8 1013 75 10000 7.7 70 18:23 09.08.2019
3715 Clouds 8 1013 75 10000 7.2 60 17:59 09.08.2019
3716 Rain 9 1013 75 10000 7.2 60 17:41 09.08.2019
3717 Rain 9 1013 75 10000 6.2 70 17:23 09.08.2019
3718 -273 0 0 0 0 0 16:54 09.08.2019
3719 Rain 9 1013 70 10000 6.7 70 16:36 09.08.2019
3720 Clouds 10 1013 75 10000 7.2 80 16:18 09.08.2019
3721 Clouds 10 1013 70 10000 7.2 70 15:41 09.08.2019
3722 Clouds 10 1013 70 10000 6.7 80 15:20 09.08.2019
3723 -273 0 0 0 0 0 14:57 09.08.2019
3724 Clouds 10 1013 75 10000 6.7 80 14:56 09.08.2019
3725 Clouds 10 1013 75 10000 6.7 80 14:37 09.08.2019
3726 Clouds 10 1013 70 10000 6.7 90 14:19 09.08.2019
3727 Clouds 10 1013 70 10000 6.7 90 13:43 09.08.2019
3728 Clouds 10 1013 75 10000 6.7 80 13:20 09.08.2019
3729 Clouds 10 1013 75 10000 6.7 90 12:47 09.08.2019
3730 Clouds 10 1013 75 10000 7.2 100 12:24 09.08.2019
3731 Clouds 10 1013 75 10000 7.7 100 11:59 09.08.2019
3732 Clouds 10 1013 75 10000 7.7 100 11:38 09.08.2019
3733 Clouds 9 1013 81 10000 7.7 90 11:19 09.08.2019
3734 Clouds 9 1013 87 10000 7.7 100 10:41 09.08.2019
3735 Clouds 9 1013 87 10000 7.2 100 10:22 09.08.2019
3736 Clouds 9 1012 87 10000 7.2 90 09:59 09.08.2019
3737 Clouds 9 1012 87 10000 7.2 90 09:37 09.08.2019
3738 Clouds 9 1012 87 10000 7.2 90 09:18 09.08.2019
3739 Clouds 9 1012 87 10000 6.2 90 08:44 09.08.2019
3740 Clouds 9 1012 87 10000 6.2 90 08:25 09.08.2019
3741 Clouds 9 1012 81 10000 6.7 90 07:55 09.08.2019
3742 Clouds 9 1012 81 10000 6.7 90 07:55 09.08.2019
3743 Clouds 7 1012 87 10000 5.7 80 07:24 09.08.2019
3744 Clouds 7 1012 81 10000 5.7 80 06:59 09.08.2019
3745 Clouds 7 1012 87 10000 5.1 80 06:38 09.08.2019
3746 Clouds 7 1012 87 10000 5.1 80 06:20 09.08.2019
3747 Clouds 6 1012 87 10000 6.2 80 04:57 09.08.2019
3748 Clouds 7 1011 81 10000 6.2 80 02:26 09.08.2019
3749 Clouds 7 1011 81 10000 6.2 90 01:21 09.08.2019
3750 Clouds 7 1011 87 10000 6.2 90 00:41 09.08.2019
3751 Clouds 6 1011 87 10000 7.2 80 00:22 09.08.2019
3752 Clouds 7 1011 81 10000 6.7 90 23:56 08.08.2019
3753 Clouds 9 1011 87 10000 6.2 90 23:36 08.08.2019
3754 Clouds 9 1011 87 10000 6.2 90 23:18 08.08.2019
3755 Clouds 9 1011 87 10000 6.7 80 22:38 08.08.2019
3756 Clouds 9 1011 87 10000 6.7 80 22:19 08.08.2019
3757 Clouds 9 1011 81 10000 6.7 70 21:59 08.08.2019
3758 Clouds 9 1011 81 10000 6.7 70 21:41 08.08.2019
3759 Clouds 9 1011 87 10000 6.7 70 21:22 08.08.2019
3760 Clouds 9 1011 87 10000 7.2 70 20:57 08.08.2019
3761 Clouds 7 1011 87 10000 7.7 70 20:39 08.08.2019
3762 Clouds 7 1011 87 10000 7.7 70 20:19 08.08.2019
3763 Clouds 7 1011 87 10000 7.2 70 19:47 08.08.2019
3764 Clouds 8 1010 81 10000 6.7 70 19:28 08.08.2019
3765 Clouds 8 1010 81 10000 7.7 70 18:54 08.08.2019
3766 Clouds 9 1010 76 10000 7.2 70 18:36 08.08.2019
3767 Clouds 9 1010 76 10000 7.2 70 18:18 08.08.2019
3768 Clouds 9 1010 76 10000 7.2 70 17:41 08.08.2019
3769 Clouds 11 1010 76 10000 6.7 80 17:23 08.08.2019
3770 Clouds 11 1010 76 10000 6.7 80 17:23 08.08.2019
3771 Clouds 10 1010 76 10000 6.2 70 16:56 08.08.2019
3772 Clouds 10 1010 76 10000 6.2 70 16:37 08.08.2019
3773 Clouds 10 1010 76 10000 6.2 70 16:37 08.08.2019
3774 Clouds 10 1010 81 10000 5.7 60 16:19 08.08.2019
3775 Clouds 10 1010 76 10000 6.2 60 15:56 08.08.2019
3776 Clouds 10 1010 81 10000 7.2 70 15:37 08.08.2019
3777 Clouds 10 1010 81 10000 7.2 70 15:19 08.08.2019
3778 Clouds 10 1010 81 10000 7.2 70 14:37 08.08.2019
3779 Clouds 10 1010 81 10000 6.2 70 14:18 08.08.2019
3780 Clouds 10 1010 81 10000 6.2 70 13:41 08.08.2019
3781 Clouds 10 1010 81 10000 6.2 70 13:23 08.08.2019
3782 Clouds 11 1010 81 10000 5.7 70 12:57 08.08.2019
3783 Clouds 11 1010 81 10000 7.7 70 12:37 08.08.2019
3784 Clouds 11 1010 81 10000 7.7 70 12:18 08.08.2019
3785 Clouds 11 1010 81 10000 5.7 90 11:42 08.08.2019
3786 Clouds 10 1010 87 10000 5.7 80 11:23 08.08.2019
3787 Clouds 10 1010 87 10000 5.7 80 11:23 08.08.2019
3788 Clouds 10 1010 93 10000 5.1 80 10:41 08.08.2019
3789 Clouds 10 1010 93 10000 5.1 80 10:41 08.08.2019
3790 Drizzle 10 1010 93 9000 5.7 80 10:22 08.08.2019
3791 Drizzle 10 1010 93 10000 4.6 80 09:57 08.08.2019
3792 Drizzle 10 1010 93 10000 4.6 80 09:39 08.08.2019
3793 Drizzle 10 1009 93 8000 4.6 80 09:19 08.08.2019
3794 Drizzle 9 1010 100 8000 4.6 90 08:40 08.08.2019
3795 Drizzle 9 1010 87 10000 4.6 80 08:21 08.08.2019
3796 Rain 9 1009 93 10000 4.1 80 07:42 08.08.2019
3797 Clouds 7 1010 93 10000 4.6 80 07:21 08.08.2019
3798 Clouds 7 1010 93 10000 4.1 80 06:58 08.08.2019
3799 Clouds 7 1010 93 10000 4.1 90 06:40 08.08.2019
3800 Clouds 7 1009 93 10000 4.6 80 05:54 08.08.2019
3801 Clouds 7 1010 93 10000 4.6 70 05:28 08.08.2019
3802 Clouds 7 1009 93 10000 4.6 80 03:57 08.08.2019
3803 Clouds 7 1009 93 10000 4.6 80 03:35 08.08.2019
3804 Clouds 7 1009 93 10000 4.1 70 01:41 08.08.2019
3805 Clouds 7 1009 93 10000 4.1 60 00:57 08.08.2019
3806 Clouds 7 1009 87 10000 4.1 70 00:21 08.08.2019
3807 Clouds 9 1009 87 10000 4.6 70 23:23 07.08.2019
3808 Clouds 9 1009 87 10000 6.2 70 23:00 07.08.2019
3809 Clouds 9 1009 87 10000 6.2 70 22:41 07.08.2019
3810 Clouds 9 1009 87 10000 5.1 80 22:21 07.08.2019
3811 Clouds 9 1009 81 10000 5.7 80 21:58 07.08.2019
3812 Clouds 9 1009 81 10000 5.7 80 21:40 07.08.2019
3813 Clouds 9 1009 81 10000 5.7 80 21:40 07.08.2019
3814 Clouds 8 1009 93 10000 6.2 70 21:21 07.08.2019
3815 Clouds 8 1009 93 10000 6.2 70 21:21 07.08.2019
3816 Clouds 9 1009 93 10000 6.7 70 20:59 07.08.2019
3817 Clouds 9 1009 93 10000 6.7 70 20:41 07.08.2019
3818 Clouds 7 1009 87 10000 6.7 80 20:20 07.08.2019
3819 Clouds 7 1009 87 10000 7.2 80 19:55 07.08.2019
3820 Clouds 7 1009 87 10000 7.2 80 19:36 07.08.2019
3821 Clouds 7 1009 87 10000 7.2 80 19:36 07.08.2019
3822 Clouds 8 1009 81 10000 7.2 80 19:18 07.08.2019
3823 Clouds 8 1009 81 10000 6.7 80 18:40 07.08.2019
3824 Clouds 9 1009 76 10000 6.7 80 18:20 07.08.2019
3825 Clouds 9 1009 76 10000 7.2 70 17:56 07.08.2019
3826 Clouds 9 1009 76 10000 7.2 70 17:56 07.08.2019
3827 Clouds 9 1009 76 10000 7.2 70 17:38 07.08.2019
3828 Clouds 11 1009 76 10000 6.7 80 17:19 07.08.2019
3829 Clouds 11 1009 76 10000 6.7 70 16:56 07.08.2019
3830 Clouds 11 1009 70 10000 6.7 80 16:38 07.08.2019
3831 Clouds 11 1009 70 10000 6.7 80 16:19 07.08.2019
3832 Clouds 11 1009 70 10000 6.7 80 16:19 07.08.2019
3833 Clear 11 1009 70 10000 5.7 80 15:43 07.08.2019
3834 Clear 11 1009 70 10000 6.2 80 15:22 07.08.2019
3835 Clouds 11 1009 76 10000 5.7 80 14:57 07.08.2019
3836 Clouds 10 1009 70 10000 5.1 90 14:39 07.08.2019
3837 Clouds 10 1009 70 10000 5.1 90 14:21 07.08.2019
3838 Clouds 10 1009 70 10000 5.1 80 13:41 07.08.2019
3839 Clouds 11 1009 66 10000 4.1 80 13:19 07.08.2019
3840 Clouds 10 1009 70 10000 3.6 90 12:58 07.08.2019
3841 Clouds 10 1009 70 10000 3.6 90 12:39 07.08.2019
3842 Clouds 10 1009 70 10000 4.6 90 12:20 07.08.2019
3843 Clouds 10 1009 75 10000 4.1 90 11:58 07.08.2019
3844 Clouds 10 1009 75 10000 4.1 90 11:40 07.08.2019
3845 Clouds 9 1009 75 10000 3.6 90 11:19 07.08.2019
3846 Clouds 9 1009 81 10000 4.1 100 10:41 07.08.2019
3847 Clouds 9 1009 81 10000 4.1 90 10:20 07.08.2019
3848 Clouds 9 1009 81 10000 4.1 110 09:59 07.08.2019
3849 Clouds 9 1009 81 10000 4.1 110 09:41 07.08.2019
3850 Clouds 9 1009 81 10000 4.1 90 09:21 07.08.2019
3851 Clouds 9 1009 81 10000 4.1 70 08:45 07.08.2019
3852 Clouds 9 1009 81 10000 3.6 90 08:26 07.08.2019
3853 Clouds 8 1009 81 10000 4.1 100 07:52 07.08.2019
3854 Clouds 6 1009 87 10000 4.1 100 07:33 07.08.2019
3855 Clouds 6 1009 87 10000 4.1 100 06:50 07.08.2019
3856 Clouds 6 1009 81 10000 4.6 100 06:29 07.08.2019
3857 Clouds 6 1009 87 10000 4.1 90 05:46 07.08.2019
3858 Clouds 6 1009 87 10000 4.1 60 04:46 07.08.2019
3859 Clouds 6 1009 87 10000 4.1 90 03:21 07.08.2019
3860 Clouds 6 1009 87 10000 3.6 90 02:44 07.08.2019
3861 Clouds 6 1009 87 10000 3.6 80 01:58 07.08.2019
3862 Clouds 6 1009 87 10000 3.6 80 01:31 07.08.2019
3863 Clouds 6 1009 87 10000 4.1 60 00:38 07.08.2019
3864 Clouds 6 1009 87 10000 4.1 60 00:19 07.08.2019
3865 Clouds 6 1009 87 10000 4.1 60 23:41 06.08.2019
3866 Clouds 6 1009 87 10000 4.1 60 23:21 06.08.2019
3867 Clouds 6 1009 87 10000 4.1 60 22:56 06.08.2019
3868 Clouds 9 1009 81 10000 3.1 60 22:37 06.08.2019
3869 Clouds 9 1009 81 10000 3.1 60 22:18 06.08.2019
3870 Clouds 9 1009 81 10000 3.1 50 21:41 06.08.2019
3871 Clouds 9 1009 81 10000 4.1 40 21:21 06.08.2019
3872 Clouds 9 1009 81 10000 3.6 70 20:54 06.08.2019
3873 Clouds 9 1009 81 10000 3.6 70 20:36 06.08.2019
3874 Clouds 7 1010 81 10000 4.6 30 20:18 06.08.2019
3875 Clouds 7 1010 87 10000 4.6 50 19:41 06.08.2019
3876 Clouds 7 1010 87 10000 4.1 40 19:23 06.08.2019
3877 Clouds 7 1010 87 10000 4.6 30 18:45 06.08.2019
3878 Clouds 8 1010 81 10000 4.6 30 18:26 06.08.2019
3879 Clouds 8 1010 81 10000 4.6 30 17:58 06.08.2019
3880 Clouds 8 1010 81 10000 4.6 30 17:39 06.08.2019
3881 Clouds 8 1010 81 10000 4.6 30 17:39 06.08.2019
3882 Clouds 11 1010 81 10000 4.6 30 17:20 06.08.2019
3883 Clouds 11 1010 81 10000 4.1 10 16:59 06.08.2019
3884 Clouds 11 1010 81 10000 4.1 10 16:38 06.08.2019
3885 Clouds 11 1010 76 10000 4.6 20 16:19 06.08.2019
3886 Clouds 11 1010 76 10000 5.1 30 15:56 06.08.2019
3887 Clouds 11 1010 76 10000 5.1 30 15:38 06.08.2019
3888 Clouds 12 1010 76 10000 5.7 30 15:19 06.08.2019
3889 Clouds 11 1010 76 10000 5.7 40 14:43 06.08.2019
3890 Clouds 11 1010 76 10000 5.7 60 14:24 06.08.2019
3891 Clouds 10 1010 81 10000 6.2 60 13:58 06.08.2019
3892 Clouds 10 1010 81 10000 6.2 60 13:57 06.08.2019
3893 Clouds 10 1010 81 10000 6.2 60 13:38 06.08.2019
3894 Clouds 10 1010 81 10000 6.2 50 13:20 06.08.2019
3895 Clouds 10 1009 76 10000 6.2 50 12:56 06.08.2019
3896 Clouds 10 1009 76 10000 6.2 50 12:56 06.08.2019
3897 Clouds 10 1009 76 10000 6.2 50 12:56 06.08.2019
3898 Clouds 10 1009 76 10000 6.7 30 12:38 06.08.2019
3899 Clouds 10 1009 76 10000 6.7 30 12:19 06.08.2019
3900 Clouds 10 1009 76 10000 6.7 30 11:41 06.08.2019
3901 Clouds 10 1009 76 10000 6.2 50 11:19 06.08.2019
3902 Clouds 10 1009 81 10000 5.7 30 10:42 06.08.2019
3903 Clouds 10 1009 81 10000 5.7 50 10:23 06.08.2019
3904 Clouds 9 1010 87 10000 6.2 30 09:57 06.08.2019
3905 Clouds 9 1010 87 10000 6.2 30 09:37 06.08.2019
3906 Clouds 9 1010 87 10000 6.7 30 09:19 06.08.2019
3907 Clouds 9 1010 87 10000 5.1 40 08:41 06.08.2019
3908 Clouds 9 1010 81 10000 5.7 20 08:23 06.08.2019
3909 Clouds 9 1010 81 10000 5.7 20 07:36 06.08.2019
3910 Clouds 8 1010 81 10000 5.7 10 06:53 06.08.2019
3911 Clouds 8 1010 81 10000 5.7 20 06:35 06.08.2019
3912 Clouds 8 1011 82 0 5.13 65.02 05:52 06.08.2019
3913 Clouds 7 1010 81 10000 3.1 360 04:31 06.08.2019
3914 Clouds 7 1010 87 10000 5.1 30 01:53 06.08.2019
3915 Clouds 7 1010 87 10000 4.1 10 01:23 06.08.2019
3916 Clouds 7 1010 87 10000 4.1 20 00:29 06.08.2019
3917 Clouds 7 1010 87 10000 4.1 40 23:46 05.08.2019
3918 Clouds 8 1010 87 10000 4.6 50 23:18 05.08.2019
3919 Clouds 8 1010 87 10000 4.1 30 22:41 05.08.2019
3920 Clouds 8 1010 87 10000 4.6 30 22:23 05.08.2019
3921 Rain 8 1010 93 10000 4.6 30 21:55 05.08.2019
3922 Clouds 8 1010 87 10000 4.6 60 21:36 05.08.2019
3923 Clouds 8 1010 87 10000 4.6 60 21:18 05.08.2019
3924 Clouds 8 1010 87 10000 3.1 20 20:54 05.08.2019
3925 Clouds 8 1010 87 10000 3.1 20 20:36 05.08.2019
3926 Clouds 7 1010 87 10000 3.6 360 20:18 05.08.2019
3927 Clouds 7 1010 87 10000 3.6 20 19:40 05.08.2019
3928 Clouds 7 1011 87 10000 4.6 360 19:22 05.08.2019
3929 Rain 7 1011 87 10000 4.1 10 18:57 05.08.2019
3930 Rain 7 1011 87 10000 4.1 10 18:57 05.08.2019
3931 Drizzle 8 1011 81 10000 4.1 360 18:39 05.08.2019
3932 Drizzle 8 1011 81 10000 4.1 360 18:18 05.08.2019
3933 Clouds 8 1011 87 10000 5.1 10 17:41 05.08.2019
3934 Clouds 8 1011 87 10000 5.1 10 17:22 05.08.2019
3935 Drizzle 7 1011 87 10000 5.1 10 16:46 05.08.2019
3936 Rain 9 1011 87 10000 5.7 360 16:25 05.08.2019
3937 Drizzle 10 1011 87 10000 4.1 10 15:45 05.08.2019
3938 Drizzle 10 1011 81 10000 4.6 360 15:22 05.08.2019
3939 Clouds 10 1011 81 10000 4.1 350 14:58 05.08.2019
3940 Clouds 10 1011 81 10000 4.1 350 14:38 05.08.2019
3941 Clouds 9 1011 87 10000 4.1 350 14:19 05.08.2019
3942 Rain 9 1011 87 10000 4.6 10 13:43 05.08.2019
3943 Rain 9 1011 93 10000 4.1 10 13:22 05.08.2019
3944 Drizzle 9 1011 87 10000 4.1 20 12:46 05.08.2019
3945 Rain 9 1011 87 10000 4.1 30 12:20 05.08.2019
3946 -273 0 0 0 0 0 11:46 05.08.2019
3947 Clouds 8 1011 87 10000 4.6 30 11:27 05.08.2019
3948 Clouds 8 1011 81 10000 4.1 30 10:58 05.08.2019
3949 Clouds 8 1011 81 10000 4.1 30 10:40 05.08.2019
3950 Clouds 7 1011 87 10000 4.6 30 10:21 05.08.2019
3951 Clouds 7 1011 93 10000 4.6 20 09:43 05.08.2019
3952 Clouds 8 1011 93 10000 3.6 20 09:24 05.08.2019
3953 Clouds 8 1011 87 10000 4.6 20 08:49 05.08.2019
3954 Clouds 7 1011 87 10000 3.1 20 08:28 05.08.2019
3955 Clouds 7 1011 87 10000 3.6 50 07:55 05.08.2019
3956 Drizzle 5 1012 93 10000 4.6 20 07:32 05.08.2019
3957 Clouds 5 1012 93 10000 2.6 50 06:59 05.08.2019
3958 Clouds 5 1012 93 10000 4.1 40 06:29 05.08.2019
3959 Clouds 5 1012 86 10000 3.1 60 05:46 05.08.2019
3960 Clouds 5 1012 86 10000 3.1 50 05:18 05.08.2019
3961 Clouds 5 1012 86 10000 3.6 90 04:24 05.08.2019
3962 Clouds 5 1012 86 10000 4.6 100 03:30 05.08.2019
3963 Clouds 5 1012 86 10000 5.1 80 02:34 05.08.2019
3964 Clouds 5 1013 86 10000 4.1 100 01:33 05.08.2019
3965 Clouds 5 1013 80 10000 4.6 100 00:41 05.08.2019
3966 Clouds 5 1013 80 10000 5.7 110 00:21 05.08.2019
3967 Clouds 5 1013 80 10000 6.7 110 23:56 04.08.2019
3968 Clouds 5 1013 80 10000 6.7 110 23:36 04.08.2019
3969 Clouds 8 1013 86 10000 6.7 100 23:18 04.08.2019
3970 Clouds 8 1013 75 10000 5.7 80 22:54 04.08.2019
3971 Clouds 8 1013 75 10000 5.7 80 22:36 04.08.2019
3972 Clouds 8 1013 75 10000 5.7 80 22:36 04.08.2019
3973 Clouds 8 1013 81 10000 6.2 80 22:18 04.08.2019
3974 Clouds 8 1013 81 10000 6.2 70 21:42 04.08.2019
3975 Clouds 8 1013 81 10000 6.2 70 21:20 04.08.2019
3976 Clouds 8 1013 81 10000 6.2 80 20:44 04.08.2019
3977 Clouds 6 1014 81 10000 6.2 70 20:19 04.08.2019
3978 Clouds 7 1014 81 10000 5.7 70 19:58 04.08.2019
3979 Clouds 7 1014 75 10000 6.2 60 19:38 04.08.2019
3980 Clouds 7 1014 75 10000 6.2 60 19:19 04.08.2019
3981 Clouds 7 1014 75 10000 5.1 70 18:42 04.08.2019
3982 Clouds 7 1014 75 10000 6.7 70 18:20 04.08.2019
3983 Clouds 10 1014 75 10000 6.2 70 17:45 04.08.2019
3984 Clouds 10 1014 70 10000 6.7 70 17:26 04.08.2019
3985 Clouds 10 1014 70 10000 6.2 70 16:59 04.08.2019
3986 Clouds 10 1014 70 10000 6.2 70 16:39 04.08.2019
3987 Clouds 10 1014 70 10000 5.7 70 16:20 04.08.2019
3988 Clouds 10 1015 75 10000 4.6 70 15:43 04.08.2019
3989 Clouds 10 1015 70 10000 4.1 60 15:22 04.08.2019
3990 Clouds 10 1015 70 10000 3.6 70 14:45 04.08.2019
3991 Clouds 7 1015 75 10000 5.1 70 14:26 04.08.2019
3992 Clouds 7 1015 75 10000 4.6 60 13:47 04.08.2019
3993 Clouds 7 1015 75 10000 4.6 60 13:47 04.08.2019
3994 Clouds 7 1015 75 10000 3.6 50 13:28 04.08.2019
3995 Clouds 7 1015 75 10000 4.1 70 12:59 04.08.2019
3996 Clouds 7 1015 75 10000 4.1 70 12:40 04.08.2019
3997 Clouds 7 1015 81 10000 4.6 70 12:22 04.08.2019
3998 Clouds 7 1015 75 10000 3.1 70 11:55 04.08.2019
3999 Clouds 7 1015 75 10000 4.1 60 11:36 04.08.2019
4000 Clouds 7 1015 75 10000 4.1 60 11:18 04.08.2019
4001 Clouds 7 1015 75 10000 4.1 70 10:40 04.08.2019
4002 Clouds 7 1015 75 10000 4.6 70 10:19 04.08.2019
4003 Clouds 7 1015 75 10000 5.1 70 09:42 04.08.2019
4004 Clouds 7 1016 75 10000 5.1 60 09:21 04.08.2019
4005 Clouds 7 1016 75 10000 5.1 90 08:42 04.08.2019
4006 Clouds 7 1016 75 10000 5.1 90 08:42 04.08.2019
4007 Clouds 6 1016 87 10000 5.7 100 08:20 04.08.2019
4008 Clouds 6 1016 81 10000 6.2 100 07:48 04.08.2019
4009 Clouds 6 1016 81 10000 7.2 90 06:47 04.08.2019
4010 Clouds 6 1016 87 10000 7.7 100 06:24 04.08.2019
4011 Clouds 5 1016 93 10000 6.2 80 03:45 04.08.2019
4012 Clear 5 1016 93 10000 7.2 80 02:23 04.08.2019
4013 Clear 6 1016 87 10000 6.2 80 01:33 04.08.2019
4014 Clear 7 1016 81 10000 6.2 70 00:46 04.08.2019
4015 Clear 7 1016 81 10000 6.2 70 00:26 04.08.2019
4016 Clear 7 1016 87 10000 6.2 70 23:57 03.08.2019
4017 Clear 7 1016 87 10000 6.2 70 23:39 03.08.2019
4018 Clear 7 1016 81 10000 7.2 80 23:18 03.08.2019
4019 Clear 8 1016 75 10000 7.2 80 22:44 03.08.2019
4020 Clear 8 1016 75 10000 7.7 80 22:20 03.08.2019
4021 Clear 8 1016 75 10000 7.7 80 21:41 03.08.2019
4022 Clear 9 1016 76 10000 7.2 80 21:22 03.08.2019
4023 Clear 9 1016 76 10000 7.2 80 20:57 03.08.2019
4024 Clear 9 1016 76 10000 7.2 80 20:36 03.08.2019
4025 Clear 10 1016 71 10000 7.7 80 20:18 03.08.2019
4026 Clear 10 1016 71 10000 7.7 80 19:41 03.08.2019
4027 Clear 11 1016 66 10000 7.2 80 19:23 03.08.2019
4028 Clear 12 1016 62 10000 6.2 80 18:49 03.08.2019
4029 Clear 12 1016 62 10000 6.2 80 18:27 03.08.2019
4030 Clear 12 1016 62 10000 5.7 80 17:48 03.08.2019
4031 Clear 12 1017 62 10000 5.1 80 17:21 03.08.2019
4032 Clear 12 1017 62 10000 5.1 80 16:55 03.08.2019
4033 Clear 12 1017 62 10000 5.1 80 16:37 03.08.2019
4034 Clear 13 1017 58 10000 5.1 80 16:18 03.08.2019
4035 Clear 13 1017 54 10000 5.1 80 15:43 03.08.2019
4036 Clear 12 1017 58 10000 5.1 80 15:21 03.08.2019
4037 Clear 13 1017 54 10000 5.1 80 14:38 03.08.2019
4038 Clear 13 1017 54 10000 5.1 80 14:19 03.08.2019
4039 Clear 12 1017 58 10000 5.1 80 13:50 03.08.2019
4040 Clear 12 1017 58 10000 5.1 80 13:24 03.08.2019
4041 Clear 12 1017 58 10000 5.7 80 12:57 03.08.2019
4042 Clear 12 1017 58 10000 5.7 80 12:38 03.08.2019
4043 Clear 12 1017 58 10000 5.7 80 12:20 03.08.2019
4044 Clear 12 1017 62 10000 5.7 80 11:47 03.08.2019
4045 Clear 11 1017 66 10000 5.7 80 11:25 03.08.2019
4046 Clear 11 1017 66 10000 5.1 80 10:40 03.08.2019
4047 Clear 11 1017 66 10000 5.1 80 10:22 03.08.2019
4048 Clear 10 1017 66 10000 4.1 80 09:39 03.08.2019
4049 Clear 10 1017 66 10000 3.6 90 09:19 03.08.2019
4050 Clear 10 1017 61 10000 3.1 90 08:46 03.08.2019
4051 Clear 9 1018 70 10000 2.6 130 07:47 03.08.2019
4052 Clear 9 1018 70 10000 2.6 130 07:28 03.08.2019
4053 Clear 8 1018 75 10000 3.1 150 06:23 03.08.2019
4054 Clear 5 1018 80 10000 5.98 85.572 03:58 03.08.2019
4055 Clear 4 1019 86 10000 1 140 02:29 03.08.2019
4056 Clear 6 1019 81 10000 3.1 100 01:34 03.08.2019
4057 Clear 6 1019 81 10000 3.1 100 00:33 03.08.2019
4058 Clear 7 1019 81 10000 4.1 110 23:57 02.08.2019
4059 Clear 8 1019 75 10000 5.7 120 23:38 02.08.2019
4060 Clear 9 1019 75 10000 5.7 120 23:18 02.08.2019
4061 Clear 9 1019 87 10000 5.7 120 22:56 02.08.2019
4062 Clear 9 1019 87 10000 5.7 120 22:37 02.08.2019
4063 Clear 9 1019 87 10000 5.1 80 22:18 02.08.2019
4064 Clear 9 1019 87 10000 5.1 80 21:42 02.08.2019
4065 Clear 9 1020 87 10000 5.1 80 21:22 02.08.2019
4066 Clear 9 1020 87 10000 5.1 80 20:46 02.08.2019
4067 Clear 8 1020 81 10000 5.7 80 20:28 02.08.2019
4068 Clear 8 1020 81 10000 5.7 80 19:56 02.08.2019
4069 Clear 9 1020 76 10000 5.7 80 19:35 02.08.2019
4070 Clear 9 1020 70 10000 5.1 80 18:57 02.08.2019
4071 Clear 9 1020 70 10000 5.7 90 18:39 02.08.2019
4072 Clear 9 1020 70 10000 5.7 90 18:20 02.08.2019
4073 Clouds 9 1020 70 10000 5.1 90 17:42 02.08.2019
4074 Clouds 11 1020 76 10000 4.6 90 17:24 02.08.2019
4075 Clouds 10 1021 70 10000 3.6 80 16:56 02.08.2019
4076 Clouds 10 1021 70 10000 3.6 80 16:37 02.08.2019
4077 Clouds 10 1021 70 10000 4.1 80 16:18 02.08.2019
4078 Clouds 10 1021 70 10000 2.1 100 15:38 02.08.2019
4079 Clouds 10 1021 70 10000 2.1 100 15:18 02.08.2019
4080 Clouds 10 1021 76 10000 3.6 70 14:45 02.08.2019
4081 Clouds 10 1021 76 10000 3.6 70 14:45 02.08.2019
4082 Clouds 10 1021 70 10000 3.6 70 14:18 02.08.2019
4083 Clouds 10 1021 75 10000 4.1 80 13:47 02.08.2019
4084 Clouds 10 1021 70 10000 3.1 90 13:23 02.08.2019
4085 Clouds 9 1021 81 10000 4.1 70 12:44 02.08.2019
4086 Clouds 9 1021 75 10000 4.6 70 12:21 02.08.2019
4087 Clouds 9 1021 75 10000 4.6 80 11:48 02.08.2019
4088 Clouds 10 1021 76 10000 4.1 90 11:26 02.08.2019
4089 Clouds 9 1021 75 10000 3.6 70 10:55 02.08.2019
4090 Clouds 9 1021 75 10000 3.6 70 10:55 02.08.2019
4091 Clouds 9 1021 75 10000 3.6 70 10:37 02.08.2019
4092 Clouds 9 1021 75 10000 3.1 60 10:19 02.08.2019
4093 Clouds 9 1021 70 10000 4.1 80 09:48 02.08.2019
4094 Clouds 8 1021 75 10000 3.6 60 09:24 02.08.2019
4095 Rain 8 1021 81 10000 4.6 80 08:46 02.08.2019
4096 Clouds 8 1021 87 10000 6.2 60 08:21 02.08.2019
4097 Drizzle 8 1021 93 10000 6.7 60 07:48 02.08.2019
4098 Clouds 6 1021 93 10000 5.7 50 07:29 02.08.2019
4099 Clouds 6 1021 93 10000 5.7 30 06:44 02.08.2019
4100 Drizzle 6 1021 93 10000 5.7 20 05:52 02.08.2019
4101 Clouds 6 1021 93 10000 4.6 10 04:19 02.08.2019
4102 Clouds 6 1021 93 10000 4.6 10 03:25 02.08.2019
4103 Clouds 6 1021 87 10000 5.1 30 01:46 02.08.2019
4104 Clouds 6 1021 93 10000 5.1 50 00:38 02.08.2019
4105 Drizzle 7 1021 87 10000 5.7 20 23:46 01.08.2019
4106 Clouds 7 1020 87 10000 5.1 30 23:28 01.08.2019
4107 Drizzle 9 1020 87 10000 5.1 30 22:58 01.08.2019
4108 Drizzle 9 1020 87 10000 5.1 30 22:38 01.08.2019
4109 Clouds 9 1020 87 10000 4.1 30 22:19 01.08.2019
4110 Clouds 9 1020 87 10000 5.7 30 21:43 01.08.2019
4111 Clouds 9 1020 87 10000 6.2 60 21:23 01.08.2019
4112 Clouds 9 1020 81 10000 5.7 30 20:55 01.08.2019
4113 Clouds 9 1020 81 10000 5.7 30 20:36 01.08.2019
4114 Clouds 8 1020 81 10000 6.7 40 20:18 01.08.2019
4115 Clouds 8 1020 81 10000 7.7 40 19:41 01.08.2019
4116 Clouds 8 1020 81 10000 7.2 50 19:19 01.08.2019
4117 Clouds 8 1020 81 10000 7.7 50 18:44 01.08.2019
4118 Clouds 9 1019 81 10000 7.2 40 18:24 01.08.2019
4119 Clouds 9 1019 81 10000 6.7 30 17:52 01.08.2019
4120 Clouds 9 1019 76 10000 5.1 30 17:33 01.08.2019
4121 Clouds 11 1019 71 10000 6.2 30 16:59 01.08.2019
4122 Clouds 11 1019 71 10000 6.2 30 16:40 01.08.2019
4123 Clouds 11 1019 71 10000 6.7 30 16:20 01.08.2019
4124 Clouds 11 1018 76 10000 5.1 20 15:41 01.08.2019
4125 Drizzle 10 1018 87 10000 5.7 360 15:19 01.08.2019
4126 Clouds 10 1018 87 10000 5.1 360 14:43 01.08.2019
4127 Clouds 10 1018 76 10000 4.6 20 14:20 01.08.2019
4128 Rain 11 1018 87 10000 7.2 20 13:58 01.08.2019
4129 Rain 11 1018 87 10000 7.2 20 13:40 01.08.2019
4130 Drizzle 10 1018 93 10000 6.2 20 13:21 01.08.2019
4131 Drizzle 10 1017 87 10000 5.7 20 12:48 01.08.2019
4132 Clouds 10 1017 81 10000 5.7 360 12:27 01.08.2019
4133 Rain 10 1017 81 10000 7.2 360 11:44 01.08.2019
4134 Drizzle 10 1017 87 10000 7.2 360 11:25 01.08.2019
4135 Drizzle 10 1017 87 8000 6.2 360 10:59 01.08.2019
4136 Drizzle 10 1017 87 8000 6.2 360 10:40 01.08.2019
4137 Drizzle 10 1017 87 10000 7.2 350 10:22 01.08.2019
4138 Drizzle 9 1016 87 10000 7.2 340 09:47 01.08.2019
4139 Drizzle 9 1016 87 10000 7.2 330 09:23 01.08.2019
4140 Rain 10 1016 81 10000 8.2 320 08:49 01.08.2019
4141 Drizzle 10 1016 87 10000 8.7 310 08:21 01.08.2019
4142 Drizzle 10 1016 87 10000 7.7 320 07:53 01.08.2019
4143 Drizzle 9 1016 87 10000 9.3 300 07:29 01.08.2019
4144 Drizzle 9 1016 87 10000 10.3 290 06:50 01.08.2019
4145 Clouds 9 1016 87 10000 7.2 310 06:31 01.08.2019
4146 Rain 9 1016 93 10000 10.8 290 05:32 01.08.2019
4147 Clouds 10 1019 88 0 7.73 276.802 02:36 01.08.2019
4148 Clouds 9 1018 87 10000 9.3 290 01:25 01.08.2019
4149 Clouds 9 1018 87 10000 10.3 290 00:27 01.08.2019
4150 Drizzle 9 1018 87 10000 12.3 290 23:57 31.07.2019
4151 Drizzle 9 1018 87 10000 12.3 290 23:39 31.07.2019
4152 Drizzle 10 1019 93 10000 11.8 300 23:19 31.07.2019
4153 Drizzle 10 1019 93 10000 10.8 300 22:44 31.07.2019
4154 Clouds 10 1019 93 10000 8.7 300 22:24 31.07.2019
4155 Clouds 10 1019 93 10000 8.7 300 22:24 31.07.2019
4156 Rain 10 1019 87 10000 8.7 300 21:41 31.07.2019
4157 Rain 10 1019 93 10000 10.3 310 21:23 31.07.2019
4158 Rain 10 1020 93 10000 10.3 300 20:49 31.07.2019
4159 Clouds 9 1020 93 10000 9.3 310 20:24 31.07.2019
4160 Clouds 9 1020 93 10000 9.3 310 20:24 31.07.2019
4161 Clouds 9 1020 93 10000 8.7 310 19:49 31.07.2019
4162 Drizzle 10 1020 87 10000 9.8 300 19:31 31.07.2019
4163 Clouds 10 1020 87 10000 9.3 300 18:58 31.07.2019
4164 Clouds 10 1020 87 10000 9.3 300 18:39 31.07.2019
4165 Clouds 10 1020 87 10000 9.3 310 18:18 31.07.2019
4166 Drizzle 10 1021 87 10000 8.2 310 17:45 31.07.2019
4167 Drizzle 10 1021 87 10000 9.8 310 17:20 31.07.2019
4168 Drizzle 10 1021 81 10000 11.3 290 16:54 31.07.2019
4169 Drizzle 10 1021 76 10000 12.9 290 16:33 31.07.2019
4170 Drizzle 10 1021 81 10000 12.9 290 15:58 31.07.2019
4171 Drizzle 10 1021 81 10000 12.9 290 15:39 31.07.2019
4172 Clouds 11 1022 76 10000 11.8 290 15:20 31.07.2019
4173 Clouds 11 1022 81 10000 11.3 290 14:42 31.07.2019
4174 Clouds 11 1022 81 10000 9.8 290 14:20 31.07.2019
4175 Clouds 11 1022 81 10000 10.3 290 13:55 31.07.2019
4176 Clouds 11 1022 81 10000 9.3 280 13:37 31.07.2019
4177 Clouds 11 1022 81 10000 9.3 280 13:19 31.07.2019
4178 Clouds 11 1023 76 10000 9.8 280 12:41 31.07.2019
4179 Clouds 11 1023 81 10000 7.2 270 12:23 31.07.2019
4180 Clouds 11 1023 81 10000 7.2 270 12:23 31.07.2019
4181 Clouds 10 1023 81 10000 8.7 270 11:40 31.07.2019
4182 Clouds 10 1023 81 10000 7.7 260 11:21 31.07.2019
4183 Clouds 10 1024 81 10000 7.7 250 10:56 31.07.2019
4184 Clouds 9 1024 81 10000 7.7 250 10:38 31.07.2019
4185 Clouds 9 1024 81 10000 7.7 250 10:19 31.07.2019
4186 Clouds 9 1024 87 10000 7.7 260 09:43 31.07.2019
4187 Clouds 9 1024 81 10000 7.7 270 09:23 31.07.2019
4188 Clouds 9 1025 87 10000 7.2 260 08:44 31.07.2019
4189 Clouds 9 1025 87 10000 7.2 250 08:24 31.07.2019
4190 Clouds 9 1025 87 10000 6.7 260 07:50 31.07.2019
4191 Clouds 8 1025 87 10000 6.7 270 07:31 31.07.2019
4192 Clouds 8 1026 87 10000 5.7 290 05:24 31.07.2019
4193 Clouds 8 1027 87 10000 5.7 300 04:19 31.07.2019
4194 Clouds 7 1028 87 10000 3.6 300 00:38 31.07.2019
4195 Clouds 7 1028 81 10000 5.1 340 23:51 30.07.2019
4196 Clouds 7 1028 81 10000 6.2 350 23:29 30.07.2019
4197 Clouds 8 1029 81 10000 5.7 340 22:59 30.07.2019
4198 Clouds 8 1029 81 10000 5.7 340 22:40 30.07.2019
4199 Clouds 8 1029 81 10000 6.2 350 22:21 30.07.2019
4200 Clouds 8 1029 75 10000 6.7 340 21:38 30.07.2019
4201 Clouds 8 1029 81 10000 7.2 350 21:19 30.07.2019
4202 Clouds 8 1029 75 10000 6.2 360 20:56 30.07.2019
4203 Clouds 8 1029 75 10000 6.2 360 20:38 30.07.2019
4204 Clouds 7 1029 81 10000 5.7 360 20:18 30.07.2019
4205 Clouds 7 1029 81 10000 6.2 360 19:47 30.07.2019
4206 Clouds 8 1030 75 10000 7.2 360 19:28 30.07.2019
4207 Clouds 8 1030 75 10000 6.2 340 18:48 30.07.2019
4208 Clouds 8 1030 75 10000 6.2 360 18:25 30.07.2019
4209 Clouds 8 1030 75 10000 4.6 10 17:58 30.07.2019
4210 Clouds 8 1030 75 10000 4.6 10 17:40 30.07.2019
4211 Clouds 9 1030 70 10000 4.1 10 17:18 30.07.2019
4212 Clouds 9 1030 70 10000 5.7 20 16:44 30.07.2019
4213 Clouds 9 1030 70 10000 6.2 20 16:19 30.07.2019
4214 Clouds 9 1030 75 10000 5.7 30 15:39 30.07.2019
4215 Clouds 9 1030 70 10000 7.2 30 15:19 30.07.2019
4216 Clouds 10 1030 75 10000 5.7 30 14:43 30.07.2019
4217 Clouds 10 1030 75 10000 5.7 30 14:43 30.07.2019
4218 Clouds 10 1030 75 10000 5.7 30 14:22 30.07.2019
4219 Clouds 9 1030 81 10000 6.2 70 13:56 30.07.2019
4220 Clouds 9 1030 81 10000 6.7 40 13:37 30.07.2019
4221 Clouds 9 1030 81 10000 6.7 40 13:19 30.07.2019
4222 Clouds 9 1030 81 10000 6.2 60 12:43 30.07.2019
4223 Clouds 9 1030 81 10000 7.7 50 12:25 30.07.2019
4224 Rain 8 1030 87 10000 7.7 50 11:46 30.07.2019
4225 Rain 8 1030 87 10000 8.7 50 11:26 30.07.2019
4226 Rain 8 1030 87 10000 8.2 50 10:57 30.07.2019
4227 Rain 8 1030 87 10000 8.2 50 10:38 30.07.2019
4228 Rain 8 1030 87 10000 8.2 50 10:38 30.07.2019
4229 Rain 8 1030 87 10000 7.7 50 10:20 30.07.2019
4230 Rain 8 1030 87 10000 7.7 50 10:20 30.07.2019
4231 Clouds 8 1030 87 10000 7.7 40 09:48 30.07.2019
4232 Rain 8 1030 93 10000 7.2 50 09:28 30.07.2019
4233 Drizzle 8 1030 93 8000 6.7 50 08:41 30.07.2019
4234 Clouds 8 1030 93 10000 6.2 50 08:19 30.07.2019
4235 Drizzle 8 1030 93 10000 7.2 50 07:43 30.07.2019
4236 Drizzle 8 1030 93 10000 7.2 50 07:43 30.07.2019
4237 Drizzle 6 1030 93 8000 6.2 60 07:23 30.07.2019
4238 Rain 6 1030 93 10000 7.2 40 06:45 30.07.2019
4239 Clouds 6 1030 87 10000 8.7 50 05:36 30.07.2019
4240 Rain 8 1031 79 0 7.32 52.535 04:59 30.07.2019
4241 Clouds 6 1030 81 10000 6.2 40 01:30 30.07.2019
4242 Clouds 6 1030 81 10000 6.2 50 00:36 30.07.2019
4243 Clouds 6 1030 81 10000 6.2 50 00:18 30.07.2019
4244 Clouds 6 1030 87 10000 7.2 50 23:43 29.07.2019
4245 Clouds 6 1029 81 10000 6.7 50 23:24 29.07.2019
4246 Clouds 8 1029 81 10000 7.2 60 22:57 29.07.2019
4247 Clouds 7 1029 81 10000 8.2 50 22:38 29.07.2019
4248 Clouds 7 1029 81 10000 8.2 50 22:18 29.07.2019
4249 Clouds 7 1029 87 10000 7.7 50 21:43 29.07.2019
4250 Clouds 8 1029 81 10000 7.2 50 21:24 29.07.2019
4251 Clouds 8 1029 87 10000 7.2 50 20:58 29.07.2019
4252 Clouds 8 1029 87 10000 7.2 50 20:39 29.07.2019
4253 Clouds 7 1029 75 10000 7.7 50 20:20 29.07.2019
4254 Clouds 7 1029 75 10000 8.7 50 19:50 29.07.2019
4255 Clouds 7 1029 81 10000 8.2 50 19:24 29.07.2019
4256 Clouds 7 1029 75 10000 7.7 50 18:59 29.07.2019
4257 Clouds 7 1029 75 10000 7.7 50 18:40 29.07.2019
4258 Clouds 8 1028 75 10000 9.3 50 18:20 29.07.2019
4259 Clouds 7 1028 75 10000 8.2 50 17:49 29.07.2019
4260 Clouds 8 1028 70 10000 9.8 50 17:31 29.07.2019
4261 Rain 9 1028 75 10000 9.8 50 16:57 29.07.2019
4262 Rain 9 1028 70 10000 8.2 60 16:37 29.07.2019
4263 Rain 9 1028 70 10000 8.2 60 16:19 29.07.2019
4264 Rain 8 1028 81 10000 9.8 60 15:47 29.07.2019
4265 Rain 8 1028 87 10000 9.8 50 15:28 29.07.2019
4266 Rain 9 1028 75 10000 9.8 50 14:43 29.07.2019
4267 Clouds 10 1028 70 10000 8.7 40 14:21 29.07.2019
4268 Clouds 9 1028 75 10000 9.3 30 13:55 29.07.2019
4269 Clouds 9 1028 75 10000 9.3 30 13:36 29.07.2019
4270 Clouds 9 1028 75 10000 8.7 60 13:18 29.07.2019
4271 Clouds 10 1027 76 10000 8.2 50 12:40 29.07.2019
4272 Clouds 9 1027 75 10000 9.8 60 12:21 29.07.2019
4273 Clouds 9 1027 75 10000 9.8 50 11:42 29.07.2019
4274 Clouds 9 1027 75 10000 7.7 60 11:20 29.07.2019
4275 Clouds 9 1027 75 10000 7.2 60 10:44 29.07.2019
4276 Clouds 8 1027 81 10000 8.2 60 10:23 29.07.2019
4277 Clouds 7 1027 81 10000 8.2 60 09:45 29.07.2019
4278 Clouds 6 1027 87 10000 8.2 60 09:24 29.07.2019
4279 Clouds 6 1027 87 10000 7.2 50 08:56 29.07.2019
4280 Clouds 9 1027 87 10000 7.7 60 08:27 29.07.2019
4281 Clouds 8 1027 87 10000 8.7 50 07:55 29.07.2019
4282 Drizzle 6 1026 93 5000 8.7 50 07:32 29.07.2019
4283 Clouds 6 1026 93 10000 8.2 50 06:43 29.07.2019
4284 Drizzle 6 1026 93 10000 8.2 30 05:38 29.07.2019
4285 Clouds 7 1026 87 10000 7.2 30 04:35 29.07.2019
4286 Clouds 7 1026 93 10000 6.2 50 01:55 29.07.2019
4287 Clouds 7 1026 93 10000 6.2 50 01:37 29.07.2019
4288 Clouds 7 1026 93 10000 6.7 50 00:59 29.07.2019
4289 Drizzle 7 1026 100 8000 6.2 50 00:32 29.07.2019
4290 Drizzle 8 1026 87 10000 5.7 20 23:51 28.07.2019
4291 Clouds 8 1026 81 10000 5.7 20 23:33 28.07.2019
4292 Clouds 9 1026 81 10000 6.2 20 22:58 28.07.2019
4293 Clouds 9 1026 81 10000 5.7 20 22:37 28.07.2019
4294 Clouds 9 1026 81 10000 5.7 20 22:18 28.07.2019
4295 Clouds 9 1026 87 10000 5.1 20 21:42 28.07.2019
4296 Clouds 10 1026 76 10000 6.2 360 21:18 28.07.2019
4297 Clouds 10 1026 76 10000 6.2 360 20:43 28.07.2019
4298 Clouds 9 1026 81 10000 6.2 10 20:25 28.07.2019
4299 Clouds 9 1027 81 10000 6.2 360 19:42 28.07.2019
4300 Clouds 9 1027 81 10000 6.2 360 19:21 28.07.2019
4301 Clouds 9 1027 81 10000 7.2 10 18:50 28.07.2019
4302 Clouds 10 1027 76 10000 7.7 360 18:29 28.07.2019
4303 Clouds 10 1027 76 10000 7.7 360 17:58 28.07.2019
4304 Clouds 10 1027 76 10000 7.7 360 17:40 28.07.2019
4305 Clouds 12 1027 76 10000 8.2 350 17:20 28.07.2019
4306 Clouds 12 1027 76 10000 8.7 340 16:46 28.07.2019
4307 Clouds 12 1027 76 10000 8.7 340 16:27 28.07.2019
4308 Clouds 12 1027 76 10000 7.7 330 15:57 28.07.2019
4309 Clouds 12 1027 76 10000 7.7 330 15:39 28.07.2019
4310 Clouds 13 1028 71 10000 7.2 330 15:20 28.07.2019
4311 Clouds 12 1028 71 10000 6.2 330 14:37 28.07.2019
4312 Clouds 11 1028 71 10000 6.2 330 14:18 28.07.2019
4313 Clouds 11 1028 71 10000 6.2 330 13:41 28.07.2019
4314 Clouds 10 1028 76 10000 6.2 330 13:21 28.07.2019
4315 Clouds 11 1028 66 10000 5.7 330 12:58 28.07.2019
4316 Clouds 11 1028 66 10000 5.7 330 12:39 28.07.2019
4317 Clouds 11 1028 66 10000 4.6 350 12:20 28.07.2019
4318 Clouds 11 1029 71 10000 4.1 340 11:44 28.07.2019
4319 Clouds 10 1029 76 10000 4.1 340 11:26 28.07.2019
4320 Clouds 10 1029 71 10000 4.1 340 10:40 28.07.2019
4321 Clouds 10 1029 71 10000 4.1 10 10:20 28.07.2019
4322 Clouds 10 1029 71 10000 4.6 10 09:41 28.07.2019
4323 Clouds 10 1029 71 10000 4.6 10 09:41 28.07.2019
4324 Clouds 9 1029 76 10000 3.6 50 09:23 28.07.2019
4325 Clouds 9 1029 76 10000 4.1 50 08:51 28.07.2019
4326 Clouds 8 1029 75 10000 4.1 60 08:28 28.07.2019
4327 Clouds 8 1029 75 10000 4.1 40 07:51 28.07.2019
4328 Clouds 8 1029 81 10000 5.1 30 07:32 28.07.2019
4329 Clouds 8 1030 81 10000 4.6 30 06:39 28.07.2019
4330 Clear 7 1030 87 10000 4.1 40 05:26 28.07.2019
4331 Clear 7 1030 87 10000 5.7 50 03:27 28.07.2019
4332 Clouds 7 1030 87 10000 4.6 60 02:19 28.07.2019
4333 Clouds 7 1030 87 10000 5.1 80 01:19 28.07.2019
4334 Clouds 8 1030 87 10000 6.7 70 00:44 28.07.2019
4335 Clouds 8 1030 87 10000 6.7 70 00:18 28.07.2019
4336 Clouds 8 1029 87 10000 7.7 70 23:44 27.07.2019
4337 Clouds 8 1029 87 10000 7.2 70 23:19 27.07.2019
4338 Clouds 8 1029 93 10000 7.2 70 22:40 27.07.2019
4339 Clouds 8 1029 93 10000 7.2 70 22:19 27.07.2019
4340 Clouds 8 1029 93 10000 7.7 50 21:39 27.07.2019
4341 Clouds 8 1028 93 10000 8.2 60 21:20 27.07.2019
4342 Clouds 9 1028 87 10000 9.3 60 20:50 27.07.2019
4343 Drizzle 10 1028 93 4500 6.7 50 20:25 27.07.2019
4344 Clouds 10 1028 87 10000 5.7 30 19:46 27.07.2019
4345 Clouds 10 1027 93 10000 6.2 40 19:26 27.07.2019
4346 Clouds 10 1027 100 10000 6.2 30 18:54 27.07.2019
4347 Clouds 10 1027 100 10000 6.2 10 18:36 27.07.2019
4348 Mist 10 1027 100 3900 6.7 360 17:57 27.07.2019
4349 Mist 10 1027 100 3900 6.7 360 17:36 27.07.2019
4350 Drizzle 10 1027 100 3700 7.7 360 17:18 27.07.2019
4351 Clouds 11 1027 87 10000 7.7 350 16:46 27.07.2019
4352 Clouds 11 1027 87 10000 8.2 340 16:28 27.07.2019
4353 Clouds 11 1026 87 10000 8.7 340 15:53 27.07.2019
4354 Clouds 11 1026 93 10000 7.2 340 15:21 27.07.2019
4355 Clouds 11 1026 93 10000 5.7 330 14:51 27.07.2019
4356 Clouds 11 1026 93 8000 8.7 320 14:32 27.07.2019
4357 Drizzle 11 1026 93 8000 8.7 320 13:56 27.07.2019
4358 Mist 11 1026 93 10000 8.7 310 13:38 27.07.2019
4359 Mist 11 1026 93 10000 8.7 310 13:19 27.07.2019
4360 Mist 11 1025 87 10000 7.2 310 12:41 27.07.2019
4361 Fog 11 1025 93 10000 6.7 290 12:21 27.07.2019
4362 Clouds 11 1025 93 10000 6.7 290 11:42 27.07.2019
4363 Clouds 11 1025 93 10000 8.2 290 11:24 27.07.2019
4364 Clouds 11 1025 93 10000 8.2 290 10:42 27.07.2019
4365 Clouds 10 1025 93 10000 7.2 290 10:23 27.07.2019
4366 Clouds 10 1025 93 10000 6.7 290 09:45 27.07.2019
4367 Drizzle 10 1025 93 10000 7.2 280 09:26 27.07.2019
4368 Clouds 10 1025 93 10000 8.2 270 08:58 27.07.2019
4369 Clouds 10 1025 93 10000 8.2 270 08:40 27.07.2019
4370 Clouds 10 1025 93 10000 7.2 270 08:20 27.07.2019
4371 Clouds 10 1025 93 10000 6.2 280 07:41 27.07.2019
4372 Clouds 10 1025 93 10000 5.7 280 07:20 27.07.2019
4373 Clouds 10 1025 93 10000 4.6 280 06:50 27.07.2019
4374 Clouds 10 1025 93 10000 4.6 290 06:22 27.07.2019
4375 Clouds 10 1025 93 10000 6.2 290 05:35 27.07.2019
4376 Clouds 10 1024 93 10000 4.1 290 04:46 27.07.2019
4377 Clouds 10 1025 93 10000 6.7 280 03:50 27.07.2019
4378 Clouds 10 1025 93 10000 6.7 300 02:43 27.07.2019
4379 Clouds 10 1025 93 10000 7.2 270 01:57 27.07.2019
4380 -273 0 0 0 0 0 01:36 27.07.2019
4381 Clouds 10 1025 93 10000 8.7 270 00:41 27.07.2019
4382 Clouds 11 1025 87 10000 8.2 280 00:22 27.07.2019
4383 Clouds 11 1025 87 10000 7.7 280 23:44 26.07.2019
4384 -273 0 0 0 0 0 23:26 26.07.2019
4385 Clouds 11 1025 87 10000 7.7 290 22:43 26.07.2019
4386 Clouds 11 1025 87 10000 8.7 290 22:25 26.07.2019
4387 Clouds 11 1025 93 10000 6.2 290 21:52 26.07.2019
4388 Clouds 11 1024 87 10000 6.7 290 21:20 26.07.2019
4389 Clouds 12 1025 87 10000 7.2 290 20:52 26.07.2019
4390 Clouds 12 1024 87 10000 6.7 290 20:33 26.07.2019
4391 Clouds 12 1024 87 10000 6.7 280 19:57 26.07.2019
4392 Clouds 12 1024 87 10000 6.7 280 19:38 26.07.2019
4393 Clouds 12 1024 87 10000 8.7 280 19:20 26.07.2019
4394 Clouds 12 1024 87 10000 15.9 270 18:44 26.07.2019
4395 Clouds 12 1024 87 10000 10.8 290 18:21 26.07.2019
4396 Clouds 13 1024 87 10000 9.8 290 17:57 26.07.2019
4397 Clouds 12 1024 87 10000 9.8 290 17:38 26.07.2019
4398 Clouds 12 1024 87 10000 9.3 290 17:18 26.07.2019
4399 Clouds 12 1024 87 10000 9.3 300 16:55 26.07.2019
4400 Clouds 12 1024 87 10000 9.3 300 16:36 26.07.2019
4401 Clouds 12 1023 87 10000 8.7 300 16:18 26.07.2019
4402 Clouds 12 1023 87 10000 7.2 290 15:44 26.07.2019
4403 Clouds 12 1023 93 10000 8.7 260 15:22 26.07.2019
4404 Fog 13 1023 100 10000 8.2 260 14:46 26.07.2019
4405 Fog 13 1022 100 10000 8.7 270 14:25 26.07.2019
4406 Rain 13 1022 100 10000 12.3 260 13:56 26.07.2019
4407 Rain 13 1022 93 10000 12.9 260 13:37 26.07.2019
4408 Rain 13 1022 93 10000 12.9 260 13:19 26.07.2019
4409 Drizzle 13 1021 93 10000 10.3 270 12:42 26.07.2019
4410 Drizzle 13 1020 93 10000 12.3 270 12:19 26.07.2019
4411 Drizzle 13 1019 93 10000 12.9 270 11:39 26.07.2019
4412 Drizzle 13 1019 93 10000 12.9 270 11:19 26.07.2019
4413 Drizzle 14 1019 93 10000 13.4 270 10:49 26.07.2019
4414 Drizzle 14 1018 93 10000 12.3 270 10:31 26.07.2019
4415 Rain 15 1018 87 10000 6.7 240 09:54 26.07.2019
4416 Rain 16 1018 88 10000 6.7 280 09:34 26.07.2019
4417 Rain 16 1017 93 10000 5.1 280 08:43 26.07.2019
4418 Clouds 16 1017 93 10000 5.1 270 08:22 26.07.2019
4419 Drizzle 16 1017 93 10000 6.2 240 07:57 26.07.2019
4420 Drizzle 15 1017 93 10000 5.1 230 07:27 26.07.2019
4421 Drizzle 15 1016 93 10000 5.7 220 06:52 26.07.2019
4422 Clear 14 1016 93 10000 5.7 220 05:22 26.07.2019
4423 Clear 14 1016 100 10000 4.6 220 04:22 26.07.2019
4424 Rain 13 1017 100 10000 5.1 210 02:41 26.07.2019
4425 Drizzle 13 1017 93 10000 5.1 190 01:43 26.07.2019
4426 Drizzle 14 1017 93 10000 3.1 150 00:45 26.07.2019
4427 Rain 13 1018 93 10000 2.1 150 23:57 25.07.2019
4428 Rain 13 1018 93 10000 2.6 140 23:24 25.07.2019
4429 Rain 13 1018 93 10000 3.1 110 22:56 25.07.2019
4430 Rain 13 1018 93 10000 3.1 110 22:37 25.07.2019
4431 Drizzle 13 1018 93 10000 3.6 100 22:18 25.07.2019
4432 Drizzle 13 1018 93 10000 3.1 110 21:44 25.07.2019
4433 Drizzle 13 1019 93 10000 1.5 110 21:21 25.07.2019
4434 Rain 13 1019 93 10000 1 120 20:47 25.07.2019
4435 Drizzle 13 1019 87 10000 3.1 100 20:23 25.07.2019
4436 Drizzle 15 1019 82 10000 1 0 19:44 25.07.2019
4437 Drizzle 14 1019 82 10000 1.5 120 19:26 25.07.2019
4438 Rain 14 1019 76 10000 1 0 18:57 25.07.2019
4439 Rain 14 1019 76 10000 1 0 18:38 25.07.2019
4440 Clear 13 1019 82 10000 1.5 20 18:20 25.07.2019
4441 Clear 14 1019 76 10000 2.1 10 17:43 25.07.2019
4442 Clear 16 1019 76 10000 1 0 17:23 25.07.2019
4443 Clear 16 1019 72 10000 2.6 340 16:44 25.07.2019
4444 Clear 16 1019 67 10000 1 0 16:26 25.07.2019
4445 Clear 16 1019 72 10000 1.5 0 15:54 25.07.2019
4446 Clear 15 1019 72 10000 1.5 0 15:21 25.07.2019
4447 Clear 15 1019 72 10000 3.1 110 14:58 25.07.2019
4448 Clear 15 1019 72 10000 3.1 110 14:40 25.07.2019
4449 Clear 15 1019 72 10000 1.5 0 14:20 25.07.2019
4450 Clear 16 1019 77 10000 1 0 13:40 25.07.2019
4451 Clear 16 1019 77 10000 1 0 13:22 25.07.2019
4452 Clear 15 1019 67 10000 1 0 12:39 25.07.2019
4453 Clear 15 1019 67 10000 1 0 12:20 25.07.2019
4454 Clouds 15 1019 72 10000 1.5 210 11:41 25.07.2019
4455 Clouds 14 1019 72 10000 2.1 260 11:22 25.07.2019
4456 Clouds 14 1019 72 10000 2.1 260 11:22 25.07.2019
4457 Clouds 14 1019 76 10000 2.6 250 10:45 25.07.2019
4458 Clouds 14 1019 82 10000 2.6 270 10:25 25.07.2019
4459 Clouds 13 1019 82 10000 3.1 260 09:47 25.07.2019
4460 Clouds 13 1019 87 10000 3.6 270 09:28 25.07.2019
4461 Clouds 13 1019 81 10000 4.6 270 08:53 25.07.2019
4462 Clouds 12 1019 93 10000 5.1 260 08:33 25.07.2019
4463 Clouds 12 1019 93 10000 5.1 270 07:42 25.07.2019
4464 Clouds 11 1019 87 10000 5.7 280 07:24 25.07.2019
4465 Clouds 11 1019 87 10000 6.7 270 06:40 25.07.2019
4466 Clouds 11 1019 87 10000 6.2 270 05:37 25.07.2019
4467 Clouds 11 1018 87 10000 6.2 260 04:53 25.07.2019
4468 Clouds 11 1018 87 10000 8.7 290 03:24 25.07.2019
4469 Clouds 11 1017 87 10000 10.3 270 01:21 25.07.2019
4470 Clouds 11 1016 93 10000 8.7 260 00:35 25.07.2019
4471 Clouds 12 1016 100 10000 7.7 260 23:59 24.07.2019
4472 Clouds 12 1016 100 10000 7.7 260 23:41 24.07.2019
4473 Drizzle 12 1016 100 8000 3.6 270 23:22 24.07.2019
4474 Drizzle 12 1015 100 8000 5.7 300 22:45 24.07.2019
4475 Rain 12 1015 93 9000 4.6 290 22:22 24.07.2019
4476 Rain 12 1015 93 10000 5.1 290 21:56 24.07.2019
4477 Drizzle 12 1015 93 10000 5.1 290 21:38 24.07.2019
4478 Rain 12 1015 93 10000 5.1 290 21:38 24.07.2019
4479 Drizzle 12 1015 93 10000 5.1 290 21:19 24.07.2019
4480 Drizzle 12 1015 93 10000 6.2 290 20:47 24.07.2019
4481 Drizzle 12 1014 100 8000 5.7 290 20:29 24.07.2019
4482 Drizzle 13 1014 93 8000 5.1 290 19:59 24.07.2019
4483 Drizzle 13 1014 93 8000 5.1 290 19:40 24.07.2019
4484 Rain 13 1014 93 10000 3.6 320 19:20 24.07.2019
4485 Clouds 13 1013 93 10000 4.1 340 18:43 24.07.2019
4486 Clouds 15 1013 93 10000 1 0 18:24 24.07.2019
4487 Clouds 15 1013 87 10000 2.1 320 17:48 24.07.2019
4488 Rain 13 1013 87 10000 1 0 17:23 24.07.2019
4489 Drizzle 14 1013 87 10000 3.1 300 16:59 24.07.2019
4490 Drizzle 14 1013 87 10000 3.1 300 16:39 24.07.2019
4491 Rain 14 1013 87 10000 2.6 320 16:20 24.07.2019
4492 Clouds 14 1013 87 10000 1.5 0 15:38 24.07.2019
4493 Clouds 14 1013 87 10000 1.5 0 15:19 24.07.2019
4494 Drizzle 15 1013 82 10000 3.1 100 14:46 24.07.2019
4495 Drizzle 15 1013 87 10000 4.6 100 14:21 24.07.2019
4496 Clouds 15 1013 93 10000 3.6 110 13:40 24.07.2019
4497 Clouds 15 1013 93 10000 4.6 110 13:22 24.07.2019
4498 Clouds 16 1013 87 10000 1.5 360 12:54 24.07.2019
4499 Clouds 16 1013 93 10000 1.5 0 12:35 24.07.2019
4500 Clouds 14 1013 93 10000 0.5 0 11:57 24.07.2019
4501 Clouds 14 1013 93 10000 0.5 0 11:37 24.07.2019
4502 Clouds 15 1013 93 10000 1.5 300 11:18 24.07.2019
4503 Clouds 14 1013 93 10000 2.6 290 10:41 24.07.2019
4504 Clouds 14 1013 100 10000 3.6 290 10:23 24.07.2019
4505 Clouds 14 1013 100 10000 4.1 300 09:44 24.07.2019
4506 Clouds 14 1013 100 10000 4.1 310 09:22 24.07.2019
4507 Clouds 14 1013 100 10000 5.1 300 08:52 24.07.2019
4508 Clouds 14 1013 93 10000 6.2 300 08:26 24.07.2019
4509 Clouds 13 1013 87 10000 7.7 290 07:47 24.07.2019
4510 Clouds 15 1013 93 10000 8.7 290 07:23 24.07.2019
4511 Clear 14 1012 87 10000 8.7 280 06:28 24.07.2019
4512 Clear 17 1011 77 10000 5.7 220 05:26 24.07.2019
4513 Clouds 18 1012 77 10000 4.6 150 01:56 24.07.2019
4514 Clouds 18 1012 72 10000 3.6 120 01:28 24.07.2019
4515 Clouds 17 1012 82 10000 2.1 200 00:52 24.07.2019
4516 Rain 17 1013 82 10000 6.7 210 00:21 24.07.2019
4517 Thunderstorm 18 1013 72 10000 5.7 100 23:38 23.07.2019
4518 Thunderstorm 16 1013 72 10000 5.7 100 23:19 23.07.2019
4519 Clear 16 1013 72 10000 4.6 80 22:39 23.07.2019
4520 Clear 16 1013 77 10000 4.6 80 22:19 23.07.2019
4521 Clear 16 1013 77 10000 3.6 70 21:57 23.07.2019
4522 Clear 16 1013 77 10000 3.6 70 21:39 23.07.2019
4523 Clear 16 1013 82 10000 3.6 80 21:21 23.07.2019
4524 Clear 17 1013 72 10000 3.6 70 20:44 23.07.2019
4525 Clear 19 1013 68 10000 3.1 70 20:21 23.07.2019
4526 Clear 19 1013 68 10000 3.1 60 19:41 23.07.2019
4527 Clear 20 1013 64 10000 3.1 70 19:19 23.07.2019
4528 Clear 20 1013 64 10000 3.1 70 18:43 23.07.2019
4529 Clouds 20 1014 64 10000 2.6 90 18:23 23.07.2019
4530 Clouds 21 1013 60 10000 2.1 90 17:44 23.07.2019
4531 Clouds 19 1013 64 10000 2.6 90 17:25 23.07.2019
4532 Clouds 20 1013 64 10000 3.1 80 16:51 23.07.2019
4533 Clouds 19 1014 64 10000 2.6 70 16:28 23.07.2019
4534 Clouds 18 1013 68 10000 2.6 70 15:59 23.07.2019
4535 Clouds 18 1013 68 10000 2.6 70 15:40 23.07.2019
4536 Clouds 18 1013 68 10000 2.6 60 15:21 23.07.2019
4537 Clouds 18 1013 64 10000 2.6 340 14:38 23.07.2019
4538 Clouds 18 1013 64 10000 2.1 30 14:19 23.07.2019
4539 Clouds 17 1013 68 10000 2.1 10 13:56 23.07.2019
4540 Clouds 17 1013 68 10000 2.1 10 13:56 23.07.2019
4541 Clouds 17 1013 68 10000 2.1 10 13:38 23.07.2019
4542 Clouds 17 1014 68 10000 2.6 350 13:20 23.07.2019
4543 Clouds 17 1014 68 10000 0.5 0 12:45 23.07.2019
4544 Clear 17 1014 68 10000 1 0 12:25 23.07.2019
4545 Clear 17 1014 68 10000 2.6 140 11:46 23.07.2019
4546 Clear 17 1014 68 10000 2.1 160 11:27 23.07.2019
4547 Clear 17 1014 77 10000 2.1 160 10:54 23.07.2019
4548 Clear 17 1014 77 10000 2.1 160 10:36 23.07.2019
4549 Clear 16 1014 77 10000 1.5 0 10:18 23.07.2019
4550 Clear 17 1013 77 10000 3.1 120 09:40 23.07.2019
4551 Clear 14 1013 77 10000 2.1 170 09:18 23.07.2019
4552 Clear 15 1013 77 10000 1.5 150 08:40 23.07.2019
4553 Clear 15 1013 82 10000 1.5 180 08:19 23.07.2019
4554 Fog 14 1013 82 10000 2.1 170 07:51 23.07.2019
4555 Clear 15 1013 77 10000 3.1 130 07:33 23.07.2019
4556 Clear 15 1013 82 10000 4.1 130 06:38 23.07.2019
4557 Clear 14 1014 87 10000 4.6 110 06:38 23.07.2019
4558 Clear 14 1014 87 10000 4.6 110 05:51 23.07.2019
4559 Clouds 14 1015 87 10000 4.1 100 01:58 23.07.2019
4560 Clouds 14 1015 87 10000 4.1 100 01:29 23.07.2019
4561 Clouds 13 1015 93 10000 3.1 90 00:30 23.07.2019
4562 Clouds 13 1015 93 10000 1.5 90 23:42 22.07.2019
4563 Clouds 14 1014 87 10000 1.5 100 23:21 22.07.2019
4564 Clear 14 1014 87 10000 3.77 244.856 22:58 22.07.2019
4565 Clear 14 1014 87 10000 3.77 244.856 22:40 22.07.2019
4566 Clear 14 1014 87 10000 3.77 244.856 22:20 22.07.2019
4567 Clear 14 1014 87 10000 3.77 244.856 22:20 22.07.2019
4568 Clear 15 1014 77 10000 1.5 0 21:42 22.07.2019
4569 Clouds 15 1014 82 10000 2.1 280 21:21 22.07.2019
4570 Clouds 16 1014 29 10000 2.6 340 20:48 22.07.2019
4571 Clouds 17 1013 96 10000 4.6 340 20:29 22.07.2019
4572 Clouds 17 1013 77 10000 5.1 330 19:55 22.07.2019
4573 Clouds 17 1013 77 10000 6.2 330 19:36 22.07.2019
4574 Clouds 17 1013 77 10000 6.2 330 19:18 22.07.2019
4575 Clear 17 1013 72 10000 7.7 330 18:41 22.07.2019
4576 Clear 18 1013 72 10000 6.2 330 18:22 22.07.2019
4577 Clear 18 1013 68 10000 6.7 330 17:43 22.07.2019
4578 Clear 18 1012 64 10000 8.2 320 17:25 22.07.2019
4579 Clear 18 1012 60 10000 9.3 320 16:54 22.07.2019
4580 Clear 19 1012 53 10000 10.8 330 16:36 22.07.2019
4581 Clear 19 1012 53 10000 10.8 330 16:18 22.07.2019
4582 Clear 21 1010 44 10000 3.6 270 15:38 22.07.2019
4583 Clear 21 1010 44 10000 3.6 270 15:19 22.07.2019
4584 Clear 21 1010 44 10000 3.6 240 14:43 22.07.2019
4585 Clear 21 1010 44 10000 4.1 220 14:22 22.07.2019
4586 Clear 25 1010 47 10000 4.1 220 13:50 22.07.2019
4587 Clear 23 1010 50 10000 4.1 180 13:30 22.07.2019
4588 Clear 23 1010 47 10000 4.6 200 12:47 22.07.2019
4589 Clear 22 1010 50 10000 4.1 180 12:29 22.07.2019
4590 Clear 23 1010 53 10000 4.6 190 11:46 22.07.2019
4591 Clear 22 1010 53 10000 3.6 180 11:26 22.07.2019
4592 Clear 22 1010 53 10000 4.1 180 10:59 22.07.2019
4593 Clear 21 1010 56 10000 4.1 180 10:33 22.07.2019
4594 Clear 20 1010 60 10000 3.1 180 09:45 22.07.2019
4595 Clear 20 1010 60 10000 2.6 210 09:26 22.07.2019
4596 Clear 19 1010 68 10000 3.6 230 08:57 22.07.2019
4597 Clear 20 1010 60 10000 2.1 210 08:36 22.07.2019
4598 Clear 20 1010 60 10000 2.1 210 08:18 22.07.2019
4599 Clear 19 1010 64 10000 3.6 200 07:43 22.07.2019
4600 Clear 19 1010 68 10000 4.1 210 07:24 22.07.2019
4601 Clear 18 1010 68 10000 4.6 210 04:53 22.07.2019
4602 Clear 17 1010 77 10000 3.6 190 02:57 22.07.2019
4603 Clear 19 1010 68 10000 4.1 200 00:58 22.07.2019
4604 Clear 19 1010 68 10000 4.1 200 00:38 22.07.2019
4605 Clouds 19 1011 68 10000 4.6 190 00:18 22.07.2019
4606 Clouds 19 1011 68 10000 3.1 180 23:43 21.07.2019
4607 Clouds 18 1011 56 10000 5.7 180 22:57 21.07.2019
4608 Clouds 18 1011 56 10000 5.7 180 22:38 21.07.2019
4609 Clouds 18 1011 52 10000 5.1 180 22:20 21.07.2019
4610 Clouds 19 1011 56 10000 4.1 180 21:48 21.07.2019
4611 Clouds 19 1010 56 10000 3.6 180 21:25 21.07.2019
4612 Clouds 19 1010 56 10000 3.6 170 20:57 21.07.2019
4613 Clouds 19 1010 56 10000 3.6 170 20:38 21.07.2019
4614 Clouds 23 1010 49 10000 3.1 170 20:20 21.07.2019
4615 Clouds 24 1010 47 10000 5.1 170 19:47 21.07.2019
4616 Clouds 23 1011 49 10000 4.6 180 19:28 21.07.2019
4617 Clouds 23 1010 49 10000 7.7 150 18:48 21.07.2019
4618 Clouds 23 1011 49 10000 4.6 130 18:26 21.07.2019
4619 Clouds 24 1011 50 10000 4.6 100 17:54 21.07.2019
4620 Clouds 24 1011 50 10000 4.1 70 17:36 21.07.2019
4621 Clouds 20 1011 50 10000 4.1 70 17:18 21.07.2019
4622 Clouds 20 1011 49 10000 3.6 80 16:40 21.07.2019
4623 Clouds 21 1011 53 10000 3.1 0 16:21 21.07.2019
4624 Clear 22 1012 49 10000 1.5 0 15:39 21.07.2019
4625 Clear 21 1012 53 10000 2.1 110 15:20 21.07.2019
4626 Clear 21 1012 53 10000 2.1 110 15:20 21.07.2019
4627 Clear 21 1012 53 10000 2.1 110 15:20 21.07.2019
4628 Clear 19 1012 56 10000 5.7 90 14:42 21.07.2019
4629 Clear 20 1012 56 10000 6.7 90 14:24 21.07.2019
4630 Clear 19 1012 63 10000 6.7 90 13:53 21.07.2019
4631 Clear 16 1013 72 10000 6.7 100 13:33 21.07.2019
4632 Clouds 16 1013 72 10000 7.2 100 12:55 21.07.2019
4633 Clouds 16 1013 72 10000 7.2 100 12:37 21.07.2019
4634 Clouds 16 1013 67 10000 6.2 100 12:18 21.07.2019
4635 Rain 16 1013 67 10000 6.7 90 11:44 21.07.2019
4636 Clouds 16 1013 67 10000 5.1 80 11:25 21.07.2019
4637 Rain 17 1013 67 10000 4.1 110 10:43 21.07.2019
4638 Clouds 17 1013 72 10000 4.1 120 10:23 21.07.2019
4639 Drizzle 18 1013 55 10000 3.1 130 09:49 21.07.2019
4640 Rain 16 1013 63 10000 4.6 150 09:30 21.07.2019
4641 Clouds 16 1013 63 10000 3.6 160 08:45 21.07.2019
4642 Clouds 15 1013 72 10000 3.1 140 08:27 21.07.2019
4643 Clouds 13 1013 76 10000 3.1 120 07:39 21.07.2019
4644 Clouds 14 1014 76 10000 3.6 120 06:54 21.07.2019
4645 Clouds 16 1014 63 10000 2.1 160 05:45 21.07.2019
4646 Clear 13 1014 66 10000 2.6 110 02:58 21.07.2019
4647 Clear 13 1014 71 10000 2.1 100 01:24 21.07.2019
4648 Clear 13 1014 62 10000 2.1 100 00:42 21.07.2019
4649 Clear 13 1014 62 10000 2.1 100 00:42 21.07.2019
4650 Clear 13 1014 66 10000 2.1 100 00:19 21.07.2019
4651 Clear 13 1014 58 10000 2.1 100 23:43 20.07.2019
4652 Clear 15 1014 51 10000 2.6 90 23:21 20.07.2019
4653 Clear 14 1014 54 10000 2.6 90 22:48 20.07.2019
4654 Clear 15 1014 54 10000 2.6 80 22:23 20.07.2019
4655 Clear 15 1014 58 10000 2.6 70 21:57 20.07.2019
4656 Clear 15 1014 58 10000 2.6 70 21:39 20.07.2019
4657 Clear 15 1014 67 10000 3.1 60 21:20 20.07.2019
4658 Clear 16 1014 55 10000 2.1 60 20:41 20.07.2019
4659 Clear 16 1014 63 10000 2.1 60 20:19 20.07.2019
4660 Clear 17 1013 55 10000 2.1 30 19:45 20.07.2019
4661 Clear 18 1013 45 10000 3.1 10 19:21 20.07.2019
4662 Clear 18 1013 48 10000 3.6 360 18:44 20.07.2019
4663 Clear 18 1013 48 10000 4.6 350 18:22 20.07.2019
4664 Clear 18 1013 52 10000 4.1 350 17:55 20.07.2019
4665 Clear 19 1013 48 10000 4.6 350 17:25 20.07.2019
4666 Clear 19 1013 52 10000 4.6 340 16:45 20.07.2019
4667 Clear 19 1013 55 10000 5.1 340 16:27 20.07.2019
4668 Clear 20 1013 49 10000 4.6 340 15:58 20.07.2019
4669 Clear 20 1013 49 10000 4.6 340 15:39 20.07.2019
4670 Clear 19 1012 55 10000 4.6 350 15:20 20.07.2019
4671 Clear 20 1012 49 10000 4.1 340 14:48 20.07.2019
4672 Clear 21 1012 49 10000 3.1 330 14:28 20.07.2019
4673 Clear 21 1012 49 10000 2.6 340 13:41 20.07.2019
4674 Clear 22 1012 46 10000 3.1 330 13:23 20.07.2019
4675 Clear 21 1012 49 10000 3.1 340 12:59 20.07.2019
4676 Clear 21 1012 49 10000 3.1 340 12:38 20.07.2019
4677 Clear 20 1012 49 10000 2.6 260 12:18 20.07.2019
4678 Clear 21 1012 49 10000 2.1 280 11:40 20.07.2019
4679 Clear 20 1012 56 10000 1.5 260 11:19 20.07.2019
4680 Clear 19 1011 55 10000 1 0 10:37 20.07.2019
4681 Clear 19 1011 55 10000 1 0 10:19 20.07.2019
4682 Clear 19 1011 55 10000 2.1 350 09:46 20.07.2019
4683 Clear 19 1011 55 10000 1.5 0 09:24 20.07.2019
4684 Clear 18 1011 59 10000 2.6 270 08:48 20.07.2019
4685 Clear 18 1011 59 10000 2.6 260 08:21 20.07.2019
4686 Clear 18 1011 59 10000 2.6 240 07:28 20.07.2019
4687 Clear 17 1011 63 10000 4.6 220 06:43 20.07.2019
4688 Clear 15 1011 67 10000 5.1 220 05:21 20.07.2019
4689 Clear 15 1011 67 10000 5.7 210 04:30 20.07.2019
4690 Clear 16 1011 67 10000 6.2 190 01:23 20.07.2019
4691 Clear 17 1011 63 10000 6.2 190 00:50 20.07.2019
4692 Clear 17 1011 63 10000 5.1 180 00:28 20.07.2019
4693 Clear 17 1011 59 10000 4.1 170 23:56 19.07.2019
4694 Clear 17 1011 59 10000 4.1 170 23:37 19.07.2019
4695 Clear 17 1011 59 10000 4.1 170 23:18 19.07.2019
4696 Clear 17 1011 59 10000 4.1 180 22:40 19.07.2019
4697 Clear 17 1011 59 10000 5.1 170 22:20 19.07.2019
4698 Clear 17 1011 59 10000 5.7 160 21:43 19.07.2019
4699 Clear 18 1011 59 10000 6.2 150 21:24 19.07.2019
4700 Clear 19 1011 55 10000 6.2 160 20:44 19.07.2019
4701 Clouds 19 1011 55 10000 6.7 150 20:25 19.07.2019
4702 Clouds 20 1011 52 10000 4.1 170 19:40 19.07.2019
4703 Clouds 20 1011 49 10000 3.1 180 19:19 19.07.2019
4704 Clouds 20 1011 49 10000 1 0 18:41 19.07.2019
4705 Clouds 20 1011 45 10000 2.1 180 18:19 19.07.2019
4706 Clouds 20 1011 45 10000 2.1 180 18:19 19.07.2019
4707 Clouds 21 1011 43 10000 2.1 220 17:46 19.07.2019
4708 Clouds 21 1012 46 10000 3.1 200 17:25 19.07.2019
4709 Clouds 20 1012 49 10000 4.1 220 16:48 19.07.2019
4710 Clouds 20 1012 49 10000 5.1 200 16:25 19.07.2019
4711 Clouds 20 1012 49 10000 5.7 200 15:49 19.07.2019
4712 Clouds 20 1012 45 10000 6.7 200 15:30 19.07.2019
4713 Clouds 19 1013 49 10000 7.2 200 14:56 19.07.2019
4714 Clouds 19 1013 49 10000 7.2 200 14:56 19.07.2019
4715 Clouds 19 1013 49 10000 7.2 200 14:38 19.07.2019
4716 Clouds 19 1013 49 10000 6.7 200 14:19 19.07.2019
4717 Clouds 19 1013 49 10000 6.7 190 13:43 19.07.2019
4718 Clouds 19 1013 49 10000 6.7 190 13:43 19.07.2019
4719 Clouds 18 1013 52 10000 6.2 170 13:23 19.07.2019
4720 Clouds 18 1013 52 10000 6.2 190 12:49 19.07.2019
4721 Clouds 19 1013 52 10000 6.2 190 12:30 19.07.2019
4722 Clouds 17 1013 59 10000 5.7 190 11:48 19.07.2019
4723 Clear 17 1013 63 10000 4.1 190 11:20 19.07.2019
4724 Clear 17 1013 63 10000 5.1 180 10:58 19.07.2019
4725 Clear 17 1013 63 10000 5.1 180 10:40 19.07.2019
4726 Clear 17 1014 63 10000 7.2 160 10:20 19.07.2019
4727 Clear 17 1014 63 10000 6.2 180 09:44 19.07.2019
4728 Clear 16 1014 63 10000 7.2 180 09:22 19.07.2019
4729 Clear 16 1014 59 10000 7.7 160 08:57 19.07.2019
4730 Clear 16 1014 59 10000 7.7 160 08:39 19.07.2019
4731 Clear 16 1014 59 10000 5.1 170 07:43 19.07.2019
4732 Clear 17 1014 59 10000 6.2 190 07:25 19.07.2019
4733 Clear 16 1015 59 10000 5.7 170 05:55 19.07.2019
4734 Clouds 15 1015 58 10000 6.7 170 01:59 19.07.2019
4735 Clear 15 1015 62 10000 6.7 190 00:59 19.07.2019
4736 Clear 15 1015 62 10000 4.6 190 00:26 19.07.2019
4737 Clear 14 1015 67 10000 4.6 190 23:43 18.07.2019
4738 Clear 15 1015 59 10000 5.1 180 23:23 18.07.2019
4739 Clear 15 1015 59 10000 8.2 160 22:59 18.07.2019
4740 Clear 15 1015 59 10000 8.2 160 22:39 18.07.2019
4741 Clear 15 1015 59 10000 7.7 150 22:18 18.07.2019
4742 Clear 14 1015 59 10000 7.7 150 21:41 18.07.2019
4743 Clear 14 1015 63 10000 7.2 160 21:22 18.07.2019
4744 Clear 14 1015 63 10000 6.7 150 20:49 18.07.2019
4745 Clear 16 1015 63 10000 7.7 150 20:28 18.07.2019
4746 Clear 16 1015 63 10000 3.6 130 19:53 18.07.2019
4747 Clear 16 1015 63 10000 4.6 130 19:31 18.07.2019
4748 Clear 16 1015 63 10000 3.6 120 18:57 18.07.2019
4749 Clear 16 1015 63 10000 3.6 120 18:37 18.07.2019
4750 Clouds 16 1015 67 10000 5.1 120 18:19 18.07.2019
4751 Clouds 15 1015 67 10000 5.1 120 17:42 18.07.2019
4752 Clouds 15 1015 71 10000 6.2 100 17:23 18.07.2019
4753 Clouds 15 1015 71 10000 5.1 100 16:54 18.07.2019
4754 Clouds 15 1015 67 10000 6.2 100 16:29 18.07.2019
4755 Clouds 14 1015 67 10000 6.7 90 15:58 18.07.2019
4756 Clouds 13 1015 67 10000 6.2 90 15:39 18.07.2019
4757 Clouds 13 1015 67 10000 6.2 90 15:20 18.07.2019
4758 Clouds 14 1015 71 10000 6.2 90 14:43 18.07.2019
4759 Clouds 14 1015 71 10000 6.2 90 14:25 18.07.2019
4760 Clouds 13 1015 66 10000 6.2 90 13:46 18.07.2019
4761 Clouds 13 1015 71 10000 6.2 100 13:22 18.07.2019
4762 Clouds 12 1015 76 10000 6.2 90 12:49 18.07.2019
4763 Clouds 12 1015 76 10000 5.1 100 12:21 18.07.2019
4764 Clouds 12 1015 76 10000 5.1 100 12:21 18.07.2019
4765 Clouds 11 1015 76 10000 5.1 100 11:56 18.07.2019
4766 Clouds 10 1015 76 10000 5.1 90 11:38 18.07.2019
4767 Clouds 10 1015 76 10000 5.1 90 11:19 18.07.2019
4768 Clouds 10 1015 81 10000 5.1 90 10:40 18.07.2019
4769 Clouds 9 1015 81 10000 4.1 110 09:49 18.07.2019
4770 Clouds 9 1015 81 10000 2.6 110 09:26 18.07.2019
4771 Clouds 9 1015 81 10000 2.6 110 08:51 18.07.2019
4772 Clouds 8 1015 87 10000 2.1 90 08:22 18.07.2019
4773 Clouds 8 1015 87 10000 3.6 90 07:54 18.07.2019
4774 Clouds 7 1015 87 10000 2.6 90 07:34 18.07.2019
4775 Clouds 7 1015 87 10000 2.1 100 06:43 18.07.2019
4776 Clouds 7 1015 87 10000 2.1 80 05:57 18.07.2019
4777 Clouds 6 1014 93 10000 3.6 290 03:25 18.07.2019
4778 Drizzle 6 1014 93 10000 4.1 280 01:52 18.07.2019
4779 Drizzle 6 1014 100 10000 3.1 280 01:32 18.07.2019
4780 Drizzle 6 1013 93 10000 3.6 320 23:57 17.07.2019
4781 Drizzle 8 1013 93 10000 4.6 320 23:21 17.07.2019
4782 Drizzle 8 1013 93 10000 4.6 320 22:58 17.07.2019
4783 Drizzle 8 1013 93 10000 4.6 320 22:58 17.07.2019
4784 Drizzle 8 1013 93 10000 4.6 320 22:40 17.07.2019
4785 Drizzle 8 1013 93 10000 4.6 320 22:20 17.07.2019
4786 Drizzle 8 1013 93 10000 5.1 330 21:46 17.07.2019
4787 Drizzle 8 1013 93 10000 5.1 340 21:28 17.07.2019
4788 Drizzle 8 1013 87 10000 5.1 350 20:59 17.07.2019
4789 Drizzle 7 1013 87 10000 4.6 340 20:40 17.07.2019
4790 Drizzle 7 1013 87 10000 4.6 340 20:21 17.07.2019
4791 Drizzle 7 1013 87 10000 4.6 350 19:59 17.07.2019
4792 Drizzle 7 1013 93 10000 4.1 340 19:39 17.07.2019
4793 Drizzle 8 1013 81 10000 4.6 350 19:18 17.07.2019
4794 Drizzle 8 1013 81 10000 4.6 340 18:42 17.07.2019
4795 Drizzle 8 1013 81 10000 4.6 340 18:21 17.07.2019
4796 Drizzle 8 1013 81 10000 4.6 340 18:21 17.07.2019
4797 Drizzle 11 1013 87 10000 5.1 360 17:55 17.07.2019
4798 Drizzle 11 1013 87 10000 5.1 360 17:37 17.07.2019
4799 Drizzle 11 1013 87 10000 5.1 360 17:18 17.07.2019
4800 Drizzle 10 1013 81 10000 6.7 360 16:38 17.07.2019
4801 Drizzle 10 1013 81 10000 6.7 360 16:19 17.07.2019
4802 Clouds 8 1013 81 10000 7.2 360 15:51 17.07.2019
4803 Clouds 10 1013 81 10000 7.7 360 15:29 17.07.2019
4804 Clouds 9 1014 76 10000 6.7 360 14:55 17.07.2019
4805 Clouds 10 1014 81 10000 6.2 360 14:37 17.07.2019
4806 Clouds 10 1014 81 10000 6.2 360 14:19 17.07.2019
4807 Clouds 10 1014 81 10000 5.7 360 13:45 17.07.2019
4808 Clouds 10 1014 81 10000 5.7 360 13:25 17.07.2019
4809 Clouds 10 1014 81 10000 3.6 10 12:43 17.07.2019
4810 Clouds 10 1014 81 10000 3.6 10 12:21 17.07.2019
4811 Clouds 10 1014 81 10000 3.6 20 11:57 17.07.2019
4812 Clouds 9 1014 81 10000 2.6 30 11:38 17.07.2019
4813 Clouds 9 1014 81 10000 2.6 30 11:19 17.07.2019
4814 Clouds 9 1014 81 10000 3.1 60 10:43 17.07.2019
4815 Clouds 9 1014 81 10000 3.1 60 10:20 17.07.2019
4816 Clouds 10 1015 87 10000 3.6 80 09:44 17.07.2019
4817 Clouds 10 1015 87 10000 3.6 80 09:26 17.07.2019
4818 Clouds 10 1015 81 10000 3.1 70 08:44 17.07.2019
4819 Clouds 10 1015 81 10000 3.1 70 08:22 17.07.2019
4820 Clouds 10 1015 87 10000 3.1 80 07:51 17.07.2019
4821 Drizzle 9 1015 81 10000 3.1 90 07:27 17.07.2019
4822 Clouds 9 1015 81 10000 3.1 80 06:58 17.07.2019
4823 Clear 9 1016 81 10000 3.6 80 06:31 17.07.2019
4824 Clouds 9 1016 81 10000 2.6 80 05:59 17.07.2019
4825 Clear 9 1016 81 10000 2.6 70 05:32 17.07.2019
4826 Clouds 9 1016 81 10000 3.1 70 04:49 17.07.2019
4827 Clear 10 1016 71 10000 1.5 60 03:46 17.07.2019
4828 Clouds 10 1016 66 10000 2.6 90 02:31 17.07.2019
4829 Clear 10 1017 71 10000 4.1 90 01:28 17.07.2019
4830 Clear 10 1017 71 10000 4.1 80 00:59 17.07.2019
4831 Clear 10 1017 71 10000 4.1 80 00:59 17.07.2019
4832 Clouds 10 1016 71 10000 3.1 90 00:38 17.07.2019
4833 Clouds 10 1016 71 10000 3.1 90 00:19 17.07.2019
4834 Clouds 10 1016 81 10000 5.1 100 23:42 16.07.2019
4835 Clouds 11 1016 81 10000 5.1 100 23:22 16.07.2019
4836 Clouds 11 1016 81 10000 4.1 110 22:43 16.07.2019
4837 Clouds 11 1016 81 10000 4.1 110 22:24 16.07.2019
4838 Clouds 11 1016 81 10000 3.6 100 21:56 16.07.2019
4839 Clouds 11 1016 76 10000 3.1 100 21:36 16.07.2019
4840 Clouds 11 1017 76 10000 3.1 80 21:18 16.07.2019
4841 Clouds 11 1017 71 10000 4.1 80 20:41 16.07.2019
4842 Clouds 11 1017 71 10000 4.1 80 20:22 16.07.2019
4843 Clouds 11 1017 76 10000 3.6 100 19:54 16.07.2019
4844 Clouds 11 1017 76 10000 3.6 90 19:30 16.07.2019
4845 Clouds 11 1017 76 10000 3.6 80 18:58 16.07.2019
4846 Clouds 11 1017 76 10000 4.1 80 18:39 16.07.2019
4847 Clouds 11 1017 76 10000 4.1 80 18:20 16.07.2019
4848 Clouds 11 1017 76 10000 4.1 80 18:20 16.07.2019
4849 Clear 11 1017 71 10000 4.1 70 17:44 16.07.2019
4850 Clear 12 1017 71 10000 4.1 70 17:26 16.07.2019
4851 Clouds 12 1017 71 10000 3.6 60 16:49 16.07.2019
4852 Clouds 12 1017 71 10000 3.6 60 16:25 16.07.2019
4853 Clouds 12 1017 71 10000 3.6 60 15:57 16.07.2019
4854 Clouds 11 1017 71 10000 4.6 60 15:38 16.07.2019
4855 Clouds 11 1017 71 10000 4.6 60 15:38 16.07.2019
4856 Clouds 11 1017 71 10000 4.6 60 15:38 16.07.2019
4857 Clouds 11 1017 71 10000 4.6 60 15:19 16.07.2019
4858 Clouds 11 1016 71 10000 2.6 20 14:47 16.07.2019
4859 Clouds 11 1016 71 10000 2.6 20 14:28 16.07.2019
4860 Clouds 11 1016 71 10000 3.1 60 13:57 16.07.2019
4861 Clouds 11 1016 71 10000 3.1 90 13:37 16.07.2019
4862 Clouds 11 1016 66 10000 3.6 70 13:18 16.07.2019
4863 Clouds 12 1016 71 10000 3.1 70 12:43 16.07.2019
4864 Clouds 12 1016 71 10000 3.1 70 12:20 16.07.2019
4865 Clouds 11 1016 71 10000 3.6 80 11:54 16.07.2019
4866 Clouds 11 1016 66 10000 4.1 90 11:36 16.07.2019
4867 Clouds 11 1016 66 10000 2.6 90 11:18 16.07.2019
4868 Clouds 10 1016 71 10000 3.1 90 10:43 16.07.2019
4869 Clouds 10 1016 71 10000 3.1 90 10:19 16.07.2019
4870 Clouds 10 1016 71 10000 3.1 90 09:43 16.07.2019
4871 Clouds 10 1016 71 10000 3.1 90 09:21 16.07.2019
4872 Clouds 11 1016 71 10000 3.1 80 08:48 16.07.2019
4873 Clouds 10 1016 71 10000 2.1 80 08:27 16.07.2019
4874 Clouds 10 1016 71 10000 2.1 80 08:27 16.07.2019
4875 Clouds 9 1016 70 10000 2.6 90 07:54 16.07.2019
4876 Clouds 9 1016 70 10000 3.1 90 07:35 16.07.2019
4877 Clouds 9 1016 70 10000 2.6 80 06:59 16.07.2019
4878 Clouds 8 1016 75 10000 2.1 90 06:37 16.07.2019
4879 Clouds 8 1016 75 10000 1.5 80 05:52 16.07.2019
4880 Clouds 8 1016 75 10000 1.5 70 05:28 16.07.2019
4881 Clouds 8 1016 75 10000 1.5 70 04:36 16.07.2019
4882 Clouds 7 1016 87 10000 1 0 03:43 16.07.2019
4883 Clouds 7 1015 87 10000 1 10 02:46 16.07.2019
4884 Clouds 7 1015 87 10000 1 10 02:28 16.07.2019
4885 Clouds 7 1015 87 10000 1.5 330 01:26 16.07.2019
4886 Clouds 6 1015 87 10000 1 350 00:25 16.07.2019
4887 Clouds 6 1015 87 10000 1.5 330 23:59 15.07.2019
4888 Clouds 6 1015 87 10000 1 0 23:39 15.07.2019
4889 Clouds 8 1015 87 10000 1 0 23:20 15.07.2019
4890 Clouds 8 1015 81 10000 2.1 70 22:44 15.07.2019
4891 Clouds 8 1015 81 10000 2.1 70 22:20 15.07.2019
4892 Clouds 9 1015 81 10000 2.6 60 21:57 15.07.2019
4893 Clouds 9 1015 81 10000 2.6 60 21:39 15.07.2019
4894 Clouds 9 1015 81 10000 2.6 60 21:19 15.07.2019
4895 Clouds 8 1015 81 10000 2.6 360 20:44 15.07.2019
4896 Clouds 8 1015 81 10000 2.6 360 20:24 15.07.2019
4897 Clouds 9 1014 76 10000 2.6 360 19:58 15.07.2019
4898 Clouds 9 1014 76 10000 3.1 340 19:38 15.07.2019
4899 Clouds 9 1014 76 10000 3.1 340 19:38 15.07.2019
4900 Clouds 9 1014 70 10000 2.6 350 19:19 15.07.2019
4901 Clouds 9 1014 76 10000 2.6 360 18:45 15.07.2019
4902 Clouds 9 1014 76 10000 2.6 360 18:21 15.07.2019
4903 Clouds 9 1014 70 10000 2.6 10 17:57 15.07.2019
4904 Clouds 9 1014 76 10000 3.1 360 17:39 15.07.2019
4905 Clouds 11 1014 76 10000 3.1 360 17:21 15.07.2019
4906 Clouds 11 1014 70 10000 2.6 360 16:57 15.07.2019
4907 Clouds 11 1014 66 10000 3.1 350 16:37 15.07.2019
4908 Clouds 11 1014 66 10000 3.1 350 16:18 15.07.2019
4909 Clouds 12 1014 66 10000 4.1 350 15:40 15.07.2019
4910 Clouds 12 1014 66 10000 4.1 350 15:22 15.07.2019
4911 Clouds 10 1014 70 10000 4.1 350 14:58 15.07.2019
4912 Clouds 11 1014 66 10000 4.6 350 14:38 15.07.2019
4913 Clouds 10 1014 70 10000 3.6 340 14:19 15.07.2019
4914 Rain 11 1014 66 10000 4.1 340 13:46 15.07.2019
4915 Clouds 10 1014 66 10000 3.1 330 13:18 15.07.2019
4916 Clouds 10 1014 61 10000 3.1 340 12:44 15.07.2019
4917 Clouds 10 1014 61 10000 3.1 340 12:25 15.07.2019
4918 Clouds 9 1014 81 10000 3.1 340 11:45 15.07.2019
4919 Clouds 9 1014 81 10000 3.1 340 11:26 15.07.2019
4920 Clouds 9 1014 81 10000 2.1 350 10:59 15.07.2019
4921 Rain 10 1014 70 10000 2.6 330 10:40 15.07.2019
4922 Rain 10 1014 70 10000 2.6 330 10:22 15.07.2019
4923 Rain 10 1014 70 10000 3.1 330 09:42 15.07.2019
4924 Rain 10 1014 70 10000 3.1 330 09:20 15.07.2019
4925 Rain 9 1014 70 10000 3.1 290 08:45 15.07.2019
4926 Rain 9 1014 70 10000 3.1 290 08:24 15.07.2019
4927 Rain 9 1014 75 10000 2.1 280 07:52 15.07.2019
4928 Rain 8 1014 75 10000 2.1 310 07:30 15.07.2019
4929 Rain 7 1014 87 10000 4.1 290 06:40 15.07.2019
4930 Rain 7 1014 87 10000 4.1 290 06:20 15.07.2019
4931 Clouds 7 1014 81 10000 1.5 0 05:42 15.07.2019
4932 Rain 7 1014 87 10000 1.5 330 04:46 15.07.2019
4933 Rain 7 1014 87 10000 1.5 330 04:26 15.07.2019
4934 Clouds 7 1014 81 10000 1 270 03:23 15.07.2019
4935 Clouds 7 1014 81 10000 1 0 02:18 15.07.2019
4936 Clouds 7 1015 81 10000 1.5 350 01:34 15.07.2019
4937 Clouds 7 1015 81 10000 2.35 329.64 00:53 15.07.2019
4938 Clouds 7 1015 81 10000 1.5 350 00:28 15.07.2019
4939 Clouds 7 1015 81 10000 1.5 350 00:28 15.07.2019
4940 Clouds 7 1015 81 10000 2.1 360 23:59 14.07.2019
4941 Clouds 7 1015 81 10000 3.1 340 23:40 14.07.2019
4942 Clouds 9 1015 81 10000 3.1 340 23:20 14.07.2019
4943 Clouds 8 1015 81 10000 3.6 330 22:57 14.07.2019
4944 Clouds 9 1015 75 10000 4.1 340 22:38 14.07.2019
4945 Clouds 9 1015 75 10000 4.1 340 22:20 14.07.2019
4946 Rain 9 1015 75 10000 5.1 350 21:42 14.07.2019
4947 Rain 9 1015 75 10000 5.1 350 21:19 14.07.2019
4948 Clouds 9 1015 75 10000 4.6 350 20:57 14.07.2019
4949 Clouds 8 1015 70 10000 4.6 360 20:38 14.07.2019
4950 Clouds 8 1015 70 10000 4.6 360 20:19 14.07.2019
4951 Clouds 9 1015 66 10000 4.6 10 19:46 14.07.2019
4952 Clouds 9 1015 66 10000 4.6 10 19:28 14.07.2019
4953 Clouds 9 1015 70 10000 5.1 360 18:58 14.07.2019
4954 Clouds 9 1015 66 10000 5.1 360 18:40 14.07.2019
4955 Clouds 9 1015 66 10000 5.1 360 18:21 14.07.2019
4956 Rain 11 1015 66 10000 5.1 340 17:54 14.07.2019
4957 Rain 10 1016 70 10000 5.1 330 17:22 14.07.2019
4958 Rain 10 1015 66 10000 5.7 360 16:52 14.07.2019
4959 Rain 11 1015 61 10000 5.1 350 16:25 14.07.2019
4960 Rain 10 1015 61 10000 5.1 350 15:57 14.07.2019
4961 Rain 10 1015 61 10000 4.6 360 15:35 14.07.2019
4962 Rain 10 1015 61 10000 4.1 360 14:58 14.07.2019
4963 Rain 10 1016 61 10000 5.1 360 14:37 14.07.2019
4964 Rain 10 1016 61 10000 5.1 360 14:19 14.07.2019
4965 Rain 10 1016 61 10000 4.6 350 13:45 14.07.2019
4966 Rain 10 1016 61 10000 4.6 350 13:22 14.07.2019
4967 Rain 9 1016 70 10000 5.1 360 12:55 14.07.2019
4968 Rain 9 1016 70 10000 4.6 360 12:36 14.07.2019
4969 Rain 9 1016 76 10000 3.6 340 12:18 14.07.2019
4970 Rain 8 1016 81 10000 3.6 350 11:43 14.07.2019
4971 Rain 8 1016 81 10000 3.6 350 11:20 14.07.2019
4972 Rain 8 1016 81 10000 1.5 330 10:42 14.07.2019
4973 Rain 8 1016 81 10000 2.1 360 10:20 14.07.2019
4974 Rain 8 1016 75 10000 2.6 350 09:44 14.07.2019
4975 Rain 8 1016 75 10000 2.6 350 09:25 14.07.2019
4976 Rain 8 1016 75 10000 3.1 340 08:45 14.07.2019
4977 Rain 8 1016 75 10000 3.1 340 08:24 14.07.2019
4978 Rain 8 1016 75 10000 3.6 360 07:41 14.07.2019
4979 Rain 8 1016 75 10000 3.6 360 07:19 14.07.2019
4980 Rain 8 1016 70 10000 3.6 360 05:45 14.07.2019
4981 Rain 8 1016 70 10000 3.6 360 05:45 14.07.2019
4982 Rain 7 1016 75 10000 3.6 50 03:51 14.07.2019
4983 Rain 7 1016 75 10000 5.1 50 03:33 14.07.2019
4984 Rain 7 1016 75 10000 3.6 50 02:52 14.07.2019
4985 Rain 7 1016 75 10000 3.6 40 02:22 14.07.2019
4986 Rain 7 1016 75 10000 5.1 40 01:34 14.07.2019
4987 Rain 7 1016 75 10000 5.1 40 00:59 14.07.2019
4988 Rain 7 1016 75 10000 6.2 40 00:40 14.07.2019
4989 Clouds 7 1016 75 10000 6.2 40 00:20 14.07.2019
4990 Clouds 7 1016 81 10000 6.2 40 23:45 13.07.2019
4991 Clouds 7 1016 81 10000 6.2 40 23:26 13.07.2019
4992 Clouds 7 1016 81 10000 5.7 40 22:59 13.07.2019
4993 Clouds 8 1016 75 10000 6.2 40 22:39 13.07.2019
4994 Clouds 8 1016 75 10000 6.2 40 22:20 13.07.2019
4995 Clouds 8 1016 75 10000 6.2 60 21:43 13.07.2019
4996 Clouds 8 1016 75 10000 6.2 60 21:19 13.07.2019
4997 Clouds 8 1016 75 10000 7.7 40 20:46 13.07.2019
4998 Clouds 8 1016 75 10000 7.7 40 20:27 13.07.2019
4999 Clouds 9 1016 70 10000 7.7 50 19:47 13.07.2019
5000 Clouds 9 1016 70 10000 7.7 50 19:29 13.07.2019
5001 Clear 9 1016 76 10000 7.7 60 18:45 13.07.2019
5002 Clear 9 1016 76 10000 7.7 60 18:22 13.07.2019
5003 Clear 10 1016 71 10000 8.2 60 17:42 13.07.2019
5004 Clear 10 1016 71 10000 8.2 60 17:21 13.07.2019
5005 Clear 10 1016 71 10000 8.2 60 16:58 13.07.2019
5006 Clear 10 1016 71 10000 8.2 70 16:38 13.07.2019
5007 Clear 10 1016 71 10000 8.2 70 16:19 13.07.2019
5008 Clear 10 1016 71 10000 8.2 70 16:19 13.07.2019
5009 Clear 11 1015 66 10000 6.7 70 15:44 13.07.2019
5010 Clear 11 1015 66 10000 6.7 70 15:21 13.07.2019
5011 Clear 12 1016 62 10000 6.2 70 14:45 13.07.2019
5012 Clear 12 1016 62 10000 6.2 70 14:24 13.07.2019
5013 Clear 11 1016 66 10000 5.7 90 13:46 13.07.2019
5014 Clear 11 1016 66 10000 5.7 90 13:26 13.07.2019
5015 Clear 12 1016 54 10000 6.2 90 12:59 13.07.2019
5016 Clear 11 1016 57 10000 6.7 80 12:39 13.07.2019
5017 Clear 11 1016 57 10000 6.7 80 12:20 13.07.2019
5018 Clear 11 1016 62 10000 7.2 80 11:43 13.07.2019
5019 Clear 11 1016 62 10000 7.2 80 11:19 13.07.2019
5020 Clear 11 1016 62 10000 7.2 80 11:19 13.07.2019
5021 Clear 10 1016 66 10000 7.2 90 10:45 13.07.2019
5022 Clear 10 1016 66 10000 7.2 90 10:24 13.07.2019
5023 Clouds 11 1016 62 10000 7.2 90 09:59 13.07.2019
5024 Clear 10 1015 66 10000 7.7 90 09:40 13.07.2019
5025 Clear 10 1015 66 10000 7.7 90 09:18 13.07.2019
5026 Clear 10 1015 66 10000 6.7 90 08:36 13.07.2019
5027 Clear 10 1015 61 10000 6.7 90 08:18 13.07.2019
5028 Clear 10 1015 61 10000 6.2 80 07:30 13.07.2019
5029 Clear 10 1015 61 10000 6.2 70 06:41 13.07.2019
5030 Clouds 10 1015 61 10000 6.7 70 05:59 13.07.2019
5031 Clouds 10 1015 61 10000 7.2 70 05:29 13.07.2019
5032 Clouds 10 1015 66 10000 6.7 70 04:24 13.07.2019
5033 Clear 9 1015 66 10000 6.2 70 03:57 13.07.2019
5034 Clear 9 1015 70 10000 5.7 80 03:39 13.07.2019
5035 Clear 10 1015 66 10000 5.7 70 02:18 13.07.2019
5036 Clear 11 1015 57 10000 6.2 80 01:41 13.07.2019
5037 Clear 11 1015 57 10000 6.2 80 01:19 13.07.2019
5038 Clear 11 1015 57 10000 5.7 80 00:57 13.07.2019
5039 Clear 11 1014 57 10000 5.1 70 00:20 13.07.2019
5040 Clear 12 1014 58 10000 5.7 80 23:49 12.07.2019
5041 Clear 13 1014 54 10000 5.1 90 23:29 12.07.2019
5042 Clear 13 1014 58 10000 6.2 90 22:46 12.07.2019
5043 Clear 13 1014 58 10000 6.2 90 22:24 12.07.2019
5044 Clear 14 1014 50 10000 6.7 90 21:57 12.07.2019
5045 Clear 14 1014 54 10000 6.7 90 21:39 12.07.2019
5046 Clear 14 1014 54 10000 6.7 90 21:19 12.07.2019
5047 Clear 14 1014 54 10000 6.7 90 21:19 12.07.2019
5048 Clear 13 1014 54 10000 6.7 70 20:42 12.07.2019
5049 Clear 13 1014 54 10000 6.7 70 20:21 12.07.2019
5050 Clear 14 1014 50 10000 5.7 60 19:42 12.07.2019
5051 Clear 14 1014 50 10000 5.7 60 19:24 12.07.2019
5052 Clear 15 1014 47 10000 5.1 30 18:46 12.07.2019
5053 Clear 15 1014 47 10000 5.1 30 18:22 12.07.2019
5054 Clear 15 1014 47 10000 5.1 20 17:55 12.07.2019
5055 Clouds 13 1014 47 10000 4.6 20 17:30 12.07.2019
5056 Clear 14 1014 51 10000 4.6 360 16:59 12.07.2019
5057 Clear 14 1014 51 10000 4.6 360 16:36 12.07.2019
5058 Clear 14 1013 48 10000 5.1 360 16:18 12.07.2019
5059 Clear 13 1013 51 10000 5.1 340 15:38 12.07.2019
5060 Clear 13 1013 51 10000 5.1 340 15:19 12.07.2019
5061 Clear 13 1013 48 10000 4.6 350 14:44 12.07.2019
5062 Clear 13 1013 48 10000 4.6 350 14:21 12.07.2019
5063 Clear 16 1014 48 10000 3.6 90 13:47 12.07.2019
5064 Clear 16 1014 48 10000 3.6 90 13:23 12.07.2019
5065 Clear 12 1013 54 10000 3.6 80 12:43 12.07.2019
5066 Clear 12 1013 54 10000 3.6 80 12:23 12.07.2019
5067 Clear 12 1013 62 10000 3.1 80 11:47 12.07.2019
5068 Clear 12 1013 62 10000 3.1 80 11:24 12.07.2019
5069 Clear 12 1013 62 10000 3.6 90 10:59 12.07.2019
5070 Clear 12 1013 62 10000 3.6 80 10:41 12.07.2019
5071 Clear 12 1013 62 10000 3.6 80 10:23 12.07.2019
5072 Fog 11 1013 58 10000 3.1 70 09:53 12.07.2019
5073 Fog 11 1013 66 10000 3.1 70 09:27 12.07.2019
5074 Fog 11 1013 71 10000 2.1 100 08:50 12.07.2019
5075 Fog 11 1013 66 10000 1 0 08:24 12.07.2019
5076 Fog 11 1013 66 10000 1 0 07:51 12.07.2019
5077 Clear 11 1013 71 10000 1.5 0 07:29 12.07.2019
5078 Clear 11 1013 66 10000 1 0 06:32 12.07.2019
5079 Clear 11 1013 66 10000 1 0 05:52 12.07.2019
5080 Clear 11 1013 66 10000 1 0 04:53 12.07.2019
5081 Clear 11 1013 66 10000 1 0 04:53 12.07.2019
5082 Clear 8 1013 75 10000 1 200 02:36 12.07.2019
5083 Clear 9 1013 70 10000 2.1 210 01:37 12.07.2019
5084 Clear 10 1013 66 10000 2.6 140 00:37 12.07.2019
5085 Clear 10 1013 66 10000 3.1 100 00:19 12.07.2019
5086 Clear 11 1013 62 10000 4.1 70 23:42 11.07.2019
5087 Clear 12 1013 62 10000 4.1 70 23:22 11.07.2019
5088 Clear 12 1013 54 10000 3.6 30 22:47 11.07.2019
5089 Clear 12 1013 54 10000 3.6 30 22:25 11.07.2019
5090 Clear 12 1013 54 10000 3.6 30 22:25 11.07.2019
5091 Clear 12 1013 58 10000 2.6 10 21:55 11.07.2019
5092 Clear 13 1013 50 10000 3.1 10 21:36 11.07.2019
5093 Clear 14 1013 50 10000 3.6 10 21:18 11.07.2019
5094 Clear 14 1013 50 10000 3.6 360 20:42 11.07.2019
5095 Clear 14 1013 50 10000 3.6 360 20:22 11.07.2019
5096 Clear 15 1013 47 10000 3.6 350 19:57 11.07.2019
5097 Clear 15 1013 47 10000 4.1 360 19:39 11.07.2019
5098 Clear 15 1013 47 10000 4.1 360 19:20 11.07.2019
5099 Clear 15 1013 51 10000 4.1 350 18:42 11.07.2019
5100 Clear 15 1013 51 10000 4.1 350 18:24 11.07.2019
5101 Clear 15 1013 51 10000 4.6 350 17:49 11.07.2019
5102 Clear 15 1013 51 10000 4.6 350 17:31 11.07.2019
5103 Clear 15 1013 51 10000 4.1 330 16:55 11.07.2019
5104 Clear 15 1013 51 10000 3.6 330 16:37 11.07.2019
5105 Clear 15 1013 51 10000 3.6 330 16:18 11.07.2019
5106 Clear 14 1013 47 10000 2.6 330 15:40 11.07.2019
5107 Clear 14 1013 47 10000 2.6 330 15:20 11.07.2019
5108 Clear 15 1013 54 10000 2.6 0 14:45 11.07.2019
5109 Clear 15 1013 54 10000 2.6 0 14:25 11.07.2019
5110 Clear 15 1013 54 10000 3.1 340 13:56 11.07.2019
5111 Clear 14 1013 54 10000 3.1 340 13:37 11.07.2019
5112 Clear 14 1013 54 10000 2.6 350 13:18 11.07.2019
5113 Clear 14 1013 54 10000 2.6 360 12:38 11.07.2019
5114 Clouds 13 1013 54 10000 2.6 350 12:19 11.07.2019
5115 Clouds 13 1013 62 10000 2.6 70 11:45 11.07.2019
5116 Clouds 13 1013 62 10000 2.6 70 11:24 11.07.2019
5117 Clouds 13 1013 62 10000 2.1 0 10:51 11.07.2019
5118 Clouds 13 1013 66 10000 2.1 70 10:20 11.07.2019
5119 Clouds 13 1013 66 10000 2.1 90 09:50 11.07.2019
5120 Clouds 13 1013 66 10000 2.1 90 09:31 11.07.2019
5121 Clouds 13 1013 62 10000 3.1 70 08:59 11.07.2019
5122 Clouds 12 1013 62 10000 2.6 70 08:39 11.07.2019
5123 Clouds 12 1013 62 10000 2.6 70 08:19 11.07.2019
5124 Clouds 11 1013 71 10000 2.6 70 07:43 11.07.2019
5125 Clouds 11 1013 66 10000 2.6 80 06:55 11.07.2019
5126 Clouds 10 1013 76 10000 2.6 70 06:18 11.07.2019
5127 Clouds 9 1013 81 10000 2.6 60 05:31 11.07.2019
5128 Clouds 9 1013 81 10000 3.1 60 04:56 11.07.2019
5129 Clouds 9 1014 81 10000 1 60 03:43 11.07.2019
5130 Clouds 9 1014 81 10000 1 100 02:20 11.07.2019
5131 Clouds 10 1014 76 10000 3.1 80 00:33 11.07.2019
5132 Clouds 10 1014 76 10000 2.1 80 23:51 10.07.2019
5133 Clouds 10 1015 76 10000 2.6 80 23:27 10.07.2019
5134 Clouds 10 1015 76 10000 2.1 70 22:57 10.07.2019
5135 Clear 11 1015 71 10000 1.5 0 22:26 10.07.2019
5136 Clear 11 1015 66 10000 1.5 70 21:57 10.07.2019
5137 Clouds 11 1015 66 10000 1.5 80 21:38 10.07.2019
5138 Clouds 11 1015 66 10000 1.5 80 21:20 10.07.2019
5139 Clouds 12 1015 62 10000 2.6 80 20:46 10.07.2019
5140 Clouds 12 1015 62 10000 2.6 80 20:26 10.07.2019
5141 Clouds 12 1015 62 10000 3.1 80 19:57 10.07.2019
5142 Clouds 12 1015 62 10000 2.6 80 19:38 10.07.2019
5143 Clouds 12 1015 62 10000 2.6 80 19:20 10.07.2019
5144 Clouds 12 1016 66 10000 2.6 80 18:46 10.07.2019
5145 Clouds 12 1016 66 10000 2.6 80 18:23 10.07.2019
5146 Clouds 12 1016 71 10000 2.6 70 17:47 10.07.2019
5147 Clouds 12 1016 71 10000 2.6 70 17:29 10.07.2019
5148 Clouds 13 1016 66 10000 2.6 80 16:47 10.07.2019
5149 Clouds 13 1016 66 10000 2.6 80 16:21 10.07.2019
5150 Clouds 12 1017 71 10000 1.5 0 15:47 10.07.2019
5151 Clouds 12 1017 71 10000 1.5 0 15:26 10.07.2019
5152 Clear 13 1017 62 10000 2.6 90 14:55 10.07.2019
5153 Clear 13 1017 62 10000 2.6 80 14:37 10.07.2019
5154 Clear 13 1017 62 10000 2.6 80 14:18 10.07.2019
5155 Clouds 14 1017 58 10000 4.1 70 13:37 10.07.2019
5156 Clear 12 1017 66 10000 4.1 90 13:18 10.07.2019
5157 Clear 12 1017 66 10000 5.1 90 12:41 10.07.2019
5158 Clear 12 1017 66 10000 5.1 90 12:21 10.07.2019
5159 Clear 11 1018 71 10000 4.1 80 11:50 10.07.2019
5160 Clear 11 1018 71 10000 4.1 80 11:22 10.07.2019
5161 Clear 11 1018 71 10000 4.1 100 10:58 10.07.2019
5162 Clear 12 1018 71 10000 3.6 70 10:24 10.07.2019
5163 Clear 11 1018 76 10000 2.1 100 09:59 10.07.2019
5164 Clear 11 1018 76 10000 2.6 80 09:41 10.07.2019
5165 Clear 11 1018 76 10000 2.6 80 09:19 10.07.2019
5166 Clear 10 1018 81 10000 3.6 70 08:49 10.07.2019
5167 Clear 10 1018 81 10000 2.6 100 08:26 10.07.2019
5168 Clear 10 1018 81 10000 2.1 80 07:51 10.07.2019
5169 Clear 9 1018 81 10000 2.6 90 07:24 10.07.2019
5170 Clear 8 1018 87 10000 3.6 100 06:40 10.07.2019
5171 Clear 8 1019 93 10000 3.1 100 05:42 10.07.2019
5172 Clear 8 1019 87 10000 4.1 100 04:33 10.07.2019
5173 Clear 7 1019 93 10000 5.1 80 02:20 10.07.2019
5174 Clear 7 1019 93 10000 4.6 100 00:44 10.07.2019
5175 Clouds 8 1018 87 10000 4.1 90 23:44 09.07.2019
5176 Clouds 10 1018 87 10000 4.1 90 23:25 09.07.2019
5177 Clouds 10 1018 87 10000 6.2 90 22:58 09.07.2019
5178 Clouds 10 1018 87 10000 7.7 80 22:40 09.07.2019
5179 Clouds 10 1018 87 10000 7.7 80 22:20 09.07.2019
5180 Clouds 10 1018 81 10000 6.2 80 21:47 09.07.2019
5181 Clouds 10 1018 81 10000 6.2 80 21:26 09.07.2019
5182 Clouds 11 1018 81 10000 6.2 80 20:56 09.07.2019
5183 Clouds 11 1018 81 10000 5.7 60 20:36 09.07.2019
5184 Clouds 9 1018 81 10000 6.2 30 20:18 09.07.2019
5185 Clouds 9 1018 81 10000 5.7 50 19:37 09.07.2019
5186 Clouds 9 1018 81 10000 5.7 40 19:19 09.07.2019
5187 Clouds 9 1018 81 10000 5.7 40 18:40 09.07.2019
5188 Clouds 10 1018 76 10000 4.6 40 18:19 09.07.2019
5189 Clear 10 1018 81 10000 4.1 50 17:44 09.07.2019
5190 Clear 13 1018 81 10000 4.1 50 17:22 09.07.2019
5191 Clear 13 1018 81 10000 5.1 60 16:59 09.07.2019
5192 Clouds 13 1018 76 10000 4.1 60 16:41 09.07.2019
5193 Clouds 13 1018 76 10000 4.1 60 16:22 09.07.2019
5194 Clouds 13 1018 71 10000 4.6 350 15:44 09.07.2019
5195 Clouds 13 1018 71 10000 4.6 350 15:25 09.07.2019
5196 Clouds 13 1018 54 10000 5.7 350 14:45 09.07.2019
5197 Clouds 13 1018 54 10000 5.7 350 14:24 09.07.2019
5198 Clouds 13 1018 54 10000 4.6 350 13:57 09.07.2019
5199 Clear 12 1018 54 10000 5.1 350 13:39 09.07.2019
5200 Clear 12 1018 54 10000 5.1 350 13:20 09.07.2019
5201 Clear 13 1018 54 10000 4.1 340 12:39 09.07.2019
5202 Clear 13 1018 54 10000 3.6 340 12:19 09.07.2019
5203 Clear 13 1018 54 10000 3.6 340 11:56 09.07.2019
5204 Clear 13 1018 58 10000 3.6 350 11:37 09.07.2019
5205 Clear 13 1018 58 10000 2.6 350 11:19 09.07.2019
5206 Clear 12 1018 62 10000 2.6 20 10:47 09.07.2019
5207 Clear 12 1018 62 10000 2.6 20 10:26 09.07.2019
5208 Clear 12 1018 54 10000 2.6 350 09:39 09.07.2019
5209 Clear 12 1018 54 10000 2.6 350 09:20 09.07.2019
5210 Clear 12 1018 62 10000 2.1 20 08:45 09.07.2019
5211 Clear 12 1018 62 10000 2.1 20 08:45 09.07.2019
5212 Clear 12 1018 62 10000 2.1 20 08:45 09.07.2019
5213 Clear 12 1018 62 10000 2.1 20 08:21 09.07.2019
5214 Clouds 8 1000 93 10000 3.1 170 03:52 05.07.2019
5215 Clouds 8 1000 93 10000 3.1 170 03:24 05.07.2019
5216 Clouds 7 1000 100 10000 3.1 170 02:54 05.07.2019
5217 Clouds 7 1000 100 10000 3.1 170 02:36 05.07.2019
5218 Clouds 7 999 93 10000 1.5 220 01:37 05.07.2019
5219 Clouds 7 999 93 10000 3.1 230 00:54 05.07.2019
5220 Clouds 7 999 93 10000 5.7 230 00:33 05.07.2019
5221 Clouds 8 998 87 10000 9.8 240 23:47 04.07.2019
5222 Rain 8 998 87 10000 9.8 240 23:20 04.07.2019
5223 Rain 8 998 87 10000 9.8 240 22:43 04.07.2019
5224 Rain 8 998 87 10000 9.8 240 22:24 04.07.2019
5225 Rain 8 997 100 10000 9.8 240 21:55 04.07.2019
5226 Rain 8 997 100 10000 8.7 250 21:37 04.07.2019
5227 Rain 8 997 100 10000 8.7 250 21:19 04.07.2019
5228 Rain 8 997 100 10000 10.3 250 20:39 04.07.2019
5229 Rain 8 997 100 10000 10.3 250 20:21 04.07.2019
5230 Clouds 7 997 100 10000 9.3 250 19:56 04.07.2019
5231 Rain 7 997 100 10000 8.2 260 19:38 04.07.2019
5232 Rain 7 997 100 10000 8.2 260 19:19 04.07.2019
5233 Clouds 7 997 100 10000 7.2 280 18:41 04.07.2019
5234 Clouds 7 997 100 10000 7.2 280 18:23 04.07.2019
5235 Fog 8 997 100 1000 11.3 280 17:44 04.07.2019
5236 Fog 8 997 100 1000 11.3 280 17:19 04.07.2019
5237 Rain 8 998 100 9000 8.7 300 15:58 04.07.2019
5238 Rain 8 998 100 10000 9.8 300 15:40 04.07.2019
5239 Rain 8 998 100 10000 9.8 300 15:22 04.07.2019
5240 Drizzle 8 998 93 10000 10.8 300 14:55 04.07.2019
5241 Drizzle 8 999 100 4000 8.7 300 14:37 04.07.2019
5242 Drizzle 8 999 93 2000 9.3 330 14:18 04.07.2019
5243 Drizzle 8 999 93 2000 9.3 330 14:18 04.07.2019
5244 Drizzle 8 999 93 4000 10.3 330 13:42 04.07.2019
5245 Drizzle 8 999 93 4000 10.3 330 13:23 04.07.2019
5246 Drizzle 8 1000 100 7000 11.3 330 12:57 04.07.2019
5247 Drizzle 8 1000 93 7000 10.8 330 12:37 04.07.2019
5248 Drizzle 8 1000 93 7000 10.8 330 12:37 04.07.2019
5249 Rain 8 1000 100 6000 11.3 330 12:19 04.07.2019
5250 Rain 8 1001 93 8000 10.8 330 11:39 04.07.2019
5251 Rain 8 1001 93 8000 10.8 330 11:19 04.07.2019
5252 Drizzle 8 1002 93 10000 10.8 330 10:40 04.07.2019
5253 Drizzle 8 1002 93 10000 10.8 330 10:22 04.07.2019
5254 Drizzle 8 1002 93 9000 9.3 340 09:45 04.07.2019
5255 Drizzle 8 1002 93 9000 9.3 340 09:26 04.07.2019
5256 Drizzle 8 1002 93 6000 8.2 340 08:57 04.07.2019
5257 Drizzle 8 1002 93 6000 8.2 340 08:56 04.07.2019
5258 Drizzle 8 1003 93 8000 6.7 350 08:28 04.07.2019
5259 Drizzle 7 1003 93 9000 8.2 360 07:46 04.07.2019
5260 Drizzle 7 1003 93 9000 8.2 360 07:23 04.07.2019
5261 Rain 7 1003 93 9000 7.7 350 06:55 04.07.2019
5262 Drizzle 7 1004 100 6000 6.2 360 05:55 04.07.2019
5263 Drizzle 7 1004 100 4000 6.2 10 05:36 04.07.2019
5264 Fog 7 1006 100 600 5.1 360 02:51 04.07.2019
5265 Fog 7 1006 100 450 3.6 350 01:42 04.07.2019
5266 Fog 7 1006 100 450 3.6 350 01:23 04.07.2019
5267 Fog 7 1006 100 250 3.1 330 00:28 04.07.2019
5268 Fog 7 1006 100 1500 3.1 340 23:47 03.07.2019
5269 Fog 7 1006 100 1500 3.1 340 23:20 03.07.2019
5270 Fog 7 1006 100 5000 2.6 340 22:55 03.07.2019
5271 Fog 7 1007 100 400 2.6 330 22:36 03.07.2019
5272 Fog 7 1007 100 1500 4.1 340 22:18 03.07.2019
5273 Drizzle 8 1007 100 1600 3.6 340 21:46 03.07.2019
5274 Drizzle 8 1007 100 1600 3.6 340 21:28 03.07.2019
5275 Fog 8 1007 100 2000 3.6 340 20:46 03.07.2019
5276 Fog 8 1007 100 2000 3.6 340 20:27 03.07.2019
5277 Drizzle 7 1007 100 10000 4.1 350 19:53 03.07.2019
5278 Drizzle 7 1007 100 7000 5.1 350 19:33 03.07.2019
5279 Drizzle 7 1007 100 8000 5.1 350 18:54 03.07.2019
5280 Drizzle 7 1007 100 8000 5.1 350 18:36 03.07.2019
5281 Drizzle 7 1007 100 10000 5.7 340 18:18 03.07.2019
5282 Drizzle 8 1007 100 10000 5.1 360 17:41 03.07.2019
5283 Drizzle 8 1007 93 10000 5.1 360 17:18 03.07.2019
5284 Rain 8 1007 93 10000 5.1 360 16:44 03.07.2019
5285 Rain 8 1007 93 10000 5.1 360 16:23 03.07.2019
5286 Rain 9 1007 87 10000 4.6 360 15:50 03.07.2019
5287 Drizzle 8 1007 93 10000 4.6 20 15:31 03.07.2019
5288 Drizzle 8 1007 93 10000 4.6 360 14:58 03.07.2019
5289 Clouds 8 1007 93 9000 5.1 10 14:39 03.07.2019
5290 Clouds 8 1007 93 9000 5.1 10 14:19 03.07.2019
5291 Rain 9 1007 93 6000 4.6 20 13:43 03.07.2019
5292 Rain 9 1007 93 6000 4.6 20 13:24 03.07.2019
5293 Clouds 9 1007 87 10000 5.7 360 12:45 03.07.2019
5294 Clouds 9 1007 87 10000 4.6 360 12:18 03.07.2019
5295 Clouds 9 1007 87 10000 4.6 360 11:43 03.07.2019
5296 Clouds 9 1007 87 10000 4.6 360 11:22 03.07.2019
5297 Clouds 9 1006 87 10000 4.6 360 10:44 03.07.2019
5298 Clouds 9 1006 87 10000 4.6 360 10:25 03.07.2019
5299 Clouds 9 1006 87 10000 4.1 360 09:57 03.07.2019
5300 Clouds 9 1006 87 10000 4.6 350 09:38 03.07.2019
5301 Clouds 9 1006 87 10000 4.6 350 09:19 03.07.2019
5302 Clouds 9 1005 87 10000 3.1 360 08:50 03.07.2019
5303 Clouds 9 1005 87 10000 3.1 360 08:26 03.07.2019
5304 Clouds 8 1005 81 10000 3.1 350 07:40 03.07.2019
5305 Clouds 8 1005 81 10000 2.1 360 07:20 03.07.2019
5306 Clouds 7 1005 87 10000 3.6 350 06:25 03.07.2019
5307 Drizzle 7 1005 87 10000 1.5 330 05:32 03.07.2019
5308 Clouds 7 1006 86 0 1.67 338.033 04:34 03.07.2019
5309 Clouds 7 1005 87 10000 2.1 340 03:23 03.07.2019
5310 Clouds 7 1004 81 10000 3.1 330 01:49 03.07.2019
5311 Clouds 7 1004 81 10000 3.1 330 01:21 03.07.2019
5312 Clouds 7 1004 81 10000 3.1 330 01:21 03.07.2019
5313 Clouds 7 1004 81 10000 3.6 330 00:45 03.07.2019
5314 Clouds 8 1004 75 10000 2.6 330 23:59 02.07.2019
5315 Clouds 8 1004 75 10000 2.6 330 23:37 02.07.2019
5316 Clouds 8 1004 75 10000 3.1 320 23:19 02.07.2019
5317 Clouds 8 1004 75 10000 3.1 320 22:56 02.07.2019
5318 Clouds 8 1004 75 10000 2.6 310 22:37 02.07.2019
5319 Clouds 8 1003 75 10000 3.6 320 22:18 02.07.2019
5320 Clouds 8 1003 75 10000 4.1 320 21:42 02.07.2019
5321 Clouds 8 1003 81 10000 4.6 300 21:22 02.07.2019
5322 Clouds 8 1003 81 10000 4.6 300 20:58 02.07.2019
5323 Clouds 9 1003 81 10000 4.6 290 20:39 02.07.2019
5324 Clouds 8 1003 81 10000 4.6 290 20:20 02.07.2019
5325 Clouds 8 1003 81 10000 5.1 290 19:42 02.07.2019
5326 Clouds 8 1002 81 10000 5.7 290 19:23 02.07.2019
5327 Clouds 8 1002 81 10000 5.7 290 18:49 02.07.2019
5328 Clouds 8 1002 81 10000 5.1 290 18:19 02.07.2019
5329 Clouds 8 1002 81 10000 5.1 290 18:19 02.07.2019
5330 Clouds 8 1001 81 10000 6.7 290 17:44 02.07.2019
5331 Clouds 9 1001 81 10000 6.7 290 17:24 02.07.2019
5332 Clouds 9 1001 81 10000 6.7 290 16:54 02.07.2019
5333 Clouds 9 1001 81 10000 7.2 290 16:35 02.07.2019
5334 Clouds 9 1000 81 10000 6.7 290 15:59 02.07.2019
5335 Clouds 9 1000 81 10000 6.7 290 15:38 02.07.2019
5336 Clouds 9 1000 81 10000 7.2 280 15:18 02.07.2019
5337 Clouds 9 1000 81 10000 7.2 280 14:40 02.07.2019
5338 Clouds 8 1000 87 10000 8.2 280 14:21 02.07.2019
5339 Drizzle 8 999 87 10000 8.2 280 13:42 02.07.2019
5340 Drizzle 8 999 87 10000 8.7 280 13:19 02.07.2019
5341 Drizzle 8 999 87 10000 8.7 280 13:19 02.07.2019
5342 Drizzle 8 998 93 10000 8.2 280 12:44 02.07.2019
5343 Drizzle 8 998 93 10000 8.2 280 12:23 02.07.2019
5344 Drizzle 8 997 93 10000 7.2 290 11:44 02.07.2019
5345 -273 0 0 0 0 0 11:44 02.07.2019
5346 Drizzle 8 997 93 10000 7.2 290 11:23 02.07.2019
5347 Rain 8 997 93 10000 6.2 280 10:58 02.07.2019
5348 Drizzle 8 996 93 10000 7.2 270 10:37 02.07.2019
5349 Drizzle 8 996 100 10000 5.7 270 10:18 02.07.2019
5350 Drizzle 8 996 100 10000 6.2 290 09:23 02.07.2019
5351 Drizzle 8 996 100 7000 8.2 290 08:59 02.07.2019
5352 Drizzle 8 996 100 7000 2.6 260 08:38 02.07.2019
5353 Drizzle 8 995 100 8000 7.2 280 08:20 02.07.2019
5354 Drizzle 8 995 93 500 6.7 270 07:47 02.07.2019
5355 Fog 8 995 93 600 2.6 240 07:20 02.07.2019
5356 Drizzle 9 994 93 3500 1 0 06:40 02.07.2019
5357 Rain 8 994 93 10000 2.6 110 05:55 02.07.2019
5358 Rain 9 993 87 10000 5.7 100 02:43 02.07.2019
5359 Clouds 10 993 76 10000 7.7 130 00:41 02.07.2019
5360 Clouds 10 993 76 10000 5.7 120 23:43 01.07.2019
5361 Rain 9 993 76 10000 5.7 120 23:19 01.07.2019
5362 Clouds 11 993 71 10000 9.3 130 22:44 01.07.2019
5363 Rain 10 993 71 10000 9.3 130 22:26 01.07.2019
5364 Drizzle 10 993 71 10000 11.8 160 21:46 01.07.2019
5365 Drizzle 10 993 71 10000 11.8 160 21:25 01.07.2019
5366 Drizzle 10 993 71 10000 9.8 180 20:51 01.07.2019
5367 Rain 12 993 62 10000 9.3 180 20:21 01.07.2019
5368 Rain 12 993 62 10000 9.3 180 19:57 01.07.2019
5369 Clouds 12 993 66 10000 7.7 170 19:39 01.07.2019
5370 Clouds 13 993 54 10000 9.8 140 19:21 01.07.2019
5371 Clouds 13 992 58 10000 7.2 120 18:51 01.07.2019
5372 Clouds 13 992 58 10000 7.2 120 18:29 01.07.2019
5373 Clouds 13 993 58 10000 7.7 120 17:57 01.07.2019
5374 Clouds 12 993 58 10000 8.7 130 17:39 01.07.2019
5375 Clouds 12 993 58 10000 8.7 130 17:19 01.07.2019
5376 Clouds 11 993 62 10000 12.9 140 16:44 01.07.2019
5377 Drizzle 12 993 54 10000 15.9 140 16:24 01.07.2019
5378 Clouds 12 993 54 10000 14.4 140 15:46 01.07.2019
5379 Clear 13 992 47 10000 13.9 150 15:26 01.07.2019
5380 Clear 12 992 54 10000 10.8 130 14:45 01.07.2019
5381 Clear 12 992 50 10000 13.4 150 14:24 01.07.2019
5382 Clear 13 992 47 10000 11.8 160 13:55 01.07.2019
5383 Clear 13 992 44 10000 10.8 160 13:37 01.07.2019
5384 Clear 13 992 44 10000 10.8 160 13:18 01.07.2019
5385 Clear 12 992 44 10000 10.8 150 12:40 01.07.2019
5386 Clear 12 992 44 10000 10.8 150 12:40 01.07.2019
5387 Clear 12 992 44 10000 12.3 140 12:22 01.07.2019
5388 Clear 13 992 44 10000 12.3 140 11:57 01.07.2019
5389 Clear 12 992 47 10000 14.4 140 11:38 01.07.2019
5390 Clear 12 992 47 10000 14.4 140 11:18 01.07.2019
5391 Clear 12 993 47 10000 14.9 140 10:42 01.07.2019
5392 Clear 12 993 44 10000 15.9 140 10:20 01.07.2019
5393 Clear 12 993 47 10000 14.9 140 09:45 01.07.2019
5394 Clear 12 993 43 10000 13.4 150 09:26 01.07.2019
5395 Clear 12 993 43 10000 13.4 130 08:44 01.07.2019
5396 Clear 11 993 46 10000 11.8 140 08:25 01.07.2019
5397 Clear 11 994 53 10000 11.3 160 07:35 01.07.2019
5398 Clear 12 994 46 10000 10.3 160 06:51 01.07.2019
5399 Clouds 10 994 53 10000 13.9 160 04:45 01.07.2019
5400 Clear 6 997 75 10000 7.7 120 01:20 01.07.2019
5401 Clear 6 997 81 10000 7.2 110 00:42 01.07.2019
5402 Clear 5 998 86 10000 6.7 100 00:21 01.07.2019
5403 Clear 8 999 75 10000 3.6 110 23:26 30.06.2019
5404 Clear 7 999 75 10000 3.1 130 22:58 30.06.2019
5405 Clear 7 999 70 10000 2.1 200 22:38 30.06.2019
5406 Clear 7 999 70 10000 2.1 200 22:18 30.06.2019
5407 Clear 7 999 70 10000 2.6 280 21:41 30.06.2019
5408 Clear 8 999 70 10000 4.1 250 21:19 30.06.2019
5409 Clear 8 1000 75 10000 4.6 250 20:42 30.06.2019
5410 Clouds 7 1000 75 10000 6.2 240 20:24 30.06.2019
5411 Clouds 7 1000 81 10000 6.7 240 19:55 30.06.2019
5412 Clouds 8 1000 75 10000 7.7 250 19:37 30.06.2019
5413 Clouds 8 1000 75 10000 7.7 250 19:18 30.06.2019
5414 Clouds 7 1000 81 10000 9.3 270 18:26 30.06.2019
5415 Rain 8 1001 75 10000 10.3 270 17:56 30.06.2019
5416 Rain 7 1001 81 10000 9.8 260 17:37 30.06.2019
5417 Rain 7 1001 81 10000 9.8 260 17:18 30.06.2019
5418 Rain 8 1001 75 10000 9.8 270 16:44 30.06.2019
5419 Rain 8 1001 75 10000 11.8 270 16:25 30.06.2019
5420 Rain 7 1001 81 10000 9.3 260 15:37 30.06.2019
5421 Rain 7 1001 81 10000 9.3 260 15:18 30.06.2019
5422 Rain 7 1000 81 10000 11.3 260 14:50 30.06.2019
5423 Rain 8 1000 70 10000 11.8 280 14:29 30.06.2019
5424 Rain 6 1000 87 10000 11.8 260 13:46 30.06.2019
5425 Clouds 6 1000 81 10000 13.4 270 13:25 30.06.2019
5426 Rain 6 999 81 10000 12.9 280 12:52 30.06.2019
5427 Rain 5 999 80 10000 13.9 270 12:27 30.06.2019
5428 Clouds 6 999 81 10000 14.4 280 11:56 30.06.2019
5429 Rain 6 999 81 10000 14.9 280 11:38 30.06.2019
5430 Rain 6 999 81 10000 14.9 280 11:18 30.06.2019
5431 Rain 6 998 75 10000 15.9 280 10:44 30.06.2019
5432 Rain 6 998 75 10000 17 280 10:19 30.06.2019
5433 Rain 5 998 86 10000 13.9 270 09:57 30.06.2019
5434 Drizzle 5 998 86 10000 12.9 280 09:37 30.06.2019
5435 Drizzle 5 998 86 10000 12.9 280 09:18 30.06.2019
5436 Drizzle 5 998 86 10000 11.8 270 08:39 30.06.2019
5437 Drizzle 5 997 86 10000 13.9 270 08:19 30.06.2019
5438 Drizzle 5 997 86 10000 13.4 280 07:40 30.06.2019
5439 Drizzle 5 997 80 10000 12.9 270 07:21 30.06.2019
5440 Drizzle 4 996 86 10000 17.5 270 06:23 30.06.2019
5441 Drizzle 5 995 86 10000 19.5 270 03:27 30.06.2019
5442 Rain 4 994 86 10000 18 260 01:50 30.06.2019
5443 Drizzle 4 994 86 10000 17.5 260 00:39 30.06.2019
5444 Drizzle 4 994 86 10000 17.5 260 00:19 30.06.2019
5445 Rain 5 994 86 10000 12.3 250 23:39 29.06.2019
5446 Rain 5 994 86 10000 12.3 250 23:20 29.06.2019
5447 Rain 4 995 86 10000 12.9 250 22:42 29.06.2019
5448 Drizzle 4 995 86 10000 12.3 250 22:22 29.06.2019
5449 Rain 5 995 86 10000 11.3 240 21:54 29.06.2019
5450 Drizzle 4 996 86 10000 11.8 240 21:24 29.06.2019
5451 Rain 4 996 93 10000 10.8 240 20:46 29.06.2019
5452 Rain 3 996 93 10000 12.3 240 20:28 29.06.2019
5453 Rain 3 996 86 10000 10.8 260 19:58 29.06.2019
5454 Rain 3 996 86 10000 10.8 260 19:39 29.06.2019
5455 Rain 5 996 80 10000 9.3 250 19:19 29.06.2019
5456 Rain 4 996 86 10000 11.8 250 18:47 29.06.2019
5457 Drizzle 4 996 86 10000 10.8 260 18:24 29.06.2019
5458 Rain 4 996 86 10000 9.3 280 17:37 29.06.2019
5459 Rain 4 996 86 10000 9.3 280 17:19 29.06.2019
5460 Rain 3 996 86 10000 13.4 290 16:42 29.06.2019
5461 Rain 5 995 80 10000 10.3 280 15:59 29.06.2019
5462 Rain 6 995 70 10000 10.3 280 15:32 29.06.2019
5463 Rain 6 995 74 10000 10.3 270 14:46 29.06.2019
5464 Clouds 6 995 75 10000 10.3 280 14:27 29.06.2019
5465 Rain 5 995 75 10000 9.8 270 13:55 29.06.2019
5466 Rain 5 995 80 10000 9.3 270 13:36 29.06.2019
5467 Rain 5 995 80 10000 9.3 270 13:18 29.06.2019
5468 Drizzle 4 995 86 10000 9.3 270 12:40 29.06.2019
5469 Drizzle 4 995 86 10000 9.8 270 12:21 29.06.2019
5470 Drizzle 3 995 93 10000 11.3 270 11:43 29.06.2019
5471 Drizzle 4 995 86 10000 10.8 270 11:25 29.06.2019
5472 Rain 4 995 86 10000 8.7 270 10:49 29.06.2019
5473 Rain 4 995 86 10000 8.2 260 10:21 29.06.2019
5474 Rain 4 995 86 10000 6.2 280 09:57 29.06.2019
5475 Rain 4 995 86 10000 6.2 280 09:57 29.06.2019
5476 Rain 4 994 93 10000 6.7 290 08:55 29.06.2019
5477 Drizzle 5 994 86 10000 4.6 310 08:31 29.06.2019
5478 Drizzle 5 994 93 10000 4.6 320 07:45 29.06.2019
5479 Rain 5 994 86 10000 6.7 340 06:55 29.06.2019
5480 Rain 5 994 93 10000 7.7 350 06:36 29.06.2019
5481 Rain 5 994 93 10000 7.7 350 06:18 29.06.2019
5482 Rain 8 998 70 10000 7.7 200 01:43 29.06.2019
5483 Clouds 8 999 65 10000 6.2 190 00:51 29.06.2019
5484 Rain 7 1000 81 10000 5.7 200 23:53 28.06.2019
5485 Rain 8 1001 81 10000 6.7 210 23:21 28.06.2019
5486 Rain 8 1002 81 10000 6.2 220 22:47 28.06.2019
5487 Rain 8 1002 81 10000 6.2 220 22:21 28.06.2019
5488 Rain 8 1002 81 10000 9.3 240 21:45 28.06.2019
5489 Rain 8 1003 87 10000 9.3 230 21:19 28.06.2019
5490 Rain 7 1003 87 10000 8.7 240 20:42 28.06.2019
5491 Rain 7 1003 87 10000 9.8 240 20:20 28.06.2019
5492 Rain 6 1003 87 10000 10.8 240 19:42 28.06.2019
5493 Rain 6 1004 87 10000 9.8 260 19:23 28.06.2019
5494 Rain 6 1004 87 10000 10.3 280 18:42 28.06.2019
5495 Rain 6 1004 87 10000 12.9 280 18:22 28.06.2019
5496 Rain 6 1004 81 10000 10.3 270 17:54 28.06.2019
5497 Rain 7 1004 70 10000 12.9 280 17:28 28.06.2019
5498 Rain 7 1004 70 10000 13.4 280 16:47 28.06.2019
5499 Rain 7 1004 81 10000 13.4 270 16:20 28.06.2019
5500 Rain 7 1004 81 10000 12.3 270 15:47 28.06.2019
5501 Rain 7 1004 87 10000 12.3 270 15:18 28.06.2019
5502 Rain 7 1004 87 10000 13.4 270 14:42 28.06.2019
5503 Rain 7 1003 87 10000 11.8 260 14:21 28.06.2019
5504 Rain 7 1003 87 10000 13.4 270 13:49 28.06.2019
5505 Drizzle 7 1003 81 10000 14.9 270 13:29 28.06.2019
5506 Rain 7 1003 93 10000 13.4 270 12:53 28.06.2019
5507 Rain 7 1003 87 9000 13.4 270 12:34 28.06.2019
5508 Drizzle 7 1003 87 10000 14.4 270 11:46 28.06.2019
5509 Rain 6 1003 87 10000 14.9 270 11:19 28.06.2019
5510 Rain 6 1003 87 10000 15.9 270 10:43 28.06.2019
5511 Rain 6 1002 87 10000 17 270 10:20 28.06.2019
5512 Rain 6 1002 87 10000 16.5 260 09:47 28.06.2019
5513 Rain 6 1002 81 10000 18 270 09:28 28.06.2019
5514 Rain 6 1002 81 10000 19.5 270 08:43 28.06.2019
5515 Rain 7 1002 81 10000 18 270 08:24 28.06.2019
5516 Rain 7 1003 81 10000 15.9 260 07:43 28.06.2019
5517 Rain 6 1003 81 10000 13.4 270 06:57 28.06.2019
5518 Rain 5 1004 86 10000 12.3 260 05:18 28.06.2019
5519 Rain 4 1006 93 10000 14.4 270 01:21 28.06.2019
5520 Rain 5 1006 80 10000 14.4 270 00:26 28.06.2019
5521 Rain 4 1006 86 10000 13.4 270 23:48 27.06.2019
5522 Rain 6 1006 86 10000 13.9 270 23:25 27.06.2019
5523 Rain 6 1006 80 10000 11.8 270 22:54 27.06.2019
5524 Rain 6 1006 80 10000 15.4 280 22:36 27.06.2019
5525 Rain 6 1006 80 10000 15.4 280 22:18 27.06.2019
5526 Rain 6 1006 80 10000 10.8 280 21:42 27.06.2019
5527 Rain 6 1006 80 10000 13.4 280 21:24 27.06.2019
5528 Rain 5 1007 86 10000 14.9 300 20:50 27.06.2019
5529 Rain 6 1006 75 10000 13.4 290 20:31 27.06.2019
5530 Rain 5 1007 80 10000 13.9 280 19:59 27.06.2019
5531 Rain 5 1007 80 10000 13.9 280 19:40 27.06.2019
5532 Rain 5 1007 86 10000 15.9 290 19:22 27.06.2019
5533 Rain 6 1006 75 10000 13.9 270 18:42 27.06.2019
5534 Drizzle 5 1007 80 10000 15.4 270 18:19 27.06.2019
5535 Rain 6 1006 70 10000 11.3 270 17:41 27.06.2019
5536 Rain 7 1007 75 10000 10.3 280 17:22 27.06.2019
5537 Rain 6 1007 86 10000 9.3 280 16:39 27.06.2019
5538 Rain 6 1006 86 10000 14.9 280 16:19 27.06.2019
5539 Rain 6 1006 87 10000 13.4 260 15:51 27.06.2019
5540 Rain 6 1006 81 10000 14.4 270 15:31 27.06.2019
5541 Rain 6 1006 75 10000 17 280 14:57 27.06.2019
5542 Rain 8 1006 70 10000 19.5 280 14:36 27.06.2019
5543 Rain 8 1006 70 10000 19.5 280 14:18 27.06.2019
5544 Clouds 8 1006 65 10000 19 270 13:42 27.06.2019
5545 Clouds 8 1007 81 10000 16.5 270 13:24 27.06.2019
5546 Clouds 8 1007 75 10000 15.9 280 12:48 27.06.2019
5547 Clouds 8 1007 75 10000 12.3 290 12:24 27.06.2019
5548 Clouds 6 1007 81 10000 14.4 280 11:47 27.06.2019
5549 Rain 6 1007 81 10000 15.9 280 11:23 27.06.2019
5550 Rain 6 1007 81 10000 15.9 280 11:23 27.06.2019
5551 Rain 7 1007 75 10000 11.8 290 10:57 27.06.2019
5552 Rain 7 1007 75 10000 15.9 290 10:37 27.06.2019
5553 Rain 7 1007 75 10000 15.9 290 10:19 27.06.2019
5554 Rain 7 1007 75 10000 12.9 300 09:38 27.06.2019
5555 Rain 7 1007 75 10000 12.9 300 09:20 27.06.2019
5556 Rain 7 1007 81 10000 11.3 300 08:48 27.06.2019
5557 Rain 7 1007 81 10000 12.9 300 08:26 27.06.2019
5558 Rain 7 1006 75 10000 12.9 290 07:44 27.06.2019
5559 Drizzle 6 1006 93 10000 17 310 06:57 27.06.2019
5560 Drizzle 6 1005 93 10000 13.4 310 06:30 27.06.2019
5561 Rain 7 1004 93 10000 11.3 270 03:51 27.06.2019
5562 Rain 7 1004 93 10000 12.3 270 02:42 27.06.2019
5563 Rain 8 1005 87 10000 9.3 240 01:26 27.06.2019
5564 Rain 8 1005 87 10000 10.3 250 00:49 27.06.2019
5565 Rain 8 1005 81 10000 12.3 270 00:26 27.06.2019
5566 Rain 8 1006 87 10000 12.3 270 23:48 26.06.2019
5567 Rain 8 1006 87 10000 12.3 280 23:23 26.06.2019
5568 Rain 9 1005 76 10000 8.2 210 22:58 26.06.2019
5569 Rain 9 1005 66 10000 8.2 200 22:39 26.06.2019
5570 Rain 9 1005 66 10000 8.2 200 22:19 26.06.2019
5571 Clear 10 1006 66 10000 8.2 200 21:42 26.06.2019
5572 Clouds 10 1006 76 10000 7.7 190 21:20 26.06.2019
5573 Clear 10 1007 76 10000 5.7 190 20:57 26.06.2019
5574 Clear 9 1007 81 10000 4.6 180 20:37 26.06.2019
5575 Clear 9 1007 81 10000 4.6 180 20:18 26.06.2019
5576 Clear 9 1008 81 10000 5.1 190 19:41 26.06.2019
5577 Clear 9 1008 81 10000 4.6 220 19:23 26.06.2019
5578 Clear 9 1009 81 10000 4.1 260 18:45 26.06.2019
5579 Clouds 9 1009 81 10000 6.7 270 18:22 26.06.2019
5580 Clouds 9 1010 81 10000 8.2 270 17:57 26.06.2019
5581 Clouds 9 1010 81 10000 9.8 280 17:37 26.06.2019
5582 Rain 9 1010 81 10000 9.8 280 17:18 26.06.2019
5583 Rain 9 1010 81 10000 12.3 280 16:46 26.06.2019
5584 Rain 9 1011 87 10000 8.7 270 16:22 26.06.2019
5585 Rain 10 1011 87 10000 9.3 260 15:37 26.06.2019
5586 Rain 10 1011 87 10000 9.3 260 15:19 26.06.2019
5587 Clouds 9 1011 87 10000 8.2 270 14:38 26.06.2019
5588 Clouds 9 1011 87 10000 8.2 270 14:19 26.06.2019
5589 Rain 9 1012 81 10000 7.7 260 13:42 26.06.2019
5590 Clouds 9 1012 81 10000 6.7 260 13:20 26.06.2019
5591 Clouds 9 1012 81 10000 7.7 260 12:41 26.06.2019
5592 Clouds 9 1012 81 10000 7.7 260 12:22 26.06.2019
5593 Clouds 8 1012 87 10000 6.7 270 11:45 26.06.2019
5594 Rain 10 1012 87 10000 7.2 260 11:20 26.06.2019
5595 Rain 9 1012 87 10000 8.7 260 10:45 26.06.2019
5596 Rain 10 1012 81 10000 8.7 270 10:25 26.06.2019
5597 Drizzle 10 1012 81 10000 10.3 270 09:44 26.06.2019
5598 Clouds 10 1012 76 10000 11.3 260 09:19 26.06.2019
5599 Clouds 10 1012 76 10000 10.3 270 08:44 26.06.2019
5600 Clouds 10 1013 76 10000 11.3 270 08:20 26.06.2019
5601 Clouds 10 1013 76 10000 11.3 270 07:46 26.06.2019
5602 Clouds 8 1013 81 10000 10.3 270 06:56 26.06.2019
5603 Rain 8 1013 81 10000 11.3 270 06:31 26.06.2019
5604 Rain 8 1016 87 10000 11.3 270 01:25 26.06.2019
5605 Clouds 8 1016 87 10000 9.8 270 00:25 26.06.2019
5606 Rain 8 1017 93 10000 8.7 260 23:46 25.06.2019
5607 Rain 8 1017 93 10000 10.3 260 23:27 25.06.2019
5608 Rain 8 1017 93 10000 10.3 260 22:57 25.06.2019
5609 Rain 8 1017 93 10000 10.3 260 22:57 25.06.2019
5610 Rain 9 1017 93 10000 12.3 270 22:38 25.06.2019
5611 Rain 9 1017 93 10000 12.3 270 22:20 25.06.2019
5612 Rain 9 1017 81 10000 12.9 270 21:43 25.06.2019
5613 Rain 9 1018 81 10000 11.8 270 21:22 25.06.2019
5614 Rain 9 1018 76 10000 11.3 270 20:45 25.06.2019
5615 Rain 9 1018 76 10000 11.3 270 20:45 25.06.2019
5616 Rain 9 1018 76 10000 11.3 270 20:45 25.06.2019
5617 Rain 9 1018 76 10000 10.8 260 20:22 25.06.2019
5618 Clouds 9 1018 76 10000 10.8 270 19:46 25.06.2019
5619 Clouds 10 1019 71 10000 10.3 270 19:23 25.06.2019
5620 Clouds 10 1019 71 10000 10.8 270 18:59 25.06.2019
5621 Clouds 10 1019 71 10000 10.8 270 18:40 25.06.2019
5622 Clouds 9 1019 76 10000 11.8 270 18:21 25.06.2019
5623 -273 0 0 0 0 0 17:30 25.06.2019
5624 Clouds 9 1020 81 10000 12.3 270 16:58 25.06.2019
5625 Clouds 10 1020 81 10000 12.3 270 16:39 25.06.2019
5626 Clouds 10 1020 71 10000 12.3 270 16:21 25.06.2019
5627 Clouds 10 1020 81 10000 13.4 270 15:42 25.06.2019
5628 Rain 9 1020 81 10000 11.8 270 15:24 25.06.2019
5629 Rain 9 1020 87 10000 11.8 270 14:54 25.06.2019
5630 Rain 9 1021 87 10000 10.3 270 14:35 25.06.2019
5631 Rain 8 1020 87 10000 10.3 280 13:47 25.06.2019
5632 Rain 8 1020 87 10000 10.3 280 13:47 25.06.2019
5633 Rain 9 1020 81 10000 11.8 280 13:29 25.06.2019
5634 Clouds 9 1020 81 10000 10.3 280 12:55 25.06.2019
5635 Clouds 9 1020 81 10000 10.8 280 12:37 25.06.2019
5636 Clouds 9 1020 81 10000 10.8 280 12:18 25.06.2019
5637 Clouds 9 1020 81 10000 10.3 270 11:43 25.06.2019
5638 Rain 10 1020 81 10000 10.8 270 11:21 25.06.2019
5639 Rain 9 1021 87 10000 10.3 270 10:45 25.06.2019
5640 Rain 9 1021 87 10000 10.3 270 10:23 25.06.2019
5641 Rain 8 1021 93 10000 11.3 270 09:56 25.06.2019
5642 Rain 8 1021 93 9000 9.8 270 09:38 25.06.2019
5643 Rain 8 1021 93 9000 9.8 270 09:19 25.06.2019
5644 Rain 9 1021 87 10000 10.3 270 08:47 25.06.2019
5645 Rain 9 1021 81 9000 8.7 280 08:28 25.06.2019
5646 Rain 9 1021 87 10000 8.7 280 07:40 25.06.2019
5647 Clouds 8 1021 81 10000 9.3 280 06:59 25.06.2019
5648 Clouds 8 1021 81 10000 9.3 280 06:40 25.06.2019
5649 Clouds 8 1022 81 10000 10.8 270 04:24 25.06.2019
5650 Clouds 8 1022 81 10000 10.8 280 02:25 25.06.2019
5651 Clouds 9 1022 76 10000 9.3 270 00:38 25.06.2019
5652 Clouds 9 1022 76 10000 9.3 270 00:18 25.06.2019
5653 Clouds 9 1022 76 10000 8.7 280 23:43 24.06.2019
5654 Rain 9 1022 76 10000 9.8 280 23:25 24.06.2019
5655 Rain 9 1022 81 10000 9.8 280 22:45 24.06.2019
5656 Rain 9 1022 81 10000 9.8 280 22:45 24.06.2019
5657 Rain 9 1022 76 10000 10.8 280 22:19 24.06.2019
5658 Clouds 10 1022 71 10000 9.3 280 21:42 24.06.2019
5659 Clouds 10 1022 81 10000 10.3 280 21:20 24.06.2019
5660 Clouds 10 1022 81 10000 8.2 260 20:59 24.06.2019
5661 Clouds 9 1022 81 10000 7.2 260 20:40 24.06.2019
5662 Clouds 9 1022 81 10000 7.2 260 20:22 24.06.2019
5663 Clouds 9 1022 87 10000 7.2 260 19:47 24.06.2019
5664 Clouds 9 1023 87 10000 6.7 260 19:25 24.06.2019
5665 Clouds 9 1023 81 10000 9.3 280 18:54 24.06.2019
5666 Clouds 10 1023 76 10000 8.7 270 18:30 24.06.2019
5667 Clouds 9 1023 81 10000 7.2 280 17:59 24.06.2019
5668 Clouds 10 1023 81 10000 7.7 280 17:36 24.06.2019
5669 Rain 10 1023 87 10000 7.7 280 16:56 24.06.2019
5670 Rain 10 1023 76 10000 4.1 270 16:37 24.06.2019
5671 Rain 10 1023 76 10000 4.1 270 16:19 24.06.2019
5672 Rain 11 1022 66 10000 5.7 290 15:40 24.06.2019
5673 Rain 11 1022 71 10000 5.1 290 15:21 24.06.2019
5674 Clouds 10 1022 87 10000 4.1 270 14:35 24.06.2019
5675 Clouds 9 1022 87 10000 5.1 270 13:58 24.06.2019
5676 Clouds 10 1022 81 10000 4.6 270 13:32 24.06.2019
5677 Clouds 10 1022 87 10000 5.7 290 12:54 24.06.2019
5678 Clouds 11 1022 81 10000 5.1 280 12:36 24.06.2019
5679 Clouds 11 1022 81 10000 5.1 280 12:18 24.06.2019
5680 Clouds 9 1022 87 10000 4.6 280 11:43 24.06.2019
5681 Clouds 11 1022 93 10000 4.6 270 11:23 24.06.2019
5682 Clouds 10 1021 93 10000 4.1 260 10:51 24.06.2019
5683 Clouds 10 1021 87 10000 5.1 270 10:28 24.06.2019
5684 Rain 10 1021 87 10000 4.6 270 09:49 24.06.2019
5685 Rain 10 1021 81 10000 4.1 270 09:23 24.06.2019
5686 Clouds 10 1021 81 10000 3.1 280 08:53 24.06.2019
5687 Clouds 10 1021 81 10000 5.1 280 08:32 24.06.2019
5688 Drizzle 9 1021 81 10000 5.1 280 07:47 24.06.2019
5689 Clouds 10 1020 81 10000 5.1 290 07:27 24.06.2019
5690 Clouds 9 1020 87 10000 5.1 290 06:52 24.06.2019
5691 Clouds 9 1020 87 10000 4.1 290 06:22 24.06.2019
5692 Clouds 9 1020 87 10000 4.1 280 05:28 24.06.2019
5693 Clouds 9 1020 87 10000 4.1 280 04:28 24.06.2019
5694 Clouds 9 1019 87 10000 3.6 270 03:32 24.06.2019
5695 Clouds 9 1019 87 10000 3.1 280 02:33 24.06.2019
5696 Clouds 9 1019 87 10000 2.6 300 01:54 24.06.2019
5697 Clouds 9 1019 87 10000 3.6 300 01:27 24.06.2019
5698 Clouds 9 1019 87 10000 3.6 320 00:42 24.06.2019
5699 Clouds 9 1019 87 10000 3.6 320 00:19 24.06.2019
5700 Clouds 9 1019 87 10000 4.1 330 23:46 23.06.2019
5701 Clouds 9 1018 87 10000 3.6 330 23:27 23.06.2019
5702 Clouds 10 1018 81 10000 4.6 330 22:44 23.06.2019
5703 Clouds 10 1018 76 10000 4.1 330 22:21 23.06.2019
5704 Clouds 11 1018 81 10000 3.6 330 21:58 23.06.2019
5705 Clouds 11 1018 81 10000 3.6 330 21:40 23.06.2019
5706 Clouds 10 1018 81 10000 4.1 330 21:21 23.06.2019
5707 Clouds 11 1018 81 10000 4.6 330 20:43 23.06.2019
5708 Clouds 11 1017 76 10000 5.1 330 20:25 23.06.2019
5709 Clouds 11 1017 76 10000 5.1 330 19:45 23.06.2019
5710 Clouds 11 1017 76 10000 5.1 330 19:21 23.06.2019
5711 Clear 11 1017 76 10000 6.2 330 18:54 23.06.2019
5712 Clear 11 1017 71 10000 5.7 330 18:24 23.06.2019
5713 Clear 11 1016 66 10000 5.7 330 17:53 23.06.2019
5714 Clear 12 1016 50 10000 5.7 330 17:27 23.06.2019
5715 Clear 11 1016 50 10000 4.6 330 16:59 23.06.2019
5716 Clear 11 1016 50 10000 4.6 330 16:40 23.06.2019
5717 Clear 11 1016 47 10000 4.1 330 16:21 23.06.2019
5718 Clear 11 1015 50 10000 4.1 300 15:41 23.06.2019
5719 Clear 11 1015 47 10000 4.1 280 15:22 23.06.2019
5720 Clear 11 1015 43 10000 3.1 300 14:42 23.06.2019
5721 Clear 14 1015 41 10000 3.1 290 14:23 23.06.2019
5722 Clear 14 1014 41 10000 1 0 13:58 23.06.2019
5723 Clear 14 1014 41 10000 1 0 13:40 23.06.2019
5724 Clear 14 1014 41 10000 1 0 13:19 23.06.2019
5725 Clear 13 1014 50 10000 2.6 100 12:44 23.06.2019
5726 Clear 12 1014 50 10000 3.1 100 12:22 23.06.2019
5727 Clear 12 1014 50 10000 3.1 100 11:55 23.06.2019
5728 Clear 11 1013 53 10000 4.1 90 11:37 23.06.2019
5729 Clear 11 1013 53 10000 4.1 90 11:19 23.06.2019
5730 Clear 11 1013 53 10000 3.1 80 10:43 23.06.2019
5731 Clear 12 1013 54 10000 3.1 90 10:18 23.06.2019
5732 Clear 11 1012 53 10000 4.1 100 09:39 23.06.2019
5733 Clear 11 1012 53 10000 3.6 110 09:20 23.06.2019
5734 Clear 10 1012 57 10000 3.1 110 08:44 23.06.2019
5735 Clear 10 1012 53 10000 4.1 80 08:26 23.06.2019
5736 Clouds 10 1012 53 10000 4.1 80 07:53 23.06.2019
5737 Clouds 10 1011 53 10000 3.1 90 07:21 23.06.2019
5738 Clouds 10 1011 53 10000 3.6 100 06:54 23.06.2019
5739 Clouds 9 1010 57 10000 4.6 80 05:55 23.06.2019
5740 Clouds 7 1010 65 10000 4.6 100 04:30 23.06.2019
5741 Clouds 7 1009 70 10000 6.2 80 01:54 23.06.2019
5742 Clouds 8 1008 65 10000 5.1 80 01:35 23.06.2019
5743 Clouds 8 1008 65 10000 5.1 90 00:36 23.06.2019
5744 Clouds 8 1008 65 10000 6.2 90 23:54 22.06.2019
5745 Clouds 9 1007 61 10000 6.2 90 23:27 22.06.2019
5746 Clouds 9 1007 66 10000 6.2 90 22:49 22.06.2019
5747 Clouds 9 1007 66 10000 7.2 100 22:31 22.06.2019
5748 Clouds 9 1007 66 10000 6.7 90 21:59 22.06.2019
5749 Clouds 9 1007 70 10000 8.2 90 21:37 22.06.2019
5750 Clouds 9 1007 70 10000 8.2 90 21:19 22.06.2019
5751 Clouds 10 1007 66 10000 8.7 90 20:50 22.06.2019
5752 Clouds 10 1007 66 10000 8.7 90 20:50 22.06.2019
5753 Clouds 10 1006 66 10000 8.7 100 20:25 22.06.2019
5754 Clouds 10 1006 66 10000 6.7 90 19:47 22.06.2019
5755 Clouds 10 1006 71 10000 9.3 90 19:23 22.06.2019
5756 Clouds 11 1006 66 10000 9.8 90 18:48 22.06.2019
5757 Clouds 10 1006 71 10000 8.7 100 18:30 22.06.2019
5758 Clouds 10 1006 71 10000 10.8 100 17:56 22.06.2019
5759 Clouds 10 1006 76 10000 9.3 100 17:34 22.06.2019
5760 Clouds 11 1006 71 10000 7.7 100 16:51 22.06.2019
5761 Clouds 11 1006 66 10000 8.7 110 16:25 22.06.2019
5762 Clouds 11 1006 71 10000 6.7 100 15:58 22.06.2019
5763 Clouds 11 1006 66 10000 6.7 110 15:39 22.06.2019
5764 Clouds 11 1006 66 10000 6.7 110 15:21 22.06.2019
5765 Clear 13 1006 58 10000 6.2 90 14:37 22.06.2019
5766 Clear 13 1006 58 10000 6.2 90 14:18 22.06.2019
5767 Clouds 12 1006 66 10000 6.7 100 13:42 22.06.2019
5768 Clear 11 1006 66 10000 6.7 90 13:22 22.06.2019
5769 Clouds 12 1005 62 10000 5.7 90 12:52 22.06.2019
5770 Clear 12 1006 62 10000 4.1 80 12:33 22.06.2019
5771 Clear 12 1005 62 10000 5.1 80 11:58 22.06.2019
5772 Clear 12 1005 62 10000 2.6 100 11:33 22.06.2019
5773 Clouds 12 1005 62 10000 4.1 70 10:53 22.06.2019
5774 Clear 11 1005 66 10000 5.7 90 10:21 22.06.2019
5775 Clear 11 1005 66 10000 5.7 90 10:21 22.06.2019
5776 Clear 11 1005 66 10000 5.1 90 09:55 22.06.2019
5777 Clear 11 1005 66 10000 5.1 90 09:23 22.06.2019
5778 Clear 11 1005 66 10000 3.6 90 08:43 22.06.2019
5779 Clouds 11 1005 66 10000 4.6 110 08:23 22.06.2019
5780 Clouds 10 1005 66 10000 4.6 110 07:35 22.06.2019
5781 Clouds 10 1005 66 10000 7.7 90 06:56 22.06.2019
5782 Drizzle 10 1006 66 10000 7.2 120 05:23 22.06.2019
5783 Clouds 10 1006 71 10000 4.6 120 02:34 22.06.2019
5784 Drizzle 10 1006 71 10000 5.7 110 01:24 22.06.2019
5785 Clouds 11 1006 66 10000 5.7 110 00:46 22.06.2019
5786 Clouds 11 1006 66 10000 5.7 100 00:22 22.06.2019
5787 Clouds 11 1006 66 10000 5.1 100 23:44 21.06.2019
5788 Rain 11 1006 62 10000 4.1 100 23:22 21.06.2019
5789 Rain 11 1006 62 10000 6.7 90 22:53 21.06.2019
5790 Rain 12 1006 58 10000 8.2 100 22:25 21.06.2019
5791 Rain 12 1006 62 10000 8.2 100 21:55 21.06.2019
5792 Rain 12 1006 58 10000 8.7 100 21:37 21.06.2019
5793 Rain 12 1006 58 10000 8.7 100 21:18 21.06.2019
5794 Rain 13 1006 58 10000 8.7 90 20:45 21.06.2019
5795 Clear 13 1006 58 10000 8.7 100 20:22 21.06.2019
5796 Clear 14 1006 54 10000 8.7 90 19:37 21.06.2019
5797 Clear 14 1006 54 10000 8.7 90 18:54 21.06.2019
5798 Clouds 14 1007 54 10000 8.7 90 18:34 21.06.2019
5799 Clear 13 1007 54 10000 8.2 90 17:47 21.06.2019
5800 Clear 14 1007 51 10000 7.7 90 17:29 21.06.2019
5801 Clear 14 1007 48 10000 8.2 90 16:42 21.06.2019
5802 Clear 15 1007 48 10000 8.7 100 16:22 21.06.2019
5803 Clear 15 1007 48 10000 8.7 90 15:43 21.06.2019
5804 Clear 14 1007 45 10000 8.7 80 15:23 21.06.2019
5805 Clear 15 1007 45 10000 9.3 90 14:52 21.06.2019
5806 Clear 15 1008 48 10000 8.7 90 14:31 21.06.2019
5807 Clear 15 1008 44 10000 9.8 80 13:58 21.06.2019
5808 Clear 16 1008 48 10000 7.7 80 13:36 21.06.2019
5809 Clear 16 1008 48 10000 7.7 80 13:18 21.06.2019
5810 Clear 15 1008 47 10000 7.7 90 12:40 21.06.2019
5811 Clear 15 1008 47 10000 7.7 90 12:18 21.06.2019
5812 Clear 15 1008 51 10000 7.2 100 11:47 21.06.2019
5813 Clear 14 1008 47 10000 6.7 100 11:26 21.06.2019
5814 Clear 14 1009 50 10000 7.2 100 10:52 21.06.2019
5815 Clear 14 1009 50 10000 7.7 120 10:23 21.06.2019
5816 Clear 13 1009 54 10000 6.7 90 09:59 21.06.2019
5817 Clear 13 1009 54 10000 6.7 90 09:40 21.06.2019
5818 Clear 13 1009 54 10000 7.7 100 09:19 21.06.2019
5819 Clear 13 1009 58 10000 6.7 110 08:43 21.06.2019
5820 Clear 12 1010 58 10000 6.7 130 08:24 21.06.2019
5821 Clear 12 1010 62 10000 7.7 130 07:52 21.06.2019
5822 Clear 11 1010 57 10000 8.2 120 07:30 21.06.2019
5823 Clear 11 1010 62 10000 7.2 100 06:54 21.06.2019
5824 Clouds 11 1010 62 10000 7.2 100 06:21 21.06.2019
5825 Clear 9 1011 66 10000 6.2 100 05:26 21.06.2019
5826 Clear 7 1011 75 10000 4.6 90 04:29 21.06.2019
5827 Clear 7 1012 70 10000 5.1 90 03:34 21.06.2019
5828 Clouds 8 1012 65 10000 5.1 90 02:53 21.06.2019
5829 Clouds 6 1012 81 10000 6.2 90 01:53 21.06.2019
5830 Clear 7 1013 75 10000 6.2 90 00:56 21.06.2019
5831 Clear 6 1013 81 10000 7.2 80 00:23 21.06.2019
5832 Clear 7 1013 75 10000 6.2 90 23:49 20.06.2019
5833 Clear 9 1013 75 10000 5.7 100 23:23 20.06.2019
5834 Clear 9 1013 75 10000 6.2 80 22:58 20.06.2019
5835 Clear 9 1013 75 10000 6.2 90 22:39 20.06.2019
5836 Clear 9 1013 75 10000 6.2 90 22:20 20.06.2019
5837 Clear 9 1013 75 10000 5.1 90 21:49 20.06.2019
5838 Clear 9 1013 75 10000 6.2 80 21:19 20.06.2019
5839 Clear 9 1013 75 10000 5.7 80 20:58 20.06.2019
5840 Clear 9 1013 75 10000 5.7 80 20:39 20.06.2019
5841 Clear 9 1013 75 10000 5.7 80 20:18 20.06.2019
5842 Clear 7 1014 70 10000 5.7 70 19:39 20.06.2019
5843 Clear 9 1014 75 10000 6.2 70 19:18 20.06.2019
5844 Clear 9 1014 70 10000 5.7 70 18:43 20.06.2019
5845 Clear 9 1014 70 10000 4.6 70 18:23 20.06.2019
5846 Clear 8 1014 70 10000 4.6 60 17:57 20.06.2019
5847 Clear 8 1014 65 10000 4.6 60 17:39 20.06.2019
5848 Clear 10 1014 65 10000 2.6 360 16:58 20.06.2019
5849 Clear 10 1014 61 10000 2.6 360 16:39 20.06.2019
5850 Clear 10 1014 61 10000 2.6 360 16:19 20.06.2019
5851 Clouds 9 1014 65 10000 3.6 350 15:43 20.06.2019
5852 Clouds 10 1014 70 10000 3.1 350 15:23 20.06.2019
5853 Clouds 10 1014 65 10000 3.6 340 14:54 20.06.2019
5854 Clouds 9 1014 61 10000 4.1 350 14:24 20.06.2019
5855 Clouds 9 1014 66 10000 5.1 350 13:59 20.06.2019
5856 Clouds 9 1014 61 10000 4.1 350 13:37 20.06.2019
5857 Clouds 9 1014 61 10000 4.1 350 13:18 20.06.2019
5858 Clouds 10 1013 61 10000 4.6 350 12:41 20.06.2019
5859 Clouds 10 1013 61 10000 4.6 350 12:19 20.06.2019
5860 Clouds 9 1013 66 10000 4.1 340 11:41 20.06.2019
5861 Clouds 9 1013 66 10000 4.1 330 11:22 20.06.2019
5862 Clouds 9 1013 66 10000 4.1 330 11:22 20.06.2019
5863 Clouds 9 1013 61 10000 4.1 320 10:44 20.06.2019
5864 Clouds 9 1013 66 10000 4.1 320 10:24 20.06.2019
5865 Clouds 9 1013 70 10000 3.6 340 09:55 20.06.2019
5866 Clouds 9 1013 70 10000 3.6 330 09:36 20.06.2019
5867 Clouds 9 1013 70 10000 3.6 330 09:36 20.06.2019
5868 Clouds 9 1013 70 10000 3.6 330 09:18 20.06.2019
5869 Clouds 8 1013 75 10000 3.6 310 08:43 20.06.2019
5870 Clouds 8 1013 75 10000 4.6 300 08:22 20.06.2019
5871 Clouds 8 1013 75 10000 4.1 300 07:44 20.06.2019
5872 Clouds 6 1013 81 10000 5.1 290 07:25 20.06.2019
5873 Clouds 6 1013 81 10000 4.1 300 06:20 20.06.2019
5874 Clouds 6 1012 81 10000 3.6 330 03:41 20.06.2019
5875 Clouds 6 1012 81 10000 4.1 320 02:26 20.06.2019
5876 Clouds 6 1012 75 10000 6.7 290 00:33 20.06.2019
5877 Clouds 6 1011 81 10000 6.7 290 23:48 19.06.2019
5878 Clouds 6 1011 81 10000 7.2 290 23:29 19.06.2019
5879 Clouds 7 1011 75 10000 6.7 300 22:49 19.06.2019
5880 Clouds 7 1011 75 10000 5.7 310 22:25 19.06.2019
5881 Clouds 7 1011 75 10000 5.1 310 21:58 19.06.2019
5882 Clouds 7 1011 70 10000 5.7 330 21:39 19.06.2019
5883 Clouds 7 1011 70 10000 5.7 330 21:20 19.06.2019
5884 Clouds 8 1011 65 10000 5.7 330 20:41 19.06.2019
5885 Clouds 8 1011 65 10000 5.7 330 20:21 19.06.2019
5886 Clouds 8 1011 65 10000 6.2 320 19:46 19.06.2019
5887 Clouds 8 1011 65 10000 5.1 340 19:26 19.06.2019
5888 Clouds 8 1010 70 10000 5.1 330 18:56 19.06.2019
5889 Clouds 8 1010 65 10000 5.7 350 18:24 19.06.2019
5890 Clouds 8 1010 61 10000 4.6 340 17:48 19.06.2019
5891 -273 0 0 0 0 0 17:27 19.06.2019
5892 Clouds 8 1010 65 10000 4.1 330 16:56 19.06.2019
5893 Clouds 8 1010 61 10000 4.1 340 16:37 19.06.2019
5894 Clouds 8 1010 61 10000 4.1 340 16:19 19.06.2019
5895 Clouds 8 1010 65 10000 3.6 350 15:45 19.06.2019
5896 Clouds 8 1010 70 10000 3.6 350 15:24 19.06.2019
5897 Clouds 8 1010 70 10000 3.6 350 15:24 19.06.2019
5898 Clouds 8 1010 70 10000 3.6 350 15:24 19.06.2019
5899 Clouds 8 1009 61 10000 3.1 340 14:44 19.06.2019
5900 Clouds 8 1009 65 10000 3.1 350 14:26 19.06.2019
5901 Clouds 8 1009 65 10000 3.6 360 13:48 19.06.2019
5902 Clouds 8 1009 65 10000 3.1 340 13:29 19.06.2019
5903 Clouds 8 1009 70 10000 3.6 330 12:59 19.06.2019
5904 Clouds 8 1009 70 10000 3.6 330 12:41 19.06.2019
5905 Clouds 8 1009 65 10000 3.1 330 12:19 19.06.2019
5906 Clouds 7 1008 75 10000 3.1 350 11:43 19.06.2019
5907 Clouds 8 1008 70 10000 3.6 10 11:23 19.06.2019
5908 Clouds 7 1008 75 10000 4.1 360 10:51 19.06.2019
5909 Clouds 7 1008 75 10000 4.1 360 10:30 19.06.2019
5910 Clouds 7 1008 75 10000 4.1 360 09:58 19.06.2019
5911 Clouds 7 1008 75 10000 4.6 360 09:38 19.06.2019
5912 Clouds 7 1008 75 10000 4.6 360 09:19 19.06.2019
5913 Clouds 7 1007 75 10000 4.1 360 08:48 19.06.2019
5914 Rain 6 1007 75 10000 3.6 360 08:27 19.06.2019
5915 Clouds 6 1007 75 10000 4.1 10 07:46 19.06.2019
5916 Clouds 5 1007 80 10000 4.6 10 07:23 19.06.2019
5917 Clouds 5 1007 80 10000 4.1 10 06:44 19.06.2019
5918 Clouds 5 1007 80 10000 4.1 360 06:22 19.06.2019
5919 Clouds 5 1007 86 10000 4.1 360 05:47 19.06.2019
5920 Clear 5 1007 86 10000 2.6 350 04:19 19.06.2019
5921 Clear 5 1007 86 10000 2.6 20 03:18 19.06.2019
5922 Clear 6 1007 81 10000 2.6 70 01:48 19.06.2019
5923 Clear 6 1007 81 10000 2.6 70 01:18 19.06.2019
5924 Clear 6 1007 81 10000 3.6 70 00:43 19.06.2019
5925 Clear 6 1007 75 10000 3.6 60 00:20 19.06.2019
5926 Clear 6 1007 75 10000 3.6 60 23:46 18.06.2019
5927 Clear 8 1007 75 10000 4.1 70 23:26 18.06.2019
5928 Clear 7 1007 75 10000 3.6 70 22:45 18.06.2019
5929 Clear 7 1007 75 10000 4.1 70 22:24 18.06.2019
5930 Clear 7 1007 75 10000 5.1 80 21:57 18.06.2019
5931 Clear 8 1007 75 10000 5.1 80 21:38 18.06.2019
5932 Clear 8 1007 75 10000 5.1 80 21:20 18.06.2019
5933 Clear 8 1007 75 10000 4.6 80 20:43 18.06.2019
5934 Clear 8 1008 75 10000 5.7 70 20:25 18.06.2019
5935 Clear 8 1008 75 10000 5.7 70 19:41 18.06.2019
5936 Clear 8 1008 70 10000 5.7 70 19:23 18.06.2019
5937 Clear 8 1008 70 10000 6.2 80 18:59 18.06.2019
5938 Clear 9 1008 70 10000 6.7 70 18:37 18.06.2019
5939 Clear 9 1008 70 10000 6.7 70 18:18 18.06.2019
5940 -273 0 0 0 0 0 17:39 18.06.2019
5941 Clear 7 1009 70 10000 5.7 70 17:39 18.06.2019
5942 Clear 9 1009 70 10000 5.7 70 17:19 18.06.2019
5943 Clouds 9 1009 65 10000 4.6 70 16:43 18.06.2019
5944 Clouds 9 1009 65 10000 4.6 70 16:43 18.06.2019
5945 Clouds 9 1009 65 10000 5.1 80 16:24 18.06.2019
5946 Clear 10 1009 65 10000 5.1 70 15:43 18.06.2019
5947 Clear 9 1009 65 10000 5.1 70 15:25 18.06.2019
5948 Clear 9 1009 65 10000 5.1 80 14:59 18.06.2019
5949 Clear 9 1009 65 10000 5.1 80 14:41 18.06.2019
5950 Clear 9 1009 65 10000 4.1 80 14:20 18.06.2019
5951 Clear 10 1009 61 10000 4.1 90 13:52 18.06.2019
5952 Clear 9 1009 65 10000 4.6 80 13:31 18.06.2019
5953 Clear 8 1010 65 10000 5.1 70 12:48 18.06.2019
5954 Clear 9 1010 65 10000 4.1 80 12:30 18.06.2019
5955 Clear 8 1010 70 10000 4.1 80 11:59 18.06.2019
5956 Clear 8 1010 70 10000 4.1 80 11:40 18.06.2019
5957 Clouds 8 1010 70 10000 5.1 80 11:20 18.06.2019
5958 Clouds 9 1010 70 10000 4.1 80 10:55 18.06.2019
5959 Clouds 8 1010 70 10000 4.1 80 10:36 18.06.2019
5960 Clouds 8 1010 70 10000 4.1 80 10:18 18.06.2019
5961 Clouds 8 1010 65 10000 1.5 0 09:36 18.06.2019
5962 Clouds 8 1010 65 10000 1.5 0 09:18 18.06.2019
5963 Clouds 8 1010 65 10000 1.5 330 08:42 18.06.2019
5964 Clouds 7 1010 70 10000 1.5 0 08:21 18.06.2019
5965 Clouds 6 1010 70 10000 2.1 340 07:37 18.06.2019
5966 Clouds 6 1010 70 10000 2.1 340 07:18 18.06.2019
5967 Clouds 5 1011 75 10000 1 0 05:39 18.06.2019
5968 Clouds 5 1011 75 10000 3.1 350 04:24 18.06.2019
5969 Clouds 5 1011 75 10000 4.6 360 02:52 18.06.2019
5970 Clouds 5 1011 80 10000 3.1 340 01:54 18.06.2019
5971 Clouds 5 1011 80 10000 3.1 340 01:24 18.06.2019
5972 Clouds 5 1011 80 10000 4.1 350 00:54 18.06.2019
5973 Clouds 5 1011 80 10000 4.6 350 00:24 18.06.2019
5974 Clouds 6 1011 75 10000 4.6 350 23:41 17.06.2019
5975 Clouds 6 1011 75 10000 3.1 330 23:19 17.06.2019
5976 Clouds 6 1011 80 10000 5.1 340 22:42 17.06.2019
5977 Clouds 6 1011 75 10000 5.1 340 22:22 17.06.2019
5978 Clouds 7 1010 80 10000 5.1 350 21:59 17.06.2019
5979 Clouds 7 1010 80 10000 5.1 350 21:41 17.06.2019
5980 Clouds 7 1011 80 10000 4.6 350 21:21 17.06.2019
5981 Clouds 8 1011 75 10000 6.7 350 20:37 17.06.2019
5982 Clouds 8 1011 75 10000 6.7 350 20:18 17.06.2019
5983 Clouds 8 1011 75 10000 6.7 340 19:42 17.06.2019
5984 Clouds 8 1011 75 10000 6.7 340 19:42 17.06.2019
5985 Clouds 8 1011 70 10000 6.7 340 19:23 17.06.2019
5986 Clouds 8 1011 70 10000 6.2 340 18:57 17.06.2019
5987 Clouds 8 1011 70 10000 6.7 340 18:37 17.06.2019
5988 Clouds 8 1011 70 10000 6.7 340 18:18 17.06.2019
5989 Clouds 8 1011 70 10000 6.7 340 18:18 17.06.2019
5990 Clouds 9 1011 65 10000 5.7 350 17:44 17.06.2019
5991 Clouds 9 1011 65 10000 5.7 350 17:26 17.06.2019
5992 Clouds 9 1011 70 10000 5.7 330 16:47 17.06.2019
5993 Clouds 9 1011 70 10000 5.7 330 16:29 17.06.2019
5994 Clouds 9 1011 65 10000 6.2 340 15:57 17.06.2019
5995 Clouds 9 1011 70 10000 6.2 350 15:38 17.06.2019
5996 Clouds 9 1011 70 10000 5.7 340 15:19 17.06.2019
5997 Clouds 9 1011 70 10000 5.7 340 14:51 17.06.2019
5998 Clouds 9 1011 65 10000 5.1 340 14:31 17.06.2019
5999 Clouds 9 1011 70 10000 4.6 330 13:54 17.06.2019
6000 Clouds 9 1011 65 10000 4.1 340 13:36 17.06.2019
6001 Clouds 9 1011 70 10000 4.6 350 13:18 17.06.2019
6002 Clouds 8 1010 75 10000 5.1 340 12:32 17.06.2019
6003 Clouds 8 1010 75 10000 5.7 320 11:51 17.06.2019
6004 -273 0 0 0 0 0 11:27 17.06.2019
6005 Clouds 7 1011 70 10000 6.2 320 10:59 17.06.2019
6006 Clouds 8 1011 75 10000 6.2 330 10:41 17.06.2019
6007 Clouds 7 1011 75 10000 6.2 320 10:22 17.06.2019
6008 Clouds 7 1011 75 10000 6.2 320 09:55 17.06.2019
6009 Clouds 7 1011 75 10000 6.2 330 09:30 17.06.2019
6010 Clouds 7 1011 75 10000 5.1 310 08:43 17.06.2019
6011 Clouds 7 1011 75 10000 5.1 310 08:23 17.06.2019
6012 Clouds 6 1011 75 10000 4.6 310 07:46 17.06.2019
6013 Clouds 6 1011 75 10000 4.6 310 07:28 17.06.2019
6014 Clouds 5 1011 80 10000 5.7 310 06:46 17.06.2019
6015 Clouds 6 1011 81 10000 6.2 310 05:50 17.06.2019
6016 Clear 5 1011 80 10000 6.2 300 04:52 17.06.2019
6017 Clear 5 1012 80 10000 4.6 300 03:50 17.06.2019
6018 Clouds 5 1012 86 10000 7.2 310 03:25 17.06.2019
6019 Clouds 5 1012 86 10000 7.2 320 02:42 17.06.2019
6020 Clear 5 1012 86 10000 7.2 320 02:18 17.06.2019
6021 Clouds 5 1012 86 10000 6.2 310 01:34 17.06.2019
6022 Clouds 6 1012 81 10000 7.2 300 00:47 17.06.2019
6023 Clouds 6 1012 81 10000 7.2 300 00:24 17.06.2019
6024 Clouds 6 1013 81 10000 8.7 300 23:58 16.06.2019
6025 Clouds 6 1013 81 10000 7.7 290 23:37 16.06.2019
6026 Clouds 7 1013 81 10000 7.7 300 23:19 16.06.2019
6027 Clouds 7 1013 81 10000 8.2 290 22:43 16.06.2019
6028 Clouds 7 1013 81 10000 8.2 300 22:19 16.06.2019
6029 Clouds 7 1013 81 10000 8.2 300 21:57 16.06.2019
6030 Clouds 7 1014 81 10000 7.2 300 21:39 16.06.2019
6031 Clouds 7 1014 81 10000 7.2 300 21:20 16.06.2019
6032 Clouds 7 1014 75 10000 9.8 290 20:38 16.06.2019
6033 Clouds 7 1014 75 10000 10.3 290 20:19 16.06.2019
6034 Clouds 7 1014 75 10000 10.3 290 19:58 16.06.2019
6035 Clouds 7 1014 75 10000 10.8 290 19:39 16.06.2019
6036 Clouds 8 1014 70 10000 9.8 290 19:19 16.06.2019
6037 Clouds 8 1014 70 10000 10.3 290 18:42 16.06.2019
6038 Clouds 8 1014 70 10000 10.3 290 18:21 16.06.2019
6039 Clouds 8 1014 70 10000 10.3 300 17:57 16.06.2019
6040 Clouds 8 1014 70 10000 10.3 300 17:57 16.06.2019
6041 Clouds 9 1014 70 10000 10.8 290 17:38 16.06.2019
6042 Clouds 8 1014 70 10000 10.8 290 17:20 16.06.2019
6043 Clouds 8 1014 75 10000 12.3 290 16:54 16.06.2019
6044 Clouds 8 1014 70 10000 11.8 290 16:36 16.06.2019
6045 Clouds 8 1014 70 10000 13.4 290 16:18 16.06.2019
6046 Clouds 8 1014 70 10000 12.9 280 15:38 16.06.2019
6047 Clouds 8 1014 70 10000 12.9 280 15:20 16.06.2019
6048 Clouds 9 1015 70 10000 12.9 280 14:39 16.06.2019
6049 Clouds 9 1015 70 10000 12.9 280 14:20 16.06.2019
6050 Clouds 8 1015 70 10000 11.8 290 13:48 16.06.2019
6051 Clouds 8 1015 70 10000 11.8 290 13:25 16.06.2019
6052 Clouds 8 1014 75 10000 8.2 270 12:46 16.06.2019
6053 Clouds 8 1014 75 10000 8.2 270 12:23 16.06.2019
6054 Clouds 7 1015 81 10000 8.7 280 11:59 16.06.2019
6055 Clouds 7 1015 81 10000 8.7 270 11:38 16.06.2019
6056 Clouds 7 1014 75 10000 9.3 280 11:19 16.06.2019
6057 Clouds 7 1014 75 10000 10.3 280 10:45 16.06.2019
6058 Clouds 7 1014 75 10000 10.3 280 10:20 16.06.2019
6059 Clouds 7 1014 81 10000 9.8 280 09:43 16.06.2019
6060 Clouds 7 1014 81 10000 9.8 280 09:24 16.06.2019
6061 Clouds 6 1014 87 10000 10.8 280 08:47 16.06.2019
6062 Clouds 6 1014 87 10000 10.8 280 08:21 16.06.2019
6063 Clouds 6 1014 87 10000 9.3 290 07:49 16.06.2019
6064 Clouds 6 1014 87 10000 9.3 290 07:31 16.06.2019
6065 Clouds 6 1014 87 10000 9.8 290 06:55 16.06.2019
6066 Clouds 6 1014 87 10000 11.8 290 06:20 16.06.2019
6067 Clouds 5 1014 93 10000 12.3 290 05:26 16.06.2019
6068 Clouds 6 1014 87 10000 12.9 290 04:26 16.06.2019
6069 Clouds 5 1014 93 10000 13.9 290 03:44 16.06.2019
6070 Rain 5 1014 93 10000 13.9 290 03:26 16.06.2019
6071 Rain 6 1014 87 10000 14.9 300 01:55 16.06.2019
6072 Rain 6 1013 87 10000 12.3 300 01:37 16.06.2019
6073 Rain 6 1013 87 10000 12.9 290 00:59 16.06.2019
6074 Rain 6 1013 87 10000 13.4 290 00:37 16.06.2019
6075 Rain 6 1013 87 10000 12.3 300 00:18 16.06.2019
6076 Rain 6 1013 87 10000 12.3 280 23:40 15.06.2019
6077 Rain 6 1013 87 10000 12.3 280 23:20 15.06.2019
6078 Rain 6 1013 87 10000 10.8 290 22:49 15.06.2019
6079 Rain 6 1013 87 10000 10.8 290 22:26 15.06.2019
6080 Rain 6 1013 87 10000 13.4 280 21:45 15.06.2019
6081 Rain 6 1013 87 10000 13.4 280 21:27 15.06.2019
6082 Rain 6 1013 87 10000 13.4 280 21:27 15.06.2019
6083 Rain 6 1014 87 10000 9.3 290 20:46 15.06.2019
6084 Rain 6 1014 87 10000 9.3 290 20:27 15.06.2019
6085 Rain 7 1014 81 10000 11.8 280 19:57 15.06.2019
6086 Rain 7 1014 81 10000 10.8 270 19:38 15.06.2019
6087 Rain 8 1014 75 10000 5.7 270 19:20 15.06.2019
6088 Rain 8 1014 81 10000 7.2 270 18:37 15.06.2019
6089 Clouds 9 1014 76 10000 10.8 260 18:19 15.06.2019
6090 Clouds 9 1015 70 10000 10.8 260 17:43 15.06.2019
6091 Clouds 9 1015 70 10000 10.8 260 17:21 15.06.2019
6092 Clear 9 1015 70 10000 7.2 260 16:45 15.06.2019
6093 Clear 9 1015 70 10000 9.3 260 16:19 15.06.2019
6094 Clear 9 1015 76 10000 7.2 240 15:42 15.06.2019
6095 Clear 9 1015 76 10000 7.2 240 15:23 15.06.2019
6096 Clear 9 1015 76 10000 7.2 240 15:23 15.06.2019
6097 Clouds 8 1016 81 10000 8.2 270 14:42 15.06.2019
6098 Clouds 8 1016 75 10000 6.7 260 14:19 15.06.2019
6099 Clouds 8 1016 75 10000 6.7 260 13:56 15.06.2019
6100 Clouds 8 1016 75 10000 7.2 260 13:38 15.06.2019
6101 Clouds 8 1016 75 10000 7.2 260 13:38 15.06.2019
6102 Clouds 7 1016 81 10000 8.7 260 13:18 15.06.2019
6103 Clouds 7 1017 81 10000 7.7 250 12:44 15.06.2019
6104 Clouds 7 1017 81 10000 7.7 250 12:23 15.06.2019
6105 Clouds 6 1017 87 10000 5.7 280 11:49 15.06.2019
6106 Clouds 6 1017 87 10000 5.7 280 11:30 15.06.2019
6107 Clouds 6 1017 87 10000 7.7 280 10:46 15.06.2019
6108 Clouds 6 1017 87 10000 7.7 280 10:25 15.06.2019
6109 Clouds 5 1017 93 10000 6.2 270 09:48 15.06.2019
6110 Clouds 5 1017 93 10000 6.2 270 09:27 15.06.2019
6111 Clouds 5 1018 86 10000 5.7 270 08:56 15.06.2019
6112 Clouds 5 1018 86 10000 6.2 280 08:38 15.06.2019
6113 Clouds 5 1018 93 10000 6.2 280 08:18 15.06.2019
6114 Clouds 4 1018 100 10000 6.2 280 07:26 15.06.2019
6115 Mist 4 1019 93 10000 6.2 300 06:49 15.06.2019
6116 Mist 4 1019 93 10000 6.2 300 06:30 15.06.2019
6117 -273 0 0 0 0 0 05:40 15.06.2019
6118 Mist 4 1018 93 9000 6.2 300 04:59 15.06.2019
6119 Mist 4 1018 93 9000 6.2 300 04:59 15.06.2019
6120 Clouds 4 1019 93 10000 6.2 300 04:29 15.06.2019
6121 Clouds 4 1019 93 10000 6.7 290 03:33 15.06.2019
6122 Clouds 4 1019 93 10000 6.7 290 03:33 15.06.2019
6123 Clouds 4 1019 93 10000 6.2 290 02:37 15.06.2019
6124 Clouds 4 1019 93 10000 5.7 290 01:58 15.06.2019
6125 Clouds 5 1020 86 10000 6.7 300 01:25 15.06.2019
6126 Clouds 5 1020 86 10000 6.2 290 00:43 15.06.2019
6127 Clouds 5 1020 86 10000 6.2 290 00:25 15.06.2019
6128 Clouds 5 1020 86 10000 7.7 290 23:51 14.06.2019
6129 Clouds 5 1020 86 10000 6.7 290 23:21 14.06.2019
6130 Drizzle 6 1020 93 10000 5.7 300 22:42 14.06.2019
6131 Drizzle 6 1020 93 10000 5.7 300 22:21 14.06.2019
6132 Drizzle 6 1020 93 7000 5.1 310 21:49 14.06.2019
6133 Drizzle 6 1020 93 7000 5.1 310 21:29 14.06.2019
6134 Drizzle 6 1020 86 8000 5.7 320 20:58 14.06.2019
6135 Clouds 6 1020 93 10000 6.2 320 20:39 14.06.2019
6136 Clouds 5 1020 86 10000 6.7 320 20:18 14.06.2019
6137 Clouds 6 1020 81 10000 7.2 310 19:42 14.06.2019
6138 Clouds 6 1020 81 10000 7.2 310 19:22 14.06.2019
6139 Clouds 6 1020 87 10000 6.2 310 18:55 14.06.2019
6140 Clouds 6 1020 87 10000 6.2 310 18:55 14.06.2019
6141 Clouds 6 1020 81 10000 6.7 310 18:37 14.06.2019
6142 Clouds 6 1020 81 10000 6.7 310 18:18 14.06.2019
6143 Clouds 6 1020 81 10000 6.7 310 17:46 14.06.2019
6144 Clouds 7 1020 81 10000 6.7 310 17:24 14.06.2019
6145 Clouds 6 1021 86 10000 8.2 310 16:54 14.06.2019
6146 -273 0 0 0 0 0 16:27 14.06.2019
6147 Clouds 7 1020 81 10000 8.2 300 15:59 14.06.2019
6148 Clouds 7 1021 81 10000 10.8 300 15:39 14.06.2019
6149 Clouds 7 1021 75 10000 9.8 290 15:20 14.06.2019
6150 Clouds 7 1021 75 10000 9.8 290 14:50 14.06.2019
6151 Clouds 7 1021 70 10000 9.3 310 14:31 14.06.2019
6152 Clouds 7 1020 70 10000 9.3 300 13:49 14.06.2019
6153 Clouds 7 1020 70 10000 9.3 300 13:30 14.06.2019
6154 -273 0 0 0 0 0 13:00 14.06.2019
6155 Clouds 7 1021 70 10000 8.7 290 12:40 14.06.2019
6156 Clouds 7 1021 70 10000 8.7 290 12:22 14.06.2019
6157 Clouds 6 1021 75 10000 9.3 290 11:44 14.06.2019
6158 Clouds 6 1021 75 10000 9.3 290 11:24 14.06.2019
6159 Clouds 6 1021 70 10000 7.7 300 10:50 14.06.2019
6160 Clouds 6 1021 75 10000 7.7 300 10:23 14.06.2019
6161 Clouds 7 1021 75 10000 8.2 290 09:56 14.06.2019
6162 Clouds 7 1021 75 10000 8.2 290 09:38 14.06.2019
6163 Clouds 6 1021 75 10000 7.2 280 09:19 14.06.2019
6164 Clouds 6 1021 75 10000 6.7 280 08:41 14.06.2019
6165 Clouds 6 1022 75 10000 6.2 300 08:18 14.06.2019
6166 Clouds 4 1022 80 10000 6.2 320 07:45 14.06.2019
6167 Clouds 4 1022 80 10000 6.2 330 07:19 14.06.2019
6168 Clouds 4 1022 80 10000 5.7 320 06:27 14.06.2019
6169 Clouds 4 1022 80 10000 5.7 320 06:27 14.06.2019
6170 Clear 4 1022 80 10000 5.1 300 05:54 14.06.2019
6171 Clouds 4 1023 80 10000 4.6 320 04:56 14.06.2019
6172 Clouds 4 1023 80 10000 4.1 330 04:32 14.06.2019
6173 Clouds 4 1023 80 10000 3.1 330 03:49 14.06.2019
6174 Clouds 4 1023 80 10000 3.1 330 03:24 14.06.2019
6175 Clouds 4 1024 80 10000 1.5 330 02:45 14.06.2019
6176 Clouds 4 1024 80 10000 2.1 320 01:56 14.06.2019
6177 Clouds 4 1025 86 10000 5.1 360 00:46 14.06.2019
6178 Clouds 4 1025 86 10000 5.1 360 00:22 14.06.2019
6179 Clouds 4 1024 86 10000 5.7 360 23:53 13.06.2019
6180 Clouds 5 1024 80 10000 5.1 20 23:27 13.06.2019
6181 Clouds 7 1025 86 10000 4.1 10 22:59 13.06.2019
6182 Clear 7 1024 80 10000 4.1 10 22:39 13.06.2019
6183 Clear 7 1024 80 10000 4.1 10 22:20 13.06.2019
6184 Clear 8 1025 75 10000 4.1 40 21:39 13.06.2019
6185 Clear 9 1025 75 10000 5.7 50 21:20 13.06.2019
6186 Clear 9 1025 75 10000 6.2 40 20:45 13.06.2019
6187 Clear 9 1025 75 10000 6.2 40 20:22 13.06.2019
6188 Clear 7 1025 75 10000 7.2 30 19:57 13.06.2019
6189 Clear 7 1025 75 10000 6.2 30 19:37 13.06.2019
6190 Clear 7 1025 75 10000 6.2 30 19:19 13.06.2019
6191 Clear 7 1025 75 10000 6.2 30 18:54 13.06.2019
6192 Clear 8 1025 70 10000 5.7 30 18:36 13.06.2019
6193 Clear 8 1025 70 10000 5.1 30 18:18 13.06.2019
6194 Clear 9 1025 70 10000 4.6 20 17:41 13.06.2019
6195 Clear 12 1025 70 10000 4.6 360 17:20 13.06.2019
6196 Clear 12 1025 66 10000 4.6 10 16:46 13.06.2019
6197 Clear 12 1025 66 10000 4.6 10 16:21 13.06.2019
6198 Clear 12 1025 70 10000 4.6 10 15:56 13.06.2019
6199 Clear 12 1025 66 10000 5.1 360 15:38 13.06.2019
6200 Clear 12 1025 66 10000 4.1 30 15:18 13.06.2019
6201 Clear 10 1025 66 10000 4.6 360 14:44 13.06.2019
6202 Clear 10 1025 66 10000 4.6 360 14:23 13.06.2019
6203 Clear 11 1025 62 10000 3.1 70 13:46 13.06.2019
6204 Clear 11 1025 62 10000 3.1 70 13:21 13.06.2019
6205 Clear 10 1025 66 10000 4.1 80 12:44 13.06.2019
6206 Clear 10 1025 66 10000 4.1 80 12:23 13.06.2019
6207 Clear 10 1025 66 10000 4.1 80 12:23 13.06.2019
6208 Clear 10 1025 61 10000 4.1 70 11:59 13.06.2019
6209 Clear 10 1025 61 10000 4.1 70 11:41 13.06.2019
6210 Clear 10 1025 61 10000 4.1 70 11:21 13.06.2019
6211 Clear 10 1025 61 10000 5.1 70 10:46 13.06.2019
6212 Clear 10 1025 61 10000 5.1 70 10:27 13.06.2019
6213 Clear 10 1025 61 10000 5.1 70 10:27 13.06.2019
6214 Clear 10 1025 57 10000 1.5 360 09:45 13.06.2019
6215 Clear 10 1025 57 10000 1.5 360 09:25 13.06.2019
6216 Clear 10 1025 61 10000 1 0 08:50 13.06.2019
6217 Clear 10 1025 61 10000 1 0 08:29 13.06.2019
6218 Clear 9 1025 61 10000 1 0 07:59 13.06.2019
6219 Clear 9 1025 66 10000 1.5 0 07:30 13.06.2019
6220 Clear 9 1025 66 10000 2.1 70 06:52 13.06.2019
6221 Clear 8 1025 70 10000 3.1 100 06:24 13.06.2019
6222 Clear 8 1025 70 10000 3.6 100 05:57 13.06.2019
6223 Clear 8 1025 70 10000 3.6 100 05:37 13.06.2019
6224 Clear 6 1028 77 0 7.25 79.751 04:59 13.06.2019
6225 Clear 7 1026 75 10000 4.6 120 03:28 13.06.2019
6226 Clear 7 1027 70 10000 2.1 80 01:43 13.06.2019
6227 Clear 6 1027 81 10000 2.6 90 00:29 13.06.2019
6228 Clear 7 1027 70 10000 3.1 110 23:26 12.06.2019
6229 Clear 7 1027 70 10000 4.1 100 22:58 12.06.2019
6230 Clear 8 1027 70 10000 4.6 90 22:39 12.06.2019
6231 Clear 8 1027 70 10000 4.6 90 22:21 12.06.2019
6232 -273 0 0 0 0 0 21:42 12.06.2019
6233 Clear 7 1027 70 10000 5.1 90 21:42 12.06.2019
6234 Clear 7 1027 70 10000 5.1 90 21:22 12.06.2019
6235 Clear 7 1027 65 10000 5.1 90 20:48 12.06.2019
6236 Clear 7 1027 65 10000 5.1 90 20:48 12.06.2019
6237 Clear 7 1027 65 10000 5.1 90 20:29 12.06.2019
6238 Clear 7 1028 65 10000 5.1 90 19:57 12.06.2019
6239 Clear 7 1028 65 10000 5.1 90 19:57 12.06.2019
6240 Clear 7 1028 65 10000 5.1 90 19:38 12.06.2019
6241 Clear 7 1028 65 10000 5.1 90 19:19 12.06.2019
6242 Clear 7 1028 65 10000 5.1 80 18:44 12.06.2019
6243 Clear 7 1028 65 10000 5.1 80 18:26 12.06.2019
6244 Clouds 8 1028 65 10000 4.1 80 17:47 12.06.2019
6245 Clouds 8 1028 65 10000 4.1 80 17:23 12.06.2019
6246 Clouds 8 1029 65 10000 4.1 80 16:44 12.06.2019
6247 Clouds 8 1029 65 10000 4.1 80 16:25 12.06.2019
6248 Clouds 8 1029 65 10000 2.6 110 15:58 12.06.2019
6249 Clouds 9 1029 65 10000 2.1 80 15:34 12.06.2019
6250 Clouds 8 1029 70 10000 1.5 90 14:59 12.06.2019
6251 Clouds 8 1030 65 10000 2.1 0 14:34 12.06.2019
6252 Clouds 7 1030 70 10000 0.5 0 13:59 12.06.2019
6253 Clouds 7 1030 65 10000 1.5 0 13:41 12.06.2019
6254 Clouds 7 1030 70 10000 2.6 340 13:19 12.06.2019
6255 Clouds 7 1030 70 10000 2.6 350 12:44 12.06.2019
6256 Clouds 7 1030 70 10000 2.6 350 12:22 12.06.2019
6257 Clouds 7 1030 75 10000 3.1 340 11:59 12.06.2019
6258 Clouds 6 1030 75 10000 3.6 320 11:39 12.06.2019
6259 Clouds 7 1030 86 10000 4.1 270 11:21 12.06.2019
6260 Drizzle 7 1030 86 10000 3.6 320 10:44 12.06.2019
6261 Drizzle 7 1030 86 10000 3.6 320 10:21 12.06.2019
6262 Drizzle 6 1029 86 10000 5.1 300 09:43 12.06.2019
6263 Drizzle 6 1029 86 10000 5.1 300 09:23 12.06.2019
6264 Drizzle 5 1029 80 10000 5.1 310 08:46 12.06.2019
6265 Drizzle 5 1029 80 10000 5.1 310 08:20 12.06.2019
6266 Clouds 5 1029 80 10000 5.7 320 07:37 12.06.2019
6267 Clouds 4 1029 86 10000 7.7 310 06:43 12.06.2019
6268 Clouds 4 1029 86 10000 6.2 300 05:27 12.06.2019
6269 Rain 4 1029 86 10000 5.7 290 03:55 12.06.2019
6270 Rain 4 1029 86 10000 6.2 310 01:26 12.06.2019
6271 Clouds 4 1029 86 10000 7.7 290 00:38 12.06.2019
6272 Clouds 4 1029 86 10000 6.7 300 23:45 11.06.2019
6273 Rain 5 1029 86 10000 6.7 300 23:27 11.06.2019
6274 Rain 5 1029 80 10000 7.2 320 22:43 11.06.2019
6275 Rain 6 1029 80 10000 6.7 320 22:19 11.06.2019
6276 Rain 6 1029 80 10000 6.7 320 21:57 11.06.2019
6277 Rain 6 1029 80 10000 8.2 310 21:38 11.06.2019
6278 Rain 6 1028 80 10000 8.7 310 21:19 11.06.2019
6279 Rain 5 1028 80 10000 8.7 310 20:48 11.06.2019
6280 Rain 5 1028 80 10000 8.7 310 20:25 11.06.2019
6281 Rain 5 1028 80 10000 8.7 310 20:25 11.06.2019
6282 Rain 5 1028 80 10000 8.7 310 19:55 11.06.2019
6283 Rain 5 1028 80 10000 8.7 310 19:33 11.06.2019
6284 Rain 5 1028 80 10000 8.7 310 18:57 11.06.2019
6285 Rain 5 1028 80 10000 8.7 310 18:56 11.06.2019
6286 Rain 4 1028 86 10000 9.8 300 18:22 11.06.2019
6287 Rain 7 1028 75 10000 8.7 280 17:42 11.06.2019
6288 Rain 7 1028 75 10000 8.7 280 17:24 11.06.2019
6289 Rain 6 1028 80 10000 8.7 290 16:59 11.06.2019
6290 Rain 6 1028 80 10000 8.7 290 16:40 11.06.2019
6291 Rain 6 1028 80 10000 8.7 290 16:22 11.06.2019
6292 Clouds 5 1028 86 10000 5.7 320 15:42 11.06.2019
6293 Rain 7 1028 70 10000 7.2 310 15:24 11.06.2019
6294 Rain 7 1028 70 10000 7.2 310 14:52 11.06.2019
6295 Clouds 7 1028 70 10000 7.2 310 14:23 11.06.2019
6296 Clouds 7 1028 70 10000 7.2 310 14:23 11.06.2019
6297 Clouds 6 1028 70 10000 8.7 300 13:56 11.06.2019
6298 Rain 6 1028 70 10000 8.2 310 13:36 11.06.2019
6299 Clouds 5 1028 70 10000 8.2 310 13:18 11.06.2019
6300 Clouds 6 1027 75 10000 6.7 290 12:40 11.06.2019
6301 Clouds 6 1027 75 10000 6.7 290 12:21 11.06.2019
6302 Clouds 5 1027 75 10000 8.2 310 11:40 11.06.2019
6303 Clouds 5 1027 75 10000 8.2 310 11:20 11.06.2019
6304 Clouds 5 1027 80 10000 8.2 350 10:47 11.06.2019
6305 Clouds 5 1027 80 10000 8.2 350 10:26 11.06.2019
6306 Clouds 4 1026 80 10000 8.2 320 09:50 11.06.2019
6307 Drizzle 4 1026 72 10000 7.7 310 09:25 11.06.2019
6308 Clouds 5 1026 72 10000 7.7 330 08:47 11.06.2019
6309 Clouds 5 1026 72 10000 7.7 330 08:29 11.06.2019
6310 Clouds 4 1025 72 10000 7.2 330 07:55 11.06.2019
6311 Snow 3 1025 72 10000 8.2 350 07:31 11.06.2019
6312 Rain 3 1025 86 10000 7.2 350 06:51 11.06.2019
6313 Clouds 2 1024 71 10000 7.2 360 05:00 11.06.2019
6314 Rain 2 1024 71 10000 6.7 10 03:47 11.06.2019
6315 Clouds 3 1022 74 10000 8.2 360 01:43 11.06.2019
6316 Clouds 2 1022 80 10000 7.2 10 00:49 11.06.2019
6317 Clouds 2 1022 80 10000 7.2 10 00:23 11.06.2019
6318 Clouds 3 1021 74 10000 8.2 20 23:41 10.06.2019
6319 Rain 3 1020 70 10000 8.7 20 23:19 10.06.2019
6320 Snow 3 1020 80 10000 9.8 30 22:42 10.06.2019
6321 Snow 3 1020 80 10000 9.8 30 22:24 10.06.2019
6322 Rain 4 1019 70 10000 8.7 30 21:41 10.06.2019
6323 Rain 4 1019 70 10000 8.7 30 21:41 10.06.2019
6324 Rain 4 1019 71 10000 8.7 30 21:23 10.06.2019
6325 Rain 3 1019 93 10000 10.3 40 20:59 10.06.2019
6326 Rain 3 1019 71 10000 8.2 20 20:40 10.06.2019
6327 Rain 3 1019 71 10000 8.2 20 20:20 10.06.2019
6328 Rain 2 1018 93 10000 8.2 40 19:43 10.06.2019
6329 Rain 2 1018 93 10000 8.2 40 19:22 10.06.2019
6330 Rain 1 1018 71 10000 8.2 50 18:56 10.06.2019
6331 Rain 3 1017 86 10000 9.3 50 18:38 10.06.2019
6332 Clouds 3 1017 86 10000 10.8 50 18:19 10.06.2019
6333 Rain 3 1016 93 10000 12.3 50 17:43 10.06.2019
6334 Rain 3 1016 93 10000 12.3 50 17:23 10.06.2019
6335 Rain 3 1015 93 10000 10.3 40 16:48 10.06.2019
6336 Rain 3 1015 93 10000 10.3 40 16:30 10.06.2019
6337 Rain 4 1015 93 10000 10.3 40 15:57 10.06.2019
6338 Rain 3 1014 93 10000 11.8 50 15:38 10.06.2019
6339 Rain 3 1014 93 9000 11.3 50 15:19 10.06.2019
6340 Clouds 2 1014 93 8000 12.3 50 14:41 10.06.2019
6341 Clouds 2 1014 93 8000 12.3 50 14:22 10.06.2019
6342 Clouds 1 1013 100 5000 12.3 50 13:45 10.06.2019
6343 Clouds 1 1013 100 5000 12.3 50 13:24 10.06.2019
6344 Clouds 1 1013 100 3000 11.3 50 12:53 10.06.2019
6345 Snow 1 1012 75 3000 12.3 60 12:30 10.06.2019
6346 Snow 1 1012 79 3000 12.9 60 11:54 10.06.2019
6347 Snow 1 1012 100 2500 13.4 60 11:30 10.06.2019
6348 Snow 1 1011 79 2500 13.4 60 10:59 10.06.2019
6349 Snow 1 1011 79 2000 13.4 70 10:41 10.06.2019
6350 Snow 1 1011 79 2000 14.4 70 10:19 10.06.2019
6351 Snow 1 1011 79 2000 14.4 70 09:51 10.06.2019
6352 Clouds 1 1010 79 1500 13.4 70 09:29 10.06.2019
6353 Clouds 1 1010 80 2000 14.9 80 08:50 10.06.2019
6354 Clouds 2 1010 93 3000 14.4 80 08:27 10.06.2019
6355 Rain 2 1010 93 9000 16.5 90 07:42 10.06.2019
6356 Rain 2 1009 93 7000 15.4 90 04:43 10.06.2019
6357 Rain 2 1009 93 8000 15.4 90 03:29 10.06.2019
6358 Rain 3 1009 93 10000 14.9 90 01:56 10.06.2019
6359 Rain 3 1010 93 10000 12.3 90 01:22 10.06.2019
6360 Rain 4 1010 86 10000 12.3 100 00:47 10.06.2019
6361 Rain 4 1010 93 10000 13.9 100 23:49 09.06.2019
6362 Rain 7 1010 93 10000 13.9 100 23:25 09.06.2019
6363 Rain 7 1010 93 10000 14.4 100 22:59 09.06.2019
6364 Rain 7 1010 86 10000 14.4 100 22:39 09.06.2019
6365 Rain 7 1010 86 10000 14.4 100 22:21 09.06.2019
6366 Rain 6 1011 86 10000 14.9 100 21:39 09.06.2019
6367 Rain 6 1011 86 10000 14.9 100 21:21 09.06.2019
6368 Rain 6 1011 81 10000 12.9 100 20:42 09.06.2019
6369 Rain 6 1011 81 10000 12.9 100 20:22 09.06.2019
6370 Clouds 6 1012 81 10000 11.3 100 19:46 09.06.2019
6371 Clouds 6 1012 81 10000 12.3 100 19:19 09.06.2019
6372 Clouds 6 1012 81 10000 12.3 100 18:56 09.06.2019
6373 Clouds 6 1012 87 10000 12.3 100 18:37 09.06.2019
6374 Drizzle 6 1013 87 10000 11.3 100 18:19 09.06.2019
6375 Clouds 8 1013 87 10000 12.3 100 17:43 09.06.2019
6376 Clouds 8 1013 87 10000 12.3 100 17:23 09.06.2019
6377 Clouds 9 1013 81 10000 11.3 100 16:41 09.06.2019
6378 Clouds 9 1013 81 10000 11.3 100 16:21 09.06.2019
6379 Clouds 8 1014 81 10000 10.8 100 15:56 09.06.2019
6380 Clouds 9 1014 75 10000 10.8 100 15:38 09.06.2019
6381 Clouds 9 1014 75 10000 11.8 100 15:20 09.06.2019
6382 Clouds 7 1015 81 10000 12.3 100 14:42 09.06.2019
6383 Clouds 7 1015 81 10000 12.3 100 14:21 09.06.2019
6384 Clouds 7 1016 81 10000 10.8 100 13:50 09.06.2019
6385 Clouds 7 1016 81 10000 10.8 100 13:22 09.06.2019
6386 Clouds 7 1016 81 10000 11.8 100 12:41 09.06.2019
6387 Clouds 7 1016 81 10000 11.8 100 12:22 09.06.2019
6388 Clouds 7 1016 81 10000 10.8 100 11:39 09.06.2019
6389 Clouds 7 1016 81 10000 10.8 100 11:21 09.06.2019
6390 Clouds 7 1017 81 10000 10.3 100 10:45 09.06.2019
6391 Clouds 7 1017 81 10000 10.3 100 10:23 09.06.2019
6392 Clouds 6 1017 87 10000 9.8 100 09:41 09.06.2019
6393 Clouds 6 1017 87 10000 9.8 100 09:41 09.06.2019
6394 Clouds 6 1017 87 10000 9.8 100 09:22 09.06.2019
6395 Clouds 6 1017 87 10000 9.3 90 08:55 09.06.2019
6396 Clouds 6 1017 87 10000 8.7 90 08:36 09.06.2019
6397 Clouds 5 1017 93 10000 8.2 90 07:28 09.06.2019
6398 Clouds 5 1017 93 10000 9.3 90 06:30 09.06.2019
6399 Clouds 5 1017 93 10000 9.3 90 06:30 09.06.2019
6400 Rain 5 1017 93 10000 8.2 90 05:28 09.06.2019
6401 Drizzle 5 1016 93 3800 8.7 80 01:46 09.06.2019
6402 Drizzle 5 1016 93 6000 8.2 90 01:22 09.06.2019
6403 Drizzle 5 1016 93 6000 8.2 90 00:59 09.06.2019
6404 Mist 5 1016 100 8000 9.8 90 00:19 09.06.2019
6405 Drizzle 5 1015 100 5000 8.2 80 23:38 08.06.2019
6406 Drizzle 5 1015 100 4700 8.2 80 23:20 08.06.2019
6407 Drizzle 6 1015 93 2700 7.7 80 22:43 08.06.2019
6408 Drizzle 6 1015 93 2700 7.7 80 22:25 08.06.2019
6409 Drizzle 6 1015 93 5000 6.7 70 21:52 08.06.2019
6410 Mist 6 1014 100 10000 3.1 70 21:34 08.06.2019
6411 Rain 6 1014 100 10000 1.5 60 20:59 08.06.2019
6412 Rain 7 1014 93 10000 2.1 20 20:40 08.06.2019
6413 Rain 6 1014 100 10000 2.1 50 20:21 08.06.2019
6414 Mist 6 1013 100 6000 1.5 10 19:42 08.06.2019
6415 Mist 6 1013 100 6000 1.5 10 19:22 08.06.2019
6416 Rain 7 1013 93 10000 2.6 340 18:58 08.06.2019
6417 Rain 7 1013 100 10000 2.6 350 18:39 08.06.2019
6418 Rain 7 1013 100 10000 2.6 340 18:18 08.06.2019
6419 Rain 7 1013 100 9000 1.5 330 17:41 08.06.2019
6420 Drizzle 7 1013 100 600 2.1 340 17:19 08.06.2019
6421 Rain 8 1013 93 4300 1 0 16:45 08.06.2019
6422 Fog 7 1013 100 300 4.1 330 16:21 08.06.2019
6423 Fog 8 1013 100 300 3.1 320 15:40 08.06.2019
6424 Fog 8 1013 100 300 3.1 320 15:40 08.06.2019
6425 Fog 8 1013 100 300 3.1 320 15:21 08.06.2019
6426 Rain 8 1012 100 4500 4.1 280 14:42 08.06.2019
6427 Rain 8 1012 100 4500 4.1 280 14:24 08.06.2019
6428 Rain 9 1012 93 10000 4.1 250 13:38 08.06.2019
6429 Rain 9 1012 87 10000 3.1 260 12:47 08.06.2019
6430 Rain 9 1012 87 10000 3.1 260 12:27 08.06.2019
6431 Clouds 10 1012 87 10000 2.1 240 11:44 08.06.2019
6432 Clouds 10 1012 87 10000 2.1 240 11:24 08.06.2019
6433 Clouds 11 1011 81 10000 1.5 0 10:45 08.06.2019
6434 Clouds 11 1011 81 10000 1.5 0 10:24 08.06.2019
6435 Clouds 10 1012 87 10000 2.6 250 09:52 08.06.2019
6436 Clouds 10 1012 81 10000 5.1 270 09:25 08.06.2019
6437 Clouds 9 1011 87 10000 4.1 260 08:38 08.06.2019
6438 Clouds 11 1011 81 10000 2.6 270 08:18 08.06.2019
6439 Clear 10 1011 81 10000 1.5 360 06:51 08.06.2019
6440 Clear 9 1011 87 10000 6.84 61.277 05:53 08.06.2019
6441 Clear 9 1011 87 10000 3.1 80 03:33 08.06.2019
6442 Clouds 10 1011 81 10000 2.1 230 01:59 08.06.2019
6443 Clear 12 1011 76 10000 3.6 70 00:29 08.06.2019
6444 Clear 13 1011 71 10000 2.1 90 23:52 07.06.2019
6445 Clear 11 1012 76 10000 1.5 60 23:21 07.06.2019
6446 Clear 10 1012 71 10000 2.1 100 22:48 07.06.2019
6447 Clear 10 1012 71 10000 2.1 100 22:30 07.06.2019
6448 Clear 11 1012 76 10000 2.6 80 21:54 07.06.2019
6449 Clear 11 1011 76 10000 2.6 110 21:31 07.06.2019
6450 Clear 11 1012 76 10000 1.5 150 20:57 07.06.2019
6451 Clear 14 1011 71 10000 2.6 100 20:38 07.06.2019
6452 Clear 14 1011 71 10000 2.6 100 20:38 07.06.2019
6453 Clear 14 1012 71 10000 3.1 100 19:52 07.06.2019
6454 Clear 13 1012 71 10000 4.6 100 19:27 07.06.2019
6455 Clear 13 1012 71 10000 5.1 70 18:59 07.06.2019
6456 Clear 14 1012 67 10000 4.1 80 18:37 07.06.2019
6457 Clear 16 1012 59 10000 5.7 70 18:19 07.06.2019
6458 Clear 15 1012 62 10000 5.7 80 17:41 07.06.2019
6459 Clear 15 1012 63 10000 4.1 100 17:19 07.06.2019
6460 Rain 15 1013 63 10000 3.6 120 16:40 07.06.2019
6461 Rain 15 1013 67 10000 5.1 110 15:54 07.06.2019
6462 Rain 15 1013 62 10000 5.1 120 15:28 07.06.2019
6463 Clear 16 1014 59 10000 5.1 150 14:49 07.06.2019
6464 Clear 16 1014 59 10000 5.1 150 14:27 07.06.2019
6465 Clear 15 1014 62 10000 7.2 160 13:53 07.06.2019
6466 Clear 15 1014 62 10000 7.2 160 13:27 07.06.2019
6467 Clear 14 1014 67 10000 8.2 160 12:51 07.06.2019
6468 Clear 14 1014 67 10000 8.2 160 12:51 07.06.2019
6469 Clear 14 1014 62 10000 9.3 150 12:25 07.06.2019
6470 Clear 13 1015 66 10000 10.8 150 11:57 07.06.2019
6471 Clear 12 1015 71 10000 10.8 150 11:34 07.06.2019
6472 Clear 11 1016 76 10000 10.8 140 10:59 07.06.2019
6473 Clear 11 1016 76 10000 9.8 130 10:41 07.06.2019
6474 Clouds 12 1016 76 10000 8.2 130 10:19 07.06.2019
6475 Clouds 12 1017 76 10000 7.2 120 09:46 07.06.2019
6476 Clouds 12 1017 76 10000 7.2 120 09:21 07.06.2019
6477 Clouds 11 1017 76 10000 5.7 110 08:45 07.06.2019
6478 Clouds 11 1017 76 10000 5.7 110 08:26 07.06.2019
6479 Clouds 9 1018 81 10000 5.1 130 07:48 07.06.2019
6480 Clouds 9 1018 81 10000 5.1 130 07:22 07.06.2019
6481 Clouds 7 1019 93 10000 5.7 140 06:47 07.06.2019
6482 Clouds 7 1019 93 10000 5.7 140 06:23 07.06.2019
6483 Clouds 6 1019 93 10000 3.1 130 05:43 07.06.2019
6484 Clouds 6 1020 93 10000 5.1 90 02:32 07.06.2019
6485 Clouds 5 1020 100 10000 5.1 90 01:36 07.06.2019
6486 Clouds 5 1020 100 10000 5.1 80 00:45 07.06.2019
6487 Clouds 5 1020 100 10000 6.2 70 23:46 06.06.2019
6488 Clouds 5 1020 100 10000 6.2 70 23:46 06.06.2019
6489 Clouds 7 1020 100 10000 6.2 70 23:24 06.06.2019
6490 Drizzle 7 1019 100 10000 5.7 50 22:57 06.06.2019
6491 Clouds 7 1019 100 8000 6.2 70 22:36 06.06.2019
6492 Clouds 7 1019 100 8000 6.2 70 22:36 06.06.2019
6493 Mist 7 1019 100 3500 4.6 50 22:18 06.06.2019
6494 Mist 7 1019 100 2800 3.6 70 21:45 06.06.2019
6495 Mist 7 1019 100 2800 3.6 70 21:22 06.06.2019
6496 Mist 7 1018 100 2000 4.1 70 20:55 06.06.2019
6497 Fog 7 1018 93 900 2.6 90 20:33 06.06.2019
6498 Fog 8 1018 93 8000 2.6 20 19:58 06.06.2019
6499 Clouds 8 1018 93 8000 6.2 350 19:37 06.06.2019
6500 Clouds 8 1017 93 9000 5.7 350 19:18 06.06.2019
6501 Clouds 8 1017 93 8000 6.7 350 18:43 06.06.2019
6502 Clouds 8 1017 93 8000 6.7 350 18:22 06.06.2019
6503 Rain 8 1016 93 10000 6.7 340 17:48 06.06.2019
6504 Rain 8 1016 93 10000 6.7 340 17:24 06.06.2019
6505 Fog 9 1015 87 10000 7.7 340 16:49 06.06.2019
6506 Fog 9 1015 87 10000 7.7 340 16:28 06.06.2019
6507 Fog 9 1015 93 10000 7.7 330 15:59 06.06.2019
6508 Rain 9 1014 81 10000 6.7 330 15:38 06.06.2019
6509 Rain 10 1014 76 10000 6.7 300 15:19 06.06.2019
6510 Clouds 11 1013 87 10000 7.2 280 14:41 06.06.2019
6511 Rain 10 1013 87 10000 6.7 290 14:20 06.06.2019
6512 Rain 11 1013 87 10000 6.2 280 13:49 06.06.2019
6513 Rain 11 1013 87 10000 6.2 280 13:30 06.06.2019
6514 Clouds 9 1012 93 10000 4.6 270 12:48 06.06.2019
6515 Clouds 9 1012 93 10000 4.6 270 12:28 06.06.2019
6516 Rain 10 1012 93 10000 3.1 250 11:57 06.06.2019
6517 Drizzle 10 1012 100 10000 3.1 220 11:39 06.06.2019
6518 Drizzle 10 1012 100 10000 3.1 220 11:20 06.06.2019
6519 Drizzle 10 1012 93 10000 2.1 190 10:45 06.06.2019
6520 Drizzle 10 1012 93 10000 2.1 190 10:25 06.06.2019
6521 Drizzle 10 1012 93 10000 2.1 190 10:25 06.06.2019
6522 Rain 10 1012 93 10000 1.5 0 09:44 06.06.2019
6523 Rain 10 1012 93 10000 1.5 0 09:24 06.06.2019
6524 Rain 10 1012 87 10000 4.6 200 08:50 06.06.2019
6525 Drizzle 10 1012 81 10000 6.2 210 08:24 06.06.2019
6526 Rain 11 1013 76 10000 8.2 200 07:53 06.06.2019
6527 Rain 12 1013 66 10000 7.2 190 07:25 06.06.2019
6528 Clear 10 1013 76 10000 5.1 170 06:48 06.06.2019
6529 Clear 10 1014 76 10000 5.7 180 05:38 06.06.2019
6530 Clouds 9 1014 76 10000 3.6 170 04:33 06.06.2019
6531 Clear 8 1016 81 10000 5.1 120 02:21 06.06.2019
6532 Clear 8 1016 81 10000 4.1 120 01:48 06.06.2019
6533 Clear 6 1017 93 10000 3.1 150 00:49 06.06.2019
6534 Clear 6 1017 93 10000 3.1 150 00:29 06.06.2019
6535 Clear 6 1017 93 10000 3.1 110 23:41 05.06.2019
6536 Clear 8 1017 87 10000 1.5 150 23:20 05.06.2019
6537 Clear 7 1017 93 10000 1.5 200 22:42 05.06.2019
6538 Clear 7 1017 93 10000 1.5 200 22:22 05.06.2019
6539 Clouds 6 1018 93 10000 2.6 260 21:45 05.06.2019
6540 Clouds 6 1018 93 10000 2.6 260 21:26 05.06.2019
6541 Clouds 7 1018 93 10000 2.6 270 20:56 05.06.2019
6542 Clouds 6 1018 87 10000 2.6 240 20:37 05.06.2019
6543 Clouds 6 1018 87 10000 2.6 230 20:19 05.06.2019
6544 Clouds 6 1018 87 10000 2.6 210 19:41 05.06.2019
6545 Clouds 6 1018 87 10000 4.6 60 19:19 05.06.2019
6546 Clouds 5 1018 93 10000 3.1 210 18:42 05.06.2019
6547 Clouds 5 1018 93 10000 3.1 210 18:23 05.06.2019
6548 Clouds 6 1018 93 10000 3.1 230 17:46 05.06.2019
6549 Clouds 6 1018 93 10000 3.1 230 17:22 05.06.2019
6550 Drizzle 6 1017 93 10000 2.1 240 16:42 05.06.2019
6551 Drizzle 7 1017 86 10000 2.97 60.987 16:19 05.06.2019
6552 Clouds 7 1017 81 10000 0.5 0 15:48 05.06.2019
6553 Clouds 7 1017 81 10000 0.5 0 15:27 05.06.2019
6554 Clouds 7 1017 81 10000 2.97 45.437 14:59 05.06.2019
6555 Clouds 8 1016 75 10000 1 0 14:38 05.06.2019
6556 Rain 8 1016 75 10000 2.97 45.437 14:19 05.06.2019
6557 Rain 8 1016 75 10000 1.5 0 13:41 05.06.2019
6558 Rain 8 1016 75 10000 1.5 0 13:21 05.06.2019
6559 Clouds 7 1016 81 10000 1.5 350 12:49 05.06.2019
6560 Clouds 7 1016 81 10000 1.5 350 12:24 05.06.2019
6561 Clouds 7 1016 81 10000 1.5 0 11:57 05.06.2019
6562 Clouds 6 1015 81 10000 2.1 90 11:38 05.06.2019
6563 Clouds 7 1015 81 10000 1.5 110 11:19 05.06.2019
6564 Clouds 7 1015 80 10000 2.1 90 10:41 05.06.2019
6565 Clouds 7 1015 86 10000 2.1 80 10:18 05.06.2019
6566 Clouds 7 1014 86 10000 2.6 70 09:42 05.06.2019
6567 Clouds 7 1014 86 10000 2.6 70 09:23 05.06.2019
6568 Clouds 7 1014 80 10000 2.6 70 08:26 05.06.2019
6569 Clouds 5 1013 86 10000 2.6 70 07:43 05.06.2019
6570 Clouds 5 1013 86 10000 3.1 60 06:56 05.06.2019
6571 Clouds 5 1013 86 10000 3.1 40 06:24 05.06.2019
6572 Clouds 5 1012 86 10000 3.1 50 05:50 05.06.2019
6573 Clouds 5 1011 86 10000 3.1 50 03:32 05.06.2019
6574 Clouds 5 1010 93 10000 3.6 10 01:33 05.06.2019
6575 Drizzle 5 1010 93 10000 4.1 350 00:50 05.06.2019
6576 Drizzle 5 1010 93 10000 4.1 350 00:28 05.06.2019
6577 Clouds 7 1009 93 10000 3.6 350 23:46 04.06.2019
6578 Clouds 7 1009 93 10000 3.6 350 23:25 04.06.2019
6579 Clouds 7 1009 87 10000 3.1 10 22:58 04.06.2019
6580 Clouds 8 1009 87 10000 3.6 30 22:38 04.06.2019
6581 Clouds 8 1008 87 10000 3.1 50 22:18 04.06.2019
6582 Clouds 8 1008 87 10000 3.6 60 21:49 04.06.2019
6583 Clouds 8 1008 87 10000 3.6 60 21:26 04.06.2019
6584 Clouds 6 1008 87 10000 3.1 20 20:59 04.06.2019
6585 Clouds 7 1008 81 10000 4.1 40 20:37 04.06.2019
6586 Clouds 9 1007 81 10000 3.6 50 20:18 04.06.2019
6587 Clouds 9 1007 81 10000 3.6 50 19:43 04.06.2019
6588 Clouds 9 1007 81 10000 3.6 50 19:23 04.06.2019
6589 Clouds 9 1007 70 10000 2.6 20 18:44 04.06.2019
6590 Clouds 9 1007 70 10000 2.6 20 18:25 04.06.2019
6591 Clouds 11 1006 76 10000 2.1 30 17:48 04.06.2019
6592 Clouds 11 1006 76 10000 2.1 30 17:27 04.06.2019
6593 Clouds 11 1006 66 10000 3.6 70 16:50 04.06.2019
6594 Clouds 11 1006 66 10000 3.6 70 16:26 04.06.2019
6595 Clouds 12 1006 62 10000 3.1 70 15:45 04.06.2019
6596 Clouds 12 1006 62 10000 3.1 70 15:27 04.06.2019
6597 Clouds 12 1006 66 10000 1.5 40 14:50 04.06.2019
6598 Clouds 12 1006 62 10000 2.1 80 14:22 04.06.2019
6599 Clouds 12 1006 62 10000 2.1 80 13:58 04.06.2019
6600 Clear 12 1006 62 10000 2.1 80 13:40 04.06.2019
6601 Clear 12 1006 54 10000 2.1 60 13:19 04.06.2019
6602 Clear 11 1006 58 10000 2.6 190 12:39 04.06.2019
6603 Clear 11 1006 58 10000 2.6 190 12:21 04.06.2019
6604 Clear 11 1006 58 10000 2.6 180 11:42 04.06.2019
6605 Clear 11 1006 58 10000 3.6 210 11:20 04.06.2019
6606 Clouds 11 1006 58 10000 3.1 180 10:46 04.06.2019
6607 Clear 11 1006 58 10000 2.6 180 10:20 04.06.2019
6608 Clear 11 1006 62 10000 2.1 170 09:43 04.06.2019
6609 Clear 11 1006 62 10000 2.1 170 09:21 04.06.2019
6610 Clear 11 1006 61 10000 3.6 150 08:50 04.06.2019
6611 Clear 11 1006 61 10000 3.6 150 08:31 04.06.2019
6612 Clear 10 1006 66 10000 5.1 190 07:58 04.06.2019
6613 Clear 9 1006 66 10000 5.1 190 07:39 04.06.2019
6614 Clear 9 1006 66 10000 5.1 200 07:18 04.06.2019
6615 Clear 9 1006 66 10000 6.2 200 06:41 04.06.2019
6616 Clear 9 1006 66 10000 6.2 200 06:22 04.06.2019
6617 Clear 9 1007 66 10000 7.7 190 05:35 04.06.2019
6618 Clouds 9 1007 61 10000 8.2 190 04:35 04.06.2019
6619 Clear 8 1007 65 10000 8.7 190 03:56 04.06.2019
6620 Clear 6 1008 74 10000 4.6 170 02:43 04.06.2019
6621 Clear 6 1008 74 10000 4.6 170 02:24 04.06.2019
6622 Clear 5 1009 74 10000 4.6 140 01:30 04.06.2019
6623 Clear 5 1009 75 10000 5.1 130 00:39 04.06.2019
6624 Clear 5 1010 74 10000 5.1 120 23:58 03.06.2019
6625 Clear 5 1010 74 10000 5.1 120 23:36 03.06.2019
6626 Clear 5 1010 75 10000 5.7 110 23:18 03.06.2019
6627 Clear 7 1010 75 10000 5.1 100 22:43 03.06.2019
6628 Clear 7 1010 75 10000 5.1 100 22:24 03.06.2019
6629 Clear 7 1010 75 10000 5.1 90 21:55 03.06.2019
6630 Clear 7 1010 75 10000 5.1 90 21:37 03.06.2019
6631 Clear 6 1011 80 10000 6.2 90 21:18 03.06.2019
6632 Clear 7 1011 75 10000 5.7 90 20:40 03.06.2019
6633 Clear 7 1011 71 10000 5.7 90 20:21 03.06.2019
6634 Clear 7 1011 71 10000 5.7 90 19:56 03.06.2019
6635 Clear 7 1011 71 10000 5.7 90 19:37 03.06.2019
6636 Clear 5 1012 71 10000 5.7 90 19:18 03.06.2019
6637 Clear 5 1012 75 10000 5.1 80 18:44 03.06.2019
6638 Clear 5 1012 75 10000 5.1 80 18:24 03.06.2019
6639 Clear 5 1013 75 10000 4.6 80 17:48 03.06.2019
6640 Clear 5 1013 75 10000 4.6 80 17:28 03.06.2019
6641 Clouds 7 1013 67 10000 3.6 80 16:59 03.06.2019
6642 Clouds 7 1013 67 10000 3.6 90 16:37 03.06.2019
6643 Clouds 7 1014 67 10000 3.1 90 16:18 03.06.2019
6644 Clouds 7 1014 75 10000 4.1 80 15:44 03.06.2019
6645 Clouds 7 1014 75 10000 4.1 80 15:24 03.06.2019
6646 Clouds 6 1014 64 10000 3.6 80 14:48 03.06.2019
6647 Clouds 6 1014 64 10000 3.6 80 14:26 03.06.2019
6648 Rain 4 1014 64 10000 3.1 80 13:43 03.06.2019
6649 Rain 4 1014 64 10000 3.1 80 13:21 03.06.2019
6650 Clouds 4 1014 62 10000 1.5 0 12:54 03.06.2019
6651 Clouds 5 1014 62 10000 3.1 350 12:36 03.06.2019
6652 Clouds 4 1014 80 10000 2.6 350 12:18 03.06.2019
6653 Clouds 4 1014 80 10000 2.6 330 11:42 03.06.2019
6654 Clouds 4 1014 80 10000 2.6 330 11:21 03.06.2019
6655 Clouds 3 1014 86 10000 3.6 350 10:43 03.06.2019
6656 Rain 5 1014 86 10000 3.6 350 10:23 03.06.2019
6657 Drizzle 4 1014 86 10000 4.6 340 09:51 03.06.2019
6658 Drizzle 4 1014 86 10000 4.6 340 09:51 03.06.2019
6659 Snow 4 1014 86 10000 4.1 340 09:33 03.06.2019
6660 Rain 4 1014 86 10000 5.1 340 08:46 03.06.2019
6661 Rain 4 1014 86 10000 5.1 340 08:25 03.06.2019
6662 Rain 3 1014 86 10000 5.1 330 07:35 03.06.2019
6663 Snow 2 1014 93 10000 4.1 290 06:45 03.06.2019
6664 Clouds 2 1013 67 10000 5.1 300 03:28 03.06.2019
6665 Rain 2 1012 70 10000 6.2 320 01:49 03.06.2019
6666 Rain 2 1012 70 10000 5.7 330 00:39 03.06.2019
6667 Rain 3 1012 74 10000 7.7 330 00:20 03.06.2019
6668 Rain 3 1012 74 10000 7.7 330 00:20 03.06.2019
6669 Rain 3 1012 74 10000 7.7 330 00:20 03.06.2019
6670 Rain 3 1012 74 10000 7.7 330 23:59 02.06.2019
6671 Clouds 3 1012 74 10000 7.2 340 23:41 02.06.2019
6672 Clouds 4 1012 74 10000 7.2 340 23:23 02.06.2019
6673 Clouds 4 1011 74 10000 7.7 340 22:37 02.06.2019
6674 Rain 4 1011 74 10000 7.7 340 22:18 02.06.2019
6675 Rain 4 1011 74 10000 7.2 340 21:41 02.06.2019
6676 Clouds 4 1011 86 10000 7.7 350 21:19 02.06.2019
6677 Clouds 4 1010 86 10000 7.7 340 20:42 02.06.2019
6678 Clouds 4 1010 86 10000 7.7 340 20:21 02.06.2019
6679 Clouds 3 1010 86 10000 7.7 340 19:56 02.06.2019
6680 Clouds 3 1010 86 10000 8.7 340 19:36 02.06.2019
6681 Clouds 3 1009 86 10000 8.2 350 19:18 02.06.2019
6682 Clouds 3 1009 86 10000 8.2 350 19:18 02.06.2019
6683 Drizzle 3 1009 86 10000 8.7 350 18:41 02.06.2019
6684 Drizzle 3 1009 93 10000 7.7 360 18:19 02.06.2019
6685 Rain 5 1009 86 10000 8.2 350 17:42 02.06.2019
6686 Rain 5 1009 86 10000 8.2 350 17:24 02.06.2019
6687 Drizzle 5 1009 86 10000 7.2 350 16:59 02.06.2019
6688 Drizzle 5 1008 86 10000 7.2 350 16:39 02.06.2019
6689 Drizzle 5 1008 86 10000 7.2 360 16:21 02.06.2019
6690 Drizzle 5 1008 86 6000 7.7 350 15:43 02.06.2019
6691 Drizzle 5 1007 93 5000 7.2 350 15:21 02.06.2019
6692 Drizzle 5 1007 93 5000 7.2 350 14:57 02.06.2019
6693 Clouds 4 1007 86 10000 6.7 340 14:37 02.06.2019
6694 Drizzle 4 1006 86 10000 7.7 350 14:19 02.06.2019
6695 Drizzle 4 1006 86 10000 8.2 350 13:49 02.06.2019
6696 Drizzle 4 1006 86 10000 8.2 350 13:31 02.06.2019
6697 Drizzle 4 1006 86 10000 8.7 350 12:56 02.06.2019
6698 Rain 4 1005 86 10000 9.3 360 12:37 02.06.2019
6699 Rain 4 1005 86 10000 9.3 360 12:18 02.06.2019
6700 Rain 4 1005 86 10000 9.8 360 11:40 02.06.2019
6701 Rain 4 1004 86 10000 9.3 360 11:18 02.06.2019
6702 Rain 4 1004 93 10000 9.8 360 10:44 02.06.2019
6703